Wetterdaten: Donnerstag, 21.12.2017
Datum Zeit Temp. A. Pool Temp. Feuchte A. Luftdruck Regen Wind Richtung Richtung Sonnenschein ET UV Solar Taupunkt Windchill Windben Empfang
21.12.2017 00:00 1,0 C 3,9 C 97 % 1035,2 hPa 0,0 l/m 4,8 km/h (1 Bft) SW 225 0 min 0,000 mm 0,0 UV-I 0 W/m 0,6 C 1,0 C 6,4 km/h (2 Bft) 100,00 %
21.12.2017 00:01 0,9 C 3,9 C 97 % 1035,2 hPa 0,0 l/m 4,8 km/h (1 Bft) W-SW 247 0 min 0,000 mm 0,0 UV-I 0 W/m 0,5 C 0,9 C 6,4 km/h (2 Bft) 86,96 %
21.12.2017 00:02 1,0 C 3,9 C 97 % 1035,3 hPa 0,0 l/m 6,4 km/h (2 Bft) SW 225 0 min 0,000 mm 0,0 UV-I 0 W/m 0,6 C 1,0 C 9,7 km/h (2 Bft) 91,30 %
21.12.2017 00:03 1,0 C 3,9 C 97 % 1035,3 hPa 0,0 l/m 8,0 km/h (2 Bft) SW 225 0 min 0,000 mm 0,0 UV-I 0 W/m 0,6 C -0,6 C 12,9 km/h (3 Bft) 91,30 %
21.12.2017 00:04 1,0 C 3,9 C 97 % 1035,2 hPa 0,0 l/m 6,4 km/h (2 Bft) SW 225 0 min 0,000 mm 0,0 UV-I 0 W/m 0,6 C 1,0 C 8,0 km/h (2 Bft) 100,00 %
21.12.2017 00:05 1,0 C 3,9 C 97 % 1035,3 hPa 0,0 l/m 4,8 km/h (1 Bft) SW 225 0 min 0,000 mm 0,0 UV-I 0 W/m 0,6 C 1,0 C 4,8 km/h (1 Bft) 91,30 %
21.12.2017 00:06 1,0 C 3,9 C 97 % 1035,3 hPa 0,0 l/m 4,8 km/h (1 Bft) SW 225 0 min 0,000 mm 0,0 UV-I 0 W/m 0,6 C 1,0 C 6,4 km/h (2 Bft) 91,30 %
21.12.2017 00:07 1,0 C 3,9 C 97 % 1035,2 hPa 0,0 l/m 4,8 km/h (1 Bft) S-SW 202 0 min 0,000 mm 0,0 UV-I 0 W/m 0,6 C 1,0 C 8,0 km/h (2 Bft) 95,65 %
21.12.2017 00:08 1,1 C 3,9 C 97 % 1035,2 hPa 0,0 l/m 8,0 km/h (2 Bft) S-SW 202 0 min 0,000 mm 0,0 UV-I 0 W/m 0,7 C -0,5 C 9,7 km/h (2 Bft) 95,65 %
21.12.2017 00:09 1,1 C 3,9 C 97 % 1035,2 hPa 0,0 l/m 6,4 km/h (2 Bft) S-SW 202 0 min 0,000 mm 0,0 UV-I 0 W/m 0,7 C 1,1 C 8,0 km/h (2 Bft) 91,30 %
21.12.2017 00:10 1,0 C 3,9 C 97 % 1035,2 hPa 0,0 l/m 8,0 km/h (2 Bft) S-SW 202 0 min 0,000 mm 0,0 UV-I 0 W/m 0,6 C -0,6 C 11,3 km/h (2 Bft) 95,65 %
21.12.2017 00:11 1,1 C 3,9 C 97 % 1035,2 hPa 0,0 l/m 8,0 km/h (2 Bft) S-SW 202 0 min 0,000 mm 0,0 UV-I 0 W/m 0,7 C -0,5 C 11,3 km/h (2 Bft) 95,65 %
21.12.2017 00:12 1,1 C 3,9 C 97 % 1035,2 hPa 0,0 l/m 6,4 km/h (2 Bft) SW 225 0 min 0,000 mm 0,0 UV-I 0 W/m 0,7 C 1,1 C 9,7 km/h (2 Bft) 95,65 %
21.12.2017 00:13 1,1 C 3,9 C 97 % 1035,2 hPa 0,0 l/m 4,8 km/h (1 Bft) S-SW 202 0 min 0,000 mm 0,0 UV-I 0 W/m 0,7 C 1,1 C 6,4 km/h (2 Bft) 95,65 %
21.12.2017 00:14 1,1 C 3,9 C 97 % 1035,1 hPa 0,0 l/m 6,4 km/h (2 Bft) S-SW 202 0 min 0,000 mm 0,0 UV-I 0 W/m 0,7 C 1,1 C 8,0 km/h (2 Bft) 95,65 %
21.12.2017 00:15 1,1 C 3,9 C 97 % 1035,1 hPa 0,0 l/m 6,4 km/h (2 Bft) S-SW 202 0 min 0,000 mm 0,0 UV-I 0 W/m 0,7 C 1,1 C 8,0 km/h (2 Bft) 91,30 %
21.12.2017 00:16 1,1 C 3,9 C 97 % 1035,1 hPa 0,0 l/m 4,8 km/h (1 Bft) SW 225 0 min 0,000 mm 0,0 UV-I 0 W/m 0,7 C 1,1 C 6,4 km/h (2 Bft) 91,30 %
21.12.2017 00:17 1,1 C 3,9 C 97 % 1035,1 hPa 0,0 l/m 4,8 km/h (1 Bft) SW 225 0 min 0,000 mm 0,0 UV-I 0 W/m 0,7 C 1,1 C 8,0 km/h (2 Bft) 95,65 %
21.12.2017 00:18 1,1 C 3,9 C 97 % 1035,1 hPa 0,0 l/m 4,8 km/h (1 Bft) SW 225 0 min 0,000 mm 0,0 UV-I 0 W/m 0,7 C 1,1 C 8,0 km/h (2 Bft) 95,65 %
21.12.2017 00:19 1,1 C 3,9 C 97 % 1035,1 hPa 0,0 l/m 6,4 km/h (2 Bft) SW 225 0 min 0,000 mm 0,0 UV-I 0 W/m 0,7 C 1,1 C 8,0 km/h (2 Bft) 95,65 %
21.12.2017 00:20 1,1 C 3,9 C 97 % 1035,1 hPa 0,0 l/m 6,4 km/h (2 Bft) SW 225 0 min 0,000 mm 0,0 UV-I 0 W/m 0,7 C 1,1 C 9,7 km/h (2 Bft) 95,65 %
21.12.2017 00:21 1,1 C 3,9 C 96 % 1035,1 hPa 0,0 l/m 4,8 km/h (1 Bft) W-SW 247 0 min 0,000 mm 0,0 UV-I 0 W/m 0,5 C 1,1 C 6,4 km/h (2 Bft) 100,00 %
21.12.2017 00:22 1,1 C 3,9 C 96 % 1035,0 hPa 0,0 l/m 4,8 km/h (1 Bft) SW 225 0 min 0,000 mm 0,0 UV-I 0 W/m 0,5 C 1,1 C 6,4 km/h (2 Bft) 95,65 %
21.12.2017 00:23 1,1 C 3,9 C 96 % 1035,1 hPa 0,0 l/m 4,8 km/h (1 Bft) S-SW 202 0 min 0,000 mm 0,0 UV-I 0 W/m 0,5 C 1,1 C 6,4 km/h (2 Bft) 95,65 %
21.12.2017 00:24 1,1 C 3,9 C 96 % 1035,1 hPa 0,0 l/m 4,8 km/h (1 Bft) W-SW 247 0 min 0,000 mm 0,0 UV-I 0 W/m 0,5 C 1,1 C 4,8 km/h (1 Bft) 95,65 %
21.12.2017 00:25 1,1 C 3,9 C 96 % 1035,1 hPa 0,0 l/m 4,8 km/h (1 Bft) SW 225 0 min 0,000 mm 0,0 UV-I 0 W/m 0,5 C 1,1 C 6,4 km/h (2 Bft) 100,00 %
21.12.2017 00:26 1,1 C 3,9 C 96 % 1035,1 hPa 0,0 l/m 3,2 km/h (1 Bft) SW 225 0 min 0,000 mm 0,0 UV-I 0 W/m 0,5 C 1,1 C 4,8 km/h (1 Bft) 100,00 %
21.12.2017 00:27 1,1 C 3,9 C 96 % 1035,1 hPa 0,0 l/m 4,8 km/h (1 Bft) SW 225 0 min 0,000 mm 0,0 UV-I 0 W/m 0,5 C 1,1 C 6,4 km/h (2 Bft) 100,00 %
21.12.2017 00:28 1,1 C 3,9 C 96 % 1035,0 hPa 0,0 l/m 6,4 km/h (2 Bft) W-SW 247 0 min 0,000 mm 0,0 UV-I 0 W/m 0,5 C 1,1 C 8,0 km/h (2 Bft) 95,65 %
21.12.2017 00:29 1,1 C 3,9 C 96 % 1035,1 hPa 0,0 l/m 4,8 km/h (1 Bft) SW 225 0 min 0,000 mm 0,0 UV-I 0 W/m 0,5 C 1,1 C 6,4 km/h (2 Bft) 100,00 %
21.12.2017 00:30 1,1 C 3,9 C 96 % 1035,1 hPa 0,0 l/m 4,8 km/h (1 Bft) SW 225 0 min 0,000 mm 0,0 UV-I 0 W/m 0,5 C 1,1 C 6,4 km/h (2 Bft) 91,30 %
21.12.2017 00:31 1,0 C 3,9 C 97 % 1035,0 hPa 0,0 l/m 4,8 km/h (1 Bft) SW 225 0 min 0,000 mm 0,0 UV-I 0 W/m 0,6 C 1,0 C 6,4 km/h (2 Bft) 100,00 %
21.12.2017 00:32 1,0 C 3,9 C 97 % 1035,0 hPa 0,0 l/m 4,8 km/h (1 Bft) SW 225 0 min 0,000 mm 0,0 UV-I 0 W/m 0,6 C 1,0 C 6,4 km/h (2 Bft) 100,00 %
21.12.2017 00:33 1,0 C 3,9 C 97 % 1035,0 hPa 0,0 l/m 3,2 km/h (1 Bft) W-SW 247 0 min 0,000 mm 0,0 UV-I 0 W/m 0,6 C 1,0 C 6,4 km/h (2 Bft) 100,00 %
21.12.2017 00:34 1,0 C 3,9 C 96 % 1035,0 hPa 0,0 l/m 3,2 km/h (1 Bft) W 270 0 min 0,000 mm 0,0 UV-I 0 W/m 0,4 C 1,0 C 4,8 km/h (1 Bft) 95,65 %
21.12.2017 00:35 1,0 C 3,9 C 96 % 1035,0 hPa 0,0 l/m 3,2 km/h (1 Bft) W 270 0 min 0,000 mm 0,0 UV-I 0 W/m 0,4 C 1,0 C 4,8 km/h (1 Bft) 100,00 %
21.12.2017 00:36 1,0 C 3,9 C 96 % 1035,0 hPa 0,0 l/m 4,8 km/h (1 Bft) W 270 0 min 0,000 mm 0,0 UV-I 0 W/m 0,4 C 1,0 C 6,4 km/h (2 Bft) 100,00 %
21.12.2017 00:37 0,9 C 3,9 C 96 % 1035,1 hPa 0,0 l/m 4,8 km/h (1 Bft) W 270 0 min 0,000 mm 0,0 UV-I 0 W/m 0,3 C 0,9 C 6,4 km/h (2 Bft) 95,65 %
21.12.2017 00:38 0,9 C 3,9 C 96 % 1035,1 hPa 0,0 l/m 4,8 km/h (1 Bft) W 270 0 min 0,000 mm 0,0 UV-I 0 W/m 0,3 C 0,9 C 4,8 km/h (1 Bft) 100,00 %
21.12.2017 00:39 0,9 C 3,9 C 96 % 1035,1 hPa 0,0 l/m 3,2 km/h (1 Bft) W-NW 292 0 min 0,000 mm 0,0 UV-I 0 W/m 0,3 C 0,9 C 4,8 km/h (1 Bft) 100,00 %
21.12.2017 00:40 0,9 C 3,9 C 97 % 1035,0 hPa 0,0 l/m 3,2 km/h (1 Bft) W-NW 292 0 min 0,000 mm 0,0 UV-I 0 W/m 0,5 C 0,9 C 4,8 km/h (1 Bft) 100,00 %
21.12.2017 00:41 0,9 C 3,9 C 97 % 1035,0 hPa 0,0 l/m 1,6 km/h (1 Bft) W-NW 292 0 min 0,000 mm 0,0 UV-I 0 W/m 0,5 C 0,9 C 3,2 km/h (1 Bft) 100,00 %
21.12.2017 00:42 0,9 C 3,9 C 97 % 1035,0 hPa 0,0 l/m 3,2 km/h (1 Bft) W-NW 292 0 min 0,000 mm 0,0 UV-I 0 W/m 0,5 C 0,9 C 4,8 km/h (1 Bft) 100,00 %
21.12.2017 00:43 0,9 C 3,9 C 97 % 1035,0 hPa 0,0 l/m 3,2 km/h (1 Bft) W 270 0 min 0,000 mm 0,0 UV-I 0 W/m 0,5 C 0,9 C 4,8 km/h (1 Bft) 100,00 %
21.12.2017 00:44 0,9 C 3,9 C 97 % 1035,0 hPa 0,0 l/m 4,8 km/h (1 Bft) W-SW 247 0 min 0,000 mm 0,0 UV-I 0 W/m 0,5 C 0,9 C 4,8 km/h (1 Bft) 95,65 %
21.12.2017 00:45 0,9 C 3,9 C 97 % 1035,1 hPa 0,0 l/m 4,8 km/h (1 Bft) W 270 0 min 0,000 mm 0,0 UV-I 0 W/m 0,5 C 0,9 C 6,4 km/h (2 Bft) 100,00 %
21.12.2017 00:46 0,9 C 3,9 C 97 % 1035,1 hPa 0,0 l/m 4,8 km/h (1 Bft) W-SW 247 0 min 0,000 mm 0,0 UV-I 0 W/m 0,5 C 0,9 C 6,4 km/h (2 Bft) 100,00 %
21.12.2017 00:47 0,9 C 3,9 C 97 % 1035,1 hPa 0,0 l/m 3,2 km/h (1 Bft) W-SW 247 0 min 0,000 mm 0,0 UV-I 0 W/m 0,5 C 0,9 C 3,2 km/h (1 Bft) 100,00 %
21.12.2017 00:48 0,9 C 3,9 C 97 % 1035,1 hPa 0,0 l/m 1,6 km/h (1 Bft) W-SW 247 0 min 0,000 mm 0,0 UV-I 0 W/m 0,5 C 0,9 C 3,2 km/h (1 Bft) 95,65 %
21.12.2017 00:49 0,9 C 3,9 C 97 % 1035,1 hPa 0,0 l/m 1,6 km/h (1 Bft) W 270 0 min 0,000 mm 0,0 UV-I 0 W/m 0,5 C 0,9 C 3,2 km/h (1 Bft) 100,00 %
21.12.2017 00:50 0,9 C 3,9 C 97 % 1035,0 hPa 0,0 l/m 3,2 km/h (1 Bft) W 270 0 min 0,000 mm 0,0 UV-I 0 W/m 0,5 C 0,9 C 4,8 km/h (1 Bft) 100,00 %
21.12.2017 00:51 0,9 C 3,9 C 97 % 1035,0 hPa 0,0 l/m 3,2 km/h (1 Bft) W 270 0 min 0,000 mm 0,0 UV-I 0 W/m 0,5 C 0,9 C 4,8 km/h (1 Bft) 95,65 %
21.12.2017 00:52 0,9 C 3,9 C 97 % 1035,1 hPa 0,0 l/m 1,6 km/h (1 Bft) W 270 0 min 0,000 mm 0,0 UV-I 0 W/m 0,5 C 0,9 C 3,2 km/h (1 Bft) 100,00 %
21.12.2017 00:53 0,9 C 3,9 C 97 % 1035,1 hPa 0,0 l/m 1,6 km/h (1 Bft) W-SW 247 0 min 0,000 mm 0,0 UV-I 0 W/m 0,5 C 0,9 C 3,2 km/h (1 Bft) 100,00 %
21.12.2017 00:54 0,9 C 3,9 C 97 % 1035,1 hPa 0,0 l/m 3,2 km/h (1 Bft) W-SW 247 0 min 0,000 mm 0,0 UV-I 0 W/m 0,5 C 0,9 C 4,8 km/h (1 Bft) 100,00 %
21.12.2017 00:55 0,9 C 3,9 C 97 % 1035,1 hPa 0,0 l/m 3,2 km/h (1 Bft) W-SW 247 0 min 0,000 mm 0,0 UV-I 0 W/m 0,5 C 0,9 C 4,8 km/h (1 Bft) 100,00 %
21.12.2017 00:56 0,9 C 3,9 C 97 % 1035,0 hPa 0,0 l/m 3,2 km/h (1 Bft) W-SW 247 0 min 0,000 mm 0,0 UV-I 0 W/m 0,5 C 0,9 C 4,8 km/h (1 Bft) 100,00 %
21.12.2017 00:57 0,9 C 3,9 C 97 % 1035,1 hPa 0,0 l/m 3,2 km/h (1 Bft) W-SW 247 0 min 0,000 mm 0,0 UV-I 0 W/m 0,5 C 0,9 C 6,4 km/h (2 Bft) 95,65 %
21.12.2017 00:58 0,9 C 3,9 C 97 % 1035,0 hPa 0,0 l/m 1,6 km/h (1 Bft) W-SW 247 0 min 0,000 mm 0,0 UV-I 0 W/m 0,5 C 0,9 C 3,2 km/h (1 Bft) 95,65 %
21.12.2017 00:59 0,9 C 3,9 C 97 % 1035,0 hPa 0,0 l/m 3,2 km/h (1 Bft) W-SW 247 0 min 0,000 mm 0,0 UV-I 0 W/m 0,5 C 0,9 C 4,8 km/h (1 Bft) 100,00 %
21.12.2017 01:00 1,0 C 3,9 C 97 % 1035,1 hPa 0,0 l/m 4,8 km/h (1 Bft) W-SW 247 0 min 0,000 mm 0,0 UV-I 0 W/m 0,6 C 1,0 C 6,4 km/h (2 Bft) 100,00 %
21.12.2017 01:01 1,0 C 3,9 C 97 % 1035,1 hPa 0,0 l/m 6,4 km/h (2 Bft) W-SW 247 0 min 0,000 mm 0,0 UV-I 0 W/m 0,6 C 1,0 C 8,0 km/h (2 Bft) 100,00 %
21.12.2017 01:02 1,0 C 3,9 C 97 % 1035,0 hPa 0,0 l/m 4,8 km/h (1 Bft) SW 225 0 min 0,000 mm 0,0 UV-I 0 W/m 0,6 C 1,0 C 6,4 km/h (2 Bft) 100,00 %
21.12.2017 01:03 1,0 C 3,9 C 97 % 1035,0 hPa 0,0 l/m 4,8 km/h (1 Bft) SW 225 0 min 0,000 mm 0,0 UV-I 0 W/m 0,6 C 1,0 C 6,4 km/h (2 Bft) 100,00 %
21.12.2017 01:04 1,0 C 3,9 C 97 % 1035,0 hPa 0,0 l/m 4,8 km/h (1 Bft) W-SW 247 0 min 0,000 mm 0,0 UV-I 0 W/m 0,6 C 1,0 C 6,4 km/h (2 Bft) 95,65 %
21.12.2017 01:05 1,1 C 3,9 C 96 % 1035,0 hPa 0,0 l/m 4,8 km/h (1 Bft) SW 225 0 min 0,000 mm 0,0 UV-I 0 W/m 0,5 C 1,1 C 6,4 km/h (2 Bft) 95,65 %
21.12.2017 01:06 1,1 C 3,9 C 96 % 1035,0 hPa 0,0 l/m 4,8 km/h (1 Bft) SW 225 0 min 0,000 mm 0,0 UV-I 0 W/m 0,5 C 1,1 C 8,0 km/h (2 Bft) 100,00 %
21.12.2017 01:07 1,1 C 3,9 C 96 % 1035,0 hPa 0,0 l/m 4,8 km/h (1 Bft) SW 225 0 min 0,000 mm 0,0 UV-I 0 W/m 0,5 C 1,1 C 8,0 km/h (2 Bft) 100,00 %
21.12.2017 01:08 1,1 C 3,9 C 96 % 1035,0 hPa 0,0 l/m 4,8 km/h (1 Bft) SW 225 0 min 0,000 mm 0,0 UV-I 0 W/m 0,5 C 1,1 C 9,7 km/h (2 Bft) 100,00 %
21.12.2017 01:09 1,1 C 3,9 C 96 % 1035,0 hPa 0,0 l/m 6,4 km/h (2 Bft) W 270 0 min 0,000 mm 0,0 UV-I 0 W/m 0,5 C 1,1 C 9,7 km/h (2 Bft) 95,65 %
21.12.2017 01:10 1,1 C 3,9 C 96 % 1035,0 hPa 0,0 l/m 4,8 km/h (1 Bft) W 270 0 min 0,000 mm 0,0 UV-I 0 W/m 0,5 C 1,1 C 8,0 km/h (2 Bft) 100,00 %
21.12.2017 01:11 1,2 C 3,9 C 96 % 1035,0 hPa 0,0 l/m 6,4 km/h (2 Bft) SW 225 0 min 0,000 mm 0,0 UV-I 0 W/m 0,6 C 1,2 C 8,0 km/h (2 Bft) 100,00 %
21.12.2017 01:12 1,2 C 3,9 C 96 % 1035,0 hPa 0,0 l/m 6,4 km/h (2 Bft) SW 225 0 min 0,000 mm 0,0 UV-I 0 W/m 0,6 C 1,2 C 9,7 km/h (2 Bft) 95,65 %
21.12.2017 01:13 1,2 C 3,9 C 96 % 1035,0 hPa 0,0 l/m 4,8 km/h (1 Bft) W-SW 247 0 min 0,000 mm 0,0 UV-I 0 W/m 0,6 C 1,2 C 8,0 km/h (2 Bft) 100,00 %
21.12.2017 01:14 1,2 C 3,9 C 95 % 1035,0 hPa 0,0 l/m 6,4 km/h (2 Bft) W-SW 247 0 min 0,000 mm 0,0 UV-I 0 W/m 0,5 C 1,2 C 9,7 km/h (2 Bft) 100,00 %
21.12.2017 01:15 1,2 C 3,9 C 95 % 1035,0 hPa 0,0 l/m 4,8 km/h (1 Bft) W-SW 247 0 min 0,000 mm 0,0 UV-I 0 W/m 0,5 C 1,2 C 6,4 km/h (2 Bft) 100,00 %
21.12.2017 01:16 1,2 C 3,9 C 95 % 1035,0 hPa 0,0 l/m 6,4 km/h (2 Bft) W-SW 247 0 min 0,000 mm 0,0 UV-I 0 W/m 0,5 C 1,2 C 9,7 km/h (2 Bft) 100,00 %
21.12.2017 01:17 1,2 C 3,9 C 95 % 1035,0 hPa 0,0 l/m 4,8 km/h (1 Bft) W-SW 247 0 min 0,000 mm 0,0 UV-I 0 W/m 0,5 C 1,2 C 9,7 km/h (2 Bft) 100,00 %
21.12.2017 01:18 1,3 C 3,9 C 95 % 1035,0 hPa 0,0 l/m 4,8 km/h (1 Bft) W-SW 247 0 min 0,000 mm 0,0 UV-I 0 W/m 0,6 C 1,3 C 6,4 km/h (2 Bft) 100,00 %
21.12.2017 01:19 1,3 C 3,9 C 95 % 1035,0 hPa 0,0 l/m 4,8 km/h (1 Bft) W-SW 247 0 min 0,000 mm 0,0 UV-I 0 W/m 0,6 C 1,3 C 6,4 km/h (2 Bft) 95,65 %
21.12.2017 01:20 1,3 C 3,9 C 95 % 1035,0 hPa 0,0 l/m 4,8 km/h (1 Bft) W-SW 247 0 min 0,000 mm 0,0 UV-I 0 W/m 0,6 C 1,3 C 6,4 km/h (2 Bft) 100,00 %
21.12.2017 01:21 1,3 C 3,9 C 94 % 1034,9 hPa 0,0 l/m 4,8 km/h (1 Bft) W-SW 247 0 min 0,000 mm 0,0 UV-I 0 W/m 0,4 C 1,3 C 6,4 km/h (2 Bft) 91,30 %
21.12.2017 01:22 1,3 C 3,9 C 94 % 1035,0 hPa 0,0 l/m 8,0 km/h (2 Bft) SW 225 0 min 0,000 mm 0,0 UV-I 0 W/m 0,4 C -0,3 C 9,7 km/h (2 Bft) 100,00 %
21.12.2017 01:23 1,3 C 3,9 C 94 % 1035,0 hPa 0,0 l/m 4,8 km/h (1 Bft) SW 225 0 min 0,000 mm 0,0 UV-I 0 W/m 0,4 C 1,3 C 8,0 km/h (2 Bft) 100,00 %
21.12.2017 01:24 1,3 C 3,9 C 94 % 1035,0 hPa 0,0 l/m 8,0 km/h (2 Bft) SW 225 0 min 0,000 mm 0,0 UV-I 0 W/m 0,4 C -0,3 C 11,3 km/h (2 Bft) 100,00 %
21.12.2017 01:25 1,3 C 3,9 C 94 % 1035,0 hPa 0,0 l/m 8,0 km/h (2 Bft) SW 225 0 min 0,000 mm 0,0 UV-I 0 W/m 0,4 C -0,3 C 9,7 km/h (2 Bft) 95,65 %
21.12.2017 01:26 1,3 C 3,9 C 93 % 1035,0 hPa 0,0 l/m 8,0 km/h (2 Bft) SW 225 0 min 0,000 mm 0,0 UV-I 0 W/m 0,3 C -0,3 C 11,3 km/h (2 Bft) 91,30 %
21.12.2017 01:27 1,4 C 3,9 C 93 % 1034,9 hPa 0,0 l/m 8,0 km/h (2 Bft) SW 225 0 min 0,000 mm 0,0 UV-I 0 W/m 0,4 C -0,2 C 11,3 km/h (2 Bft) 100,00 %
21.12.2017 01:28 1,4 C 3,9 C 93 % 1035,0 hPa 0,0 l/m 8,0 km/h (2 Bft) SW 225 0 min 0,000 mm 0,0 UV-I 0 W/m 0,4 C -0,2 C 12,9 km/h (3 Bft) 91,30 %
21.12.2017 01:29 1,4 C 3,9 C 93 % 1035,0 hPa 0,0 l/m 6,4 km/h (2 Bft) SW 225 0 min 0,000 mm 0,0 UV-I 0 W/m 0,4 C 1,4 C 11,3 km/h (2 Bft) 100,00 %
21.12.2017 01:30 1,4 C 3,9 C 93 % 1034,9 hPa 0,0 l/m 6,4 km/h (2 Bft) SW 225 0 min 0,000 mm 0,0 UV-I 0 W/m 0,4 C 1,4 C 11,3 km/h (2 Bft) 95,65 %
21.12.2017 01:31 1,4 C 3,9 C 93 % 1034,9 hPa 0,0 l/m 6,4 km/h (2 Bft) W-SW 247 0 min 0,000 mm 0,0 UV-I 0 W/m 0,4 C 1,4 C 9,7 km/h (2 Bft) 100,00 %
21.12.2017 01:32 1,4 C 3,9 C 93 % 1035,0 hPa 0,0 l/m 8,0 km/h (2 Bft) W-SW 247 0 min 0,000 mm 0,0 UV-I 0 W/m 0,4 C -0,2 C 11,3 km/h (2 Bft) 95,65 %
21.12.2017 01:33 1,4 C 3,9 C 93 % 1034,9 hPa 0,0 l/m 8,0 km/h (2 Bft) SW 225 0 min 0,000 mm 0,0 UV-I 0 W/m 0,4 C -0,2 C 11,3 km/h (2 Bft) 95,65 %
21.12.2017 01:34 1,4 C 3,9 C 93 % 1034,9 hPa 0,0 l/m 6,4 km/h (2 Bft) SW 225 0 min 0,000 mm 0,0 UV-I 0 W/m 0,4 C 1,4 C 8,0 km/h (2 Bft) 95,65 %
21.12.2017 01:35 1,3 C 3,9 C 93 % 1034,9 hPa 0,0 l/m 6,4 km/h (2 Bft) W-SW 247 0 min 0,000 mm 0,0 UV-I 0 W/m 0,3 C 1,3 C 11,3 km/h (2 Bft) 95,65 %
21.12.2017 01:36 1,3 C 3,9 C 93 % 1035,0 hPa 0,0 l/m 4,8 km/h (1 Bft) W 270 0 min 0,000 mm 0,0 UV-I 0 W/m 0,3 C 1,3 C 8,0 km/h (2 Bft) 100,00 %
21.12.2017 01:37 1,3 C 3,9 C 93 % 1034,9 hPa 0,0 l/m 6,4 km/h (2 Bft) W-SW 247 0 min 0,000 mm 0,0 UV-I 0 W/m 0,3 C 1,3 C 9,7 km/h (2 Bft) 95,65 %
21.12.2017 01:38 1,3 C 3,9 C 93 % 1034,9 hPa 0,0 l/m 4,8 km/h (1 Bft) W 270 0 min 0,000 mm 0,0 UV-I 0 W/m 0,3 C 1,3 C 6,4 km/h (2 Bft) 100,00 %
21.12.2017 01:39 1,3 C 3,9 C 93 % 1034,9 hPa 0,0 l/m 6,4 km/h (2 Bft) W 270 0 min 0,000 mm 0,0 UV-I 0 W/m 0,3 C 1,3 C 9,7 km/h (2 Bft) 95,65 %
21.12.2017 01:40 1,3 C 3,9 C 93 % 1035,0 hPa 0,0 l/m 6,4 km/h (2 Bft) W-SW 247 0 min 0,000 mm 0,0 UV-I 0 W/m 0,3 C 1,3 C 11,3 km/h (2 Bft) 95,65 %
21.12.2017 01:41 1,3 C 3,9 C 94 % 1034,9 hPa 0,0 l/m 4,8 km/h (1 Bft) W 270 0 min 0,000 mm 0,0 UV-I 0 W/m 0,4 C 1,3 C 9,7 km/h (2 Bft) 91,30 %
21.12.2017 01:42 1,3 C 3,9 C 94 % 1034,9 hPa 0,0 l/m 4,8 km/h (1 Bft) W 270 0 min 0,000 mm 0,0 UV-I 0 W/m 0,4 C 1,3 C 6,4 km/h (2 Bft) 100,00 %
21.12.2017 01:43 1,3 C 3,9 C 94 % 1034,9 hPa 0,0 l/m 3,2 km/h (1 Bft) W-SW 247 0 min 0,000 mm 0,0 UV-I 0 W/m 0,4 C 1,3 C 4,8 km/h (1 Bft) 91,30 %
21.12.2017 01:44 1,3 C 3,9 C 94 % 1034,9 hPa 0,0 l/m 6,4 km/h (2 Bft) W-SW 247 0 min 0,000 mm 0,0 UV-I 0 W/m 0,4 C 1,3 C 9,7 km/h (2 Bft) 100,00 %
21.12.2017 01:45 1,3 C 3,9 C 94 % 1034,9 hPa 0,0 l/m 6,4 km/h (2 Bft) W-SW 247 0 min 0,000 mm 0,0 UV-I 0 W/m 0,4 C 1,3 C 9,7 km/h (2 Bft) 91,30 %
21.12.2017 01:46 1,3 C 3,9 C 94 % 1034,9 hPa 0,0 l/m 9,7 km/h (2 Bft) W-SW 247 0 min 0,000 mm 0,0 UV-I 0 W/m 0,4 C -1,8 C 11,3 km/h (2 Bft) 100,00 %
21.12.2017 01:47 1,3 C 3,9 C 94 % 1034,9 hPa 0,0 l/m 6,4 km/h (2 Bft) W-SW 247 0 min 0,000 mm 0,0 UV-I 0 W/m 0,4 C 1,3 C 11,3 km/h (2 Bft) 91,30 %
21.12.2017 01:48 1,3 C 3,9 C 94 % 1034,8 hPa 0,0 l/m 4,8 km/h (1 Bft) W-SW 247 0 min 0,000 mm 0,0 UV-I 0 W/m 0,4 C 1,3 C 6,4 km/h (2 Bft) 100,00 %
21.12.2017 01:49 1,3 C 3,9 C 94 % 1034,9 hPa 0,0 l/m 4,8 km/h (1 Bft) W-SW 247 0 min 0,000 mm 0,0 UV-I 0 W/m 0,4 C 1,3 C 6,4 km/h (2 Bft) 91,30 %
21.12.2017 01:50 1,3 C 3,9 C 94 % 1034,9 hPa 0,0 l/m 4,8 km/h (1 Bft) W-SW 247 0 min 0,000 mm 0,0 UV-I 0 W/m 0,4 C 1,3 C 6,4 km/h (2 Bft) 95,65 %
21.12.2017 01:51 1,3 C 3,9 C 94 % 1034,9 hPa 0,0 l/m 6,4 km/h (2 Bft) SW 225 0 min 0,000 mm 0,0 UV-I 0 W/m 0,4 C 1,3 C 6,4 km/h (2 Bft) 95,65 %
21.12.2017 01:52 1,3 C 3,9 C 94 % 1034,9 hPa 0,0 l/m 4,8 km/h (1 Bft) W-SW 247 0 min 0,000 mm 0,0 UV-I 0 W/m 0,4 C 1,3 C 6,4 km/h (2 Bft) 95,65 %
21.12.2017 01:53 1,3 C 3,9 C 94 % 1034,9 hPa 0,0 l/m 4,8 km/h (1 Bft) W-SW 247 0 min 0,000 mm 0,0 UV-I 0 W/m 0,4 C 1,3 C 6,4 km/h (2 Bft) 100,00 %
21.12.2017 01:54 1,3 C 3,9 C 94 % 1034,9 hPa 0,0 l/m 4,8 km/h (1 Bft) W-SW 247 0 min 0,000 mm 0,0 UV-I 0 W/m 0,4 C 1,3 C 8,0 km/h (2 Bft) 91,30 %
21.12.2017 01:55 1,3 C 3,9 C 94 % 1034,9 hPa 0,0 l/m 6,4 km/h (2 Bft) W-SW 247 0 min 0,000 mm 0,0 UV-I 0 W/m 0,4 C 1,3 C 8,0 km/h (2 Bft) 100,00 %
21.12.2017 01:56 1,3 C 3,9 C 94 % 1034,9 hPa 0,0 l/m 4,8 km/h (1 Bft) W-SW 247 0 min 0,000 mm 0,0 UV-I 0 W/m 0,4 C 1,3 C 6,4 km/h (2 Bft) 95,65 %
21.12.2017 01:57 1,3 C 3,9 C 94 % 1034,9 hPa 0,0 l/m 6,4 km/h (2 Bft) SW 225 0 min 0,000 mm 0,0 UV-I 0 W/m 0,4 C 1,3 C 8,0 km/h (2 Bft) 100,00 %
21.12.2017 01:58 1,3 C 3,9 C 94 % 1034,9 hPa 0,0 l/m 6,4 km/h (2 Bft) SW 225 0 min 0,000 mm 0,0 UV-I 0 W/m 0,4 C 1,3 C 9,7 km/h (2 Bft) 95,65 %
21.12.2017 01:59 1,3 C 3,9 C 94 % 1034,9 hPa 0,0 l/m 8,0 km/h (2 Bft) SW 225 0 min 0,000 mm 0,0 UV-I 0 W/m 0,4 C -0,3 C 9,7 km/h (2 Bft) 95,65 %
21.12.2017 02:00 1,3 C 3,9 C 94 % 1034,9 hPa 0,0 l/m 8,0 km/h (2 Bft) SW 225 0 min 0,000 mm 0,0 UV-I 0 W/m 0,4 C -0,3 C 11,3 km/h (2 Bft) 95,65 %
21.12.2017 02:01 1,3 C 3,9 C 94 % 1034,9 hPa 0,0 l/m 8,0 km/h (2 Bft) SW 225 0 min 0,000 mm 0,0 UV-I 0 W/m 0,4 C -0,3 C 9,7 km/h (2 Bft) 91,30 %
21.12.2017 02:02 1,3 C 3,9 C 94 % 1034,9 hPa 0,0 l/m 6,4 km/h (2 Bft) SW 225 0 min 0,000 mm 0,0 UV-I 0 W/m 0,4 C 1,3 C 8,0 km/h (2 Bft) 100,00 %
21.12.2017 02:03 1,3 C 3,9 C 94 % 1034,9 hPa 0,0 l/m 8,0 km/h (2 Bft) S-SW 202 0 min 0,000 mm 0,0 UV-I 0 W/m 0,4 C -0,3 C 11,3 km/h (2 Bft) 91,30 %
21.12.2017 02:04 1,3 C 3,9 C 94 % 1034,8 hPa 0,0 l/m 6,4 km/h (2 Bft) W-SW 247 0 min 0,000 mm 0,0 UV-I 0 W/m 0,4 C 1,3 C 9,7 km/h (2 Bft) 95,65 %
21.12.2017 02:05 1,3 C 3,9 C 94 % 1034,8 hPa 0,0 l/m 6,4 km/h (2 Bft) W-SW 247 0 min 0,000 mm 0,0 UV-I 0 W/m 0,4 C 1,3 C 9,7 km/h (2 Bft) 95,65 %
21.12.2017 02:06 1,3 C 3,9 C 94 % 1034,8 hPa 0,0 l/m 9,7 km/h (2 Bft) SW 225 0 min 0,000 mm 0,0 UV-I 0 W/m 0,4 C -1,8 C 11,3 km/h (2 Bft) 100,00 %
21.12.2017 02:07 1,3 C 3,9 C 94 % 1034,8 hPa 0,0 l/m 8,0 km/h (2 Bft) SW 225 0 min 0,000 mm 0,0 UV-I 0 W/m 0,4 C -0,3 C 12,9 km/h (3 Bft) 95,65 %
21.12.2017 02:08 1,3 C 3,9 C 94 % 1034,8 hPa 0,0 l/m 4,8 km/h (1 Bft) W-SW 247 0 min 0,000 mm 0,0 UV-I 0 W/m 0,4 C 1,3 C 8,0 km/h (2 Bft) 91,30 %
21.12.2017 02:09 1,3 C 3,9 C 94 % 1034,8 hPa 0,0 l/m 8,0 km/h (2 Bft) W-SW 247 0 min 0,000 mm 0,0 UV-I 0 W/m 0,4 C -0,3 C 11,3 km/h (2 Bft) 100,00 %
21.12.2017 02:10 1,3 C 3,9 C 94 % 1034,8 hPa 0,0 l/m 6,4 km/h (2 Bft) W-SW 247 0 min 0,000 mm 0,0 UV-I 0 W/m 0,4 C 1,3 C 8,0 km/h (2 Bft) 95,65 %
21.12.2017 02:11 1,3 C 3,9 C 94 % 1034,8 hPa 0,0 l/m 8,0 km/h (2 Bft) W-SW 247 0 min 0,000 mm 0,0 UV-I 0 W/m 0,4 C -0,3 C 12,9 km/h (3 Bft) 100,00 %
21.12.2017 02:12 1,4 C 3,9 C 94 % 1034,8 hPa 0,0 l/m 8,0 km/h (2 Bft) W-SW 247 0 min 0,000 mm 0,0 UV-I 0 W/m 0,5 C -0,2 C 11,3 km/h (2 Bft) 91,30 %
21.12.2017 02:13 1,3 C 3,9 C 93 % 1034,8 hPa 0,0 l/m 6,4 km/h (2 Bft) W-SW 247 0 min 0,000 mm 0,0 UV-I 0 W/m 0,3 C 1,3 C 9,7 km/h (2 Bft) 100,00 %
21.12.2017 02:14 1,3 C 3,9 C 93 % 1034,8 hPa 0,0 l/m 8,0 km/h (2 Bft) W-SW 247 0 min 0,000 mm 0,0 UV-I 0 W/m 0,3 C -0,3 C 11,3 km/h (2 Bft) 95,65 %
21.12.2017 02:15 1,3 C 3,9 C 93 % 1034,8 hPa 0,0 l/m 6,4 km/h (2 Bft) W-SW 247 0 min 0,000 mm 0,0 UV-I 0 W/m 0,3 C 1,3 C 8,0 km/h (2 Bft) 95,65 %
21.12.2017 02:16 1,3 C 3,9 C 94 % 1034,8 hPa 0,0 l/m 8,0 km/h (2 Bft) W-SW 247 0 min 0,000 mm 0,0 UV-I 0 W/m 0,4 C -0,3 C 12,9 km/h (3 Bft) 95,65 %
21.12.2017 02:17 1,3 C 3,9 C 94 % 1034,8 hPa 0,0 l/m 6,4 km/h (2 Bft) W-SW 247 0 min 0,000 mm 0,0 UV-I 0 W/m 0,4 C 1,3 C 11,3 km/h (2 Bft) 95,65 %
21.12.2017 02:18 1,3 C 3,9 C 94 % 1034,8 hPa 0,0 l/m 6,4 km/h (2 Bft) W-SW 247 0 min 0,000 mm 0,0 UV-I 0 W/m 0,4 C 1,3 C 8,0 km/h (2 Bft) 100,00 %
21.12.2017 02:19 1,4 C 3,9 C 94 % 1034,8 hPa 0,0 l/m 8,0 km/h (2 Bft) SW 225 0 min 0,000 mm 0,0 UV-I 0 W/m 0,5 C -0,2 C 11,3 km/h (2 Bft) 95,65 %
21.12.2017 02:20 1,4 C 3,9 C 94 % 1034,7 hPa 0,0 l/m 6,4 km/h (2 Bft) SW 225 0 min 0,000 mm 0,0 UV-I 0 W/m 0,5 C 1,4 C 8,0 km/h (2 Bft) 100,00 %
21.12.2017 02:21 1,3 C 3,9 C 93 % 1034,8 hPa 0,0 l/m 8,0 km/h (2 Bft) W-SW 247 0 min 0,000 mm 0,0 UV-I 0 W/m 0,3 C -0,3 C 12,9 km/h (3 Bft) 95,65 %
21.12.2017 02:22 1,4 C 3,9 C 93 % 1034,7 hPa 0,0 l/m 6,4 km/h (2 Bft) W-SW 247 0 min 0,000 mm 0,0 UV-I 0 W/m 0,4 C 1,4 C 11,3 km/h (2 Bft) 95,65 %
21.12.2017 02:23 1,4 C 3,9 C 93 % 1034,8 hPa 0,0 l/m 8,0 km/h (2 Bft) SW 225 0 min 0,000 mm 0,0 UV-I 0 W/m 0,4 C -0,2 C 9,7 km/h (2 Bft) 95,65 %
21.12.2017 02:24 1,4 C 3,9 C 93 % 1034,8 hPa 0,0 l/m 8,0 km/h (2 Bft) W-SW 247 0 min 0,000 mm 0,0 UV-I 0 W/m 0,4 C -0,2 C 9,7 km/h (2 Bft) 100,00 %
21.12.2017 02:25 1,4 C 3,9 C 93 % 1034,7 hPa 0,0 l/m 6,4 km/h (2 Bft) W-SW 247 0 min 0,000 mm 0,0 UV-I 0 W/m 0,4 C 1,4 C 11,3 km/h (2 Bft) 95,65 %
21.12.2017 02:26 1,4 C 3,9 C 93 % 1034,7 hPa 0,0 l/m 6,4 km/h (2 Bft) SW 225 0 min 0,000 mm 0,0 UV-I 0 W/m 0,4 C 1,4 C 11,3 km/h (2 Bft) 95,65 %
21.12.2017 02:27 1,4 C 3,9 C 93 % 1034,7 hPa 0,0 l/m 8,0 km/h (2 Bft) W-SW 247 0 min 0,000 mm 0,0 UV-I 0 W/m 0,4 C -0,2 C 14,5 km/h (3 Bft) 100,00 %
21.12.2017 02:28 1,4 C 3,9 C 93 % 1034,7 hPa 0,0 l/m 8,0 km/h (2 Bft) W-SW 247 0 min 0,000 mm 0,0 UV-I 0 W/m 0,4 C -0,2 C 16,1 km/h (3 Bft) 100,00 %
21.12.2017 02:29 1,4 C 3,9 C 93 % 1034,6 hPa 0,0 l/m 8,0 km/h (2 Bft) W-SW 247 0 min 0,000 mm 0,0 UV-I 0 W/m 0,4 C -0,2 C 14,5 km/h (3 Bft) 95,65 %
21.12.2017 02:30 1,4 C 3,9 C 93 % 1034,6 hPa 0,0 l/m 9,7 km/h (2 Bft) W-SW 247 0 min 0,000 mm 0,0 UV-I 0 W/m 0,4 C -1,7 C 16,1 km/h (3 Bft) 100,00 %
21.12.2017 02:31 1,4 C 3,9 C 93 % 1034,6 hPa 0,0 l/m 11,3 km/h (2 Bft) W-SW 247 0 min 0,000 mm 0,0 UV-I 0 W/m 0,4 C -2,9 C 16,1 km/h (3 Bft) 100,00 %
21.12.2017 02:32 1,4 C 3,9 C 93 % 1034,6 hPa 0,0 l/m 9,7 km/h (2 Bft) W-SW 247 0 min 0,000 mm 0,0 UV-I 0 W/m 0,4 C -1,7 C 12,9 km/h (3 Bft) 100,00 %
21.12.2017 02:33 1,4 C 3,9 C 93 % 1034,6 hPa 0,0 l/m 8,0 km/h (2 Bft) W-SW 247 0 min 0,000 mm 0,0 UV-I 0 W/m 0,4 C -0,2 C 12,9 km/h (3 Bft) 100,00 %
21.12.2017 02:34 1,4 C 3,9 C 93 % 1034,6 hPa 0,0 l/m 11,3 km/h (2 Bft) SW 225 0 min 0,000 mm 0,0 UV-I 0 W/m 0,4 C -2,9 C 16,1 km/h (3 Bft) 95,65 %
21.12.2017 02:35 1,4 C 3,9 C 93 % 1034,6 hPa 0,0 l/m 8,0 km/h (2 Bft) SW 225 0 min 0,000 mm 0,0 UV-I 0 W/m 0,4 C -0,2 C 12,9 km/h (3 Bft) 100,00 %
21.12.2017 02:36 1,4 C 3,9 C 93 % 1034,6 hPa 0,0 l/m 8,0 km/h (2 Bft) SW 225 0 min 0,000 mm 0,0 UV-I 0 W/m 0,4 C -0,2 C 9,7 km/h (2 Bft) 95,65 %
21.12.2017 02:37 1,4 C 3,9 C 93 % 1034,6 hPa 0,0 l/m 9,7 km/h (2 Bft) SW 225 0 min 0,000 mm 0,0 UV-I 0 W/m 0,4 C -1,7 C 12,9 km/h (3 Bft) 95,65 %
21.12.2017 02:38 1,4 C 3,9 C 93 % 1034,6 hPa 0,0 l/m 9,7 km/h (2 Bft) W-SW 247 0 min 0,000 mm 0,0 UV-I 0 W/m 0,4 C -1,7 C 14,5 km/h (3 Bft) 100,00 %
21.12.2017 02:39 1,4 C 3,9 C 93 % 1034,6 hPa 0,0 l/m 9,7 km/h (2 Bft) SW 225 0 min 0,000 mm 0,0 UV-I 0 W/m 0,4 C -1,7 C 14,5 km/h (3 Bft) 100,00 %
21.12.2017 02:40 1,5 C 3,9 C 93 % 1034,6 hPa 0,0 l/m 9,7 km/h (2 Bft) SW 225 0 min 0,000 mm 0,0 UV-I 0 W/m 0,5 C -1,6 C 14,5 km/h (3 Bft) 100,00 %
21.12.2017 02:41 1,5 C 3,9 C 93 % 1034,6 hPa 0,0 l/m 8,0 km/h (2 Bft) SW 225 0 min 0,000 mm 0,0 UV-I 0 W/m 0,5 C -0,1 C 9,7 km/h (2 Bft) 100,00 %
21.12.2017 02:42 1,5 C 3,9 C 92 % 1034,6 hPa 0,0 l/m 9,7 km/h (2 Bft) SW 225 0 min 0,000 mm 0,0 UV-I 0 W/m 0,3 C -1,6 C 16,1 km/h (3 Bft) 100,00 %
21.12.2017 02:43 1,5 C 3,9 C 92 % 1034,6 hPa 0,0 l/m 9,7 km/h (2 Bft) SW 225 0 min 0,000 mm 0,0 UV-I 0 W/m 0,3 C -1,6 C 14,5 km/h (3 Bft) 95,65 %
21.12.2017 02:44 1,5 C 3,9 C 92 % 1034,6 hPa 0,0 l/m 12,9 km/h (3 Bft) SW 225 0 min 0,000 mm 0,0 UV-I 0 W/m 0,3 C -3,9 C 17,7 km/h (3 Bft) 100,00 %
21.12.2017 02:45 1,5 C 3,9 C 92 % 1034,5 hPa 0,0 l/m 11,3 km/h (2 Bft) W-SW 247 0 min 0,000 mm 0,0 UV-I 0 W/m 0,3 C -2,8 C 14,5 km/h (3 Bft) 95,65 %
21.12.2017 02:46 1,5 C 3,9 C 92 % 1034,6 hPa 0,0 l/m 11,3 km/h (2 Bft) SW 225 0 min 0,000 mm 0,0 UV-I 0 W/m 0,3 C -2,8 C 16,1 km/h (3 Bft) 100,00 %
21.12.2017 02:47 1,5 C 3,9 C 92 % 1034,6 hPa 0,0 l/m 11,3 km/h (2 Bft) W-SW 247 0 min 0,000 mm 0,0 UV-I 0 W/m 0,3 C -2,8 C 14,5 km/h (3 Bft) 100,00 %
21.12.2017 02:48 1,5 C 3,9 C 92 % 1034,6 hPa 0,0 l/m 8,0 km/h (2 Bft) W-SW 247 0 min 0,000 mm 0,0 UV-I 0 W/m 0,3 C -0,1 C 11,3 km/h (2 Bft) 100,00 %
21.12.2017 02:49 1,5 C 3,9 C 92 % 1034,6 hPa 0,0 l/m 12,9 km/h (3 Bft) W-SW 247 0 min 0,000 mm 0,0 UV-I 0 W/m 0,3 C -3,9 C 17,7 km/h (3 Bft) 100,00 %
21.12.2017 02:50 1,5 C 3,9 C 92 % 1034,6 hPa 0,0 l/m 12,9 km/h (3 Bft) W-SW 247 0 min 0,000 mm 0,0 UV-I 0 W/m 0,3 C -3,9 C 16,1 km/h (3 Bft) 100,00 %
21.12.2017 02:51 1,6 C 3,9 C 92 % 1034,6 hPa 0,0 l/m 9,7 km/h (2 Bft) W-SW 247 0 min 0,000 mm 0,0 UV-I 0 W/m 0,4 C -1,4 C 16,1 km/h (3 Bft) 95,65 %
21.12.2017 02:52 1,6 C 3,9 C 92 % 1034,6 hPa 0,0 l/m 9,7 km/h (2 Bft) W-SW 247 0 min 0,000 mm 0,0 UV-I 0 W/m 0,4 C -1,4 C 12,9 km/h (3 Bft) 100,00 %
21.12.2017 02:53 1,6 C 3,9 C 92 % 1034,6 hPa 0,0 l/m 9,7 km/h (2 Bft) W-SW 247 0 min 0,000 mm 0,0 UV-I 0 W/m 0,4 C -1,4 C 14,5 km/h (3 Bft) 95,65 %
21.12.2017 02:54 1,6 C 3,9 C 92 % 1034,7 hPa 0,0 l/m 11,3 km/h (2 Bft) W-SW 247 0 min 0,000 mm 0,0 UV-I 0 W/m 0,4 C -2,7 C 16,1 km/h (3 Bft) 95,65 %
21.12.2017 02:55 1,6 C 3,9 C 92 % 1034,7 hPa 0,0 l/m 8,0 km/h (2 Bft) SW 225 0 min 0,000 mm 0,0 UV-I 0 W/m 0,4 C 0,0 C 12,9 km/h (3 Bft) 100,00 %
21.12.2017 02:56 1,6 C 3,9 C 92 % 1034,7 hPa 0,0 l/m 11,3 km/h (2 Bft) SW 225 0 min 0,000 mm 0,0 UV-I 0 W/m 0,4 C -2,7 C 14,5 km/h (3 Bft) 95,65 %
21.12.2017 02:57 1,6 C 3,9 C 92 % 1034,7 hPa 0,0 l/m 9,7 km/h (2 Bft) SW 225 0 min 0,000 mm 0,0 UV-I 0 W/m 0,4 C -1,4 C 14,5 km/h (3 Bft) 95,65 %
21.12.2017 02:58 1,6 C 3,9 C 92 % 1034,7 hPa 0,0 l/m 11,3 km/h (2 Bft) W-SW 247 0 min 0,000 mm 0,0 UV-I 0 W/m 0,4 C -2,7 C 14,5 km/h (3 Bft) 95,65 %
21.12.2017 02:59 1,6 C 3,9 C 92 % 1034,6 hPa 0,0 l/m 9,7 km/h (2 Bft) W-SW 247 0 min 0,000 mm 0,0 UV-I 0 W/m 0,4 C -1,4 C 14,5 km/h (3 Bft) 100,00 %
21.12.2017 03:00 1,6 C 3,9 C 92 % 1034,7 hPa 0,0 l/m 9,7 km/h (2 Bft) W-SW 247 0 min 0,000 mm 0,0 UV-I 0 W/m 0,4 C -1,4 C 14,5 km/h (3 Bft) 95,65 %
21.12.2017 03:01 1,6 C 3,9 C 92 % 1034,7 hPa 0,0 l/m 11,3 km/h (2 Bft) W-SW 247 0 min 0,000 mm 0,0 UV-I 0 W/m 0,4 C -2,7 C 14,5 km/h (3 Bft) 100,00 %
21.12.2017 03:02 1,6 C 3,9 C 92 % 1034,7 hPa 0,0 l/m 12,9 km/h (3 Bft) SW 225 0 min 0,000 mm 0,0 UV-I 0 W/m 0,4 C -3,8 C 17,7 km/h (3 Bft) 95,65 %
21.12.2017 03:03 1,6 C 3,9 C 91 % 1034,8 hPa 0,0 l/m 14,5 km/h (3 Bft) SW 225 0 min 0,000 mm 0,0 UV-I 0 W/m 0,3 C -4,8 C 20,9 km/h (4 Bft) 100,00 %
21.12.2017 03:04 1,6 C 3,9 C 91 % 1034,7 hPa 0,0 l/m 12,9 km/h (3 Bft) SW 225 0 min 0,000 mm 0,0 UV-I 0 W/m 0,3 C -3,8 C 20,9 km/h (4 Bft) 91,30 %
21.12.2017 03:05 1,6 C 3,9 C 92 % 1034,7 hPa 0,0 l/m 9,7 km/h (2 Bft) W-SW 247 0 min 0,000 mm 0,0 UV-I 0 W/m 0,4 C -1,4 C 16,1 km/h (3 Bft) 100,00 %
21.12.2017 03:06 1,6 C 3,9 C 91 % 1034,7 hPa 0,0 l/m 9,7 km/h (2 Bft) W-SW 247 0 min 0,000 mm 0,0 UV-I 0 W/m 0,3 C -1,4 C 16,1 km/h (3 Bft) 91,30 %
21.12.2017 03:07 1,6 C 3,9 C 91 % 1034,8 hPa 0,0 l/m 9,7 km/h (2 Bft) SW 225 0 min 0,000 mm 0,0 UV-I 0 W/m 0,3 C -1,4 C 14,5 km/h (3 Bft) 100,00 %
21.12.2017 03:08 1,6 C 3,9 C 91 % 1034,7 hPa 0,0 l/m 11,3 km/h (2 Bft) W-SW 247 0 min 0,000 mm 0,0 UV-I 0 W/m 0,3 C -2,7 C 17,7 km/h (3 Bft) 95,65 %
21.12.2017 03:09 1,6 C 3,9 C 91 % 1034,7 hPa 0,0 l/m 12,9 km/h (3 Bft) W-SW 247 0 min 0,000 mm 0,0 UV-I 0 W/m 0,3 C -3,8 C 19,3 km/h (3 Bft) 100,00 %
21.12.2017 03:10 1,6 C 3,9 C 91 % 1034,7 hPa 0,0 l/m 12,9 km/h (3 Bft) SW 225 0 min 0,000 mm 0,0 UV-I 0 W/m 0,3 C -3,8 C 16,1 km/h (3 Bft) 91,30 %
21.12.2017 03:11 1,6 C 3,9 C 91 % 1034,7 hPa 0,0 l/m 12,9 km/h (3 Bft) SW 225 0 min 0,000 mm 0,0 UV-I 0 W/m 0,3 C -3,8 C 20,9 km/h (4 Bft) 91,30 %
21.12.2017 03:12 1,6 C 3,9 C 91 % 1034,8 hPa 0,0 l/m 16,1 km/h (3 Bft) SW 225 0 min 0,000 mm 0,0 UV-I 0 W/m 0,3 C -5,7 C 22,5 km/h (4 Bft) 100,00 %
21.12.2017 03:13 1,6 C 3,9 C 91 % 1034,8 hPa 0,0 l/m 12,9 km/h (3 Bft) SW 225 0 min 0,000 mm 0,0 UV-I 0 W/m 0,3 C -3,8 C 16,1 km/h (3 Bft) 95,65 %
21.12.2017 03:14 1,6 C 3,9 C 91 % 1034,7 hPa 0,0 l/m 11,3 km/h (2 Bft) W-SW 247 0 min 0,000 mm 0,0 UV-I 0 W/m 0,3 C -2,7 C 22,5 km/h (4 Bft) 100,00 %
21.12.2017 03:15 1,6 C 3,9 C 91 % 1034,7 hPa 0,0 l/m 11,3 km/h (2 Bft) W-SW 247 0 min 0,000 mm 0,0 UV-I 0 W/m 0,3 C -2,7 C 14,5 km/h (3 Bft) 95,65 %
21.12.2017 03:16 1,6 C 3,9 C 91 % 1034,7 hPa 0,0 l/m 11,3 km/h (2 Bft) SW 225 0 min 0,000 mm 0,0 UV-I 0 W/m 0,3 C -2,7 C 17,7 km/h (3 Bft) 100,00 %
21.12.2017 03:17 1,6 C 3,9 C 91 % 1034,6 hPa 0,0 l/m 12,9 km/h (3 Bft) W-SW 247 0 min 0,000 mm 0,0 UV-I 0 W/m 0,3 C -3,8 C 19,3 km/h (3 Bft) 91,30 %
21.12.2017 03:18 1,6 C 3,9 C 91 % 1034,7 hPa 0,0 l/m 12,9 km/h (3 Bft) SW 225 0 min 0,000 mm 0,0 UV-I 0 W/m 0,3 C -3,8 C 17,7 km/h (3 Bft) 91,30 %
21.12.2017 03:19 1,6 C 3,9 C 91 % 1034,6 hPa 0,0 l/m 12,9 km/h (3 Bft) SW 225 0 min 0,000 mm 0,0 UV-I 0 W/m 0,3 C -3,8 C 17,7 km/h (3 Bft) 95,65 %
21.12.2017 03:20 1,6 C 3,9 C 91 % 1034,7 hPa 0,0 l/m 9,7 km/h (2 Bft) SW 225 0 min 0,000 mm 0,0 UV-I 0 W/m 0,3 C -1,4 C 14,5 km/h (3 Bft) 100,00 %
21.12.2017 03:21 1,6 C 3,9 C 91 % 1034,6 hPa 0,0 l/m 11,3 km/h (2 Bft) W-SW 247 0 min 0,000 mm 0,0 UV-I 0 W/m 0,3 C -2,7 C 14,5 km/h (3 Bft) 100,00 %
21.12.2017 03:22 1,6 C 3,9 C 91 % 1034,6 hPa 0,0 l/m 9,7 km/h (2 Bft) W-SW 247 0 min 0,000 mm 0,0 UV-I 0 W/m 0,3 C -1,4 C 24,1 km/h (4 Bft) 100,00 %
21.12.2017 03:23 1,6 C 3,9 C 91 % 1034,6 hPa 0,0 l/m 16,1 km/h (3 Bft) SW 225 0 min 0,000 mm 0,0 UV-I 0 W/m 0,3 C -5,7 C 20,9 km/h (4 Bft) 95,65 %
21.12.2017 03:24 1,6 C 3,9 C 91 % 1034,6 hPa 0,0 l/m 16,1 km/h (3 Bft) SW 225 0 min 0,000 mm 0,0 UV-I 0 W/m 0,3 C -5,7 C 24,1 km/h (4 Bft) 100,00 %
21.12.2017 03:25 1,6 C 3,9 C 91 % 1034,5 hPa 0,0 l/m 12,9 km/h (3 Bft) SW 225 0 min 0,000 mm 0,0 UV-I 0 W/m 0,3 C -3,8 C 20,9 km/h (4 Bft) 95,65 %
21.12.2017 03:26 1,6 C 3,9 C 91 % 1034,5 hPa 0,0 l/m 12,9 km/h (3 Bft) SW 225 0 min 0,000 mm 0,0 UV-I 0 W/m 0,3 C -3,8 C 19,3 km/h (3 Bft) 100,00 %
21.12.2017 03:27 1,6 C 3,9 C 91 % 1034,5 hPa 0,0 l/m 11,3 km/h (2 Bft) SW 225 0 min 0,000 mm 0,0 UV-I 0 W/m 0,3 C -2,7 C 16,1 km/h (3 Bft) 100,00 %
21.12.2017 03:28 1,6 C 3,9 C 91 % 1034,5 hPa 0,0 l/m 9,7 km/h (2 Bft) SW 225 0 min 0,000 mm 0,0 UV-I 0 W/m 0,3 C -1,4 C 14,5 km/h (3 Bft) 100,00 %
21.12.2017 03:29 1,6 C 3,9 C 90 % 1034,5 hPa 0,0 l/m 12,9 km/h (3 Bft) SW 225 0 min 0,000 mm 0,0 UV-I 0 W/m 0,1 C -3,8 C 19,3 km/h (3 Bft) 100,00 %
21.12.2017 03:30 1,6 C 3,9 C 91 % 1034,5 hPa 0,0 l/m 11,3 km/h (2 Bft) W-SW 247 0 min 0,000 mm 0,0 UV-I 0 W/m 0,3 C -2,7 C 19,3 km/h (3 Bft) 100,00 %
21.12.2017 03:31 1,6 C 3,9 C 90 % 1034,5 hPa 0,0 l/m 11,3 km/h (2 Bft) W-SW 247 0 min 0,000 mm 0,0 UV-I 0 W/m 0,1 C -2,7 C 17,7 km/h (3 Bft) 100,00 %
21.12.2017 03:32 1,6 C 3,9 C 90 % 1034,5 hPa 0,0 l/m 8,0 km/h (2 Bft) W-SW 247 0 min 0,000 mm 0,0 UV-I 0 W/m 0,1 C 0,0 C 16,1 km/h (3 Bft) 95,65 %
21.12.2017 03:33 1,6 C 3,9 C 90 % 1034,5 hPa 0,0 l/m 14,5 km/h (3 Bft) SW 225 0 min 0,000 mm 0,0 UV-I 0 W/m 0,1 C -4,8 C 19,3 km/h (3 Bft) 100,00 %
21.12.2017 03:34 1,6 C 3,9 C 90 % 1034,5 hPa 0,0 l/m 12,9 km/h (3 Bft) SW 225 0 min 0,000 mm 0,0 UV-I 0 W/m 0,1 C -3,8 C 16,1 km/h (3 Bft) 95,65 %
21.12.2017 03:35 1,6 C 3,9 C 90 % 1034,5 hPa 0,0 l/m 9,7 km/h (2 Bft) SW 225 0 min 0,000 mm 0,0 UV-I 0 W/m 0,1 C -1,4 C 14,5 km/h (3 Bft) 100,00 %
21.12.2017 03:36 1,6 C 3,9 C 90 % 1034,5 hPa 0,0 l/m 11,3 km/h (2 Bft) SW 225 0 min 0,000 mm 0,0 UV-I 0 W/m 0,1 C -2,7 C 17,7 km/h (3 Bft) 100,00 %
21.12.2017 03:37 1,6 C 3,9 C 90 % 1034,5 hPa 0,0 l/m 14,5 km/h (3 Bft) SW 225 0 min 0,000 mm 0,0 UV-I 0 W/m 0,1 C -4,8 C 20,9 km/h (4 Bft) 100,00 %
21.12.2017 03:38 1,6 C 3,9 C 90 % 1034,5 hPa 0,0 l/m 11,3 km/h (2 Bft) SW 225 0 min 0,000 mm 0,0 UV-I 0 W/m 0,1 C -2,7 C 17,7 km/h (3 Bft) 100,00 %
21.12.2017 03:39 1,6 C 3,9 C 90 % 1034,5 hPa 0,0 l/m 9,7 km/h (2 Bft) SW 225 0 min 0,000 mm 0,0 UV-I 0 W/m 0,1 C -1,4 C 14,5 km/h (3 Bft) 95,65 %
21.12.2017 03:40 1,6 C 3,9 C 90 % 1034,5 hPa 0,0 l/m 12,9 km/h (3 Bft) SW 225 0 min 0,000 mm 0,0 UV-I 0 W/m 0,1 C -3,8 C 17,7 km/h (3 Bft) 100,00 %
21.12.2017 03:41 1,6 C 3,9 C 90 % 1034,5 hPa 0,0 l/m 11,3 km/h (2 Bft) W-SW 247 0 min 0,000 mm 0,0 UV-I 0 W/m 0,1 C -2,7 C 16,1 km/h (3 Bft) 100,00 %
21.12.2017 03:42 1,6 C 3,9 C 90 % 1034,5 hPa 0,0 l/m 11,3 km/h (2 Bft) W-SW 247 0 min 0,000 mm 0,0 UV-I 0 W/m 0,1 C -2,7 C 16,1 km/h (3 Bft) 100,00 %
21.12.2017 03:43 1,6 C 3,9 C 90 % 1034,5 hPa 0,0 l/m 12,9 km/h (3 Bft) SW 225 0 min 0,000 mm 0,0 UV-I 0 W/m 0,1 C -3,8 C 17,7 km/h (3 Bft) 100,00 %
21.12.2017 03:44 1,6 C 3,9 C 90 % 1034,5 hPa 0,0 l/m 11,3 km/h (2 Bft) SW 225 0 min 0,000 mm 0,0 UV-I 0 W/m 0,1 C -2,7 C 17,7 km/h (3 Bft) 100,00 %
21.12.2017 03:45 1,6 C 3,9 C 90 % 1034,4 hPa 0,0 l/m 11,3 km/h (2 Bft) SW 225 0 min 0,000 mm 0,0 UV-I 0 W/m 0,1 C -2,7 C 17,7 km/h (3 Bft) 100,00 %
21.12.2017 03:46 1,6 C 3,9 C 90 % 1034,4 hPa 0,0 l/m 11,3 km/h (2 Bft) W-SW 247 0 min 0,000 mm 0,0 UV-I 0 W/m 0,1 C -2,7 C 14,5 km/h (3 Bft) 95,65 %
21.12.2017 03:47 1,6 C 3,9 C 90 % 1034,4 hPa 0,0 l/m 11,3 km/h (2 Bft) SW 225 0 min 0,000 mm 0,0 UV-I 0 W/m 0,1 C -2,7 C 16,1 km/h (3 Bft) 95,65 %
21.12.2017 03:48 1,6 C 3,9 C 90 % 1034,4 hPa 0,0 l/m 14,5 km/h (3 Bft) SW 225 0 min 0,000 mm 0,0 UV-I 0 W/m 0,1 C -4,8 C 19,3 km/h (3 Bft) 100,00 %
21.12.2017 03:49 1,6 C 3,9 C 90 % 1034,5 hPa 0,0 l/m 14,5 km/h (3 Bft) W-SW 247 0 min 0,000 mm 0,0 UV-I 0 W/m 0,1 C -4,8 C 19,3 km/h (3 Bft) 100,00 %
21.12.2017 03:50 1,6 C 3,9 C 90 % 1034,4 hPa 0,0 l/m 9,7 km/h (2 Bft) SW 225 0 min 0,000 mm 0,0 UV-I 0 W/m 0,1 C -1,4 C 14,5 km/h (3 Bft) 100,00 %
21.12.2017 03:51 1,6 C 3,9 C 90 % 1034,3 hPa 0,0 l/m 8,0 km/h (2 Bft) SW 225 0 min 0,000 mm 0,0 UV-I 0 W/m 0,1 C 0,0 C 11,3 km/h (2 Bft) 100,00 %
21.12.2017 03:52 1,6 C 3,9 C 90 % 1034,3 hPa 0,0 l/m 9,7 km/h (2 Bft) SW 225 0 min 0,000 mm 0,0 UV-I 0 W/m 0,1 C -1,4 C 14,5 km/h (3 Bft) 95,65 %
21.12.2017 03:53 1,6 C 3,9 C 90 % 1034,3 hPa 0,0 l/m 11,3 km/h (2 Bft) SW 225 0 min 0,000 mm 0,0 UV-I 0 W/m 0,1 C -2,7 C 14,5 km/h (3 Bft) 95,65 %
21.12.2017 03:54 1,6 C 3,9 C 90 % 1034,3 hPa 0,0 l/m 8,0 km/h (2 Bft) SW 225 0 min 0,000 mm 0,0 UV-I 0 W/m 0,1 C 0,0 C 11,3 km/h (2 Bft) 100,00 %
21.12.2017 03:55 1,6 C 3,9 C 90 % 1034,3 hPa 0,0 l/m 11,3 km/h (2 Bft) SW 225 0 min 0,000 mm 0,0 UV-I 0 W/m 0,1 C -2,7 C 14,5 km/h (3 Bft) 100,00 %
21.12.2017 03:56 1,6 C 3,9 C 90 % 1034,3 hPa 0,0 l/m 9,7 km/h (2 Bft) SW 225 0 min 0,000 mm 0,0 UV-I 0 W/m 0,1 C -1,4 C 16,1 km/h (3 Bft) 95,65 %
21.12.2017 03:57 1,6 C 3,9 C 90 % 1034,3 hPa 0,0 l/m 9,7 km/h (2 Bft) SW 225 0 min 0,000 mm 0,0 UV-I 0 W/m 0,1 C -1,4 C 12,9 km/h (3 Bft) 100,00 %
21.12.2017 03:58 1,6 C 3,9 C 90 % 1034,3 hPa 0,0 l/m 11,3 km/h (2 Bft) SW 225 0 min 0,000 mm 0,0 UV-I 0 W/m 0,1 C -2,7 C 14,5 km/h (3 Bft) 100,00 %
21.12.2017 03:59 1,6 C 3,9 C 90 % 1034,3 hPa 0,0 l/m 14,5 km/h (3 Bft) SW 225 0 min 0,000 mm 0,0 UV-I 0 W/m 0,1 C -4,8 C 19,3 km/h (3 Bft) 100,00 %
21.12.2017 04:00 1,6 C 3,9 C 90 % 1034,3 hPa 0,0 l/m 12,9 km/h (3 Bft) SW 225 0 min 0,000 mm 0,0 UV-I 0 W/m 0,1 C -3,8 C 17,7 km/h (3 Bft) 91,30 %
21.12.2017 04:01 1,6 C 3,9 C 90 % 1034,3 hPa 0,0 l/m 11,3 km/h (2 Bft) SW 225 0 min 0,000 mm 0,0 UV-I 0 W/m 0,1 C -2,7 C 16,1 km/h (3 Bft) 95,65 %
21.12.2017 04:02 1,6 C 3,9 C 90 % 1034,3 hPa 0,0 l/m 11,3 km/h (2 Bft) SW 225 0 min 0,000 mm 0,0 UV-I 0 W/m 0,1 C -2,7 C 16,1 km/h (3 Bft) 100,00 %
21.12.2017 04:03 1,6 C 3,9 C 90 % 1034,4 hPa 0,0 l/m 12,9 km/h (3 Bft) SW 225 0 min 0,000 mm 0,0 UV-I 0 W/m 0,1 C -3,8 C 16,1 km/h (3 Bft) 95,65 %
21.12.2017 04:04 1,6 C 3,9 C 90 % 1034,3 hPa 0,0 l/m 12,9 km/h (3 Bft) SW 225 0 min 0,000 mm 0,0 UV-I 0 W/m 0,1 C -3,8 C 16,1 km/h (3 Bft) 100,00 %
21.12.2017 04:05 1,6 C 3,9 C 90 % 1034,3 hPa 0,0 l/m 12,9 km/h (3 Bft) SW 225 0 min 0,000 mm 0,0 UV-I 0 W/m 0,1 C -3,8 C 17,7 km/h (3 Bft) 95,65 %
21.12.2017 04:06 1,6 C 3,9 C 90 % 1034,3 hPa 0,0 l/m 9,7 km/h (2 Bft) SW 225 0 min 0,000 mm 0,0 UV-I 0 W/m 0,1 C -1,4 C 16,1 km/h (3 Bft) 100,00 %
21.12.2017 04:07 1,5 C 3,9 C 90 % 1034,2 hPa 0,0 l/m 8,0 km/h (2 Bft) S-SW 202 0 min 0,000 mm 0,0 UV-I 0 W/m 0,0 C -0,1 C 11,3 km/h (2 Bft) 91,30 %
21.12.2017 04:08 1,6 C 3,9 C 90 % 1034,2 hPa 0,0 l/m 9,7 km/h (2 Bft) SW 225 0 min 0,000 mm 0,0 UV-I 0 W/m 0,1 C -1,4 C 14,5 km/h (3 Bft) 100,00 %
21.12.2017 04:09 1,5 C 3,9 C 90 % 1034,2 hPa 0,0 l/m 8,0 km/h (2 Bft) SW 225 0 min 0,000 mm 0,0 UV-I 0 W/m 0,0 C -0,1 C 14,5 km/h (3 Bft) 95,65 %
21.12.2017 04:10 1,6 C 3,9 C 90 % 1034,3 hPa 0,0 l/m 11,3 km/h (2 Bft) W-SW 247 0 min 0,000 mm 0,0 UV-I 0 W/m 0,1 C -2,7 C 16,1 km/h (3 Bft) 95,65 %
21.12.2017 04:11 1,6 C 3,9 C 90 % 1034,3 hPa 0,0 l/m 12,9 km/h (3 Bft) SW 225 0 min 0,000 mm 0,0 UV-I 0 W/m 0,1 C -3,8 C 16,1 km/h (3 Bft) 100,00 %
21.12.2017 04:12 1,6 C 3,9 C 90 % 1034,3 hPa 0,0 l/m 9,7 km/h (2 Bft) SW 225 0 min 0,000 mm 0,0 UV-I 0 W/m 0,1 C -1,4 C 14,5 km/h (3 Bft) 95,65 %
21.12.2017 04:13 1,5 C 3,9 C 90 % 1034,3 hPa 0,0 l/m 9,7 km/h (2 Bft) SW 225 0 min 0,000 mm 0,0 UV-I 0 W/m 0,0 C -1,6 C 16,1 km/h (3 Bft) 95,65 %
21.12.2017 04:14 1,5 C 3,9 C 90 % 1034,3 hPa 0,0 l/m 9,7 km/h (2 Bft) SW 225 0 min 0,000 mm 0,0 UV-I 0 W/m 0,0 C -1,6 C 14,5 km/h (3 Bft) 91,30 %
21.12.2017 04:15 1,5 C 3,9 C 90 % 1034,3 hPa 0,0 l/m 9,7 km/h (2 Bft) SW 225 0 min 0,000 mm 0,0 UV-I 0 W/m 0,0 C -1,6 C 14,5 km/h (3 Bft) 100,00 %
21.12.2017 04:16 1,6 C 3,9 C 90 % 1034,3 hPa 0,0 l/m 8,0 km/h (2 Bft) SW 225 0 min 0,000 mm 0,0 UV-I 0 W/m 0,1 C 0,0 C 11,3 km/h (2 Bft) 95,65 %
21.12.2017 04:17 1,6 C 3,9 C 90 % 1034,5 hPa 0,0 l/m 11,3 km/h (2 Bft) W-SW 247 0 min 0,000 mm 0,0 UV-I 0 W/m 0,1 C -2,7 C 17,7 km/h (3 Bft) 95,65 %
21.12.2017 04:18 1,6 C 3,9 C 90 % 1034,5 hPa 0,0 l/m 9,7 km/h (2 Bft) SW 225 0 min 0,000 mm 0,0 UV-I 0 W/m 0,1 C -1,4 C 16,1 km/h (3 Bft) 100,00 %
21.12.2017 04:19 1,6 C 3,9 C 90 % 1034,4 hPa 0,0 l/m 11,3 km/h (2 Bft) SW 225 0 min 0,000 mm 0,0 UV-I 0 W/m 0,1 C -2,7 C 16,1 km/h (3 Bft) 95,65 %
21.12.2017 04:20 1,6 C 3,9 C 90 % 1034,4 hPa 0,0 l/m 12,9 km/h (3 Bft) SW 225 0 min 0,000 mm 0,0 UV-I 0 W/m 0,1 C -3,8 C 17,7 km/h (3 Bft) 100,00 %
21.12.2017 04:21 1,6 C 3,9 C 90 % 1034,5 hPa 0,0 l/m 14,5 km/h (3 Bft) SW 225 0 min 0,000 mm 0,0 UV-I 0 W/m 0,1 C -4,8 C 19,3 km/h (3 Bft) 91,30 %
21.12.2017 04:22 1,6 C 3,9 C 90 % 1034,4 hPa 0,0 l/m 14,5 km/h (3 Bft) SW 225 0 min 0,000 mm 0,0 UV-I 0 W/m 0,1 C -4,8 C 20,9 km/h (4 Bft) 100,00 %
21.12.2017 04:23 1,6 C 3,9 C 90 % 1034,5 hPa 0,0 l/m 16,1 km/h (3 Bft) SW 225 0 min 0,000 mm 0,0 UV-I 0 W/m 0,1 C -5,7 C 19,3 km/h (3 Bft) 95,65 %
21.12.2017 04:24 1,6 C 3,9 C 90 % 1034,4 hPa 0,0 l/m 11,3 km/h (2 Bft) SW 225 0 min 0,000 mm 0,0 UV-I 0 W/m 0,1 C -2,7 C 19,3 km/h (3 Bft) 100,00 %
21.12.2017 04:25 1,6 C 3,9 C 90 % 1034,4 hPa 0,0 l/m 14,5 km/h (3 Bft) SW 225 0 min 0,000 mm 0,0 UV-I 0 W/m 0,1 C -4,8 C 19,3 km/h (3 Bft) 91,30 %
21.12.2017 04:26 1,6 C 3,9 C 90 % 1034,4 hPa 0,0 l/m 12,9 km/h (3 Bft) SW 225 0 min 0,000 mm 0,0 UV-I 0 W/m 0,1 C -3,8 C 16,1 km/h (3 Bft) 91,30 %
21.12.2017 04:27 1,6 C 3,9 C 90 % 1034,3 hPa 0,0 l/m 14,5 km/h (3 Bft) SW 225 0 min 0,000 mm 0,0 UV-I 0 W/m 0,1 C -4,8 C 20,9 km/h (4 Bft) 95,65 %
21.12.2017 04:28 1,6 C 3,9 C 90 % 1034,4 hPa 0,0 l/m 11,3 km/h (2 Bft) SW 225 0 min 0,000 mm 0,0 UV-I 0 W/m 0,1 C -2,7 C 14,5 km/h (3 Bft) 91,30 %
21.12.2017 04:29 1,6 C 3,9 C 90 % 1034,5 hPa 0,0 l/m 11,3 km/h (2 Bft) W-SW 247 0 min 0,000 mm 0,0 UV-I 0 W/m 0,1 C -2,7 C 20,9 km/h (4 Bft) 95,65 %
21.12.2017 04:30 1,6 C 3,9 C 90 % 1034,5 hPa 0,0 l/m 12,9 km/h (3 Bft) W-SW 247 0 min 0,000 mm 0,0 UV-I 0 W/m 0,1 C -3,8 C 19,3 km/h (3 Bft) 95,65 %
21.12.2017 04:31 1,6 C 3,9 C 90 % 1034,5 hPa 0,0 l/m 14,5 km/h (3 Bft) W-SW 247 0 min 0,000 mm 0,0 UV-I 0 W/m 0,1 C -4,8 C 19,3 km/h (3 Bft) 95,65 %
21.12.2017 04:32 1,6 C 3,9 C 90 % 1034,4 hPa 0,0 l/m 14,5 km/h (3 Bft) W-SW 247 0 min 0,000 mm 0,0 UV-I 0 W/m 0,1 C -4,8 C 17,7 km/h (3 Bft) 91,30 %
21.12.2017 04:33 1,6 C 3,9 C 90 % 1034,5 hPa 0,0 l/m 14,5 km/h (3 Bft) W-SW 247 0 min 0,000 mm 0,0 UV-I 0 W/m 0,1 C -4,8 C 20,9 km/h (4 Bft) 95,65 %
21.12.2017 04:34 1,6 C 3,9 C 90 % 1034,5 hPa 0,0 l/m 11,3 km/h (2 Bft) W-SW 247 0 min 0,000 mm 0,0 UV-I 0 W/m 0,1 C -2,7 C 16,1 km/h (3 Bft) 91,30 %
21.12.2017 04:35 1,6 C 3,9 C 90 % 1034,4 hPa 0,0 l/m 9,7 km/h (2 Bft) SW 225 0 min 0,000 mm 0,0 UV-I 0 W/m 0,1 C -1,4 C 16,1 km/h (3 Bft) 91,30 %
21.12.2017 04:36 1,6 C 3,9 C 90 % 1034,4 hPa 0,0 l/m 9,7 km/h (2 Bft) W-SW 247 0 min 0,000 mm 0,0 UV-I 0 W/m 0,1 C -1,4 C 14,5 km/h (3 Bft) 95,65 %
21.12.2017 04:37 1,6 C 3,9 C 90 % 1034,4 hPa 0,0 l/m 8,0 km/h (2 Bft) W-SW 247 0 min 0,000 mm 0,0 UV-I 0 W/m 0,1 C 0,0 C 12,9 km/h (3 Bft) 91,30 %
21.12.2017 04:38 1,6 C 3,9 C 90 % 1034,5 hPa 0,0 l/m 12,9 km/h (3 Bft) W-SW 247 0 min 0,000 mm 0,0 UV-I 0 W/m 0,1 C -3,8 C 19,3 km/h (3 Bft) 95,65 %
21.12.2017 04:39 1,6 C 3,9 C 90 % 1034,4 hPa 0,0 l/m 11,3 km/h (2 Bft) SW 225 0 min 0,000 mm 0,0 UV-I 0 W/m 0,1 C -2,7 C 17,7 km/h (3 Bft) 95,65 %
21.12.2017 04:40 1,6 C 3,9 C 90 % 1034,4 hPa 0,0 l/m 11,3 km/h (2 Bft) W-SW 247 0 min 0,000 mm 0,0 UV-I 0 W/m 0,1 C -2,7 C 16,1 km/h (3 Bft) 95,65 %
21.12.2017 04:41 1,7 C 3,9 C 90 % 1034,5 hPa 0,0 l/m 9,7 km/h (2 Bft) W-SW 247 0 min 0,000 mm 0,0 UV-I 0 W/m 0,2 C -1,3 C 14,5 km/h (3 Bft) 95,65 %
21.12.2017 04:42 1,7 C 3,9 C 90 % 1034,5 hPa 0,0 l/m 12,9 km/h (3 Bft) W-SW 247 0 min 0,000 mm 0,0 UV-I 0 W/m 0,2 C -3,6 C 19,3 km/h (3 Bft) 91,30 %
21.12.2017 04:43 1,7 C 3,9 C 90 % 1034,5 hPa 0,0 l/m 12,9 km/h (3 Bft) W-SW 247 0 min 0,000 mm 0,0 UV-I 0 W/m 0,2 C -3,6 C 14,5 km/h (3 Bft) 95,65 %
21.12.2017 04:44 1,7 C 3,9 C 89 % 1034,5 hPa 0,0 l/m 11,3 km/h (2 Bft) W-SW 247 0 min 0,000 mm 0,0 UV-I 0 W/m 0,1 C -2,6 C 14,5 km/h (3 Bft) 91,30 %
21.12.2017 04:45 1,6 C 3,9 C 90 % 1034,5 hPa 0,0 l/m 11,3 km/h (2 Bft) W-SW 247 0 min 0,000 mm 0,0 UV-I 0 W/m 0,1 C -2,7 C 16,1 km/h (3 Bft) 100,00 %
21.12.2017 04:46 1,6 C 3,9 C 90 % 1034,5 hPa 0,0 l/m 14,5 km/h (3 Bft) W-SW 247 0 min 0,000 mm 0,0 UV-I 0 W/m 0,1 C -4,8 C 20,9 km/h (4 Bft) 91,30 %
21.12.2017 04:47 1,6 C 3,9 C 90 % 1034,5 hPa 0,0 l/m 12,9 km/h (3 Bft) W-SW 247 0 min 0,000 mm 0,0 UV-I 0 W/m 0,1 C -3,8 C 16,1 km/h (3 Bft) 95,65 %
21.12.2017 04:48 1,7 C 3,9 C 90 % 1034,5 hPa 0,0 l/m 11,3 km/h (2 Bft) W-SW 247 0 min 0,000 mm 0,0 UV-I 0 W/m 0,2 C -2,6 C 20,9 km/h (4 Bft) 100,00 %
21.12.2017 04:49 1,6 C 3,9 C 89 % 1034,5 hPa 0,0 l/m 16,1 km/h (3 Bft) W-SW 247 0 min 0,000 mm 0,0 UV-I 0 W/m -0,0 C -5,7 C 19,3 km/h (3 Bft) 91,30 %
21.12.2017 04:50 1,7 C 3,9 C 89 % 1034,4 hPa 0,0 l/m 11,3 km/h (2 Bft) W-SW 247 0 min 0,000 mm 0,0 UV-I 0 W/m 0,1 C -2,6 C 16,1 km/h (3 Bft) 100,00 %
21.12.2017 04:51 1,7 C 3,9 C 89 % 1034,5 hPa 0,0 l/m 11,3 km/h (2 Bft) W-SW 247 0 min 0,000 mm 0,0 UV-I 0 W/m 0,1 C -2,6 C 17,7 km/h (3 Bft) 100,00 %
21.12.2017 04:52 1,7 C 3,9 C 89 % 1034,5 hPa 0,0 l/m 11,3 km/h (2 Bft) W-SW 247 0 min 0,000 mm 0,0 UV-I 0 W/m 0,1 C -2,6 C 17,7 km/h (3 Bft) 100,00 %
21.12.2017 04:53 1,7 C 3,9 C 89 % 1034,5 hPa 0,0 l/m 9,7 km/h (2 Bft) W-SW 247 0 min 0,000 mm 0,0 UV-I 0 W/m 0,1 C -1,3 C 16,1 km/h (3 Bft) 100,00 %
21.12.2017 04:54 1,7 C 3,9 C 90 % 1034,5 hPa 0,0 l/m 12,9 km/h (3 Bft) W-SW 247 0 min 0,000 mm 0,0 UV-I 0 W/m 0,2 C -3,6 C 16,1 km/h (3 Bft) 100,00 %
21.12.2017 04:55 1,6 C 3,9 C 90 % 1034,5 hPa 0,0 l/m 12,9 km/h (3 Bft) W-SW 247 0 min 0,000 mm 0,0 UV-I 0 W/m 0,1 C -3,8 C 17,7 km/h (3 Bft) 100,00 %
21.12.2017 04:56 1,6 C 3,9 C 90 % 1034,5 hPa 0,0 l/m 11,3 km/h (2 Bft) W-SW 247 0 min 0,000 mm 0,0 UV-I 0 W/m 0,1 C -2,7 C 14,5 km/h (3 Bft) 91,30 %
21.12.2017 04:57 1,6 C 3,9 C 90 % 1034,5 hPa 0,0 l/m 11,3 km/h (2 Bft) W-SW 247 0 min 0,000 mm 0,0 UV-I 0 W/m 0,1 C -2,7 C 16,1 km/h (3 Bft) 95,65 %
21.12.2017 04:58 1,7 C 3,9 C 90 % 1034,5 hPa 0,0 l/m 12,9 km/h (3 Bft) W-SW 247 0 min 0,000 mm 0,0 UV-I 0 W/m 0,2 C -3,6 C 17,7 km/h (3 Bft) 100,00 %
21.12.2017 04:59 1,7 C 3,9 C 90 % 1034,5 hPa 0,0 l/m 14,5 km/h (3 Bft) W 270 0 min 0,000 mm 0,0 UV-I 0 W/m 0,2 C -4,6 C 16,1 km/h (3 Bft) 100,00 %
21.12.2017 05:00 1,7 C 3,9 C 90 % 1034,5 hPa 0,0 l/m 12,9 km/h (3 Bft) W 270 0 min 0,000 mm 0,0 UV-I 0 W/m 0,2 C -3,6 C 17,7 km/h (3 Bft) 100,00 %
21.12.2017 05:01 1,7 C 3,9 C 90 % 1034,5 hPa 0,0 l/m 12,9 km/h (3 Bft) W-SW 247 0 min 0,000 mm 0,0 UV-I 0 W/m 0,2 C -3,6 C 17,7 km/h (3 Bft) 100,00 %
21.12.2017 05:02 1,7 C 3,9 C 90 % 1034,5 hPa 0,0 l/m 9,7 km/h (2 Bft) W-SW 247 0 min 0,000 mm 0,0 UV-I 0 W/m 0,2 C -1,3 C 11,3 km/h (2 Bft) 100,00 %
21.12.2017 05:03 1,7 C 3,9 C 90 % 1034,6 hPa 0,0 l/m 11,3 km/h (2 Bft) W-SW 247 0 min 0,000 mm 0,0 UV-I 0 W/m 0,2 C -2,6 C 12,9 km/h (3 Bft) 95,65 %
21.12.2017 05:04 1,7 C 3,9 C 90 % 1034,6 hPa 0,0 l/m 11,3 km/h (2 Bft) W-SW 247 0 min 0,000 mm 0,0 UV-I 0 W/m 0,2 C -2,6 C 14,5 km/h (3 Bft) 100,00 %
21.12.2017 05:05 1,7 C 3,9 C 90 % 1034,6 hPa 0,0 l/m 12,9 km/h (3 Bft) W-SW 247 0 min 0,000 mm 0,0 UV-I 0 W/m 0,2 C -3,6 C 17,7 km/h (3 Bft) 95,65 %
21.12.2017 05:06 1,7 C 3,9 C 90 % 1034,7 hPa 0,0 l/m 11,3 km/h (2 Bft) W-SW 247 0 min 0,000 mm 0,0 UV-I 0 W/m 0,2 C -2,6 C 16,1 km/h (3 Bft) 100,00 %
21.12.2017 05:07 1,7 C 3,9 C 90 % 1034,7 hPa 0,0 l/m 12,9 km/h (3 Bft) W 270 0 min 0,000 mm 0,0 UV-I 0 W/m 0,2 C -3,6 C 16,1 km/h (3 Bft) 100,00 %
21.12.2017 05:08 1,7 C 3,9 C 90 % 1034,7 hPa 0,0 l/m 16,1 km/h (3 Bft) W-SW 247 0 min 0,000 mm 0,0 UV-I 0 W/m 0,2 C -5,5 C 19,3 km/h (3 Bft) 100,00 %
21.12.2017 05:09 1,7 C 3,9 C 90 % 1034,7 hPa 0,0 l/m 12,9 km/h (3 Bft) W 270 0 min 0,000 mm 0,0 UV-I 0 W/m 0,2 C -3,6 C 17,7 km/h (3 Bft) 100,00 %
21.12.2017 05:10 1,7 C 3,9 C 90 % 1034,8 hPa 0,0 l/m 11,3 km/h (2 Bft) W 270 0 min 0,000 mm 0,0 UV-I 0 W/m 0,2 C -2,6 C 12,9 km/h (3 Bft) 95,65 %
21.12.2017 05:11 1,7 C 3,9 C 90 % 1034,7 hPa 0,0 l/m 11,3 km/h (2 Bft) W 270 0 min 0,000 mm 0,0 UV-I 0 W/m 0,2 C -2,6 C 14,5 km/h (3 Bft) 100,00 %
21.12.2017 05:12 1,7 C 3,9 C 90 % 1034,8 hPa 0,0 l/m 12,9 km/h (3 Bft) W-SW 247 0 min 0,000 mm 0,0 UV-I 0 W/m 0,2 C -3,6 C 16,1 km/h (3 Bft) 100,00 %
21.12.2017 05:13 1,7 C 3,9 C 90 % 1034,8 hPa 0,0 l/m 11,3 km/h (2 Bft) W-SW 247 0 min 0,000 mm 0,0 UV-I 0 W/m 0,2 C -2,6 C 12,9 km/h (3 Bft) 100,00 %
21.12.2017 05:14 1,7 C 3,9 C 90 % 1034,8 hPa 0,0 l/m 11,3 km/h (2 Bft) W-SW 247 0 min 0,000 mm 0,0 UV-I 0 W/m 0,2 C -2,6 C 14,5 km/h (3 Bft) 100,00 %
21.12.2017 05:15 1,6 C 3,9 C 90 % 1034,7 hPa 0,0 l/m 11,3 km/h (2 Bft) W-SW 247 0 min 0,000 mm 0,0 UV-I 0 W/m 0,1 C -2,7 C 14,5 km/h (3 Bft) 100,00 %
21.12.2017 05:16 1,6 C 3,9 C 90 % 1034,7 hPa 0,0 l/m 14,5 km/h (3 Bft) W-SW 247 0 min 0,000 mm 0,0 UV-I 0 W/m 0,1 C -4,8 C 17,7 km/h (3 Bft) 95,65 %
21.12.2017 05:17 1,6 C 3,9 C 90 % 1034,7 hPa 0,0 l/m 14,5 km/h (3 Bft) W-SW 247 0 min 0,000 mm 0,0 UV-I 0 W/m 0,1 C -4,8 C 19,3 km/h (3 Bft) 95,65 %
21.12.2017 05:18 1,6 C 3,9 C 90 % 1034,7 hPa 0,0 l/m 11,3 km/h (2 Bft) W-SW 247 0 min 0,000 mm 0,0 UV-I 0 W/m 0,1 C -2,7 C 16,1 km/h (3 Bft) 95,65 %
21.12.2017 05:19 1,7 C 3,9 C 90 % 1034,6 hPa 0,0 l/m 12,9 km/h (3 Bft) SW 225 0 min 0,000 mm 0,0 UV-I 0 W/m 0,2 C -3,6 C 17,7 km/h (3 Bft) 100,00 %
21.12.2017 05:20 1,7 C 3,9 C 90 % 1034,7 hPa 0,0 l/m 11,3 km/h (2 Bft) W-SW 247 0 min 0,000 mm 0,0 UV-I 0 W/m 0,2 C -2,6 C 19,3 km/h (3 Bft) 100,00 %
21.12.2017 05:21 1,7 C 3,9 C 89 % 1034,7 hPa 0,0 l/m 12,9 km/h (3 Bft) W-SW 247 0 min 0,000 mm 0,0 UV-I 0 W/m 0,1 C -3,6 C 20,9 km/h (4 Bft) 100,00 %
21.12.2017 05:22 1,7 C 3,9 C 90 % 1034,7 hPa 0,0 l/m 12,9 km/h (3 Bft) W-SW 247 0 min 0,000 mm 0,0 UV-I 0 W/m 0,2 C -3,6 C 20,9 km/h (4 Bft) 91,30 %
21.12.2017 05:23 1,7 C 3,9 C 90 % 1034,7 hPa 0,0 l/m 14,5 km/h (3 Bft) W-SW 247 0 min 0,000 mm 0,0 UV-I 0 W/m 0,2 C -4,6 C 22,5 km/h (4 Bft) 95,65 %
21.12.2017 05:24 1,7 C 3,9 C 89 % 1034,7 hPa 0,0 l/m 16,1 km/h (3 Bft) W-SW 247 0 min 0,000 mm 0,0 UV-I 0 W/m 0,1 C -5,5 C 22,5 km/h (4 Bft) 100,00 %
21.12.2017 05:25 1,7 C 3,9 C 89 % 1034,7 hPa 0,0 l/m 11,3 km/h (2 Bft) W-SW 247 0 min 0,000 mm 0,0 UV-I 0 W/m 0,1 C -2,6 C 19,3 km/h (3 Bft) 95,65 %
21.12.2017 05:26 1,7 C 3,9 C 89 % 1034,7 hPa 0,0 l/m 14,5 km/h (3 Bft) W 270 0 min 0,000 mm 0,0 UV-I 0 W/m 0,1 C -4,6 C 20,9 km/h (4 Bft) 100,00 %
21.12.2017 05:27 1,7 C 3,9 C 89 % 1034,7 hPa 0,0 l/m 12,9 km/h (3 Bft) W-SW 247 0 min 0,000 mm 0,0 UV-I 0 W/m 0,1 C -3,6 C 19,3 km/h (3 Bft) 100,00 %
21.12.2017 05:28 1,7 C 3,9 C 89 % 1034,7 hPa 0,0 l/m 9,7 km/h (2 Bft) W-SW 247 0 min 0,000 mm 0,0 UV-I 0 W/m 0,1 C -1,3 C 12,9 km/h (3 Bft) 95,65 %
21.12.2017 05:29 1,7 C 3,9 C 89 % 1034,7 hPa 0,0 l/m 12,9 km/h (3 Bft) W 270 0 min 0,000 mm 0,0 UV-I 0 W/m 0,1 C -3,6 C 19,3 km/h (3 Bft) 100,00 %
21.12.2017 05:30 1,7 C 3,9 C 89 % 1034,8 hPa 0,0 l/m 14,5 km/h (3 Bft) W-SW 247 0 min 0,000 mm 0,0 UV-I 0 W/m 0,1 C -4,6 C 19,3 km/h (3 Bft) 100,00 %
21.12.2017 05:31 1,7 C 3,9 C 89 % 1034,7 hPa 0,0 l/m 12,9 km/h (3 Bft) W-SW 247 0 min 0,000 mm 0,0 UV-I 0 W/m 0,1 C -3,6 C 14,5 km/h (3 Bft) 95,65 %
21.12.2017 05:32 1,7 C 3,9 C 89 % 1034,7 hPa 0,0 l/m 9,7 km/h (2 Bft) W-SW 247 0 min 0,000 mm 0,0 UV-I 0 W/m 0,1 C -1,3 C 11,3 km/h (2 Bft) 95,65 %
21.12.2017 05:33 1,7 C 3,9 C 89 % 1034,7 hPa 0,0 l/m 14,5 km/h (3 Bft) W-SW 247 0 min 0,000 mm 0,0 UV-I 0 W/m 0,1 C -4,6 C 24,1 km/h (4 Bft) 100,00 %
21.12.2017 05:34 1,7 C 3,9 C 89 % 1034,7 hPa 0,0 l/m 11,3 km/h (2 Bft) SW 225 0 min 0,000 mm 0,0 UV-I 0 W/m 0,1 C -2,6 C 16,1 km/h (3 Bft) 100,00 %
21.12.2017 05:35 1,7 C 3,9 C 89 % 1034,6 hPa 0,0 l/m 12,9 km/h (3 Bft) W-SW 247 0 min 0,000 mm 0,0 UV-I 0 W/m 0,1 C -3,6 C 16,1 km/h (3 Bft) 100,00 %
21.12.2017 05:36 1,6 C 3,9 C 89 % 1034,6 hPa 0,0 l/m 14,5 km/h (3 Bft) SW 225 0 min 0,000 mm 0,0 UV-I 0 W/m -0,0 C -4,8 C 19,3 km/h (3 Bft) 100,00 %
21.12.2017 05:37 1,6 C 3,9 C 89 % 1034,6 hPa 0,0 l/m 12,9 km/h (3 Bft) W-SW 247 0 min 0,000 mm 0,0 UV-I 0 W/m -0,0 C -3,8 C 19,3 km/h (3 Bft) 100,00 %
21.12.2017 05:38 1,6 C 3,9 C 89 % 1034,6 hPa 0,0 l/m 12,9 km/h (3 Bft) SW 225 0 min 0,000 mm 0,0 UV-I 0 W/m -0,0 C -3,8 C 17,7 km/h (3 Bft) 100,00 %
21.12.2017 05:39 1,6 C 3,9 C 89 % 1034,5 hPa 0,0 l/m 12,9 km/h (3 Bft) SW 225 0 min 0,000 mm 0,0 UV-I 0 W/m -0,0 C -3,8 C 19,3 km/h (3 Bft) 95,65 %
21.12.2017 05:40 1,6 C 3,9 C 89 % 1034,5 hPa 0,0 l/m 14,5 km/h (3 Bft) W-SW 247 0 min 0,000 mm 0,0 UV-I 0 W/m -0,0 C -4,8 C 20,9 km/h (4 Bft) 100,00 %
21.12.2017 05:41 1,6 C 3,9 C 89 % 1034,5 hPa 0,0 l/m 16,1 km/h (3 Bft) SW 225 0 min 0,000 mm 0,0 UV-I 0 W/m -0,0 C -5,7 C 22,5 km/h (4 Bft) 95,65 %
21.12.2017 05:42 1,7 C 3,9 C 89 % 1034,5 hPa 0,0 l/m 12,9 km/h (3 Bft) SW 225 0 min 0,000 mm 0,0 UV-I 0 W/m 0,1 C -3,6 C 19,3 km/h (3 Bft) 100,00 %
21.12.2017 05:43 1,7 C 3,9 C 89 % 1034,5 hPa 0,0 l/m 14,5 km/h (3 Bft) SW 225 0 min 0,000 mm 0,0 UV-I 0 W/m 0,1 C -4,6 C 19,3 km/h (3 Bft) 100,00 %
21.12.2017 05:44 1,7 C 3,9 C 89 % 1034,5 hPa 0,0 l/m 11,3 km/h (2 Bft) SW 225 0 min 0,000 mm 0,0 UV-I 0 W/m 0,1 C -2,6 C 14,5 km/h (3 Bft) 100,00 %
21.12.2017 05:45 1,6 C 3,9 C 89 % 1034,5 hPa 0,0 l/m 9,7 km/h (2 Bft) SW 225 0 min 0,000 mm 0,0 UV-I 0 W/m -0,0 C -1,4 C 12,9 km/h (3 Bft) 100,00 %
21.12.2017 05:46 1,6 C 3,9 C 89 % 1034,4 hPa 0,0 l/m 9,7 km/h (2 Bft) SW 225 0 min 0,000 mm 0,0 UV-I 0 W/m -0,0 C -1,4 C 14,5 km/h (3 Bft) 95,65 %
21.12.2017 05:47 1,6 C 3,9 C 89 % 1034,5 hPa 0,0 l/m 9,7 km/h (2 Bft) SW 225 0 min 0,000 mm 0,0 UV-I 0 W/m -0,0 C -1,4 C 12,9 km/h (3 Bft) 95,65 %
21.12.2017 05:48 1,6 C 3,9 C 89 % 1034,5 hPa 0,0 l/m 11,3 km/h (2 Bft) W-SW 247 0 min 0,000 mm 0,0 UV-I 0 W/m -0,0 C -2,7 C 17,7 km/h (3 Bft) 100,00 %
21.12.2017 05:49 1,6 C 3,9 C 89 % 1034,4 hPa 0,0 l/m 12,9 km/h (3 Bft) SW 225 0 min 0,000 mm 0,0 UV-I 0 W/m -0,0 C -3,8 C 17,7 km/h (3 Bft) 100,00 %
21.12.2017 05:50 1,6 C 3,9 C 89 % 1034,5 hPa 0,0 l/m 12,9 km/h (3 Bft) SW 225 0 min 0,000 mm 0,0 UV-I 0 W/m -0,0 C -3,8 C 16,1 km/h (3 Bft) 95,65 %
21.12.2017 05:51 1,6 C 3,9 C 89 % 1034,5 hPa 0,0 l/m 11,3 km/h (2 Bft) W-SW 247 0 min 0,000 mm 0,0 UV-I 0 W/m -0,0 C -2,7 C 16,1 km/h (3 Bft) 100,00 %
21.12.2017 05:52 1,6 C 3,9 C 89 % 1034,5 hPa 0,0 l/m 11,3 km/h (2 Bft) SW 225 0 min 0,000 mm 0,0 UV-I 0 W/m -0,0 C -2,7 C 14,5 km/h (3 Bft) 95,65 %
21.12.2017 05:53 1,6 C 3,9 C 89 % 1034,4 hPa 0,0 l/m 11,3 km/h (2 Bft) SW 225 0 min 0,000 mm 0,0 UV-I 0 W/m -0,0 C -2,7 C 16,1 km/h (3 Bft) 95,65 %
21.12.2017 05:54 1,6 C 3,9 C 89 % 1034,4 hPa 0,0 l/m 11,3 km/h (2 Bft) SW 225 0 min 0,000 mm 0,0 UV-I 0 W/m -0,0 C -2,7 C 14,5 km/h (3 Bft) 100,00 %
21.12.2017 05:55 1,6 C 3,9 C 89 % 1034,4 hPa 0,0 l/m 11,3 km/h (2 Bft) SW 225 0 min 0,000 mm 0,0 UV-I 0 W/m -0,0 C -2,7 C 17,7 km/h (3 Bft) 95,65 %
21.12.2017 05:56 1,6 C 3,9 C 89 % 1034,3 hPa 0,0 l/m 14,5 km/h (3 Bft) W-SW 247 0 min 0,000 mm 0,0 UV-I 0 W/m -0,0 C -4,8 C 19,3 km/h (3 Bft) 100,00 %
21.12.2017 05:57 1,6 C 3,9 C 89 % 1034,4 hPa 0,0 l/m 14,5 km/h (3 Bft) SW 225 0 min 0,000 mm 0,0 UV-I 0 W/m -0,0 C -4,8 C 17,7 km/h (3 Bft) 95,65 %
21.12.2017 05:58 1,6 C 3,9 C 89 % 1034,4 hPa 0,0 l/m 11,3 km/h (2 Bft) SW 225 0 min 0,000 mm 0,0 UV-I 0 W/m -0,0 C -2,7 C 14,5 km/h (3 Bft) 100,00 %
21.12.2017 05:59 1,6 C 3,9 C 89 % 1034,4 hPa 0,0 l/m 11,3 km/h (2 Bft) W-SW 247 0 min 0,000 mm 0,0 UV-I 0 W/m -0,0 C -2,7 C 14,5 km/h (3 Bft) 95,65 %
21.12.2017 06:00 1,6 C 3,9 C 89 % 1034,3 hPa 0,0 l/m 12,9 km/h (3 Bft) SW 225 0 min 0,000 mm 0,0 UV-I 0 W/m -0,0 C -3,8 C 17,7 km/h (3 Bft) 91,30 %
21.12.2017 06:01 1,6 C 3,9 C 89 % 1034,3 hPa 0,0 l/m 11,3 km/h (2 Bft) SW 225 0 min 0,000 mm 0,0 UV-I 0 W/m -0,0 C -2,7 C 19,3 km/h (3 Bft) 86,96 %
21.12.2017 06:02 1,6 C 3,9 C 89 % 1034,4 hPa 0,0 l/m 14,5 km/h (3 Bft) SW 225 0 min 0,000 mm 0,0 UV-I 0 W/m -0,0 C -4,8 C 17,7 km/h (3 Bft) 100,00 %
21.12.2017 06:03 1,6 C 3,9 C 89 % 1034,3 hPa 0,0 l/m 12,9 km/h (3 Bft) SW 225 0 min 0,000 mm 0,0 UV-I 0 W/m -0,0 C -3,8 C 19,3 km/h (3 Bft) 91,30 %
21.12.2017 06:04 1,6 C 3,9 C 89 % 1034,4 hPa 0,0 l/m 14,5 km/h (3 Bft) S-SW 202 0 min 0,000 mm 0,0 UV-I 0 W/m -0,0 C -4,8 C 22,5 km/h (4 Bft) 100,00 %
21.12.2017 06:05 1,6 C 3,9 C 89 % 1034,3 hPa 0,0 l/m 12,9 km/h (3 Bft) W-SW 247 0 min 0,000 mm 0,0 UV-I 0 W/m -0,0 C -3,8 C 19,3 km/h (3 Bft) 95,65 %
21.12.2017 06:06 1,6 C 3,9 C 89 % 1034,4 hPa 0,0 l/m 16,1 km/h (3 Bft) SW 225 0 min 0,000 mm 0,0 UV-I 0 W/m -0,0 C -5,7 C 20,9 km/h (4 Bft) 95,65 %
21.12.2017 06:07 1,6 C 3,9 C 89 % 1034,4 hPa 0,0 l/m 11,3 km/h (2 Bft) SW 225 0 min 0,000 mm 0,0 UV-I 0 W/m -0,0 C -2,7 C 16,1 km/h (3 Bft) 91,30 %
21.12.2017 06:08 1,6 C 3,9 C 89 % 1034,4 hPa 0,0 l/m 14,5 km/h (3 Bft) W-SW 247 0 min 0,000 mm 0,0 UV-I 0 W/m -0,0 C -4,8 C 22,5 km/h (4 Bft) 95,65 %
21.12.2017 06:09 1,6 C 3,9 C 89 % 1034,4 hPa 0,0 l/m 16,1 km/h (3 Bft) SW 225 0 min 0,000 mm 0,0 UV-I 0 W/m -0,0 C -5,7 C 22,5 km/h (4 Bft) 100,00 %
21.12.2017 06:10 1,6 C 3,9 C 89 % 1034,4 hPa 0,0 l/m 11,3 km/h (2 Bft) SW 225 0 min 0,000 mm 0,0 UV-I 0 W/m -0,0 C -2,7 C 17,7 km/h (3 Bft) 91,30 %
21.12.2017 06:11 1,6 C 3,9 C 89 % 1034,4 hPa 0,0 l/m 14,5 km/h (3 Bft) W-SW 247 0 min 0,000 mm 0,0 UV-I 0 W/m -0,0 C -4,8 C 19,3 km/h (3 Bft) 100,00 %
21.12.2017 06:12 1,6 C 3,9 C 89 % 1034,4 hPa 0,0 l/m 14,5 km/h (3 Bft) SW 225 0 min 0,000 mm 0,0 UV-I 0 W/m -0,0 C -4,8 C 17,7 km/h (3 Bft) 91,30 %
21.12.2017 06:13 1,6 C 3,9 C 89 % 1034,4 hPa 0,0 l/m 12,9 km/h (3 Bft) SW 225 0 min 0,000 mm 0,0 UV-I 0 W/m -0,0 C -3,8 C 16,1 km/h (3 Bft) 100,00 %
21.12.2017 06:14 1,6 C 3,9 C 89 % 1034,4 hPa 0,0 l/m 17,7 km/h (3 Bft) SW 225 0 min 0,000 mm 0,0 UV-I 0 W/m -0,0 C -6,5 C 24,1 km/h (4 Bft) 91,30 %
21.12.2017 06:15 1,6 C 3,9 C 88 % 1034,4 hPa 0,0 l/m 14,5 km/h (3 Bft) SW 225 0 min 0,000 mm 0,0 UV-I 0 W/m -0,2 C -4,8 C 22,5 km/h (4 Bft) 100,00 %
21.12.2017 06:16 1,6 C 3,9 C 88 % 1034,5 hPa 0,0 l/m 12,9 km/h (3 Bft) SW 225 0 min 0,000 mm 0,0 UV-I 0 W/m -0,2 C -3,8 C 19,3 km/h (3 Bft) 91,30 %
21.12.2017 06:17 1,6 C 3,9 C 88 % 1034,5 hPa 0,0 l/m 16,1 km/h (3 Bft) W-SW 247 0 min 0,000 mm 0,0 UV-I 0 W/m -0,2 C -5,7 C 22,5 km/h (4 Bft) 100,00 %
21.12.2017 06:18 1,6 C 3,9 C 88 % 1034,5 hPa 0,0 l/m 17,7 km/h (3 Bft) W-SW 247 0 min 0,000 mm 0,0 UV-I 0 W/m -0,2 C -6,5 C 25,7 km/h (4 Bft) 86,96 %
21.12.2017 06:19 1,6 C 3,9 C 88 % 1034,5 hPa 0,0 l/m 16,1 km/h (3 Bft) W-SW 247 0 min 0,000 mm 0,0 UV-I 0 W/m -0,2 C -5,7 C 22,5 km/h (4 Bft) 95,65 %
21.12.2017 06:20 1,7 C 3,9 C 88 % 1034,5 hPa 0,0 l/m 16,1 km/h (3 Bft) SW 225 0 min 0,000 mm 0,0 UV-I 0 W/m -0,1 C -5,5 C 25,7 km/h (4 Bft) 100,00 %
21.12.2017 06:21 1,7 C 3,9 C 88 % 1034,5 hPa 0,0 l/m 16,1 km/h (3 Bft) W-SW 247 0 min 0,000 mm 0,0 UV-I 0 W/m -0,1 C -5,5 C 20,9 km/h (4 Bft) 91,30 %
21.12.2017 06:22 1,7 C 3,9 C 88 % 1034,5 hPa 0,0 l/m 14,5 km/h (3 Bft) W-SW 247 0 min 0,000 mm 0,0 UV-I 0 W/m -0,1 C -4,6 C 19,3 km/h (3 Bft) 100,00 %
21.12.2017 06:23 1,7 C 3,9 C 88 % 1034,6 hPa 0,0 l/m 12,9 km/h (3 Bft) SW 225 0 min 0,000 mm 0,0 UV-I 0 W/m -0,1 C -3,6 C 19,3 km/h (3 Bft) 95,65 %
21.12.2017 06:24 1,7 C 3,9 C 88 % 1034,6 hPa 0,0 l/m 16,1 km/h (3 Bft) SW 225 0 min 0,000 mm 0,0 UV-I 0 W/m -0,1 C -5,5 C 20,9 km/h (4 Bft) 100,00 %
21.12.2017 06:25 1,7 C 3,9 C 88 % 1034,6 hPa 0,0 l/m 17,7 km/h (3 Bft) SW 225 0 min 0,000 mm 0,0 UV-I 0 W/m -0,1 C -6,4 C 25,7 km/h (4 Bft) 95,65 %
21.12.2017 06:26 1,7 C 3,9 C 88 % 1034,6 hPa 0,0 l/m 12,9 km/h (3 Bft) W-SW 247 0 min 0,000 mm 0,0 UV-I 0 W/m -0,1 C -3,6 C 16,1 km/h (3 Bft) 100,00 %
21.12.2017 06:27 1,7 C 3,9 C 88 % 1034,6 hPa 0,0 l/m 20,9 km/h (4 Bft) SW 225 0 min 0,000 mm 0,0 UV-I 0 W/m -0,1 C -7,8 C 32,2 km/h (5 Bft) 95,65 %
21.12.2017 06:28 1,7 C 3,9 C 88 % 1034,7 hPa 0,0 l/m 19,3 km/h (3 Bft) SW 225 0 min 0,000 mm 0,0 UV-I 0 W/m -0,1 C -7,1 C 24,1 km/h (4 Bft) 91,30 %
21.12.2017 06:29 1,7 C 3,9 C 88 % 1034,6 hPa 0,0 l/m 19,3 km/h (3 Bft) SW 225 0 min 0,000 mm 0,0 UV-I 0 W/m -0,1 C -7,1 C 33,8 km/h (5 Bft) 100,00 %
21.12.2017 06:30 1,7 C 3,9 C 88 % 1034,6 hPa 0,0 l/m 16,1 km/h (3 Bft) W-SW 247 0 min 0,000 mm 0,0 UV-I 0 W/m -0,1 C -5,5 C 27,4 km/h (4 Bft) 95,65 %
21.12.2017 06:31 1,7 C 3,9 C 88 % 1034,6 hPa 0,0 l/m 14,5 km/h (3 Bft) SW 225 0 min 0,000 mm 0,0 UV-I 0 W/m -0,1 C -4,6 C 19,3 km/h (3 Bft) 100,00 %
21.12.2017 06:32 1,7 C 3,9 C 88 % 1034,6 hPa 0,0 l/m 17,7 km/h (3 Bft) W-SW 247 0 min 0,000 mm 0,0 UV-I 0 W/m -0,1 C -6,4 C 24,1 km/h (4 Bft) 95,65 %
21.12.2017 06:33 1,7 C 3,9 C 88 % 1034,6 hPa 0,0 l/m 17,7 km/h (3 Bft) SW 225 0 min 0,000 mm 0,0 UV-I 0 W/m -0,1 C -6,4 C 27,4 km/h (4 Bft) 95,65 %
21.12.2017 06:34 1,7 C 3,9 C 88 % 1034,5 hPa 0,0 l/m 17,7 km/h (3 Bft) W-SW 247 0 min 0,000 mm 0,0 UV-I 0 W/m -0,1 C -6,4 C 24,1 km/h (4 Bft) 95,65 %
21.12.2017 06:35 1,7 C 3,9 C 88 % 1034,6 hPa 0,0 l/m 16,1 km/h (3 Bft) W-SW 247 0 min 0,000 mm 0,0 UV-I 0 W/m -0,1 C -5,5 C 22,5 km/h (4 Bft) 95,65 %
21.12.2017 06:36 1,7 C 3,9 C 88 % 1034,6 hPa 0,0 l/m 14,5 km/h (3 Bft) SW 225 0 min 0,000 mm 0,0 UV-I 0 W/m -0,1 C -4,6 C 20,9 km/h (4 Bft) 95,65 %
21.12.2017 06:37 1,7 C 3,9 C 87 % 1034,5 hPa 0,0 l/m 16,1 km/h (3 Bft) SW 225 0 min 0,000 mm 0,0 UV-I 0 W/m -0,2 C -5,5 C 20,9 km/h (4 Bft) 95,65 %
21.12.2017 06:38 1,7 C 3,9 C 87 % 1034,6 hPa 0,0 l/m 14,5 km/h (3 Bft) W-SW 247 0 min 0,000 mm 0,0 UV-I 0 W/m -0,2 C -4,6 C 22,5 km/h (4 Bft) 100,00 %
21.12.2017 06:39 1,7 C 3,9 C 87 % 1034,6 hPa 0,0 l/m 19,3 km/h (3 Bft) SW 225 0 min 0,000 mm 0,0 UV-I 0 W/m -0,2 C -7,1 C 24,1 km/h (4 Bft) 95,65 %
21.12.2017 06:40 1,7 C 3,9 C 87 % 1034,5 hPa 0,0 l/m 19,3 km/h (3 Bft) SW 225 0 min 0,000 mm 0,0 UV-I 0 W/m -0,2 C -7,1 C 30,6 km/h (5 Bft) 100,00 %
21.12.2017 06:41 1,7 C 3,9 C 87 % 1034,5 hPa 0,0 l/m 14,5 km/h (3 Bft) W-SW 247 0 min 0,000 mm 0,0 UV-I 0 W/m -0,2 C -4,6 C 20,9 km/h (4 Bft) 95,65 %
21.12.2017 06:42 1,7 C 3,9 C 87 % 1034,5 hPa 0,0 l/m 17,7 km/h (3 Bft) W-SW 247 0 min 0,000 mm 0,0 UV-I 0 W/m -0,2 C -6,4 C 29,0 km/h (5 Bft) 95,65 %
21.12.2017 06:43 1,7 C 3,9 C 87 % 1034,6 hPa 0,0 l/m 19,3 km/h (3 Bft) W-SW 247 0 min 0,000 mm 0,0 UV-I 0 W/m -0,2 C -7,1 C 25,7 km/h (4 Bft) 95,65 %
21.12.2017 06:44 1,7 C 3,9 C 87 % 1034,6 hPa 0,0 l/m 19,3 km/h (3 Bft) W-SW 247 0 min 0,000 mm 0,0 UV-I 0 W/m -0,2 C -7,1 C 29,0 km/h (5 Bft) 100,00 %
21.12.2017 06:45 1,7 C 3,9 C 87 % 1034,6 hPa 0,0 l/m 17,7 km/h (3 Bft) W-SW 247 0 min 0,000 mm 0,0 UV-I 0 W/m -0,2 C -6,4 C 24,1 km/h (4 Bft) 95,65 %
21.12.2017 06:46 1,7 C 3,9 C 87 % 1034,6 hPa 0,0 l/m 16,1 km/h (3 Bft) SW 225 0 min 0,000 mm 0,0 UV-I 0 W/m -0,2 C -5,5 C 20,9 km/h (4 Bft) 95,65 %
21.12.2017 06:47 1,7 C 3,9 C 87 % 1034,6 hPa 0,0 l/m 16,1 km/h (3 Bft) W-SW 247 0 min 0,000 mm 0,0 UV-I 0 W/m -0,2 C -5,5 C 24,1 km/h (4 Bft) 100,00 %
21.12.2017 06:48 1,7 C 3,9 C 87 % 1034,6 hPa 0,0 l/m 19,3 km/h (3 Bft) SW 225 0 min 0,000 mm 0,0 UV-I 0 W/m -0,2 C -7,1 C 24,1 km/h (4 Bft) 95,65 %
21.12.2017 06:49 1,7 C 3,9 C 87 % 1034,7 hPa 0,0 l/m 19,3 km/h (3 Bft) SW 225 0 min 0,000 mm 0,0 UV-I 0 W/m -0,2 C -7,1 C 27,4 km/h (4 Bft) 95,65 %
21.12.2017 06:50 1,7 C 3,9 C 87 % 1034,7 hPa 0,0 l/m 17,7 km/h (3 Bft) W-SW 247 0 min 0,000 mm 0,0 UV-I 0 W/m -0,2 C -6,4 C 29,0 km/h (5 Bft) 95,65 %
21.12.2017 06:51 1,7 C 3,9 C 87 % 1034,7 hPa 0,0 l/m 14,5 km/h (3 Bft) W-SW 247 0 min 0,000 mm 0,0 UV-I 0 W/m -0,2 C -4,6 C 22,5 km/h (4 Bft) 100,00 %
21.12.2017 06:52 1,7 C 3,9 C 87 % 1034,7 hPa 0,0 l/m 17,7 km/h (3 Bft) SW 225 0 min 0,000 mm 0,0 UV-I 0 W/m -0,2 C -6,4 C 24,1 km/h (4 Bft) 95,65 %
21.12.2017 06:53 1,7 C 3,9 C 87 % 1034,7 hPa 0,0 l/m 16,1 km/h (3 Bft) SW 225 0 min 0,000 mm 0,0 UV-I 0 W/m -0,2 C -5,5 C 20,9 km/h (4 Bft) 100,00 %
21.12.2017 06:54 1,7 C 3,9 C 87 % 1034,8 hPa 0,0 l/m 14,5 km/h (3 Bft) SW 225 0 min 0,000 mm 0,0 UV-I 0 W/m -0,2 C -4,6 C 20,9 km/h (4 Bft) 100,00 %
21.12.2017 06:55 1,7 C 3,9 C 87 % 1034,8 hPa 0,0 l/m 14,5 km/h (3 Bft) W-SW 247 0 min 0,000 mm 0,0 UV-I 0 W/m -0,2 C -4,6 C 22,5 km/h (4 Bft) 100,00 %
21.12.2017 06:56 1,7 C 3,9 C 87 % 1034,7 hPa 0,0 l/m 14,5 km/h (3 Bft) W-SW 247 0 min 0,000 mm 0,0 UV-I 0 W/m -0,2 C -4,6 C 20,9 km/h (4 Bft) 95,65 %
21.12.2017 06:57 1,7 C 3,9 C 87 % 1034,7 hPa 0,0 l/m 17,7 km/h (3 Bft) SW 225 0 min 0,000 mm 0,0 UV-I 0 W/m -0,2 C -6,4 C 29,0 km/h (5 Bft) 100,00 %
21.12.2017 06:58 1,7 C 3,9 C 87 % 1034,6 hPa 0,0 l/m 20,9 km/h (4 Bft) SW 225 0 min 0,000 mm 0,0 UV-I 0 W/m -0,2 C -7,8 C 30,6 km/h (5 Bft) 100,00 %
21.12.2017 06:59 1,7 C 3,9 C 87 % 1034,6 hPa 0,0 l/m 19,3 km/h (3 Bft) W-SW 247 0 min 0,000 mm 0,0 UV-I 0 W/m -0,2 C -7,1 C 24,1 km/h (4 Bft) 100,00 %
21.12.2017 07:00 1,7 C 3,9 C 87 % 1034,6 hPa 0,0 l/m 16,1 km/h (3 Bft) W-SW 247 0 min 0,025 mm 0,0 UV-I 0 W/m -0,2 C -5,5 C 22,5 km/h (4 Bft) 100,00 %
21.12.2017 07:01 1,7 C 3,9 C 87 % 1034,7 hPa 0,0 l/m 16,1 km/h (3 Bft) W-SW 247 0 min 0,000 mm 0,0 UV-I 0 W/m -0,2 C -5,5 C 22,5 km/h (4 Bft) 100,00 %
21.12.2017 07:02 1,7 C 3,9 C 87 % 1034,7 hPa 0,0 l/m 14,5 km/h (3 Bft) W-SW 247 0 min 0,000 mm 0,0 UV-I 0 W/m -0,2 C -4,6 C 22,5 km/h (4 Bft) 100,00 %
21.12.2017 07:03 1,7 C 3,9 C 87 % 1034,7 hPa 0,0 l/m 16,1 km/h (3 Bft) W-SW 247 0 min 0,000 mm 0,0 UV-I 0 W/m -0,2 C -5,5 C 24,1 km/h (4 Bft) 95,65 %
21.12.2017 07:04 1,7 C 3,9 C 87 % 1034,7 hPa 0,0 l/m 19,3 km/h (3 Bft) SW 225 0 min 0,000 mm 0,0 UV-I 0 W/m -0,2 C -7,1 C 25,7 km/h (4 Bft) 100,00 %
21.12.2017 07:05 1,7 C 3,9 C 87 % 1034,7 hPa 0,0 l/m 14,5 km/h (3 Bft) W-SW 247 0 min 0,000 mm 0,0 UV-I 0 W/m -0,2 C -4,6 C 19,3 km/h (3 Bft) 100,00 %
21.12.2017 07:06 1,7 C 3,9 C 87 % 1034,7 hPa 0,0 l/m 12,9 km/h (3 Bft) W-SW 247 0 min 0,000 mm 0,0 UV-I 0 W/m -0,2 C -3,6 C 16,1 km/h (3 Bft) 100,00 %
21.12.2017 07:07 1,7 C 3,9 C 87 % 1034,7 hPa 0,0 l/m 16,1 km/h (3 Bft) SW 225 0 min 0,000 mm 0,0 UV-I 0 W/m -0,2 C -5,5 C 20,9 km/h (4 Bft) 95,65 %
21.12.2017 07:08 1,7 C 3,9 C 87 % 1034,7 hPa 0,0 l/m 17,7 km/h (3 Bft) SW 225 0 min 0,000 mm 0,0 UV-I 0 W/m -0,2 C -6,4 C 24,1 km/h (4 Bft) 95,65 %
21.12.2017 07:09 1,7 C 3,9 C 87 % 1034,7 hPa 0,0 l/m 16,1 km/h (3 Bft) W-SW 247 0 min 0,000 mm 0,0 UV-I 0 W/m -0,2 C -5,5 C 20,9 km/h (4 Bft) 100,00 %
21.12.2017 07:10 1,7 C 3,9 C 87 % 1034,8 hPa 0,0 l/m 16,1 km/h (3 Bft) SW 225 0 min 0,000 mm 0,0 UV-I 0 W/m -0,2 C -5,5 C 22,5 km/h (4 Bft) 95,65 %
21.12.2017 07:11 1,7 C 3,9 C 87 % 1034,7 hPa 0,0 l/m 14,5 km/h (3 Bft) W-SW 247 0 min 0,000 mm 0,0 UV-I 0 W/m -0,2 C -4,6 C 20,9 km/h (4 Bft) 95,65 %
21.12.2017 07:12 1,7 C 3,9 C 87 % 1034,8 hPa 0,0 l/m 17,7 km/h (3 Bft) SW 225 0 min 0,000 mm 0,0 UV-I 0 W/m -0,2 C -6,4 C 25,7 km/h (4 Bft) 100,00 %
21.12.2017 07:13 1,6 C 3,9 C 87 % 1034,7 hPa 0,0 l/m 14,5 km/h (3 Bft) SW 225 0 min 0,000 mm 0,0 UV-I 0 W/m -0,3 C -4,8 C 20,9 km/h (4 Bft) 95,65 %
21.12.2017 07:14 1,6 C 3,9 C 87 % 1034,8 hPa 0,0 l/m 12,9 km/h (3 Bft) W-SW 247 0 min 0,000 mm 0,0 UV-I 0 W/m -0,3 C -3,8 C 17,7 km/h (3 Bft) 100,00 %
21.12.2017 07:15 1,6 C 3,9 C 87 % 1034,8 hPa 0,0 l/m 14,5 km/h (3 Bft) SW 225 0 min 0,000 mm 0,0 UV-I 0 W/m -0,3 C -4,8 C 24,1 km/h (4 Bft) 100,00 %
21.12.2017 07:16 1,6 C 3,9 C 87 % 1034,8 hPa 0,0 l/m 14,5 km/h (3 Bft) SW 225 0 min 0,000 mm 0,0 UV-I 0 W/m -0,3 C -4,8 C 20,9 km/h (4 Bft) 100,00 %
21.12.2017 07:17 1,6 C 3,9 C 88 % 1034,8 hPa 0,0 l/m 12,9 km/h (3 Bft) W-SW 247 0 min 0,000 mm 0,0 UV-I 0 W/m -0,2 C -3,8 C 16,1 km/h (3 Bft) 95,65 %
21.12.2017 07:18 1,6 C 3,9 C 88 % 1034,8 hPa 0,0 l/m 17,7 km/h (3 Bft) W-SW 247 0 min 0,000 mm 0,0 UV-I 0 W/m -0,2 C -6,5 C 22,5 km/h (4 Bft) 100,00 %
21.12.2017 07:19 1,6 C 3,9 C 88 % 1034,8 hPa 0,0 l/m 14,5 km/h (3 Bft) W-SW 247 0 min 0,000 mm 0,0 UV-I 0 W/m -0,2 C -4,8 C 16,1 km/h (3 Bft) 100,00 %
21.12.2017 07:20 1,6 C 3,9 C 88 % 1034,8 hPa 0,0 l/m 16,1 km/h (3 Bft) W-SW 247 0 min 0,000 mm 0,0 UV-I 0 W/m -0,2 C -5,7 C 24,1 km/h (4 Bft) 100,00 %
21.12.2017 07:21 1,6 C 3,9 C 88 % 1034,8 hPa 0,0 l/m 12,9 km/h (3 Bft) SW 225 0 min 0,000 mm 0,0 UV-I 0 W/m -0,2 C -3,8 C 17,7 km/h (3 Bft) 100,00 %
21.12.2017 07:22 1,6 C 3,9 C 88 % 1034,8 hPa 0,0 l/m 14,5 km/h (3 Bft) SW 225 0 min 0,000 mm 0,0 UV-I 0 W/m -0,2 C -4,8 C 24,1 km/h (4 Bft) 95,65 %
21.12.2017 07:23 1,5 C 3,9 C 88 % 1034,8 hPa 0,0 l/m 12,9 km/h (3 Bft) W-SW 247 0 min 0,000 mm 0,0 UV-I 0 W/m -0,3 C -3,9 C 20,9 km/h (4 Bft) 100,00 %
21.12.2017 07:24 1,5 C 3,9 C 88 % 1034,8 hPa 0,0 l/m 14,5 km/h (3 Bft) W-SW 247 0 min 0,000 mm 0,0 UV-I 0 W/m -0,3 C -4,9 C 17,7 km/h (3 Bft) 86,96 %
21.12.2017 07:25 1,5 C 3,9 C 88 % 1034,8 hPa 0,0 l/m 11,3 km/h (2 Bft) W-SW 247 0 min 0,000 mm 0,0 UV-I 0 W/m -0,3 C -2,8 C 14,5 km/h (3 Bft) 100,00 %
21.12.2017 07:26 1,5 C 3,9 C 88 % 1034,8 hPa 0,0 l/m 17,7 km/h (3 Bft) SW 225 0 min 0,000 mm 0,0 UV-I 0 W/m -0,3 C -6,6 C 25,7 km/h (4 Bft) 95,65 %
21.12.2017 07:27 1,5 C 3,9 C 88 % 1034,8 hPa 0,0 l/m 12,9 km/h (3 Bft) SW 225 0 min 0,000 mm 0,0 UV-I 0 W/m -0,3 C -3,9 C 17,7 km/h (3 Bft) 95,65 %
21.12.2017 07:28 1,5 C 3,9 C 88 % 1034,8 hPa 0,0 l/m 14,5 km/h (3 Bft) SW 225 0 min 0,000 mm 0,0 UV-I 0 W/m -0,3 C -4,9 C 19,3 km/h (3 Bft) 100,00 %
21.12.2017 07:29 1,5 C 3,9 C 88 % 1034,8 hPa 0,0 l/m 14,5 km/h (3 Bft) W-SW 247 0 min 0,000 mm 0,0 UV-I 0 W/m -0,3 C -4,9 C 20,9 km/h (4 Bft) 91,30 %
21.12.2017 07:30 1,5 C 3,9 C 88 % 1034,8 hPa 0,0 l/m 12,9 km/h (3 Bft) W-SW 247 0 min 0,000 mm 0,0 UV-I 0 W/m -0,3 C -3,9 C 19,3 km/h (3 Bft) 100,00 %
21.12.2017 07:31 1,5 C 3,9 C 88 % 1034,9 hPa 0,0 l/m 12,9 km/h (3 Bft) W-SW 247 0 min 0,000 mm 0,0 UV-I 0 W/m -0,3 C -3,9 C 17,7 km/h (3 Bft) 91,30 %
21.12.2017 07:32 1,5 C 3,9 C 88 % 1034,9 hPa 0,0 l/m 11,3 km/h (2 Bft) W-SW 247 0 min 0,000 mm 0,0 UV-I 0 W/m -0,3 C -2,8 C 16,1 km/h (3 Bft) 100,00 %
21.12.2017 07:33 1,5 C 3,9 C 88 % 1035,0 hPa 0,0 l/m 14,5 km/h (3 Bft) W-SW 247 0 min 0,000 mm 0,0 UV-I 0 W/m -0,3 C -4,9 C 19,3 km/h (3 Bft) 91,30 %
21.12.2017 07:34 1,4 C 3,9 C 88 % 1034,9 hPa 0,0 l/m 16,1 km/h (3 Bft) SW 225 0 min 0,000 mm 0,0 UV-I 0 W/m -0,4 C -5,9 C 24,1 km/h (4 Bft) 95,65 %
21.12.2017 07:35 1,4 C 3,9 C 89 % 1034,9 hPa 0,0 l/m 17,7 km/h (3 Bft) W-SW 247 0 min 0,000 mm 0,0 UV-I 0 W/m -0,2 C -6,7 C 24,1 km/h (4 Bft) 95,65 %
21.12.2017 07:36 1,4 C 3,9 C 89 % 1035,0 hPa 0,0 l/m 17,7 km/h (3 Bft) W-SW 247 0 min 0,000 mm 0,0 UV-I 0 W/m -0,2 C -6,7 C 25,7 km/h (4 Bft) 100,00 %
21.12.2017 07:37 1,4 C 3,9 C 89 % 1035,0 hPa 0,0 l/m 14,5 km/h (3 Bft) W-SW 247 0 min 0,000 mm 0,0 UV-I 0 W/m -0,2 C -5,0 C 17,7 km/h (3 Bft) 91,30 %
21.12.2017 07:38 1,4 C 3,9 C 89 % 1035,0 hPa 0,0 l/m 16,1 km/h (3 Bft) W-SW 247 0 min 0,000 mm 0,0 UV-I 0 W/m -0,2 C -5,9 C 19,3 km/h (3 Bft) 91,30 %
21.12.2017 07:39 1,4 C 3,9 C 89 % 1035,0 hPa 0,0 l/m 14,5 km/h (3 Bft) SW 225 0 min 0,000 mm 0,0 UV-I 0 W/m -0,2 C -5,0 C 19,3 km/h (3 Bft) 95,65 %
21.12.2017 07:40 1,4 C 3,9 C 89 % 1035,0 hPa 0,0 l/m 14,5 km/h (3 Bft) SW 225 0 min 0,000 mm 0,0 UV-I 0 W/m -0,2 C -5,0 C 19,3 km/h (3 Bft) 100,00 %
21.12.2017 07:41 1,3 C 3,9 C 89 % 1035,0 hPa 0,0 l/m 12,9 km/h (3 Bft) W-SW 247 0 min 0,000 mm 0,0 UV-I 0 W/m -0,3 C -4,1 C 17,7 km/h (3 Bft) 95,65 %
21.12.2017 07:42 1,3 C 3,9 C 90 % 1035,0 hPa 0,0 l/m 12,9 km/h (3 Bft) SW 225 0 min 0,000 mm 0,0 UV-I 0 W/m -0,2 C -4,1 C 17,7 km/h (3 Bft) 95,65 %
21.12.2017 07:43 1,3 C 3,9 C 90 % 1035,0 hPa 0,0 l/m 11,3 km/h (2 Bft) SW 225 0 min 0,000 mm 0,0 UV-I 0 W/m -0,2 C -3,0 C 20,9 km/h (4 Bft) 100,00 %
21.12.2017 07:44 1,3 C 3,9 C 90 % 1035,0 hPa 0,0 l/m 12,9 km/h (3 Bft) SW 225 0 min 0,000 mm 0,0 UV-I 0 W/m -0,2 C -4,1 C 19,3 km/h (3 Bft) 91,30 %
21.12.2017 07:45 1,3 C 3,9 C 90 % 1035,0 hPa 0,0 l/m 14,5 km/h (3 Bft) SW 225 0 min 0,000 mm 0,0 UV-I 0 W/m -0,2 C -5,1 C 22,5 km/h (4 Bft) 95,65 %
21.12.2017 07:46 1,2 C 3,9 C 90 % 1035,0 hPa 0,0 l/m 14,5 km/h (3 Bft) SW 225 0 min 0,000 mm 0,0 UV-I 0 W/m -0,3 C -5,2 C 19,3 km/h (3 Bft) 100,00 %
21.12.2017 07:47 1,2 C 3,9 C 90 % 1035,0 hPa 0,0 l/m 12,9 km/h (3 Bft) SW 225 0 min 0,000 mm 0,0 UV-I 0 W/m -0,3 C -4,2 C 27,4 km/h (4 Bft) 95,65 %
21.12.2017 07:48 1,2 C 3,9 C 90 % 1035,0 hPa 0,0 l/m 20,9 km/h (4 Bft) SW 225 0 min 0,000 mm 0,0 UV-I 0 W/m -0,3 C -8,5 C 25,7 km/h (4 Bft) 100,00 %
21.12.2017 07:49 1,2 C 3,9 C 90 % 1035,0 hPa 0,0 l/m 20,9 km/h (4 Bft) W-SW 247 0 min 0,000 mm 0,0 UV-I 0 W/m -0,3 C -8,5 C 30,6 km/h (5 Bft) 100,00 %
21.12.2017 07:50 1,2 C 3,9 C 90 % 1035,0 hPa 0,0 l/m 17,7 km/h (3 Bft) SW 225 0 min 0,000 mm 0,0 UV-I 3 W/m -0,3 C -7,0 C 32,2 km/h (5 Bft) 86,96 %
21.12.2017 07:51 1,2 C 3,9 C 90 % 1035,0 hPa 0,0 l/m 17,7 km/h (3 Bft) SW 225 0 min 0,000 mm 0,0 UV-I 5 W/m -0,3 C -7,0 C 22,5 km/h (4 Bft) 100,00 %
21.12.2017 07:52 1,2 C 3,9 C 90 % 1035,0 hPa 0,0 l/m 20,9 km/h (4 Bft) SW 225 0 min 0,000 mm 0,0 UV-I 5 W/m -0,3 C -8,5 C 25,7 km/h (4 Bft) 95,65 %
21.12.2017 07:53 1,2 C 3,9 C 91 % 1034,9 hPa 0,0 l/m 19,3 km/h (3 Bft) SW 225 0 min 0,000 mm 0,0 UV-I 5 W/m -0,1 C -7,8 C 24,1 km/h (4 Bft) 100,00 %
21.12.2017 07:54 1,1 C 3,9 C 91 % 1035,0 hPa 0,0 l/m 17,7 km/h (3 Bft) SW 225 0 min 0,000 mm 0,0 UV-I 5 W/m -0,2 C -7,1 C 24,1 km/h (4 Bft) 100,00 %
21.12.2017 07:55 1,1 C 3,9 C 91 % 1035,0 hPa 0,0 l/m 14,5 km/h (3 Bft) SW 225 0 min 0,000 mm 0,0 UV-I 5 W/m -0,2 C -5,4 C 19,3 km/h (3 Bft) 100,00 %
21.12.2017 07:56 1,1 C 3,9 C 91 % 1035,0 hPa 0,0 l/m 16,1 km/h (3 Bft) W-SW 247 0 min 0,000 mm 0,0 UV-I 5 W/m -0,2 C -6,3 C 24,1 km/h (4 Bft) 100,00 %
21.12.2017 07:57 1,1 C 3,9 C 91 % 1034,9 hPa 0,0 l/m 17,7 km/h (3 Bft) SW 225 0 min 0,000 mm 0,0 UV-I 5 W/m -0,2 C -7,1 C 25,7 km/h (4 Bft) 100,00 %
21.12.2017 07:58 1,1 C 3,9 C 91 % 1034,9 hPa 0,0 l/m 19,3 km/h (3 Bft) SW 225 0 min 0,000 mm 0,0 UV-I 5 W/m -0,2 C -7,9 C 24,1 km/h (4 Bft) 100,00 %
21.12.2017 07:59 1,1 C 3,9 C 91 % 1034,9 hPa 0,0 l/m 19,3 km/h (3 Bft) SW 225 0 min 0,000 mm 0,0 UV-I 5 W/m -0,2 C -7,9 C 27,4 km/h (4 Bft) 95,65 %
21.12.2017 08:00 1,0 C 3,9 C 92 % 1034,9 hPa 0,0 l/m 17,7 km/h (3 Bft) SW 225 0 min 0,025 mm 0,0 UV-I 5 W/m -0,2 C -7,2 C 22,5 km/h (4 Bft) 100,00 %
21.12.2017 08:01 1,0 C 3,9 C 92 % 1035,0 hPa 0,0 l/m 19,3 km/h (3 Bft) W-SW 247 0 min 0,000 mm 0,0 UV-I 6 W/m -0,2 C -8,0 C 25,7 km/h (4 Bft) 100,00 %
21.12.2017 08:02 1,0 C 3,9 C 92 % 1035,0 hPa 0,0 l/m 14,5 km/h (3 Bft) SW 225 0 min 0,000 mm 0,0 UV-I 7 W/m -0,2 C -5,5 C 22,5 km/h (4 Bft) 100,00 %
21.12.2017 08:03 1,0 C 3,9 C 92 % 1035,0 hPa 0,0 l/m 19,3 km/h (3 Bft) SW 225 0 min 0,000 mm 0,0 UV-I 7 W/m -0,2 C -8,0 C 24,1 km/h (4 Bft) 100,00 %
21.12.2017 08:04 0,9 C 3,9 C 92 % 1035,0 hPa 0,0 l/m 17,7 km/h (3 Bft) W-SW 247 0 min 0,000 mm 0,0 UV-I 7 W/m -0,2 C -7,4 C 25,7 km/h (4 Bft) 100,00 %
21.12.2017 08:05 0,9 C 3,9 C 92 % 1034,9 hPa 0,0 l/m 19,3 km/h (3 Bft) W-SW 247 0 min 0,000 mm 0,0 UV-I 9 W/m -0,2 C -8,1 C 25,7 km/h (4 Bft) 100,00 %
21.12.2017 08:06 0,9 C 3,9 C 92 % 1034,9 hPa 0,0 l/m 16,1 km/h (3 Bft) SW 225 0 min 0,000 mm 0,0 UV-I 9 W/m -0,2 C -6,5 C 22,5 km/h (4 Bft) 91,30 %
21.12.2017 08:07 0,9 C 3,9 C 92 % 1034,9 hPa 0,0 l/m 12,9 km/h (3 Bft) SW 225 0 min 0,000 mm 0,0 UV-I 11 W/m -0,2 C -4,6 C 22,5 km/h (4 Bft) 95,65 %
21.12.2017 08:08 0,9 C 3,9 C 92 % 1035,0 hPa 0,0 l/m 22,5 km/h (4 Bft) SW 225 0 min 0,000 mm 0,0 UV-I 12 W/m -0,2 C -9,5 C 32,2 km/h (5 Bft) 100,00 %
21.12.2017 08:09 0,9 C 3,9 C 92 % 1034,9 hPa 0,0 l/m 17,7 km/h (3 Bft) SW 225 0 min 0,000 mm 0,0 UV-I 14 W/m -0,2 C -7,4 C 22,5 km/h (4 Bft) 100,00 %
21.12.2017 08:10 0,9 C 3,9 C 92 % 1035,0 hPa 0,0 l/m 17,7 km/h (3 Bft) SW 225 0 min 0,000 mm 0,0 UV-I 16 W/m -0,2 C -7,4 C 22,5 km/h (4 Bft) 100,00 %
21.12.2017 08:11 0,9 C 3,9 C 93 % 1035,0 hPa 0,0 l/m 17,7 km/h (3 Bft) SW 225 0 min 0,000 mm 0,0 UV-I 16 W/m -0,1 C -7,4 C 22,5 km/h (4 Bft) 100,00 %
21.12.2017 08:12 0,9 C 3,9 C 93 % 1034,9 hPa 0,0 l/m 19,3 km/h (3 Bft) W-SW 247 0 min 0,000 mm 0,0 UV-I 18 W/m -0,1 C -8,1 C 24,1 km/h (4 Bft) 100,00 %
21.12.2017 08:13 0,9 C 3,9 C 93 % 1035,0 hPa 0,0 l/m 17,7 km/h (3 Bft) SW 225 0 min 0,000 mm 0,0 UV-I 20 W/m -0,1 C -7,4 C 24,1 km/h (4 Bft) 95,65 %
21.12.2017 08:14 0,9 C 3,9 C 93 % 1034,9 hPa 0,0 l/m 17,7 km/h (3 Bft) SW 225 1 min 0,000 mm 0,0 UV-I 25 W/m -0,1 C -7,4 C 25,7 km/h (4 Bft) 100,00 %
21.12.2017 08:15 0,9 C 3,9 C 93 % 1034,8 hPa 0,0 l/m 16,1 km/h (3 Bft) SW 225 1 min 0,000 mm 0,0 UV-I 26 W/m -0,1 C -6,5 C 24,1 km/h (4 Bft) 100,00 %
21.12.2017 08:16 0,9 C 3,9 C 93 % 1034,9 hPa 0,0 l/m 16,1 km/h (3 Bft) SW 225 1 min 0,000 mm 0,0 UV-I 28 W/m -0,1 C -6,5 C 22,5 km/h (4 Bft) 95,65 %
21.12.2017 08:17 0,9 C 3,9 C 93 % 1034,9 hPa 0,0 l/m 14,5 km/h (3 Bft) W-SW 247 1 min 0,000 mm 0,0 UV-I 28 W/m -0,1 C -5,6 C 17,7 km/h (3 Bft) 100,00 %
21.12.2017 08:18 0,9 C 3,9 C 93 % 1034,8 hPa 0,0 l/m 11,3 km/h (2 Bft) SW 225 1 min 0,000 mm 0,0 UV-I 30 W/m -0,1 C -3,5 C 17,7 km/h (3 Bft) 100,00 %
21.12.2017 08:19 0,9 C 3,9 C 93 % 1034,8 hPa 0,0 l/m 14,5 km/h (3 Bft) SW 225 1 min 0,000 mm 0,0 UV-I 31 W/m -0,1 C -5,6 C 20,9 km/h (4 Bft) 100,00 %
21.12.2017 08:20 0,9 C 3,9 C 93 % 1034,9 hPa 0,0 l/m 17,7 km/h (3 Bft) SW 225 1 min 0,000 mm 0,0 UV-I 32 W/m -0,1 C -7,4 C 24,1 km/h (4 Bft) 91,30 %
21.12.2017 08:21 0,9 C 3,9 C 92 % 1034,9 hPa 0,0 l/m 19,3 km/h (3 Bft) SW 225 1 min 0,000 mm 0,0 UV-I 32 W/m -0,2 C -8,1 C 24,1 km/h (4 Bft) 95,65 %
21.12.2017 08:22 0,9 C 3,9 C 93 % 1034,8 hPa 0,0 l/m 16,1 km/h (3 Bft) SW 225 1 min 0,000 mm 0,0 UV-I 32 W/m -0,1 C -6,5 C 22,5 km/h (4 Bft) 95,65 %
21.12.2017 08:23 0,9 C 3,9 C 93 % 1034,8 hPa 0,0 l/m 16,1 km/h (3 Bft) SW 225 0 min 0,000 mm 0,0 UV-I 32 W/m -0,1 C -6,5 C 22,5 km/h (4 Bft) 95,65 %
21.12.2017 08:24 0,9 C 3,9 C 93 % 1034,8 hPa 0,0 l/m 17,7 km/h (3 Bft) SW 225 0 min 0,000 mm 0,0 UV-I 32 W/m -0,1 C -7,4 C 25,7 km/h (4 Bft) 100,00 %
21.12.2017 08:25 0,9 C 3,9 C 93 % 1034,8 hPa 0,0 l/m 16,1 km/h (3 Bft) SW 225 0 min 0,000 mm 0,0 UV-I 31 W/m -0,1 C -6,5 C 24,1 km/h (4 Bft) 95,65 %
21.12.2017 08:26 0,9 C 3,9 C 93 % 1034,8 hPa 0,0 l/m 16,1 km/h (3 Bft) W-SW 247 0 min 0,000 mm 0,0 UV-I 28 W/m -0,1 C -6,5 C 22,5 km/h (4 Bft) 100,00 %
21.12.2017 08:27 0,9 C 3,9 C 93 % 1034,8 hPa 0,0 l/m 16,1 km/h (3 Bft) SW 225 0 min 0,000 mm 0,0 UV-I 26 W/m -0,1 C -6,5 C 20,9 km/h (4 Bft) 91,30 %
21.12.2017 08:28 0,9 C 3,9 C 93 % 1034,8 hPa 0,0 l/m 17,7 km/h (3 Bft) SW 225 0 min 0,000 mm 0,0 UV-I 25 W/m -0,1 C -7,4 C 22,5 km/h (4 Bft) 100,00 %
21.12.2017 08:29 0,9 C 3,9 C 93 % 1034,8 hPa 0,0 l/m 19,3 km/h (3 Bft) SW 225 0 min 0,000 mm 0,0 UV-I 23 W/m -0,1 C -8,1 C 29,0 km/h (5 Bft) 95,65 %
21.12.2017 08:30 0,9 C 3,9 C 93 % 1034,8 hPa 0,0 l/m 16,1 km/h (3 Bft) SW 225 0 min 0,000 mm 0,0 UV-I 21 W/m -0,1 C -6,5 C 24,1 km/h (4 Bft) 95,65 %
21.12.2017 08:31 0,9 C 3,9 C 93 % 1034,9 hPa 0,0 l/m 17,7 km/h (3 Bft) W-SW 247 0 min 0,000 mm 0,0 UV-I 18 W/m -0,1 C -7,4 C 29,0 km/h (5 Bft) 100,00 %
21.12.2017 08:32 0,9 C 3,9 C 93 % 1034,8 hPa 0,0 l/m 16,1 km/h (3 Bft) SW 225 0 min 0,000 mm 0,0 UV-I 16 W/m -0,1 C -6,5 C 20,9 km/h (4 Bft) 95,65 %
21.12.2017 08:33 0,9 C 3,9 C 93 % 1034,8 hPa 0,0 l/m 16,1 km/h (3 Bft) W-SW 247 0 min 0,000 mm 0,0 UV-I 16 W/m -0,1 C -6,5 C 24,1 km/h (4 Bft) 100,00 %
21.12.2017 08:34 0,9 C 3,9 C 93 % 1034,8 hPa 0,0 l/m 17,7 km/h (3 Bft) W-SW 247 0 min 0,000 mm 0,0 UV-I 14 W/m -0,1 C -7,4 C 29,0 km/h (5 Bft) 91,30 %
21.12.2017 08:35 1,0 C 3,9 C 93 % 1034,8 hPa 0,0 l/m 17,7 km/h (3 Bft) SW 225 0 min 0,000 mm 0,0 UV-I 14 W/m -0,0 C -7,2 C 25,7 km/h (4 Bft) 100,00 %
21.12.2017 08:36 0,9 C 3,9 C 93 % 1034,9 hPa 0,0 l/m 14,5 km/h (3 Bft) SW 225 0 min 0,000 mm 0,0 UV-I 15 W/m -0,1 C -5,6 C 19,3 km/h (3 Bft) 95,65 %
21.12.2017 08:37 1,0 C 3,9 C 92 % 1035,0 hPa 0,0 l/m 16,1 km/h (3 Bft) W-SW 247 0 min 0,000 mm 0,0 UV-I 16 W/m -0,2 C -6,4 C 20,9 km/h (4 Bft) 91,30 %
21.12.2017 08:38 0,9 C 3,9 C 92 % 1035,0 hPa 0,0 l/m 12,9 km/h (3 Bft) SW 225 0 min 0,000 mm 0,0 UV-I 16 W/m -0,2 C -4,6 C 19,3 km/h (3 Bft) 100,00 %
21.12.2017 08:39 0,9 C 3,9 C 93 % 1035,0 hPa 0,0 l/m 20,9 km/h (4 Bft) SW 225 0 min 0,000 mm 0,0 UV-I 16 W/m -0,1 C -8,9 C 27,4 km/h (4 Bft) 95,65 %
21.12.2017 08:40 0,9 C 3,9 C 93 % 1035,0 hPa 0,0 l/m 19,3 km/h (3 Bft) SW 225 0 min 0,000 mm 0,0 UV-I 16 W/m -0,1 C -8,1 C 27,4 km/h (4 Bft) 95,65 %
21.12.2017 08:41 0,9 C 3,9 C 93 % 1035,0 hPa 0,0 l/m 16,1 km/h (3 Bft) SW 225 0 min 0,000 mm 0,0 UV-I 18 W/m -0,1 C -6,5 C 22,5 km/h (4 Bft) 91,30 %
21.12.2017 08:42 1,0 C 3,9 C 93 % 1035,0 hPa 0,0 l/m 19,3 km/h (3 Bft) SW 225 0 min 0,000 mm 0,0 UV-I 18 W/m -0,0 C -8,0 C 29,0 km/h (5 Bft) 100,00 %
21.12.2017 08:43 1,0 C 3,9 C 93 % 1034,9 hPa 0,0 l/m 19,3 km/h (3 Bft) SW 225 0 min 0,000 mm 0,0 UV-I 18 W/m -0,0 C -8,0 C 25,7 km/h (4 Bft) 95,65 %
21.12.2017 08:44 1,0 C 3,9 C 93 % 1034,9 hPa 0,0 l/m 17,7 km/h (3 Bft) SW 225 0 min 0,000 mm 0,0 UV-I 18 W/m -0,0 C -7,2 C 25,7 km/h (4 Bft) 100,00 %
21.12.2017 08:45 1,0 C 3,9 C 92 % 1035,0 hPa 0,0 l/m 12,9 km/h (3 Bft) SW 225 0 min 0,000 mm 0,0 UV-I 19 W/m -0,2 C -4,5 C 17,7 km/h (3 Bft) 95,65 %
21.12.2017 08:46 1,0 C 3,9 C 92 % 1034,9 hPa 0,0 l/m 17,7 km/h (3 Bft) W-SW 247 0 min 0,000 mm 0,0 UV-I 19 W/m -0,2 C -7,2 C 27,4 km/h (4 Bft) 91,30 %
21.12.2017 08:47 1,0 C 3,9 C 93 % 1034,9 hPa 0,0 l/m 14,5 km/h (3 Bft) SW 225 0 min 0,000 mm 0,0 UV-I 21 W/m -0,0 C -5,5 C 17,7 km/h (3 Bft) 100,00 %
21.12.2017 08:48 1,0 C 3,9 C 93 % 1034,9 hPa 0,0 l/m 17,7 km/h (3 Bft) SW 225 0 min 0,000 mm 0,0 UV-I 22 W/m -0,0 C -7,2 C 22,5 km/h (4 Bft) 86,96 %
21.12.2017 08:49 0,9 C 3,9 C 93 % 1034,9 hPa 0,0 l/m 16,1 km/h (3 Bft) SW 225 0 min 0,000 mm 0,0 UV-I 23 W/m -0,1 C -6,5 C 22,5 km/h (4 Bft) 100,00 %
21.12.2017 08:50 0,9 C 3,9 C 93 % 1034,9 hPa 0,0 l/m 22,5 km/h (4 Bft) SW 225 0 min 0,000 mm 0,0 UV-I 23 W/m -0,1 C -9,5 C 30,6 km/h (5 Bft) 91,30 %
21.12.2017 08:51 0,9 C 3,9 C 93 % 1034,9 hPa 0,0 l/m 22,5 km/h (4 Bft) SW 225 0 min 0,000 mm 0,0 UV-I 23 W/m -0,1 C -9,5 C 27,4 km/h (4 Bft) 100,00 %
21.12.2017 08:52 0,9 C 3,9 C 93 % 1034,9 hPa 0,0 l/m 17,7 km/h (3 Bft) SW 225 0 min 0,000 mm 0,0 UV-I 25 W/m -0,1 C -7,4 C 25,7 km/h (4 Bft) 91,30 %
21.12.2017 08:53 0,9 C 3,9 C 93 % 1034,9 hPa 0,0 l/m 20,9 km/h (4 Bft) SW 225 0 min 0,000 mm 0,0 UV-I 25 W/m -0,1 C -8,9 C 30,6 km/h (5 Bft) 100,00 %
21.12.2017 08:54 0,9 C 3,9 C 93 % 1034,9 hPa 0,0 l/m 17,7 km/h (3 Bft) SW 225 0 min 0,000 mm 0,0 UV-I 25 W/m -0,1 C -7,4 C 24,1 km/h (4 Bft) 91,30 %
21.12.2017 08:55 0,9 C 3,9 C 93 % 1034,9 hPa 0,0 l/m 16,1 km/h (3 Bft) SW 225 0 min 0,000 mm 0,0 UV-I 26 W/m -0,1 C -6,5 C 25,7 km/h (4 Bft) 91,30 %
21.12.2017 08:56 0,9 C 3,9 C 93 % 1034,8 hPa 0,0 l/m 14,5 km/h (3 Bft) SW 225 0 min 0,000 mm 0,0 UV-I 26 W/m -0,1 C -5,6 C 19,3 km/h (3 Bft) 95,65 %
21.12.2017 08:57 0,9 C 3,9 C 93 % 1034,8 hPa 0,0 l/m 19,3 km/h (3 Bft) SW 225 0 min 0,000 mm 0,0 UV-I 26 W/m -0,1 C -8,1 C 29,0 km/h (5 Bft) 100,00 %
21.12.2017 08:58 0,9 C 3,9 C 93 % 1034,9 hPa 0,0 l/m 16,1 km/h (3 Bft) SW 225 0 min 0,000 mm 0,0 UV-I 26 W/m -0,1 C -6,5 C 24,1 km/h (4 Bft) 95,65 %
21.12.2017 08:59 0,9 C 3,9 C 93 % 1034,8 hPa 0,0 l/m 19,3 km/h (3 Bft) W-SW 247 0 min 0,000 mm 0,0 UV-I 26 W/m -0,1 C -8,1 C 25,7 km/h (4 Bft) 100,00 %
21.12.2017 09:00 0,9 C 3,9 C 93 % 1034,8 hPa 0,0 l/m 16,1 km/h (3 Bft) SW 225 0 min 0,025 mm 0,0 UV-I 27 W/m -0,1 C -6,5 C 24,1 km/h (4 Bft) 95,65 %
21.12.2017 09:01 0,9 C 3,9 C 93 % 1034,8 hPa 0,0 l/m 16,1 km/h (3 Bft) SW 225 0 min 0,000 mm 0,0 UV-I 28 W/m -0,1 C -6,5 C 22,5 km/h (4 Bft) 100,00 %
21.12.2017 09:02 0,9 C 3,9 C 93 % 1034,8 hPa 0,0 l/m 16,1 km/h (3 Bft) SW 225 0 min 0,000 mm 0,0 UV-I 30 W/m -0,1 C -6,5 C 20,9 km/h (4 Bft) 91,30 %
21.12.2017 09:03 0,9 C 3,9 C 94 % 1034,8 hPa 0,0 l/m 20,9 km/h (4 Bft) SW 225 0 min 0,000 mm 0,0 UV-I 30 W/m 0,0 C -8,9 C 25,7 km/h (4 Bft) 95,65 %
21.12.2017 09:04 0,9 C 3,9 C 94 % 1034,8 hPa 0,2 l/m 17,7 km/h (3 Bft) SW 225 0 min 0,000 mm 0,0 UV-I 30 W/m 0,0 C -7,4 C 27,4 km/h (4 Bft) 100,00 %
21.12.2017 09:05 0,9 C 3,9 C 94 % 1034,8 hPa 0,0 l/m 17,7 km/h (3 Bft) SW 225 0 min 0,000 mm 0,0 UV-I 32 W/m 0,0 C -7,4 C 30,6 km/h (5 Bft) 95,65 %
21.12.2017 09:06 0,9 C 3,9 C 94 % 1034,8 hPa 0,0 l/m 17,7 km/h (3 Bft) SW 225 0 min 0,000 mm 0,0 UV-I 33 W/m 0,0 C -7,4 C 25,7 km/h (4 Bft) 100,00 %
21.12.2017 09:07 0,9 C 3,9 C 94 % 1034,7 hPa 0,0 l/m 17,7 km/h (3 Bft) W-SW 247 0 min 0,000 mm 0,0 UV-I 32 W/m 0,0 C -7,4 C 25,7 km/h (4 Bft) 95,65 %
21.12.2017 09:08 0,9 C 3,9 C 94 % 1034,7 hPa 0,0 l/m 17,7 km/h (3 Bft) SW 225 0 min 0,000 mm 0,0 UV-I 32 W/m 0,0 C -7,4 C 24,1 km/h (4 Bft) 100,00 %
21.12.2017 09:09 0,9 C 3,9 C 94 % 1034,8 hPa 0,0 l/m 19,3 km/h (3 Bft) SW 225 0 min 0,000 mm 0,0 UV-I 33 W/m 0,0 C -8,1 C 29,0 km/h (5 Bft) 91,30 %
21.12.2017 09:10 0,9 C 3,9 C 94 % 1034,8 hPa 0,0 l/m 17,7 km/h (3 Bft) W-SW 247 0 min 0,000 mm 0,0 UV-I 33 W/m 0,0 C -7,4 C 25,7 km/h (4 Bft) 100,00 %
21.12.2017 09:11 0,9 C 3,9 C 94 % 1034,8 hPa 0,0 l/m 19,3 km/h (3 Bft) SW 225 0 min 0,000 mm 0,0 UV-I 33 W/m 0,0 C -8,1 C 27,4 km/h (4 Bft) 100,00 %
21.12.2017 09:12 0,9 C 3,9 C 94 % 1034,8 hPa 0,0 l/m 19,3 km/h (3 Bft) SW 225 0 min 0,000 mm 0,0 UV-I 33 W/m 0,0 C -8,1 C 22,5 km/h (4 Bft) 100,00 %
21.12.2017 09:13 1,0 C 3,9 C 94 % 1034,7 hPa 0,0 l/m 17,7 km/h (3 Bft) W-SW 247 0 min 0,000 mm 0,0 UV-I 35 W/m 0,1 C -7,2 C 25,7 km/h (4 Bft) 100,00 %
21.12.2017 09:14 0,9 C 3,9 C 94 % 1034,8 hPa 0,0 l/m 16,1 km/h (3 Bft) W-SW 247 0 min 0,000 mm 0,0 UV-I 35 W/m 0,0 C -6,5 C 22,5 km/h (4 Bft) 100,00 %
21.12.2017 09:15 0,9 C 3,9 C 94 % 1034,8 hPa 0,0 l/m 19,3 km/h (3 Bft) W-SW 247 0 min 0,000 mm 0,0 UV-I 37 W/m 0,0 C -8,1 C 24,1 km/h (4 Bft) 100,00 %
21.12.2017 09:16 1,0 C 3,9 C 94 % 1034,8 hPa 0,0 l/m 16,1 km/h (3 Bft) SW 225 0 min 0,000 mm 0,0 UV-I 37 W/m 0,1 C -6,4 C 22,5 km/h (4 Bft) 95,65 %
21.12.2017 09:17 1,0 C 3,9 C 94 % 1034,8 hPa 0,0 l/m 12,9 km/h (3 Bft) SW 225 0 min 0,000 mm 0,0 UV-I 40 W/m 0,1 C -4,5 C 24,1 km/h (4 Bft) 100,00 %
21.12.2017 09:18 1,0 C 3,9 C 94 % 1034,8 hPa 0,0 l/m 12,9 km/h (3 Bft) W-SW 247 0 min 0,000 mm 0,0 UV-I 40 W/m 0,1 C -4,5 C 20,9 km/h (4 Bft) 100,00 %
21.12.2017 09:19 1,0 C 3,9 C 94 % 1034,8 hPa 0,0 l/m 14,5 km/h (3 Bft) SW 225 0 min 0,000 mm 0,0 UV-I 40 W/m 0,1 C -5,5 C 22,5 km/h (4 Bft) 100,00 %
21.12.2017 09:20 1,0 C 3,9 C 94 % 1034,8 hPa 0,0 l/m 19,3 km/h (3 Bft) SW 225 0 min 0,000 mm 0,0 UV-I 40 W/m 0,1 C -8,0 C 25,7 km/h (4 Bft) 100,00 %
21.12.2017 09:21 1,0 C 3,9 C 94 % 1034,9 hPa 0,0 l/m 16,1 km/h (3 Bft) W-SW 247 0 min 0,000 mm 0,0 UV-I 39 W/m 0,1 C -6,4 C 22,5 km/h (4 Bft) 100,00 %
21.12.2017 09:22 1,0 C 3,9 C 94 % 1034,8 hPa 0,0 l/m 14,5 km/h (3 Bft) W-SW 247 0 min 0,000 mm 0,0 UV-I 37 W/m 0,1 C -5,5 C 20,9 km/h (4 Bft) 100,00 %
21.12.2017 09:23 1,0 C 3,9 C 94 % 1034,9 hPa 0,0 l/m 12,9 km/h (3 Bft) SW 225 0 min 0,000 mm 0,0 UV-I 40 W/m 0,1 C -4,5 C 17,7 km/h (3 Bft) 95,65 %
21.12.2017 09:24 1,0 C 3,9 C 94 % 1034,9 hPa 0,0 l/m 17,7 km/h (3 Bft) SW 225 0 min 0,000 mm 0,0 UV-I 42 W/m 0,1 C -7,2 C 22,5 km/h (4 Bft) 100,00 %
21.12.2017 09:25 1,0 C 3,9 C 94 % 1034,9 hPa 0,2 l/m 12,9 km/h (3 Bft) W-SW 247 0 min 0,000 mm 0,0 UV-I 44 W/m 0,1 C -4,5 C 19,3 km/h (3 Bft) 100,00 %
21.12.2017 09:26 1,0 C 3,9 C 94 % 1034,9 hPa 0,0 l/m 11,3 km/h (2 Bft) SW 225 0 min 0,000 mm 0,0 UV-I 46 W/m 0,1 C -3,3 C 17,7 km/h (3 Bft) 100,00 %
21.12.2017 09:27 1,0 C 3,9 C 94 % 1034,9 hPa 0,0 l/m 17,7 km/h (3 Bft) SW 225 0 min 0,000 mm 0,0 UV-I 47 W/m 0,1 C -7,2 C 25,7 km/h (4 Bft) 100,00 %
21.12.2017 09:28 1,0 C 3,9 C 94 % 1034,8 hPa 0,0 l/m 14,5 km/h (3 Bft) SW 225 0 min 0,000 mm 0,0 UV-I 53 W/m 0,1 C -5,5 C 17,7 km/h (3 Bft) 100,00 %
21.12.2017 09:29 1,0 C 3,9 C 94 % 1034,8 hPa 0,0 l/m 17,7 km/h (3 Bft) W-SW 247 0 min 0,000 mm 0,0 UV-I 57 W/m 0,1 C -7,2 C 24,1 km/h (4 Bft) 100,00 %
21.12.2017 09:30 1,1 C 3,9 C 94 % 1034,8 hPa 0,0 l/m 17,7 km/h (3 Bft) SW 225 0 min 0,000 mm 0,0 UV-I 60 W/m 0,2 C -7,1 C 25,7 km/h (4 Bft) 95,65 %
21.12.2017 09:31 1,1 C 3,9 C 94 % 1034,7 hPa 0,0 l/m 17,7 km/h (3 Bft) SW 225 0 min 0,000 mm 0,0 UV-I 62 W/m 0,2 C -7,1 C 24,1 km/h (4 Bft) 100,00 %
21.12.2017 09:32 1,1 C 3,9 C 94 % 1034,7 hPa 0,0 l/m 17,7 km/h (3 Bft) W-SW 247 0 min 0,000 mm 0,0 UV-I 63 W/m 0,2 C -7,1 C 24,1 km/h (4 Bft) 100,00 %
21.12.2017 09:33 1,1 C 3,9 C 94 % 1034,7 hPa 0,0 l/m 20,9 km/h (4 Bft) SW 225 0 min 0,000 mm 0,0 UV-I 63 W/m 0,2 C -8,6 C 24,1 km/h (4 Bft) 100,00 %
21.12.2017 09:34 1,1 C 3,9 C 94 % 1034,7 hPa 0,0 l/m 17,7 km/h (3 Bft) SW 225 0 min 0,000 mm 0,0 UV-I 65 W/m 0,2 C -7,1 C 24,1 km/h (4 Bft) 100,00 %
21.12.2017 09:35 1,1 C 3,9 C 94 % 1034,7 hPa 0,0 l/m 20,9 km/h (4 Bft) SW 225 0 min 0,000 mm 0,0 UV-I 70 W/m 0,2 C -8,6 C 29,0 km/h (5 Bft) 100,00 %
21.12.2017 09:36 1,1 C 3,9 C 94 % 1034,7 hPa 0,0 l/m 17,7 km/h (3 Bft) SW 225 0 min 0,000 mm 0,0 UV-I 72 W/m 0,2 C -7,1 C 24,1 km/h (4 Bft) 100,00 %
21.12.2017 09:37 1,1 C 3,9 C 94 % 1034,7 hPa 0,0 l/m 16,1 km/h (3 Bft) SW 225 0 min 0,000 mm 0,0 UV-I 74 W/m 0,2 C -6,3 C 20,9 km/h (4 Bft) 91,30 %
21.12.2017 09:38 1,1 C 3,9 C 94 % 1034,7 hPa 0,0 l/m 17,7 km/h (3 Bft) SW 225 0 min 0,000 mm 0,0 UV-I 76 W/m 0,2 C -7,1 C 24,1 km/h (4 Bft) 100,00 %
21.12.2017 09:39 1,1 C 3,9 C 94 % 1034,7 hPa 0,0 l/m 19,3 km/h (3 Bft) W-SW 247 0 min 0,000 mm 0,0 UV-I 74 W/m 0,2 C -7,9 C 24,1 km/h (4 Bft) 100,00 %
21.12.2017 09:40 1,1 C 3,9 C 94 % 1034,7 hPa 0,0 l/m 19,3 km/h (3 Bft) SW 225 0 min 0,000 mm 0,0 UV-I 69 W/m 0,2 C -7,9 C 30,6 km/h (5 Bft) 100,00 %
21.12.2017 09:41 1,2 C 3,9 C 94 % 1034,7 hPa 0,0 l/m 17,7 km/h (3 Bft) W-SW 247 0 min 0,000 mm 0,0 UV-I 65 W/m 0,3 C -7,0 C 25,7 km/h (4 Bft) 95,65 %
21.12.2017 09:42 1,2 C 3,9 C 94 % 1034,7 hPa 0,0 l/m 24,1 km/h (4 Bft) SW 225 0 min 0,000 mm 0,0 UV-I 56 W/m 0,3 C -9,8 C 30,6 km/h (5 Bft) 100,00 %
21.12.2017 09:43 1,2 C 3,9 C 94 % 1034,7 hPa 0,0 l/m 19,3 km/h (3 Bft) SW 225 0 min 0,000 mm 0,0 UV-I 53 W/m 0,3 C -7,8 C 24,1 km/h (4 Bft) 100,00 %
21.12.2017 09:44 1,2 C 3,9 C 94 % 1034,7 hPa 0,0 l/m 11,3 km/h (2 Bft) W-SW 247 0 min 0,000 mm 0,0 UV-I 49 W/m 0,3 C -3,1 C 17,7 km/h (3 Bft) 95,65 %
21.12.2017 09:45 1,2 C 3,9 C 94 % 1034,7 hPa 0,0 l/m 17,7 km/h (3 Bft) SW 225 0 min 0,000 mm 0,0 UV-I 49 W/m 0,3 C -7,0 C 27,4 km/h (4 Bft) 100,00 %
21.12.2017 09:46 1,2 C 3,9 C 94 % 1034,8 hPa 0,0 l/m 20,9 km/h (4 Bft) SW 225 0 min 0,000 mm 0,0 UV-I 49 W/m 0,3 C -8,5 C 30,6 km/h (5 Bft) 100,00 %
21.12.2017 09:47 1,2 C 3,9 C 94 % 1034,7 hPa 0,0 l/m 14,5 km/h (3 Bft) SW 225 0 min 0,000 mm 0,0 UV-I 49 W/m 0,3 C -5,2 C 22,5 km/h (4 Bft) 100,00 %
21.12.2017 09:48 1,2 C 3,9 C 94 % 1034,7 hPa 0,0 l/m 17,7 km/h (3 Bft) SW 225 0 min 0,000 mm 0,0 UV-I 49 W/m 0,3 C -7,0 C 20,9 km/h (4 Bft) 100,00 %
21.12.2017 09:49 1,2 C 3,9 C 94 % 1034,7 hPa 0,0 l/m 19,3 km/h (3 Bft) SW 225 0 min 0,000 mm 0,0 UV-I 51 W/m 0,3 C -7,8 C 29,0 km/h (5 Bft) 100,00 %
21.12.2017 09:50 1,2 C 3,9 C 94 % 1034,7 hPa 0,0 l/m 17,7 km/h (3 Bft) W-SW 247 0 min 0,000 mm 0,0 UV-I 54 W/m 0,3 C -7,0 C 22,5 km/h (4 Bft) 100,00 %
21.12.2017 09:51 1,2 C 3,9 C 94 % 1034,6 hPa 0,0 l/m 19,3 km/h (3 Bft) SW 225 0 min 0,000 mm 0,0 UV-I 54 W/m 0,3 C -7,8 C 27,4 km/h (4 Bft) 95,65 %
21.12.2017 09:52 1,2 C 3,9 C 94 % 1034,7 hPa 0,0 l/m 17,7 km/h (3 Bft) SW 225 0 min 0,000 mm 0,0 UV-I 54 W/m 0,3 C -7,0 C 25,7 km/h (4 Bft) 100,00 %
21.12.2017 09:53 1,2 C 3,9 C 94 % 1034,7 hPa 0,0 l/m 11,3 km/h (2 Bft) W-SW 247 0 min 0,000 mm 0,0 UV-I 61 W/m 0,3 C -3,1 C 17,7 km/h (3 Bft) 100,00 %
21.12.2017 09:54 1,2 C 3,9 C 94 % 1034,7 hPa 0,0 l/m 12,9 km/h (3 Bft) SW 225 0 min 0,000 mm 0,0 UV-I 60 W/m 0,3 C -4,2 C 19,3 km/h (3 Bft) 100,00 %
21.12.2017 09:55 1,2 C 3,9 C 94 % 1034,7 hPa 0,0 l/m 14,5 km/h (3 Bft) W-SW 247 0 min 0,000 mm 0,0 UV-I 56 W/m 0,3 C -5,2 C 17,7 km/h (3 Bft) 100,00 %
21.12.2017 09:56 1,2 C 3,9 C 94 % 1034,7 hPa 0,0 l/m 16,1 km/h (3 Bft) SW 225 0 min 0,000 mm 0,0 UV-I 54 W/m 0,3 C -6,1 C 22,5 km/h (4 Bft) 100,00 %
21.12.2017 09:57 1,2 C 3,9 C 94 % 1034,7 hPa 0,0 l/m 16,1 km/h (3 Bft) W-SW 247 0 min 0,000 mm 0,0 UV-I 54 W/m 0,3 C -6,1 C 24,1 km/h (4 Bft) 100,00 %
21.12.2017 09:58 1,2 C 3,9 C 94 % 1034,7 hPa 0,0 l/m 17,7 km/h (3 Bft) W-SW 247 0 min 0,000 mm 0,0 UV-I 53 W/m 0,3 C -7,0 C 25,7 km/h (4 Bft) 95,65 %
21.12.2017 09:59 1,2 C 3,9 C 94 % 1034,7 hPa 0,0 l/m 14,5 km/h (3 Bft) W-SW 247 0 min 0,000 mm 0,0 UV-I 49 W/m 0,3 C -5,2 C 20,9 km/h (4 Bft) 95,65 %
21.12.2017 10:00 1,2 C 3,9 C 94 % 1034,7 hPa 0,0 l/m 16,1 km/h (3 Bft) SW 225 0 min 0,025 mm 0,0 UV-I 51 W/m 0,3 C -6,1 C 25,7 km/h (4 Bft) 100,00 %
21.12.2017 10:01 1,3 C 3,9 C 94 % 1034,7 hPa 0,0 l/m 22,5 km/h (4 Bft) W-SW 247 0 min 0,000 mm 0,0 UV-I 53 W/m 0,4 C -9,0 C 29,0 km/h (5 Bft) 100,00 %
21.12.2017 10:02 1,3 C 3,9 C 94 % 1034,7 hPa 0,0 l/m 16,1 km/h (3 Bft) SW 225 0 min 0,000 mm 0,0 UV-I 51 W/m 0,4 C -6,0 C 22,5 km/h (4 Bft) 100,00 %
21.12.2017 10:03 1,3 C 3,9 C 94 % 1034,8 hPa 0,0 l/m 14,5 km/h (3 Bft) W-SW 247 0 min 0,000 mm 0,0 UV-I 54 W/m 0,4 C -5,1 C 24,1 km/h (4 Bft) 100,00 %
21.12.2017 10:04 1,3 C 3,9 C 94 % 1034,7 hPa 0,0 l/m 22,5 km/h (4 Bft) W-SW 247 0 min 0,000 mm 0,0 UV-I 55 W/m 0,4 C -9,0 C 29,0 km/h (5 Bft) 100,00 %
21.12.2017 10:05 1,3 C 3,9 C 94 % 1034,8 hPa 0,0 l/m 16,1 km/h (3 Bft) W-SW 247 0 min 0,000 mm 0,0 UV-I 56 W/m 0,4 C -6,0 C 25,7 km/h (4 Bft) 95,65 %
21.12.2017 10:06 1,3 C 3,9 C 94 % 1034,7 hPa 0,0 l/m 16,1 km/h (3 Bft) W-SW 247 0 min 0,000 mm 0,0 UV-I 65 W/m 0,4 C -6,0 C 20,9 km/h (4 Bft) 100,00 %
21.12.2017 10:07 1,3 C 3,9 C 94 % 1034,7 hPa 0,0 l/m 14,5 km/h (3 Bft) W-SW 247 0 min 0,000 mm 0,0 UV-I 67 W/m 0,4 C -5,1 C 19,3 km/h (3 Bft) 100,00 %
21.12.2017 10:08 1,3 C 3,9 C 94 % 1034,7 hPa 0,0 l/m 20,9 km/h (4 Bft) W-SW 247 0 min 0,000 mm 0,0 UV-I 65 W/m 0,4 C -8,3 C 27,4 km/h (4 Bft) 100,00 %
21.12.2017 10:09 1,4 C 3,9 C 94 % 1034,8 hPa 0,0 l/m 19,3 km/h (3 Bft) W-SW 247 0 min 0,000 mm 0,0 UV-I 62 W/m 0,5 C -7,5 C 25,7 km/h (4 Bft) 100,00 %
21.12.2017 10:10 1,4 C 3,9 C 94 % 1034,8 hPa 0,0 l/m 14,5 km/h (3 Bft) W-SW 247 0 min 0,000 mm 0,0 UV-I 58 W/m 0,5 C -5,0 C 22,5 km/h (4 Bft) 100,00 %
21.12.2017 10:11 1,4 C 3,9 C 94 % 1034,8 hPa 0,0 l/m 20,9 km/h (4 Bft) SW 225 0 min 0,000 mm 0,0 UV-I 56 W/m 0,5 C -8,2 C 30,6 km/h (5 Bft) 95,65 %
21.12.2017 10:12 1,4 C 3,9 C 94 % 1034,8 hPa 0,0 l/m 16,1 km/h (3 Bft) W-SW 247 0 min 0,000 mm 0,0 UV-I 58 W/m 0,5 C -5,9 C 24,1 km/h (4 Bft) 95,65 %
21.12.2017 10:13 1,4 C 3,9 C 94 % 1034,8 hPa 0,0 l/m 24,1 km/h (4 Bft) W-SW 247 0 min 0,000 mm 0,0 UV-I 60 W/m 0,5 C -9,5 C 32,2 km/h (5 Bft) 91,30 %
21.12.2017 10:14 1,4 C 3,9 C 94 % 1034,7 hPa 0,0 l/m 19,3 km/h (3 Bft) W-SW 247 0 min 0,000 mm 0,0 UV-I 62 W/m 0,5 C -7,5 C 27,4 km/h (4 Bft) 100,00 %
21.12.2017 10:15 1,4 C 3,9 C 94 % 1034,7 hPa 0,0 l/m 17,7 km/h (3 Bft) W-SW 247 0 min 0,000 mm 0,0 UV-I 62 W/m 0,5 C -6,7 C 30,6 km/h (5 Bft) 95,65 %
21.12.2017 10:16 1,4 C 3,9 C 94 % 1034,8 hPa 0,0 l/m 22,5 km/h (4 Bft) W-SW 247 0 min 0,000 mm 0,0 UV-I 65 W/m 0,5 C -8,9 C 30,6 km/h (5 Bft) 100,00 %
21.12.2017 10:17 1,4 C 3,9 C 94 % 1034,7 hPa 0,0 l/m 20,9 km/h (4 Bft) SW 225 0 min 0,000 mm 0,0 UV-I 67 W/m 0,5 C -8,2 C 29,0 km/h (5 Bft) 95,65 %
21.12.2017 10:18 1,5 C 3,9 C 93 % 1034,7 hPa 0,0 l/m 20,9 km/h (4 Bft) W-SW 247 0 min 0,000 mm 0,0 UV-I 69 W/m 0,5 C -8,1 C 32,2 km/h (5 Bft) 95,65 %
21.12.2017 10:19 1,5 C 3,9 C 93 % 1034,8 hPa 0,0 l/m 19,3 km/h (3 Bft) W-SW 247 0 min 0,000 mm 0,0 UV-I 70 W/m 0,5 C -7,4 C 25,7 km/h (4 Bft) 91,30 %
21.12.2017 10:20 1,5 C 3,9 C 94 % 1034,7 hPa 0,0 l/m 19,3 km/h (3 Bft) SW 225 0 min 0,000 mm 0,0 UV-I 70 W/m 0,6 C -7,4 C 30,6 km/h (5 Bft) 100,00 %
21.12.2017 10:21 1,5 C 3,9 C 94 % 1034,7 hPa 0,0 l/m 22,5 km/h (4 Bft) SW 225 0 min 0,000 mm 0,0 UV-I 72 W/m 0,6 C -8,7 C 29,0 km/h (5 Bft) 91,30 %
21.12.2017 10:22 1,5 C 3,9 C 93 % 1034,7 hPa 0,0 l/m 19,3 km/h (3 Bft) W-SW 247 0 min 0,000 mm 0,0 UV-I 75 W/m 0,5 C -7,4 C 24,1 km/h (4 Bft) 95,65 %
21.12.2017 10:23 1,6 C 3,9 C 93 % 1034,7 hPa 0,0 l/m 17,7 km/h (3 Bft) SW 225 0 min 0,000 mm 0,0 UV-I 76 W/m 0,6 C -6,5 C 25,7 km/h (4 Bft) 95,65 %
21.12.2017 10:24 1,6 C 3,9 C 93 % 1034,7 hPa 0,0 l/m 14,5 km/h (3 Bft) W-SW 247 0 min 0,000 mm 0,0 UV-I 76 W/m 0,6 C -4,8 C 19,3 km/h (3 Bft) 95,65 %
21.12.2017 10:25 1,6 C 3,9 C 93 % 1034,7 hPa 0,0 l/m 16,1 km/h (3 Bft) SW 225 0 min 0,000 mm 0,0 UV-I 77 W/m 0,6 C -5,7 C 27,4 km/h (4 Bft) 95,65 %
21.12.2017 10:26 1,6 C 3,9 C 93 % 1034,7 hPa 0,0 l/m 17,7 km/h (3 Bft) SW 225 0 min 0,000 mm 0,0 UV-I 79 W/m 0,6 C -6,5 C 24,1 km/h (4 Bft) 91,30 %
21.12.2017 10:27 1,6 C 3,9 C 93 % 1034,7 hPa 0,0 l/m 14,5 km/h (3 Bft) SW 225 0 min 0,000 mm 0,0 UV-I 83 W/m 0,6 C -4,8 C 20,9 km/h (4 Bft) 95,65 %
21.12.2017 10:28 1,6 C 3,9 C 93 % 1034,7 hPa 0,0 l/m 19,3 km/h (3 Bft) SW 225 0 min 0,000 mm 0,0 UV-I 90 W/m 0,6 C -7,2 C 27,4 km/h (4 Bft) 95,65 %
21.12.2017 10:29 1,6 C 3,9 C 93 % 1034,6 hPa 0,0 l/m 20,9 km/h (4 Bft) W-SW 247 0 min 0,000 mm 0,0 UV-I 98 W/m 0,6 C -8,0 C 29,0 km/h (5 Bft) 95,65 %
21.12.2017 10:30 1,6 C 3,9 C 93 % 1034,6 hPa 0,0 l/m 16,1 km/h (3 Bft) SW 225 0 min 0,000 mm 0,0 UV-I 97 W/m 0,6 C -5,7 C 24,1 km/h (4 Bft) 91,30 %
21.12.2017 10:31 1,7 C 3,9 C 93 % 1034,6 hPa 0,0 l/m 16,1 km/h (3 Bft) SW 225 0 min 0,000 mm 0,0 UV-I 93 W/m 0,7 C -5,5 C 20,9 km/h (4 Bft) 100,00 %
21.12.2017 10:32 1,7 C 3,9 C 93 % 1034,6 hPa 0,0 l/m 16,1 km/h (3 Bft) W-SW 247 0 min 0,000 mm 0,0 UV-I 91 W/m 0,7 C -5,5 C 20,9 km/h (4 Bft) 91,30 %
21.12.2017 10:33 1,7 C 3,9 C 93 % 1034,5 hPa 0,0 l/m 19,3 km/h (3 Bft) SW 225 0 min 0,000 mm 0,0 UV-I 90 W/m 0,7 C -7,1 C 25,7 km/h (4 Bft) 95,65 %
21.12.2017 10:34 1,7 C 3,9 C 93 % 1034,5 hPa 0,0 l/m 22,5 km/h (4 Bft) SW 225 0 min 0,000 mm 0,0 UV-I 90 W/m 0,7 C -8,5 C 29,0 km/h (5 Bft) 95,65 %
21.12.2017 10:35 1,7 C 3,9 C 93 % 1034,5 hPa 0,0 l/m 16,1 km/h (3 Bft) W-SW 247 0 min 0,000 mm 0,0 UV-I 88 W/m 0,7 C -5,5 C 20,9 km/h (4 Bft) 100,00 %
21.12.2017 10:36 1,7 C 3,9 C 93 % 1034,5 hPa 0,0 l/m 16,1 km/h (3 Bft) W-SW 247 0 min 0,000 mm 0,0 UV-I 93 W/m 0,7 C -5,5 C 22,5 km/h (4 Bft) 86,96 %
21.12.2017 10:37 1,7 C 3,9 C 93 % 1034,5 hPa 0,0 l/m 17,7 km/h (3 Bft) W-SW 247 0 min 0,000 mm 0,0 UV-I 98 W/m 0,7 C -6,4 C 24,1 km/h (4 Bft) 100,00 %
21.12.2017 10:38 1,7 C 3,9 C 93 % 1034,5 hPa 0,0 l/m 16,1 km/h (3 Bft) W-SW 247 0 min 0,000 mm 0,0 UV-I 105 W/m 0,7 C -5,5 C 25,7 km/h (4 Bft) 95,65 %
21.12.2017 10:39 1,8 C 3,9 C 93 % 1034,5 hPa 0,0 l/m 17,7 km/h (3 Bft) SW 225 0 min 0,000 mm 0,0 UV-I 110 W/m 0,8 C -6,2 C 29,0 km/h (5 Bft) 100,00 %
21.12.2017 10:40 1,8 C 3,9 C 93 % 1034,4 hPa 0,0 l/m 20,9 km/h (4 Bft) W-SW 247 0 min 0,000 mm 0,0 UV-I 113 W/m 0,8 C -7,7 C 32,2 km/h (5 Bft) 95,65 %
21.12.2017 10:41 1,8 C 3,9 C 93 % 1034,5 hPa 0,0 l/m 20,9 km/h (4 Bft) W-SW 247 0 min 0,000 mm 0,0 UV-I 114 W/m 0,8 C -7,7 C 25,7 km/h (4 Bft) 95,65 %
21.12.2017 10:42 1,8 C 3,9 C 92 % 1034,5 hPa 0,0 l/m 19,3 km/h (3 Bft) SW 225 0 min 0,000 mm 0,0 UV-I 114 W/m 0,6 C -7,0 C 27,4 km/h (4 Bft) 100,00 %
21.12.2017 10:43 1,9 C 3,9 C 92 % 1034,5 hPa 0,0 l/m 24,1 km/h (4 Bft) W-SW 247 0 min 0,000 mm 0,0 UV-I 116 W/m 0,7 C -8,8 C 37,0 km/h (5 Bft) 95,65 %
21.12.2017 10:44 1,9 C 3,9 C 92 % 1034,6 hPa 0,0 l/m 19,3 km/h (3 Bft) W-SW 247 0 min 0,000 mm 0,0 UV-I 118 W/m 0,7 C -6,9 C 38,6 km/h (5 Bft) 100,00 %
21.12.2017 10:45 1,9 C 3,9 C 92 % 1034,5 hPa 0,0 l/m 20,9 km/h (4 Bft) W-SW 247 0 min 0,000 mm 0,0 UV-I 117 W/m 0,7 C -7,6 C 27,4 km/h (4 Bft) 95,65 %
21.12.2017 10:46 1,9 C 3,9 C 92 % 1034,5 hPa 0,0 l/m 17,7 km/h (3 Bft) W-SW 247 0 min 0,000 mm 0,0 UV-I 109 W/m 0,7 C -6,1 C 24,1 km/h (4 Bft) 100,00 %
21.12.2017 10:47 1,9 C 3,9 C 92 % 1034,5 hPa 0,0 l/m 16,1 km/h (3 Bft) W-SW 247 0 min 0,000 mm 0,0 UV-I 104 W/m 0,7 C -5,3 C 22,5 km/h (4 Bft) 86,96 %
21.12.2017 10:48 2,0 C 3,9 C 92 % 1034,5 hPa 0,0 l/m 19,3 km/h (3 Bft) W 270 0 min 0,000 mm 0,0 UV-I 100 W/m 0,8 C -6,7 C 30,6 km/h (5 Bft) 95,65 %
21.12.2017 10:49 2,0 C 3,9 C 91 % 1034,4 hPa 0,0 l/m 17,7 km/h (3 Bft) W-SW 247 0 min 0,000 mm 0,0 UV-I 98 W/m 0,7 C -6,0 C 22,5 km/h (4 Bft) 100,00 %
21.12.2017 10:50 2,0 C 3,9 C 91 % 1034,5 hPa 0,0 l/m 19,3 km/h (3 Bft) W-SW 247 0 min 0,000 mm 0,0 UV-I 97 W/m 0,7 C -6,7 C 25,7 km/h (4 Bft) 95,65 %
21.12.2017 10:51 2,0 C 3,9 C 91 % 1034,4 hPa 0,0 l/m 17,7 km/h (3 Bft) W-SW 247 0 min 0,000 mm 0,0 UV-I 95 W/m 0,7 C -6,0 C 27,4 km/h (4 Bft) 100,00 %
21.12.2017 10:52 2,0 C 3,9 C 91 % 1034,4 hPa 0,0 l/m 20,9 km/h (4 Bft) SW 225 0 min 0,000 mm 0,0 UV-I 95 W/m 0,7 C -7,4 C 27,4 km/h (4 Bft) 95,65 %
21.12.2017 10:53 2,0 C 3,9 C 91 % 1034,3 hPa 0,0 l/m 19,3 km/h (3 Bft) W-SW 247 0 min 0,000 mm 0,0 UV-I 97 W/m 0,7 C -6,7 C 27,4 km/h (4 Bft) 100,00 %
21.12.2017 10:54 2,1 C 3,9 C 91 % 1034,3 hPa 0,0 l/m 16,1 km/h (3 Bft) W-SW 247 0 min 0,000 mm 0,0 UV-I 98 W/m 0,8 C -5,0 C 24,1 km/h (4 Bft) 91,30 %
21.12.2017 10:55 2,1 C 3,9 C 91 % 1034,3 hPa 0,0 l/m 24,1 km/h (4 Bft) SW 225 0 min 0,000 mm 0,0 UV-I 95 W/m 0,8 C -8,6 C 32,2 km/h (5 Bft) 100,00 %
21.12.2017 10:56 2,1 C 3,9 C 91 % 1034,3 hPa 0,0 l/m 24,1 km/h (4 Bft) W 270 0 min 0,000 mm 0,0 UV-I 90 W/m 0,8 C -8,6 C 33,8 km/h (5 Bft) 95,65 %
21.12.2017 10:57 2,1 C 3,9 C 91 % 1034,4 hPa 0,0 l/m 17,7 km/h (3 Bft) W-SW 247 0 min 0,000 mm 0,0 UV-I 80 W/m 0,8 C -5,9 C 27,4 km/h (4 Bft) 95,65 %
21.12.2017 10:58 2,1 C 3,9 C 91 % 1034,3 hPa 0,0 l/m 16,1 km/h (3 Bft) W-SW 247 0 min 0,000 mm 0,0 UV-I 77 W/m 0,8 C -5,0 C 24,1 km/h (4 Bft) 100,00 %
21.12.2017 10:59 2,1 C 3,9 C 91 % 1034,3 hPa 0,0 l/m 20,9 km/h (4 Bft) W-SW 247 0 min 0,000 mm 0,0 UV-I 76 W/m 0,8 C -7,3 C 29,0 km/h (5 Bft) 95,65 %
21.12.2017 11:00 2,2 C 3,9 C 91 % 1034,3 hPa 0,0 l/m 24,1 km/h (4 Bft) W-SW 247 0 min 0,051 mm 0,0 UV-I 72 W/m 0,9 C -8,4 C 30,6 km/h (5 Bft) 100,00 %
21.12.2017 11:01 2,2 C 3,9 C 90 % 1034,3 hPa 0,0 l/m 16,1 km/h (3 Bft) W-SW 247 0 min 0,000 mm 0,0 UV-I 70 W/m 0,7 C -4,9 C 22,5 km/h (4 Bft) 95,65 %
21.12.2017 11:02 2,2 C 3,9 C 90 % 1034,4 hPa 0,0 l/m 14,5 km/h (3 Bft) W-SW 247 0 min 0,000 mm 0,0 UV-I 63 W/m 0,7 C -4,0 C 20,9 km/h (4 Bft) 100,00 %
21.12.2017 11:03 2,2 C 3,9 C 90 % 1034,3 hPa 0,0 l/m 20,9 km/h (4 Bft) W-SW 247 0 min 0,000 mm 0,0 UV-I 56 W/m 0,7 C -7,2 C 30,6 km/h (5 Bft) 100,00 %
21.12.2017 11:04 2,2 C 3,9 C 90 % 1034,2 hPa 0,0 l/m 19,3 km/h (3 Bft) W-SW 247 0 min 0,000 mm 0,0 UV-I 53 W/m 0,7 C -6,5 C 27,4 km/h (4 Bft) 100,00 %
21.12.2017 11:05 2,2 C 3,9 C 90 % 1034,3 hPa 0,0 l/m 25,7 km/h (4 Bft) W-SW 247 0 min 0,000 mm 0,0 UV-I 51 W/m 0,7 C -9,0 C 33,8 km/h (5 Bft) 100,00 %
21.12.2017 11:06 2,2 C 3,9 C 90 % 1034,3 hPa 0,0 l/m 24,1 km/h (4 Bft) W-SW 247 0 min 0,000 mm 0,0 UV-I 49 W/m 0,7 C -8,4 C 35,4 km/h (5 Bft) 100,00 %
21.12.2017 11:07 2,2 C 3,9 C 90 % 1034,2 hPa 0,0 l/m 19,3 km/h (3 Bft) W-SW 247 0 min 0,000 mm 0,0 UV-I 47 W/m 0,7 C -6,5 C 30,6 km/h (5 Bft) 100,00 %
21.12.2017 11:08 2,2 C 3,9 C 90 % 1034,3 hPa 0,0 l/m 22,5 km/h (4 Bft) W-SW 247 0 min 0,000 mm 0,0 UV-I 46 W/m 0,7 C -7,8 C 29,0 km/h (5 Bft) 95,65 %
21.12.2017 11:09 2,2 C 3,9 C 90 % 1034,2 hPa 0,0 l/m 20,9 km/h (4 Bft) W-SW 247 0 min 0,000 mm 0,0 UV-I 46 W/m 0,7 C -7,2 C 25,7 km/h (4 Bft) 100,00 %
21.12.2017 11:10 2,2 C 3,9 C 90 % 1034,2 hPa 0,0 l/m 19,3 km/h (3 Bft) SW 225 0 min 0,000 mm 0,0 UV-I 47 W/m 0,7 C -6,5 C 27,4 km/h (4 Bft) 100,00 %
21.12.2017 11:11 2,2 C 3,9 C 90 % 1034,2 hPa 0,0 l/m 14,5 km/h (3 Bft) SW 225 0 min 0,000 mm 0,0 UV-I 49 W/m 0,7 C -4,0 C 17,7 km/h (3 Bft) 100,00 %
21.12.2017 11:12 2,2 C 3,9 C 90 % 1034,2 hPa 0,0 l/m 17,7 km/h (3 Bft) S-SW 202 0 min 0,000 mm 0,0 UV-I 51 W/m 0,7 C -5,7 C 24,1 km/h (4 Bft) 100,00 %
21.12.2017 11:13 2,2 C 3,9 C 89 % 1034,2 hPa 0,0 l/m 16,1 km/h (3 Bft) SW 225 0 min 0,000 mm 0,0 UV-I 54 W/m 0,6 C -4,9 C 20,9 km/h (4 Bft) 100,00 %
21.12.2017 11:14 2,2 C 3,9 C 90 % 1034,2 hPa 0,0 l/m 14,5 km/h (3 Bft) W-SW 247 0 min 0,000 mm 0,0 UV-I 54 W/m 0,7 C -4,0 C 24,1 km/h (4 Bft) 100,00 %
21.12.2017 11:15 2,2 C 3,9 C 90 % 1034,1 hPa 0,0 l/m 20,9 km/h (4 Bft) SW 225 0 min 0,000 mm 0,0 UV-I 49 W/m 0,7 C -7,2 C 29,0 km/h (5 Bft) 95,65 %
21.12.2017 11:16 2,3 C 3,9 C 90 % 1034,1 hPa 0,0 l/m 19,3 km/h (3 Bft) W-SW 247 0 min 0,000 mm 0,0 UV-I 47 W/m 0,8 C -6,4 C 25,7 km/h (4 Bft) 100,00 %
21.12.2017 11:17 2,3 C 3,9 C 90 % 1034,1 hPa 0,0 l/m 19,3 km/h (3 Bft) W-SW 247 0 min 0,000 mm 0,0 UV-I 47 W/m 0,8 C -6,4 C 29,0 km/h (5 Bft) 100,00 %
21.12.2017 11:18 2,3 C 3,9 C 89 % 1034,1 hPa 0,0 l/m 16,1 km/h (3 Bft) SW 225 0 min 0,000 mm 0,0 UV-I 46 W/m 0,7 C -4,8 C 24,1 km/h (4 Bft) 100,00 %
21.12.2017 11:19 2,3 C 3,9 C 89 % 1034,0 hPa 0,0 l/m 19,3 km/h (3 Bft) SW 225 0 min 0,000 mm 0,0 UV-I 46 W/m 0,7 C -6,4 C 32,2 km/h (5 Bft) 100,00 %
21.12.2017 11:20 2,3 C 3,9 C 89 % 1034,1 hPa 0,0 l/m 20,9 km/h (4 Bft) W-SW 247 0 min 0,000 mm 0,0 UV-I 49 W/m 0,7 C -7,0 C 29,0 km/h (5 Bft) 100,00 %
21.12.2017 11:21 2,3 C 3,9 C 89 % 1034,0 hPa 0,0 l/m 17,7 km/h (3 Bft) W-SW 247 0 min 0,000 mm 0,0 UV-I 49 W/m 0,7 C -5,6 C 22,5 km/h (4 Bft) 100,00 %
21.12.2017 11:22 2,3 C 3,9 C 89 % 1034,1 hPa 0,0 l/m 19,3 km/h (3 Bft) W-SW 247 0 min 0,000 mm 0,0 UV-I 49 W/m 0,7 C -6,4 C 27,4 km/h (4 Bft) 91,30 %
21.12.2017 11:23 2,3 C 3,9 C 89 % 1034,1 hPa 0,0 l/m 19,3 km/h (3 Bft) W-SW 247 0 min 0,000 mm 0,0 UV-I 49 W/m 0,7 C -6,4 C 27,4 km/h (4 Bft) 100,00 %
21.12.2017 11:24 2,3 C 3,9 C 89 % 1034,1 hPa 0,0 l/m 17,7 km/h (3 Bft) W-SW 247 0 min 0,000 mm 0,0 UV-I 49 W/m 0,7 C -5,6 C 20,9 km/h (4 Bft) 100,00 %
21.12.2017 11:25 2,3 C 3,9 C 89 % 1034,0 hPa 0,0 l/m 17,7 km/h (3 Bft) W-SW 247 0 min 0,000 mm 0,0 UV-I 51 W/m 0,7 C -5,6 C 27,4 km/h (4 Bft) 100,00 %
21.12.2017 11:26 2,3 C 3,9 C 89 % 1034,0 hPa 0,0 l/m 14,5 km/h (3 Bft) W-SW 247 0 min 0,000 mm 0,0 UV-I 52 W/m 0,7 C -3,9 C 22,5 km/h (4 Bft) 100,00 %
21.12.2017 11:27 2,3 C 3,9 C 89 % 1034,0 hPa 0,0 l/m 16,1 km/h (3 Bft) W-SW 247 0 min 0,000 mm 0,0 UV-I 54 W/m 0,7 C -4,8 C 20,9 km/h (4 Bft) 100,00 %
21.12.2017 11:28 2,4 C 3,9 C 89 % 1034,0 hPa 0,0 l/m 20,9 km/h (4 Bft) W-SW 247 0 min 0,000 mm 0,0 UV-I 56 W/m 0,8 C -6,9 C 30,6 km/h (5 Bft) 100,00 %
21.12.2017 11:29 2,4 C 3,9 C 89 % 1033,9 hPa 0,0 l/m 19,3 km/h (3 Bft) W-SW 247 0 min 0,000 mm 0,0 UV-I 56 W/m 0,8 C -6,2 C 29,0 km/h (5 Bft) 95,65 %
21.12.2017 11:30 2,4 C 3,9 C 89 % 1034,0 hPa 0,0 l/m 20,9 km/h (4 Bft) W 270 0 min 0,000 mm 0,0 UV-I 54 W/m 0,8 C -6,9 C 25,7 km/h (4 Bft) 100,00 %
21.12.2017 11:31 2,4 C 3,9 C 89 % 1034,0 hPa 0,0 l/m 17,7 km/h (3 Bft) SW 225 0 min 0,000 mm 0,0 UV-I 49 W/m 0,8 C -5,5 C 25,7 km/h (4 Bft) 100,00 %
21.12.2017 11:32 2,4 C 3,9 C 89 % 1034,1 hPa 0,0 l/m 20,9 km/h (4 Bft) W-SW 247 0 min 0,000 mm 0,0 UV-I 43 W/m 0,8 C -6,9 C 29,0 km/h (5 Bft) 100,00 %
21.12.2017 11:33 2,4 C 3,9 C 89 % 1034,1 hPa 0,0 l/m 17,7 km/h (3 Bft) W-SW 247 0 min 0,000 mm 0,0 UV-I 40 W/m 0,8 C -5,5 C 27,4 km/h (4 Bft) 95,65 %
21.12.2017 11:34 2,4 C 3,9 C 89 % 1034,0 hPa 0,0 l/m 17,7 km/h (3 Bft) W-SW 247 0 min 0,000 mm 0,0 UV-I 40 W/m 0,8 C -5,5 C 22,5 km/h (4 Bft) 100,00 %
21.12.2017 11:35 2,4 C 3,9 C 89 % 1034,0 hPa 0,0 l/m 16,1 km/h (3 Bft) W-SW 247 0 min 0,000 mm 0,0 UV-I 42 W/m 0,8 C -4,7 C 22,5 km/h (4 Bft) 100,00 %
21.12.2017 11:36 2,4 C 3,9 C 89 % 1034,1 hPa 0,0 l/m 16,1 km/h (3 Bft) W-SW 247 0 min 0,000 mm 0,0 UV-I 44 W/m 0,8 C -4,7 C 20,9 km/h (4 Bft) 86,96 %
21.12.2017 11:37 2,4 C 3,9 C 89 % 1034,0 hPa 0,0 l/m 17,7 km/h (3 Bft) W-SW 247 0 min 0,000 mm 0,0 UV-I 49 W/m 0,8 C -5,5 C 20,9 km/h (4 Bft) 100,00 %
21.12.2017 11:38 2,4 C 3,9 C 89 % 1034,0 hPa 0,0 l/m 12,9 km/h (3 Bft) W 270 0 min 0,000 mm 0,0 UV-I 53 W/m 0,8 C -2,8 C 22,5 km/h (4 Bft) 95,65 %
21.12.2017 11:39 2,4 C 3,9 C 89 % 1034,0 hPa 0,0 l/m 16,1 km/h (3 Bft) W-SW 247 0 min 0,000 mm 0,0 UV-I 58 W/m 0,8 C -4,7 C 22,5 km/h (4 Bft) 100,00 %
21.12.2017 11:40 2,5 C 3,9 C 89 % 1034,0 hPa 0,0 l/m 9,7 km/h (2 Bft) W-SW 247 0 min 0,000 mm 0,0 UV-I 62 W/m 0,9 C -0,5 C 16,1 km/h (3 Bft) 95,65 %
21.12.2017 11:41 2,5 C 3,9 C 89 % 1034,0 hPa 0,0 l/m 11,3 km/h (2 Bft) W 270 0 min 0,000 mm 0,0 UV-I 63 W/m 0,9 C -1,6 C 24,1 km/h (4 Bft) 100,00 %
21.12.2017 11:42 2,4 C 3,9 C 89 % 1034,0 hPa 0,0 l/m 12,9 km/h (3 Bft) SW 225 0 min 0,000 mm 0,0 UV-I 67 W/m 0,8 C -2,8 C 16,1 km/h (3 Bft) 95,65 %
21.12.2017 11:43 2,5 C 3,9 C 89 % 1034,0 hPa 0,0 l/m 12,9 km/h (3 Bft) W-SW 247 0 min 0,000 mm 0,0 UV-I 69 W/m 0,9 C -2,7 C 20,9 km/h (4 Bft) 91,30 %
21.12.2017 11:44 2,5 C 3,9 C 89 % 1034,1 hPa 0,0 l/m 16,1 km/h (3 Bft) W-SW 247 0 min 0,000 mm 0,0 UV-I 69 W/m 0,9 C -4,5 C 19,3 km/h (3 Bft) 100,00 %
21.12.2017 11:45 2,5 C 3,9 C 89 % 1034,0 hPa 0,0 l/m 12,9 km/h (3 Bft) W-SW 247 0 min 0,000 mm 0,0 UV-I 67 W/m 0,9 C -2,7 C 19,3 km/h (3 Bft) 95,65 %
21.12.2017 11:46 2,5 C 3,9 C 89 % 1034,1 hPa 0,0 l/m 11,3 km/h (2 Bft) W-SW 247 0 min 0,000 mm 0,0 UV-I 63 W/m 0,9 C -1,6 C 16,1 km/h (3 Bft) 100,00 %
21.12.2017 11:47 2,5 C 3,9 C 89 % 1034,0 hPa 0,0 l/m 14,5 km/h (3 Bft) W-SW 247 0 min 0,000 mm 0,0 UV-I 62 W/m 0,9 C -3,7 C 19,3 km/h (3 Bft) 95,65 %
21.12.2017 11:48 2,6 C 3,9 C 89 % 1034,1 hPa 0,0 l/m 12,9 km/h (3 Bft) W-SW 247 0 min 0,000 mm 0,0 UV-I 60 W/m 1,0 C -2,6 C 20,9 km/h (4 Bft) 100,00 %
21.12.2017 11:49 2,6 C 3,9 C 89 % 1034,1 hPa 0,0 l/m 12,9 km/h (3 Bft) W-SW 247 0 min 0,000 mm 0,0 UV-I 58 W/m 1,0 C -2,6 C 20,9 km/h (4 Bft) 95,65 %
21.12.2017 11:50 2,6 C 3,9 C 89 % 1034,1 hPa 0,0 l/m 9,7 km/h (2 Bft) W-SW 247 0 min 0,000 mm 0,0 UV-I 56 W/m 1,0 C -0,3 C 12,9 km/h (3 Bft) 95,65 %
21.12.2017 11:51 2,6 C 3,9 C 89 % 1034,1 hPa 0,0 l/m 12,9 km/h (3 Bft) W-SW 247 0 min 0,000 mm 0,0 UV-I 56 W/m 1,0 C -2,6 C 20,9 km/h (4 Bft) 95,65 %
21.12.2017 11:52 2,6 C 3,9 C 89 % 1034,0 hPa 0,0 l/m 17,7 km/h (3 Bft) W-SW 247 0 min 0,000 mm 0,0 UV-I 56 W/m 1,0 C -5,2 C 25,7 km/h (4 Bft) 100,00 %
21.12.2017 11:53 2,6 C 3,9 C 88 % 1034,0 hPa 0,0 l/m 16,1 km/h (3 Bft) W-SW 247 0 min 0,000 mm 0,0 UV-I 56 W/m 0,8 C -4,4 C 25,7 km/h (4 Bft) 95,65 %
21.12.2017 11:54 2,7 C 3,9 C 88 % 1034,1 hPa 0,0 l/m 16,1 km/h (3 Bft) W-SW 247 0 min 0,000 mm 0,0 UV-I 56 W/m 0,9 C -4,3 C 19,3 km/h (3 Bft) 100,00 %
21.12.2017 11:55 2,7 C 3,9 C 88 % 1034,0 hPa 0,0 l/m 14,5 km/h (3 Bft) W 270 0 min 0,000 mm 0,0 UV-I 56 W/m 0,9 C -3,4 C 22,5 km/h (4 Bft) 95,65 %
21.12.2017 11:56 2,7 C 3,9 C 88 % 1034,0 hPa 0,0 l/m 20,9 km/h (4 Bft) W-SW 247 0 min 0,000 mm 0,0 UV-I 58 W/m 0,9 C -6,5 C 30,6 km/h (5 Bft) 100,00 %
21.12.2017 11:57 2,7 C 3,9 C 88 % 1034,0 hPa 0,0 l/m 16,1 km/h (3 Bft) SW 225 0 min 0,000 mm 0,0 UV-I 54 W/m 0,9 C -4,3 C 19,3 km/h (3 Bft) 91,30 %
21.12.2017 11:58 2,7 C 3,9 C 88 % 1034,0 hPa 0,0 l/m 17,7 km/h (3 Bft) W-SW 247 0 min 0,000 mm 0,0 UV-I 54 W/m 0,9 C -5,1 C 20,9 km/h (4 Bft) 95,65 %
21.12.2017 11:59 2,7 C 3,9 C 88 % 1033,9 hPa 0,0 l/m 17,7 km/h (3 Bft) W-SW 247 0 min 0,000 mm 0,0 UV-I 54 W/m 0,9 C -5,1 C 20,9 km/h (4 Bft) 100,00 %
21.12.2017 12:00 2,7 C 3,9 C 88 % 1033,9 hPa 0,0 l/m 19,3 km/h (3 Bft) W 270 0 min 0,025 mm 0,0 UV-I 53 W/m 0,9 C -5,8 C 25,7 km/h (4 Bft) 100,00 %
21.12.2017 12:01 2,7 C 3,9 C 88 % 1033,9 hPa 0,0 l/m 16,1 km/h (3 Bft) W-SW 247 0 min 0,000 mm 0,0 UV-I 50 W/m 0,9 C -4,3 C 29,0 km/h (5 Bft) 95,65 %
21.12.2017 12:02 2,7 C 3,9 C 88 % 1033,9 hPa 0,0 l/m 12,9 km/h (3 Bft) W-SW 247 0 min 0,000 mm 0,0 UV-I 47 W/m 0,9 C -2,5 C 17,7 km/h (3 Bft) 95,65 %
21.12.2017 12:03 2,7 C 3,9 C 87 % 1033,9 hPa 0,0 l/m 16,1 km/h (3 Bft) W 270 0 min 0,000 mm 0,0 UV-I 47 W/m 0,8 C -4,3 C 22,5 km/h (4 Bft) 100,00 %
21.12.2017 12:04 2,7 C 3,9 C 87 % 1033,9 hPa 0,0 l/m 20,9 km/h (4 Bft) W 270 0 min 0,000 mm 0,0 UV-I 46 W/m 0,8 C -6,5 C 24,1 km/h (4 Bft) 95,65 %
21.12.2017 12:05 2,8 C 3,9 C 87 % 1033,9 hPa 0,0 l/m 17,7 km/h (3 Bft) W 270 0 min 0,000 mm 0,0 UV-I 46 W/m 0,9 C -5,0 C 25,7 km/h (4 Bft) 100,00 %
21.12.2017 12:06 2,8 C 3,9 C 87 % 1033,9 hPa 0,0 l/m 12,9 km/h (3 Bft) W-SW 247 0 min 0,000 mm 0,0 UV-I 44 W/m 0,9 C -2,4 C 20,9 km/h (4 Bft) 100,00 %
21.12.2017 12:07 2,8 C 3,9 C 87 % 1033,9 hPa 0,0 l/m 16,1 km/h (3 Bft) W-SW 247 0 min 0,000 mm 0,0 UV-I 41 W/m 0,9 C -4,2 C 22,5 km/h (4 Bft) 100,00 %
21.12.2017 12:08 2,8 C 3,9 C 87 % 1033,8 hPa 0,0 l/m 14,5 km/h (3 Bft) W-SW 247 0 min 0,000 mm 0,0 UV-I 40 W/m 0,9 C -3,3 C 22,5 km/h (4 Bft) 100,00 %
21.12.2017 12:09 2,7 C 3,9 C 87 % 1033,8 hPa 0,0 l/m 12,9 km/h (3 Bft) W-SW 247 0 min 0,000 mm 0,0 UV-I 40 W/m 0,8 C -2,5 C 16,1 km/h (3 Bft) 100,00 %
21.12.2017 12:10 2,7 C 3,9 C 88 % 1033,8 hPa 0,0 l/m 22,5 km/h (4 Bft) W 270 0 min 0,000 mm 0,0 UV-I 40 W/m 0,9 C -7,2 C 30,6 km/h (5 Bft) 100,00 %
21.12.2017 12:11 2,7 C 3,9 C 87 % 1033,8 hPa 0,0 l/m 14,5 km/h (3 Bft) W 270 0 min 0,000 mm 0,0 UV-I 39 W/m 0,8 C -3,4 C 27,4 km/h (4 Bft) 95,65 %
21.12.2017 12:12 2,7 C 3,9 C 87 % 1033,7 hPa 0,0 l/m 12,9 km/h (3 Bft) W-SW 247 0 min 0,000 mm 0,0 UV-I 39 W/m 0,8 C -2,5 C 20,9 km/h (4 Bft) 100,00 %
21.12.2017 12:13 2,7 C 3,9 C 87 % 1033,7 hPa 0,0 l/m 14,5 km/h (3 Bft) W-SW 247 0 min 0,000 mm 0,0 UV-I 39 W/m 0,8 C -3,4 C 20,9 km/h (4 Bft) 100,00 %
21.12.2017 12:14 2,7 C 3,9 C 87 % 1033,7 hPa 0,0 l/m 12,9 km/h (3 Bft) W-SW 247 0 min 0,000 mm 0,0 UV-I 40 W/m 0,8 C -2,5 C 19,3 km/h (3 Bft) 100,00 %
21.12.2017 12:15 2,7 C 3,9 C 87 % 1033,7 hPa 0,0 l/m 14,5 km/h (3 Bft) W-SW 247 0 min 0,000 mm 0,0 UV-I 40 W/m 0,8 C -3,4 C 17,7 km/h (3 Bft) 100,00 %
21.12.2017 12:16 2,7 C 3,9 C 87 % 1033,7 hPa 0,0 l/m 16,1 km/h (3 Bft) W-SW 247 0 min 0,000 mm 0,0 UV-I 42 W/m 0,8 C -4,3 C 25,7 km/h (4 Bft) 100,00 %
21.12.2017 12:17 2,7 C 3,9 C 87 % 1033,7 hPa 0,0 l/m 11,3 km/h (2 Bft) W-SW 247 0 min 0,000 mm 0,0 UV-I 44 W/m 0,8 C -1,4 C 14,5 km/h (3 Bft) 100,00 %
21.12.2017 12:18 2,7 C 3,9 C 87 % 1033,6 hPa 0,0 l/m 12,9 km/h (3 Bft) W 270 0 min 0,000 mm 0,0 UV-I 44 W/m 0,8 C -2,5 C 17,7 km/h (3 Bft) 95,65 %
21.12.2017 12:19 2,7 C 3,9 C 87 % 1033,6 hPa 0,0 l/m 17,7 km/h (3 Bft) W-SW 247 0 min 0,000 mm 0,0 UV-I 44 W/m 0,8 C -5,1 C 24,1 km/h (4 Bft) 100,00 %
21.12.2017 12:20 2,8 C 3,9 C 87 % 1033,6 hPa 0,0 l/m 16,1 km/h (3 Bft) W-SW 247 0 min 0,000 mm 0,0 UV-I 46 W/m 0,9 C -4,2 C 22,5 km/h (4 Bft) 100,00 %
21.12.2017 12:21 2,8 C 3,9 C 87 % 1033,6 hPa 0,0 l/m 11,3 km/h (2 Bft) W-SW 247 0 min 0,000 mm 0,0 UV-I 47 W/m 0,9 C -1,3 C 19,3 km/h (3 Bft) 100,00 %
21.12.2017 12:22 2,8 C 3,9 C 87 % 1033,6 hPa 0,0 l/m 12,9 km/h (3 Bft) W-SW 247 0 min 0,000 mm 0,0 UV-I 47 W/m 0,9 C -2,4 C 19,3 km/h (3 Bft) 100,00 %
21.12.2017 12:23 2,8 C 3,9 C 87 % 1033,5 hPa 0,0 l/m 20,9 km/h (4 Bft) W-SW 247 0 min 0,000 mm 0,0 UV-I 46 W/m 0,9 C -6,4 C 25,7 km/h (4 Bft) 100,00 %
21.12.2017 12:24 2,8 C 3,9 C 87 % 1033,5 hPa 0,0 l/m 14,5 km/h (3 Bft) W-SW 247 0 min 0,000 mm 0,0 UV-I 46 W/m 0,9 C -3,3 C 19,3 km/h (3 Bft) 100,00 %
21.12.2017 12:25 2,8 C 3,9 C 87 % 1033,4 hPa 0,0 l/m 16,1 km/h (3 Bft) SW 225 0 min 0,000 mm 0,0 UV-I 46 W/m 0,9 C -4,2 C 25,7 km/h (4 Bft) 95,65 %
21.12.2017 12:26 2,8 C 3,9 C 87 % 1033,5 hPa 0,0 l/m 14,5 km/h (3 Bft) W-SW 247 0 min 0,000 mm 0,0 UV-I 46 W/m 0,9 C -3,3 C 19,3 km/h (3 Bft) 100,00 %
21.12.2017 12:27 2,8 C 3,9 C 87 % 1033,5 hPa 0,0 l/m 11,3 km/h (2 Bft) W 270 0 min 0,000 mm 0,0 UV-I 44 W/m 0,9 C -1,3 C 12,9 km/h (3 Bft) 91,30 %
21.12.2017 12:28 2,8 C 3,9 C 87 % 1033,5 hPa 0,0 l/m 12,9 km/h (3 Bft) W 270 0 min 0,000 mm 0,0 UV-I 42 W/m 0,9 C -2,4 C 19,3 km/h (3 Bft) 100,00 %
21.12.2017 12:29 2,8 C 3,9 C 87 % 1033,5 hPa 0,0 l/m 16,1 km/h (3 Bft) W 270 0 min 0,000 mm 0,0 UV-I 42 W/m 0,9 C -4,2 C 19,3 km/h (3 Bft) 100,00 %
21.12.2017 12:30 2,8 C 3,9 C 87 % 1033,5 hPa 0,0 l/m 9,7 km/h (2 Bft) W 270 0 min 0,000 mm 0,0 UV-I 40 W/m 0,9 C -0,1 C 14,5 km/h (3 Bft) 100,00 %
21.12.2017 12:31 2,8 C 3,9 C 87 % 1033,5 hPa 0,0 l/m 11,3 km/h (2 Bft) W-SW 247 0 min 0,000 mm 0,0 UV-I 41 W/m 0,9 C -1,3 C 14,5 km/h (3 Bft) 100,00 %
21.12.2017 12:32 2,9 C 3,9 C 87 % 1033,5 hPa 0,0 l/m 12,9 km/h (3 Bft) W-SW 247 0 min 0,000 mm 0,0 UV-I 42 W/m 1,0 C -2,2 C 17,7 km/h (3 Bft) 78,26 %
21.12.2017 12:33 2,9 C 3,9 C 87 % 1033,4 hPa 0,0 l/m 14,5 km/h (3 Bft) W-SW 247 0 min 0,000 mm 0,0 UV-I 44 W/m 1,0 C -3,2 C 19,3 km/h (3 Bft) 95,65 %
21.12.2017 12:34 2,9 C 3,9 C 87 % 1033,4 hPa 0,0 l/m 14,5 km/h (3 Bft) W-SW 247 0 min 0,000 mm 0,0 UV-I 46 W/m 1,0 C -3,2 C 20,9 km/h (4 Bft) 91,30 %
21.12.2017 12:35 2,9 C 3,9 C 87 % 1033,4 hPa 0,0 l/m 17,7 km/h (3 Bft) W-SW 247 0 min 0,000 mm 0,0 UV-I 49 W/m 1,0 C -4,8 C 22,5 km/h (4 Bft) 100,00 %
21.12.2017 12:36 2,9 C 3,9 C 86 % 1033,3 hPa 0,0 l/m 16,1 km/h (3 Bft) W 270 0 min 0,000 mm 0,0 UV-I 53 W/m 0,8 C -4,1 C 25,7 km/h (4 Bft) 95,65 %
21.12.2017 12:37 3,0 C 3,9 C 86 % 1033,3 hPa 0,0 l/m 19,3 km/h (3 Bft) W-SW 247 0 min 0,000 mm 0,0 UV-I 55 W/m 0,9 C -5,5 C 25,7 km/h (4 Bft) 100,00 %
21.12.2017 12:38 3,0 C 3,9 C 86 % 1033,3 hPa 0,0 l/m 14,5 km/h (3 Bft) W-SW 247 0 min 0,000 mm 0,0 UV-I 60 W/m 0,9 C -3,1 C 17,7 km/h (3 Bft) 95,65 %
21.12.2017 12:39 3,0 C 3,9 C 86 % 1033,3 hPa 0,0 l/m 16,1 km/h (3 Bft) W-SW 247 0 min 0,000 mm 0,0 UV-I 60 W/m 0,9 C -3,9 C 20,9 km/h (4 Bft) 95,65 %
21.12.2017 12:40 3,0 C 3,9 C 86 % 1033,3 hPa 0,0 l/m 17,7 km/h (3 Bft) W-SW 247 0 min 0,000 mm 0,0 UV-I 58 W/m 0,9 C -4,7 C 24,1 km/h (4 Bft) 95,65 %
21.12.2017 12:41 3,0 C 3,9 C 86 % 1033,3 hPa 0,0 l/m 17,7 km/h (3 Bft) W-SW 247 0 min 0,000 mm 0,0 UV-I 58 W/m 0,9 C -4,7 C 22,5 km/h (4 Bft) 95,65 %
21.12.2017 12:42 3,1 C 3,9 C 86 % 1033,3 hPa 0,0 l/m 16,1 km/h (3 Bft) W-SW 247 0 min 0,000 mm 0,0 UV-I 58 W/m 1,0 C -3,8 C 22,5 km/h (4 Bft) 100,00 %
21.12.2017 12:43 3,1 C 3,9 C 86 % 1033,3 hPa 0,0 l/m 16,1 km/h (3 Bft) W-SW 247 0 min 0,000 mm 0,0 UV-I 58 W/m 1,0 C -3,8 C 24,1 km/h (4 Bft) 95,65 %
21.12.2017 12:44 3,1 C 3,9 C 86 % 1033,2 hPa 0,0 l/m 16,1 km/h (3 Bft) W-SW 247 0 min 0,000 mm 0,0 UV-I 58 W/m 1,0 C -3,8 C 19,3 km/h (3 Bft) 100,00 %
21.12.2017 12:45 3,1 C 3,9 C 86 % 1033,2 hPa 0,0 l/m 17,7 km/h (3 Bft) W-SW 247 0 min 0,000 mm 0,0 UV-I 58 W/m 1,0 C -4,6 C 22,5 km/h (4 Bft) 95,65 %
21.12.2017 12:46 3,1 C 3,9 C 86 % 1033,2 hPa 0,0 l/m 19,3 km/h (3 Bft) W-SW 247 0 min 0,000 mm 0,0 UV-I 56 W/m 1,0 C -5,3 C 22,5 km/h (4 Bft) 95,65 %
21.12.2017 12:47 3,1 C 3,9 C 86 % 1033,3 hPa 0,0 l/m 16,1 km/h (3 Bft) W-SW 247 0 min 0,000 mm 0,0 UV-I 54 W/m 1,0 C -3,8 C 22,5 km/h (4 Bft) 95,65 %
21.12.2017 12:48 3,1 C 3,9 C 86 % 1033,2 hPa 0,0 l/m 16,1 km/h (3 Bft) W 270 0 min 0,000 mm 0,0 UV-I 51 W/m 1,0 C -3,8 C 20,9 km/h (4 Bft) 100,00 %
21.12.2017 12:49 3,1 C 3,9 C 86 % 1033,2 hPa 0,0 l/m 17,7 km/h (3 Bft) W-SW 247 0 min 0,000 mm 0,0 UV-I 47 W/m 1,0 C -4,6 C 24,1 km/h (4 Bft) 95,65 %
21.12.2017 12:50 3,1 C 3,9 C 86 % 1033,2 hPa 0,0 l/m 16,1 km/h (3 Bft) W-SW 247 0 min 0,000 mm 0,0 UV-I 47 W/m 1,0 C -3,8 C 20,9 km/h (4 Bft) 95,65 %
21.12.2017 12:51 3,1 C 3,9 C 86 % 1033,2 hPa 0,0 l/m 16,1 km/h (3 Bft) W 270 0 min 0,000 mm 0,0 UV-I 46 W/m 1,0 C -3,8 C 22,5 km/h (4 Bft) 100,00 %
21.12.2017 12:52 3,1 C 3,9 C 86 % 1033,2 hPa 0,0 l/m 16,1 km/h (3 Bft) W-SW 247 0 min 0,000 mm 0,0 UV-I 44 W/m 1,0 C -3,8 C 22,5 km/h (4 Bft) 95,65 %
21.12.2017 12:53 3,1 C 3,9 C 85 % 1033,2 hPa 0,0 l/m 16,1 km/h (3 Bft) SW 225 0 min 0,000 mm 0,0 UV-I 42 W/m 0,8 C -3,8 C 24,1 km/h (4 Bft) 91,30 %
21.12.2017 12:54 3,2 C 3,9 C 85 % 1033,2 hPa 0,0 l/m 17,7 km/h (3 Bft) W-SW 247 0 min 0,000 mm 0,0 UV-I 42 W/m 0,9 C -4,5 C 24,1 km/h (4 Bft) 95,65 %
21.12.2017 12:55 3,2 C 3,9 C 85 % 1033,2 hPa 0,0 l/m 14,5 km/h (3 Bft) W-SW 247 0 min 0,000 mm 0,0 UV-I 42 W/m 0,9 C -2,8 C 20,9 km/h (4 Bft) 100,00 %
21.12.2017 12:56 3,1 C 3,9 C 85 % 1033,2 hPa 0,0 l/m 14,5 km/h (3 Bft) W-SW 247 0 min 0,000 mm 0,0 UV-I 42 W/m 0,8 C -2,9 C 17,7 km/h (3 Bft) 95,65 %
21.12.2017 12:57 3,1 C 3,9 C 86 % 1033,2 hPa 0,0 l/m 16,1 km/h (3 Bft) W-SW 247 0 min 0,000 mm 0,0 UV-I 42 W/m 1,0 C -3,8 C 20,9 km/h (4 Bft) 95,65 %
21.12.2017 12:58 3,1 C 3,9 C 85 % 1033,1 hPa 0,0 l/m 14,5 km/h (3 Bft) W-SW 247 0 min 0,000 mm 0,0 UV-I 42 W/m 0,8 C -2,9 C 17,7 km/h (3 Bft) 100,00 %
21.12.2017 12:59 3,1 C 3,9 C 85 % 1033,1 hPa 0,0 l/m 12,9 km/h (3 Bft) W-SW 247 0 min 0,000 mm 0,0 UV-I 42 W/m 0,8 C -2,0 C 17,7 km/h (3 Bft) 95,65 %
21.12.2017 13:00 3,1 C 3,9 C 86 % 1033,1 hPa 0,0 l/m 9,7 km/h (2 Bft) W-SW 247 0 min 0,025 mm 0,0 UV-I 42 W/m 1,0 C 0,2 C 16,1 km/h (3 Bft) 91,30 %
21.12.2017 13:01 3,1 C 3,9 C 86 % 1033,1 hPa 0,0 l/m 11,3 km/h (2 Bft) W-SW 247 0 min 0,000 mm 0,0 UV-I 42 W/m 1,0 C -1,0 C 16,1 km/h (3 Bft) 95,65 %
21.12.2017 13:02 3,1 C 3,9 C 86 % 1033,1 hPa 0,0 l/m 12,9 km/h (3 Bft) W 270 0 min 0,000 mm 0,0 UV-I 40 W/m 1,0 C -2,0 C 16,1 km/h (3 Bft) 95,65 %
21.12.2017 13:03 3,1 C 3,9 C 86 % 1033,1 hPa 0,0 l/m 8,0 km/h (2 Bft) W-SW 247 0 min 0,000 mm 0,0 UV-I 40 W/m 1,0 C 1,6 C 11,3 km/h (2 Bft) 95,65 %
21.12.2017 13:04 3,1 C 3,9 C 86 % 1033,1 hPa 0,0 l/m 8,0 km/h (2 Bft) W-SW 247 0 min 0,000 mm 0,0 UV-I 39 W/m 1,0 C 1,6 C 12,9 km/h (3 Bft) 95,65 %
21.12.2017 13:05 3,1 C 3,9 C 86 % 1033,1 hPa 0,0 l/m 11,3 km/h (2 Bft) W-SW 247 0 min 0,000 mm 0,0 UV-I 37 W/m 1,0 C -1,0 C 16,1 km/h (3 Bft) 91,30 %
21.12.2017 13:06 3,1 C 3,9 C 86 % 1033,1 hPa 0,0 l/m 8,0 km/h (2 Bft) W-SW 247 0 min 0,000 mm 0,0 UV-I 36 W/m 1,0 C 1,6 C 11,3 km/h (2 Bft) 91,30 %
21.12.2017 13:07 3,1 C 3,9 C 86 % 1033,1 hPa 0,0 l/m 8,0 km/h (2 Bft) SW 225 0 min 0,000 mm 0,0 UV-I 33 W/m 1,0 C 1,6 C 12,9 km/h (3 Bft) 95,65 %
21.12.2017 13:08 3,1 C 3,9 C 86 % 1033,1 hPa 0,0 l/m 8,0 km/h (2 Bft) SW 225 0 min 0,000 mm 0,0 UV-I 33 W/m 1,0 C 1,6 C 14,5 km/h (3 Bft) 95,65 %
21.12.2017 13:09 3,1 C 3,9 C 86 % 1033,0 hPa 0,0 l/m 9,7 km/h (2 Bft) W-SW 247 0 min 0,000 mm 0,0 UV-I 33 W/m 1,0 C 0,2 C 17,7 km/h (3 Bft) 100,00 %
21.12.2017 13:10 3,1 C 3,9 C 86 % 1033,1 hPa 0,0 l/m 12,9 km/h (3 Bft) W-SW 247 0 min 0,000 mm 0,0 UV-I 32 W/m 1,0 C -2,0 C 17,7 km/h (3 Bft) 91,30 %
21.12.2017 13:11 3,1 C 3,9 C 86 % 1033,0 hPa 0,0 l/m 8,0 km/h (2 Bft) W-SW 247 0 min 0,000 mm 0,0 UV-I 32 W/m 1,0 C 1,6 C 12,9 km/h (3 Bft) 100,00 %
21.12.2017 13:12 3,1 C 3,9 C 86 % 1033,0 hPa 0,0 l/m 8,0 km/h (2 Bft) W-SW 247 0 min 0,000 mm 0,0 UV-I 32 W/m 1,0 C 1,6 C 12,9 km/h (3 Bft) 86,96 %
21.12.2017 13:13 3,1 C 3,9 C 86 % 1033,0 hPa 0,0 l/m 8,0 km/h (2 Bft) SW 225 0 min 0,000 mm 0,0 UV-I 32 W/m 1,0 C 1,6 C 16,1 km/h (3 Bft) 100,00 %
21.12.2017 13:14 3,1 C 3,9 C 86 % 1032,9 hPa 0,0 l/m 9,7 km/h (2 Bft) SW 225 0 min 0,000 mm 0,0 UV-I 32 W/m 1,0 C 0,2 C 14,5 km/h (3 Bft) 95,65 %
21.12.2017 13:15 3,2 C 3,9 C 86 % 1033,0 hPa 0,0 l/m 12,9 km/h (3 Bft) SW 225 0 min 0,000 mm 0,0 UV-I 32 W/m 1,1 C -1,9 C 16,1 km/h (3 Bft) 95,65 %
21.12.2017 13:16 3,2 C 3,9 C 86 % 1032,9 hPa 0,0 l/m 12,9 km/h (3 Bft) W-SW 247 0 min 0,000 mm 0,0 UV-I 32 W/m 1,1 C -1,9 C 17,7 km/h (3 Bft) 95,65 %
21.12.2017 13:17 3,2 C 3,9 C 86 % 1032,9 hPa 0,0 l/m 8,0 km/h (2 Bft) W-SW 247 0 min 0,000 mm 0,0 UV-I 32 W/m 1,1 C 1,7 C 12,9 km/h (3 Bft) 100,00 %
21.12.2017 13:18 3,2 C 3,9 C 86 % 1032,9 hPa 0,0 l/m 9,7 km/h (2 Bft) W-SW 247 0 min 0,000 mm 0,0 UV-I 33 W/m 1,1 C 0,3 C 16,1 km/h (3 Bft) 95,65 %
21.12.2017 13:19 3,2 C 3,9 C 86 % 1032,9 hPa 0,0 l/m 8,0 km/h (2 Bft) W-SW 247 0 min 0,000 mm 0,0 UV-I 33 W/m 1,1 C 1,7 C 17,7 km/h (3 Bft) 95,65 %
21.12.2017 13:20 3,3 C 3,9 C 86 % 1032,8 hPa 0,0 l/m 11,3 km/h (2 Bft) SW 225 0 min 0,000 mm 0,0 UV-I 33 W/m 1,2 C -0,7 C 16,1 km/h (3 Bft) 100,00 %
21.12.2017 13:21 3,3 C 3,9 C 85 % 1032,8 hPa 0,0 l/m 8,0 km/h (2 Bft) W-SW 247 0 min 0,000 mm 0,0 UV-I 35 W/m 1,0 C 1,8 C 9,7 km/h (2 Bft) 91,30 %
21.12.2017 13:22 3,3 C 3,9 C 85 % 1032,8 hPa 0,0 l/m 9,7 km/h (2 Bft) W-SW 247 0 min 0,000 mm 0,0 UV-I 33 W/m 1,0 C 0,4 C 14,5 km/h (3 Bft) 100,00 %
21.12.2017 13:23 3,3 C 3,9 C 85 % 1032,8 hPa 0,0 l/m 11,3 km/h (2 Bft) W-SW 247 0 min 0,000 mm 0,0 UV-I 33 W/m 1,0 C -0,7 C 16,1 km/h (3 Bft) 95,65 %
21.12.2017 13:24 3,3 C 3,9 C 85 % 1032,8 hPa 0,0 l/m 11,3 km/h (2 Bft) SW 225 0 min 0,000 mm 0,0 UV-I 33 W/m 1,0 C -0,7 C 16,1 km/h (3 Bft) 95,65 %
21.12.2017 13:25 3,4 C 3,9 C 85 % 1032,8 hPa 0,0 l/m 4,8 km/h (1 Bft) W 270 0 min 0,000 mm 0,0 UV-I 32 W/m 1,1 C 3,4 C 6,4 km/h (2 Bft) 95,65 %
21.12.2017 13:26 3,4 C 3,9 C 85 % 1032,8 hPa 0,0 l/m 8,0 km/h (2 Bft) W-SW 247 0 min 0,000 mm 0,0 UV-I 32 W/m 1,1 C 1,9 C 14,5 km/h (3 Bft) 91,30 %
21.12.2017 13:27 3,4 C 3,9 C 85 % 1032,8 hPa 0,0 l/m 16,1 km/h (3 Bft) W 270 0 min 0,000 mm 0,0 UV-I 32 W/m 1,1 C -3,4 C 20,9 km/h (4 Bft) 100,00 %
21.12.2017 13:28 3,4 C 3,9 C 85 % 1032,8 hPa 0,0 l/m 9,7 km/h (2 Bft) W-SW 247 0 min 0,000 mm 0,0 UV-I 32 W/m 1,1 C 0,5 C 11,3 km/h (2 Bft) 86,96 %
21.12.2017 13:29 3,5 C 3,9 C 85 % 1032,8 hPa 0,0 l/m 8,0 km/h (2 Bft) W-SW 247 0 min 0,000 mm 0,0 UV-I 32 W/m 1,2 C 2,0 C 12,9 km/h (3 Bft) 100,00 %
21.12.2017 13:30 3,5 C 3,9 C 85 % 1032,8 hPa 0,0 l/m 9,7 km/h (2 Bft) W-SW 247 0 min 0,000 mm 0,0 UV-I 30 W/m 1,2 C 0,6 C 14,5 km/h (3 Bft) 100,00 %
21.12.2017 13:31 3,5 C 3,9 C 85 % 1032,8 hPa 0,0 l/m 11,3 km/h (2 Bft) W-SW 247 0 min 0,000 mm 0,0 UV-I 30 W/m 1,2 C -0,5 C 12,9 km/h (3 Bft) 100,00 %
21.12.2017 13:32 3,6 C 3,9 C 85 % 1032,8 hPa 0,0 l/m 12,9 km/h (3 Bft) W-SW 247 0 min 0,000 mm 0,0 UV-I 30 W/m 1,3 C -1,4 C 14,5 km/h (3 Bft) 100,00 %
21.12.2017 13:33 3,6 C 3,9 C 85 % 1032,8 hPa 0,0 l/m 11,3 km/h (2 Bft) W-SW 247 0 min 0,000 mm 0,0 UV-I 28 W/m 1,3 C -0,4 C 16,1 km/h (3 Bft) 95,65 %
21.12.2017 13:34 3,6 C 3,9 C 85 % 1032,8 hPa 0,0 l/m 12,9 km/h (3 Bft) W 270 0 min 0,000 mm 0,0 UV-I 28 W/m 1,3 C -1,4 C 17,7 km/h (3 Bft) 100,00 %
21.12.2017 13:35 3,7 C 3,9 C 85 % 1032,7 hPa 0,0 l/m 9,7 km/h (2 Bft) W 270 0 min 0,000 mm 0,0 UV-I 27 W/m 1,4 C 0,9 C 12,9 km/h (3 Bft) 100,00 %
21.12.2017 13:36 3,7 C 3,9 C 85 % 1032,8 hPa 0,0 l/m 6,4 km/h (2 Bft) W 270 0 min 0,000 mm 0,0 UV-I 26 W/m 1,4 C 3,7 C 9,7 km/h (2 Bft) 91,30 %
21.12.2017 13:37 3,7 C 3,9 C 85 % 1032,8 hPa 0,0 l/m 8,0 km/h (2 Bft) W-SW 247 0 min 0,000 mm 0,0 UV-I 26 W/m 1,4 C 2,2 C 14,5 km/h (3 Bft) 100,00 %
21.12.2017 13:38 3,7 C 3,9 C 85 % 1032,7 hPa 0,0 l/m 11,3 km/h (2 Bft) W-SW 247 0 min 0,000 mm 0,0 UV-I 25 W/m 1,4 C -0,3 C 14,5 km/h (3 Bft) 100,00 %
21.12.2017 13:39 3,7 C 3,9 C 85 % 1032,7 hPa 0,0 l/m 9,7 km/h (2 Bft) W-SW 247 0 min 0,000 mm 0,0 UV-I 25 W/m 1,4 C 0,9 C 16,1 km/h (3 Bft) 100,00 %
21.12.2017 13:40 3,7 C 3,9 C 85 % 1032,7 hPa 0,0 l/m 9,7 km/h (2 Bft) W 270 0 min 0,000 mm 0,0 UV-I 25 W/m 1,4 C 0,9 C 19,3 km/h (3 Bft) 100,00 %
21.12.2017 13:41 3,7 C 3,9 C 85 % 1032,7 hPa 0,0 l/m 11,3 km/h (2 Bft) SW 225 0 min 0,000 mm 0,0 UV-I 25 W/m 1,4 C -0,3 C 17,7 km/h (3 Bft) 100,00 %
21.12.2017 13:42 3,7 C 3,9 C 85 % 1032,7 hPa 0,0 l/m 14,5 km/h (3 Bft) W-SW 247 0 min 0,000 mm 0,0 UV-I 25 W/m 1,4 C -2,2 C 19,3 km/h (3 Bft) 95,65 %
21.12.2017 13:43 3,7 C 3,9 C 85 % 1032,7 hPa 0,0 l/m 11,3 km/h (2 Bft) W-SW 247 0 min 0,000 mm 0,0 UV-I 25 W/m 1,4 C -0,3 C 14,5 km/h (3 Bft) 95,65 %
21.12.2017 13:44 3,7 C 3,9 C 84 % 1032,6 hPa 0,0 l/m 14,5 km/h (3 Bft) W 270 0 min 0,000 mm 0,0 UV-I 25 W/m 1,3 C -2,2 C 20,9 km/h (4 Bft) 100,00 %
21.12.2017 13:45 3,7 C 3,9 C 84 % 1032,6 hPa 0,0 l/m 14,5 km/h (3 Bft) W 270 0 min 0,000 mm 0,0 UV-I 25 W/m 1,3 C -2,2 C 19,3 km/h (3 Bft) 95,65 %
21.12.2017 13:46 3,7 C 3,9 C 84 % 1032,6 hPa 0,0 l/m 16,1 km/h (3 Bft) W-SW 247 0 min 0,000 mm 0,0 UV-I 25 W/m 1,3 C -3,1 C 24,1 km/h (4 Bft) 100,00 %
21.12.2017 13:47 3,7 C 3,9 C 84 % 1032,6 hPa 0,0 l/m 16,1 km/h (3 Bft) W-SW 247 0 min 0,000 mm 0,0 UV-I 25 W/m 1,3 C -3,1 C 20,9 km/h (4 Bft) 100,00 %
21.12.2017 13:48 3,7 C 3,9 C 84 % 1032,6 hPa 0,0 l/m 16,1 km/h (3 Bft) W 270 0 min 0,000 mm 0,0 UV-I 26 W/m 1,3 C -3,1 C 22,5 km/h (4 Bft) 100,00 %
21.12.2017 13:49 3,7 C 3,9 C 84 % 1032,5 hPa 0,0 l/m 19,3 km/h (3 Bft) W 270 0 min 0,000 mm 0,0 UV-I 26 W/m 1,3 C -4,6 C 27,4 km/h (4 Bft) 100,00 %
21.12.2017 13:50 3,7 C 3,9 C 84 % 1032,5 hPa 0,0 l/m 12,9 km/h (3 Bft) W-SW 247 0 min 0,000 mm 0,0 UV-I 25 W/m 1,3 C -1,3 C 19,3 km/h (3 Bft) 95,65 %
21.12.2017 13:51 3,7 C 3,9 C 84 % 1032,5 hPa 0,0 l/m 12,9 km/h (3 Bft) W-SW 247 0 min 0,000 mm 0,0 UV-I 26 W/m 1,3 C -1,3 C 19,3 km/h (3 Bft) 100,00 %
21.12.2017 13:52 3,7 C 3,9 C 84 % 1032,6 hPa 0,0 l/m 20,9 km/h (4 Bft) W-SW 247 0 min 0,000 mm 0,0 UV-I 26 W/m 1,3 C -5,2 C 33,8 km/h (5 Bft) 95,65 %
21.12.2017 13:53 3,7 C 3,9 C 84 % 1032,6 hPa 0,0 l/m 16,1 km/h (3 Bft) W 270 0 min 0,000 mm 0,0 UV-I 26 W/m 1,3 C -3,1 C 30,6 km/h (5 Bft) 100,00 %
21.12.2017 13:54 3,8 C 3,9 C 84 % 1032,6 hPa 0,0 l/m 17,7 km/h (3 Bft) SW 225 0 min 0,000 mm 0,0 UV-I 26 W/m 1,4 C -3,7 C 24,1 km/h (4 Bft) 95,65 %
21.12.2017 13:55 3,8 C 3,9 C 84 % 1032,5 hPa 0,0 l/m 16,1 km/h (3 Bft) W-SW 247 0 min 0,000 mm 0,0 UV-I 28 W/m 1,4 C -2,9 C 25,7 km/h (4 Bft) 100,00 %
21.12.2017 13:56 3,8 C 3,9 C 84 % 1032,5 hPa 0,0 l/m 11,3 km/h (2 Bft) W-SW 247 0 min 0,000 mm 0,0 UV-I 28 W/m 1,4 C -0,2 C 16,1 km/h (3 Bft) 100,00 %
21.12.2017 13:57 3,8 C 3,9 C 85 % 1032,6 hPa 0,0 l/m 17,7 km/h (3 Bft) W-SW 247 0 min 0,000 mm 0,0 UV-I 26 W/m 1,5 C -3,7 C 24,1 km/h (4 Bft) 95,65 %
21.12.2017 13:58 3,7 C 3,9 C 85 % 1032,5 hPa 0,0 l/m 11,3 km/h (2 Bft) W 270 0 min 0,000 mm 0,0 UV-I 26 W/m 1,4 C -0,3 C 14,5 km/h (3 Bft) 95,65 %
21.12.2017 13:59 3,7 C 3,9 C 85 % 1032,5 hPa 0,0 l/m 11,3 km/h (2 Bft) W-SW 247 0 min 0,000 mm 0,0 UV-I 26 W/m 1,4 C -0,3 C 16,1 km/h (3 Bft) 100,00 %
21.12.2017 14:00 3,7 C 3,9 C 85 % 1032,6 hPa 0,0 l/m 16,1 km/h (3 Bft) W-SW 247 0 min 0,025 mm 0,0 UV-I 28 W/m 1,4 C -3,1 C 19,3 km/h (3 Bft) 95,65 %
21.12.2017 14:01 3,7 C 3,9 C 85 % 1032,5 hPa 0,0 l/m 12,9 km/h (3 Bft) W-SW 247 0 min 0,000 mm 0,0 UV-I 28 W/m 1,4 C -1,3 C 17,7 km/h (3 Bft) 100,00 %
21.12.2017 14:02 3,7 C 3,9 C 85 % 1032,5 hPa 0,0 l/m 12,9 km/h (3 Bft) W 270 0 min 0,000 mm 0,0 UV-I 30 W/m 1,4 C -1,3 C 16,1 km/h (3 Bft) 100,00 %
21.12.2017 14:03 3,7 C 3,9 C 85 % 1032,5 hPa 0,0 l/m 11,3 km/h (2 Bft) W-SW 247 0 min 0,000 mm 0,0 UV-I 30 W/m 1,4 C -0,3 C 25,7 km/h (4 Bft) 100,00 %
21.12.2017 14:04 3,7 C 3,9 C 85 % 1032,5 hPa 0,0 l/m 16,1 km/h (3 Bft) W 270 0 min 0,000 mm 0,0 UV-I 32 W/m 1,4 C -3,1 C 25,7 km/h (4 Bft) 95,65 %
21.12.2017 14:05 3,7 C 3,9 C 85 % 1032,5 hPa 0,0 l/m 19,3 km/h (3 Bft) W 270 0 min 0,000 mm 0,0 UV-I 32 W/m 1,4 C -4,6 C 27,4 km/h (4 Bft) 95,65 %
21.12.2017 14:06 3,7 C 3,9 C 85 % 1032,5 hPa 0,0 l/m 12,9 km/h (3 Bft) SW 225 0 min 0,000 mm 0,0 UV-I 32 W/m 1,4 C -1,3 C 19,3 km/h (3 Bft) 100,00 %
21.12.2017 14:07 3,7 C 3,9 C 85 % 1032,5 hPa 0,0 l/m 12,9 km/h (3 Bft) W-SW 247 0 min 0,000 mm 0,0 UV-I 32 W/m 1,4 C -1,3 C 22,5 km/h (4 Bft) 100,00 %
21.12.2017 14:08 3,7 C 3,9 C 86 % 1032,5 hPa 0,0 l/m 16,1 km/h (3 Bft) W-SW 247 0 min 0,000 mm 0,0 UV-I 30 W/m 1,6 C -3,1 C 20,9 km/h (4 Bft) 100,00 %
21.12.2017 14:09 3,7 C 3,9 C 86 % 1032,5 hPa 0,0 l/m 12,9 km/h (3 Bft) W 270 0 min 0,000 mm 0,0 UV-I 26 W/m 1,6 C -1,3 C 20,9 km/h (4 Bft) 100,00 %
21.12.2017 14:10 3,7 C 3,9 C 86 % 1032,6 hPa 0,0 l/m 12,9 km/h (3 Bft) W-SW 247 0 min 0,000 mm 0,0 UV-I 25 W/m 1,6 C -1,3 C 17,7 km/h (3 Bft) 100,00 %
21.12.2017 14:11 3,7 C 3,9 C 86 % 1032,5 hPa 0,0 l/m 16,1 km/h (3 Bft) W-SW 247 0 min 0,000 mm 0,0 UV-I 25 W/m 1,6 C -3,1 C 25,7 km/h (4 Bft) 95,65 %
21.12.2017 14:12 3,7 C 3,9 C 86 % 1032,5 hPa 0,0 l/m 14,5 km/h (3 Bft) W-SW 247 0 min 0,000 mm 0,0 UV-I 23 W/m 1,6 C -2,2 C 19,3 km/h (3 Bft) 100,00 %
21.12.2017 14:13 3,7 C 3,9 C 86 % 1032,5 hPa 0,0 l/m 12,9 km/h (3 Bft) W 270 0 min 0,000 mm 0,0 UV-I 25 W/m 1,6 C -1,3 C 17,7 km/h (3 Bft) 100,00 %
21.12.2017 14:14 3,7 C 3,9 C 86 % 1032,5 hPa 0,0 l/m 14,5 km/h (3 Bft) W 270 0 min 0,000 mm 0,0 UV-I 26 W/m 1,6 C -2,2 C 22,5 km/h (4 Bft) 95,65 %
21.12.2017 14:15 3,7 C 3,9 C 86 % 1032,5 hPa 0,0 l/m 9,7 km/h (2 Bft) W-SW 247 0 min 0,000 mm 0,0 UV-I 26 W/m 1,6 C 0,9 C 14,5 km/h (3 Bft) 100,00 %
21.12.2017 14:16 3,7 C 3,9 C 86 % 1032,5 hPa 0,0 l/m 14,5 km/h (3 Bft) W 270 0 min 0,000 mm 0,0 UV-I 27 W/m 1,6 C -2,2 C 19,3 km/h (3 Bft) 95,65 %
21.12.2017 14:17 3,7 C 3,9 C 86 % 1032,5 hPa 0,0 l/m 14,5 km/h (3 Bft) W 270 0 min 0,000 mm 0,0 UV-I 26 W/m 1,6 C -2,2 C 19,3 km/h (3 Bft) 100,00 %
21.12.2017 14:18 3,7 C 3,9 C 86 % 1032,5 hPa 0,0 l/m 9,7 km/h (2 Bft) W 270 0 min 0,000 mm 0,0 UV-I 26 W/m 1,6 C 0,9 C 14,5 km/h (3 Bft) 95,65 %
21.12.2017 14:19 3,7 C 3,9 C 86 % 1032,6 hPa 0,0 l/m 11,3 km/h (2 Bft) W 270 0 min 0,000 mm 0,0 UV-I 23 W/m 1,6 C -0,3 C 17,7 km/h (3 Bft) 95,65 %
21.12.2017 14:20 3,7 C 3,9 C 86 % 1032,6 hPa 0,0 l/m 11,3 km/h (2 Bft) W 270 0 min 0,000 mm 0,0 UV-I 21 W/m 1,6 C -0,3 C 20,9 km/h (4 Bft) 100,00 %
21.12.2017 14:21 3,7 C 3,9 C 86 % 1032,6 hPa 0,0 l/m 12,9 km/h (3 Bft) W 270 0 min 0,000 mm 0,0 UV-I 21 W/m 1,6 C -1,3 C 19,3 km/h (3 Bft) 100,00 %
21.12.2017 14:22 3,6 C 3,9 C 86 % 1032,6 hPa 0,0 l/m 11,3 km/h (2 Bft) W-SW 247 0 min 0,000 mm 0,0 UV-I 19 W/m 1,5 C -0,4 C 16,1 km/h (3 Bft) 100,00 %
21.12.2017 14:23 3,6 C 3,9 C 86 % 1032,7 hPa 0,0 l/m 11,3 km/h (2 Bft) W 270 0 min 0,000 mm 0,0 UV-I 19 W/m 1,5 C -0,4 C 19,3 km/h (3 Bft) 100,00 %
21.12.2017 14:24 3,6 C 3,9 C 86 % 1032,6 hPa 0,0 l/m 11,3 km/h (2 Bft) W 270 0 min 0,000 mm 0,0 UV-I 19 W/m 1,5 C -0,4 C 17,7 km/h (3 Bft) 100,00 %
21.12.2017 14:25 3,6 C 3,9 C 87 % 1032,7 hPa 0,0 l/m 11,3 km/h (2 Bft) W 270 0 min 0,000 mm 0,0 UV-I 19 W/m 1,6 C -0,4 C 12,9 km/h (3 Bft) 91,30 %
21.12.2017 14:26 3,6 C 3,9 C 87 % 1032,6 hPa 0,0 l/m 9,7 km/h (2 Bft) W-SW 247 0 min 0,000 mm 0,0 UV-I 19 W/m 1,6 C 0,8 C 14,5 km/h (3 Bft) 100,00 %
21.12.2017 14:27 3,6 C 3,9 C 87 % 1032,6 hPa 0,0 l/m 14,5 km/h (3 Bft) W 270 0 min 0,000 mm 0,0 UV-I 19 W/m 1,6 C -2,3 C 19,3 km/h (3 Bft) 100,00 %
21.12.2017 14:28 3,6 C 3,9 C 87 % 1032,6 hPa 0,0 l/m 11,3 km/h (2 Bft) W 270 0 min 0,000 mm 0,0 UV-I 19 W/m 1,6 C -0,4 C 16,1 km/h (3 Bft) 95,65 %
21.12.2017 14:29 3,6 C 3,9 C 87 % 1032,6 hPa 0,0 l/m 8,0 km/h (2 Bft) W-SW 247 0 min 0,000 mm 0,0 UV-I 19 W/m 1,6 C 2,1 C 12,9 km/h (3 Bft) 95,65 %
21.12.2017 14:30 3,6 C 3,9 C 87 % 1032,6 hPa 0,0 l/m 14,5 km/h (3 Bft) W-SW 247 0 min 0,000 mm 0,0 UV-I 19 W/m 1,6 C -2,3 C 19,3 km/h (3 Bft) 100,00 %
21.12.2017 14:31 3,6 C 3,9 C 87 % 1032,6 hPa 0,0 l/m 11,3 km/h (2 Bft) W-SW 247 0 min 0,000 mm 0,0 UV-I 19 W/m 1,6 C -0,4 C 14,5 km/h (3 Bft) 91,30 %
21.12.2017 14:32 3,6 C 3,9 C 87 % 1032,6 hPa 0,0 l/m 12,9 km/h (3 Bft) W-SW 247 0 min 0,000 mm 0,0 UV-I 19 W/m 1,6 C -1,4 C 17,7 km/h (3 Bft) 95,65 %
21.12.2017 14:33 3,6 C 3,9 C 87 % 1032,6 hPa 0,0 l/m 11,3 km/h (2 Bft) W-SW 247 0 min 0,000 mm 0,0 UV-I 19 W/m 1,6 C -0,4 C 16,1 km/h (3 Bft) 91,30 %
21.12.2017 14:34 3,6 C 3,9 C 88 % 1032,7 hPa 0,0 l/m 9,7 km/h (2 Bft) W-SW 247 0 min 0,000 mm 0,0 UV-I 19 W/m 1,8 C 0,8 C 16,1 km/h (3 Bft) 95,65 %
21.12.2017 14:35 3,6 C 3,9 C 88 % 1032,7 hPa 0,0 l/m 16,1 km/h (3 Bft) W 270 0 min 0,000 mm 0,0 UV-I 21 W/m 1,8 C -3,2 C 24,1 km/h (4 Bft) 91,30 %
21.12.2017 14:36 3,6 C 3,9 C 88 % 1032,6 hPa 0,0 l/m 14,5 km/h (3 Bft) W 270 0 min 0,000 mm 0,0 UV-I 21 W/m 1,8 C -2,3 C 17,7 km/h (3 Bft) 95,65 %
21.12.2017 14:37 3,6 C 3,9 C 88 % 1032,6 hPa 0,0 l/m 12,9 km/h (3 Bft) W-SW 247 0 min 0,000 mm 0,0 UV-I 21 W/m 1,8 C -1,4 C 19,3 km/h (3 Bft) 91,30 %
21.12.2017 14:38 3,6 C 3,9 C 88 % 1032,6 hPa 0,0 l/m 11,3 km/h (2 Bft) W-SW 247 0 min 0,000 mm 0,0 UV-I 21 W/m 1,8 C -0,4 C 19,3 km/h (3 Bft) 95,65 %
21.12.2017 14:39 3,6 C 3,9 C 88 % 1032,6 hPa 0,0 l/m 11,3 km/h (2 Bft) W-SW 247 0 min 0,000 mm 0,0 UV-I 21 W/m 1,8 C -0,4 C 17,7 km/h (3 Bft) 91,30 %
21.12.2017 14:40 3,6 C 3,9 C 89 % 1032,6 hPa 0,0 l/m 14,5 km/h (3 Bft) W-SW 247 0 min 0,000 mm 0,0 UV-I 21 W/m 2,0 C -2,3 C 20,9 km/h (4 Bft) 95,65 %
21.12.2017 14:41 3,6 C 3,9 C 89 % 1032,6 hPa 0,0 l/m 14,5 km/h (3 Bft) W-SW 247 0 min 0,000 mm 0,0 UV-I 21 W/m 2,0 C -2,3 C 17,7 km/h (3 Bft) 95,65 %
21.12.2017 14:42 3,6 C 3,9 C 89 % 1032,6 hPa 0,0 l/m 11,3 km/h (2 Bft) W-SW 247 0 min 0,000 mm 0,0 UV-I 21 W/m 2,0 C -0,4 C 17,7 km/h (3 Bft) 82,61 %
21.12.2017 14:43 3,6 C 3,9 C 89 % 1032,6 hPa 0,0 l/m 11,3 km/h (2 Bft) W 270 0 min 0,000 mm 0,0 UV-I 21 W/m 2,0 C -0,4 C 14,5 km/h (3 Bft) 95,65 %
21.12.2017 14:44 3,6 C 3,9 C 89 % 1032,6 hPa 0,0 l/m 6,4 km/h (2 Bft) W-SW 247 0 min 0,000 mm 0,0 UV-I 19 W/m 2,0 C 3,6 C 12,9 km/h (3 Bft) 95,65 %
21.12.2017 14:45 3,6 C 3,9 C 89 % 1032,6 hPa 0,0 l/m 11,3 km/h (2 Bft) W-SW 247 0 min 0,000 mm 0,0 UV-I 19 W/m 2,0 C -0,4 C 14,5 km/h (3 Bft) 91,30 %
21.12.2017 14:46 3,5 C 3,9 C 89 % 1032,6 hPa 0,0 l/m 12,9 km/h (3 Bft) W-SW 247 0 min 0,000 mm 0,0 UV-I 18 W/m 1,9 C -1,5 C 16,1 km/h (3 Bft) 91,30 %
21.12.2017 14:47 3,6 C 3,9 C 89 % 1032,6 hPa 0,0 l/m 14,5 km/h (3 Bft) W-SW 247 0 min 0,000 mm 0,0 UV-I 18 W/m 2,0 C -2,3 C 19,3 km/h (3 Bft) 91,30 %
21.12.2017 14:48 3,6 C 3,9 C 89 % 1032,6 hPa 0,0 l/m 16,1 km/h (3 Bft) SW 225 0 min 0,000 mm 0,0 UV-I 19 W/m 2,0 C -3,2 C 20,9 km/h (4 Bft) 95,65 %
21.12.2017 14:49 3,6 C 3,9 C 89 % 1032,5 hPa 0,0 l/m 12,9 km/h (3 Bft) W-SW 247 0 min 0,000 mm 0,0 UV-I 19 W/m 2,0 C -1,4 C 27,4 km/h (4 Bft) 95,65 %
21.12.2017 14:50 3,6 C 3,9 C 89 % 1032,6 hPa 0,0 l/m 17,7 km/h (3 Bft) W-SW 247 0 min 0,000 mm 0,0 UV-I 19 W/m 2,0 C -4,0 C 24,1 km/h (4 Bft) 91,30 %
21.12.2017 14:51 3,6 C 3,9 C 89 % 1032,5 hPa 0,0 l/m 19,3 km/h (3 Bft) W-SW 247 0 min 0,000 mm 0,0 UV-I 19 W/m 2,0 C -4,7 C 27,4 km/h (4 Bft) 100,00 %
21.12.2017 14:52 3,6 C 3,9 C 88 % 1032,4 hPa 0,0 l/m 14,5 km/h (3 Bft) W-SW 247 0 min 0,000 mm 0,0 UV-I 21 W/m 1,8 C -2,3 C 20,9 km/h (4 Bft) 86,96 %
21.12.2017 14:53 3,6 C 3,9 C 88 % 1032,4 hPa 0,0 l/m 19,3 km/h (3 Bft) W-SW 247 0 min 0,000 mm 0,0 UV-I 21 W/m 1,8 C -4,7 C 24,1 km/h (4 Bft) 95,65 %
21.12.2017 14:54 3,7 C 3,9 C 88 % 1032,4 hPa 0,0 l/m 20,9 km/h (4 Bft) W-SW 247 0 min 0,000 mm 0,0 UV-I 19 W/m 1,9 C -5,2 C 27,4 km/h (4 Bft) 95,65 %
21.12.2017 14:55 3,7 C 3,9 C 89 % 1032,4 hPa 0,0 l/m 20,9 km/h (4 Bft) W-SW 247 0 min 0,000 mm 0,0 UV-I 19 W/m 2,1 C -5,2 C 30,6 km/h (5 Bft) 100,00 %
21.12.2017 14:56 3,7 C 3,9 C 89 % 1032,4 hPa 0,0 l/m 19,3 km/h (3 Bft) W-SW 247 0 min 0,000 mm 0,0 UV-I 18 W/m 2,1 C -4,6 C 29,0 km/h (5 Bft) 95,65 %
21.12.2017 14:57 3,7 C 3,9 C 89 % 1032,4 hPa 0,0 l/m 19,3 km/h (3 Bft) W-SW 247 0 min 0,000 mm 0,0 UV-I 19 W/m 2,1 C -4,6 C 24,1 km/h (4 Bft) 95,65 %
21.12.2017 14:58 3,7 C 3,9 C 89 % 1032,4 hPa 0,0 l/m 17,7 km/h (3 Bft) W-SW 247 0 min 0,000 mm 0,0 UV-I 19 W/m 2,1 C -3,8 C 27,4 km/h (4 Bft) 95,65 %
21.12.2017 14:59 3,7 C 3,9 C 89 % 1032,4 hPa 0,0 l/m 14,5 km/h (3 Bft) W-SW 247 0 min 0,000 mm 0,0 UV-I 19 W/m 2,1 C -2,2 C 24,1 km/h (4 Bft) 95,65 %
21.12.2017 15:00 3,7 C 3,9 C 89 % 1032,4 hPa 0,0 l/m 22,5 km/h (4 Bft) W-SW 247 0 min 0,025 mm 0,0 UV-I 19 W/m 2,1 C -5,8 C 30,6 km/h (5 Bft) 95,65 %
21.12.2017 15:01 3,7 C 3,9 C 89 % 1032,4 hPa 0,0 l/m 17,7 km/h (3 Bft) W-SW 247 0 min 0,000 mm 0,0 UV-I 19 W/m 2,1 C -3,8 C 20,9 km/h (4 Bft) 95,65 %
21.12.2017 15:02 3,7 C 3,9 C 89 % 1032,3 hPa 0,0 l/m 17,7 km/h (3 Bft) W-SW 247 0 min 0,000 mm 0,0 UV-I 19 W/m 2,1 C -3,8 C 22,5 km/h (4 Bft) 95,65 %
21.12.2017 15:03 3,7 C 3,9 C 89 % 1032,3 hPa 0,0 l/m 12,9 km/h (3 Bft) W-SW 247 0 min 0,000 mm 0,0 UV-I 19 W/m 2,1 C -1,3 C 17,7 km/h (3 Bft) 91,30 %
21.12.2017 15:04 3,6 C 3,9 C 89 % 1032,4 hPa 0,0 l/m 12,9 km/h (3 Bft) W-SW 247 0 min 0,000 mm 0,0 UV-I 19 W/m 2,0 C -1,4 C 17,7 km/h (3 Bft) 100,00 %
21.12.2017 15:05 3,6 C 3,9 C 90 % 1032,4 hPa 0,0 l/m 19,3 km/h (3 Bft) W-SW 247 0 min 0,000 mm 0,0 UV-I 19 W/m 2,1 C -4,7 C 30,6 km/h (5 Bft) 100,00 %
21.12.2017 15:06 3,6 C 3,9 C 90 % 1032,3 hPa 0,0 l/m 20,9 km/h (4 Bft) W-SW 247 0 min 0,000 mm 0,0 UV-I 18 W/m 2,1 C -5,3 C 32,2 km/h (5 Bft) 95,65 %
21.12.2017 15:07 3,6 C 3,9 C 90 % 1032,4 hPa 0,0 l/m 24,1 km/h (4 Bft) W-SW 247 0 min 0,000 mm 0,0 UV-I 18 W/m 2,1 C -6,5 C 30,6 km/h (5 Bft) 86,96 %
21.12.2017 15:08 3,6 C 3,9 C 90 % 1032,3 hPa 0,0 l/m 22,5 km/h (4 Bft) W-SW 247 0 min 0,000 mm 0,0 UV-I 18 W/m 2,1 C -6,0 C 30,6 km/h (5 Bft) 95,65 %
21.12.2017 15:09 3,6 C 3,9 C 90 % 1032,4 hPa 0,0 l/m 17,7 km/h (3 Bft) W 270 0 min 0,000 mm 0,0 UV-I 18 W/m 2,1 C -4,0 C 20,9 km/h (4 Bft) 100,00 %
21.12.2017 15:10 3,6 C 3,9 C 90 % 1032,4 hPa 0,0 l/m 14,5 km/h (3 Bft) W 270 0 min 0,000 mm 0,0 UV-I 18 W/m 2,1 C -2,3 C 17,7 km/h (3 Bft) 95,65 %
21.12.2017 15:11 3,5 C 3,9 C 91 % 1032,4 hPa 0,0 l/m 22,5 km/h (4 Bft) W-SW 247 0 min 0,000 mm 0,0 UV-I 16 W/m 2,2 C -6,1 C 27,4 km/h (4 Bft) 95,65 %
21.12.2017 15:12 3,5 C 3,9 C 91 % 1032,4 hPa 0,0 l/m 17,7 km/h (3 Bft) W-SW 247 0 min 0,000 mm 0,0 UV-I 16 W/m 2,2 C -4,1 C 20,9 km/h (4 Bft) 95,65 %
21.12.2017 15:13 3,4 C 3,9 C 91 % 1032,3 hPa 0,0 l/m 14,5 km/h (3 Bft) W-SW 247 0 min 0,000 mm 0,0 UV-I 18 W/m 2,1 C -2,6 C 19,3 km/h (3 Bft) 100,00 %
21.12.2017 15:14 3,4 C 3,9 C 91 % 1032,4 hPa 0,0 l/m 16,1 km/h (3 Bft) W-SW 247 0 min 0,000 mm 0,0 UV-I 18 W/m 2,1 C -3,4 C 19,3 km/h (3 Bft) 91,30 %
21.12.2017 15:15 3,4 C 3,9 C 91 % 1032,3 hPa 0,0 l/m 19,3 km/h (3 Bft) W-SW 247 0 min 0,000 mm 0,0 UV-I 18 W/m 2,1 C -4,9 C 24,1 km/h (4 Bft) 100,00 %
21.12.2017 15:16 3,4 C 3,9 C 91 % 1032,3 hPa 0,0 l/m 16,1 km/h (3 Bft) W-SW 247 0 min 0,000 mm 0,0 UV-I 18 W/m 2,1 C -3,4 C 20,9 km/h (4 Bft) 95,65 %
21.12.2017 15:17 3,4 C 3,9 C 91 % 1032,3 hPa 0,0 l/m 14,5 km/h (3 Bft) W-SW 247 0 min 0,000 mm 0,0 UV-I 18 W/m 2,1 C -2,6 C 20,9 km/h (4 Bft) 95,65 %
21.12.2017 15:18 3,4 C 3,9 C 91 % 1032,3 hPa 0,0 l/m 22,5 km/h (4 Bft) W 270 0 min 0,000 mm 0,0 UV-I 16 W/m 2,1 C -6,2 C 29,0 km/h (5 Bft) 100,00 %
21.12.2017 15:19 3,4 C 3,9 C 91 % 1032,3 hPa 0,0 l/m 17,7 km/h (3 Bft) W-SW 247 0 min 0,000 mm 0,0 UV-I 16 W/m 2,1 C -4,2 C 22,5 km/h (4 Bft) 95,65 %
21.12.2017 15:20 3,4 C 3,9 C 91 % 1032,3 hPa 0,0 l/m 19,3 km/h (3 Bft) W-SW 247 0 min 0,000 mm 0,0 UV-I 16 W/m 2,1 C -4,9 C 25,7 km/h (4 Bft) 100,00 %
21.12.2017 15:21 3,4 C 3,9 C 91 % 1032,3 hPa 0,0 l/m 14,5 km/h (3 Bft) W 270 0 min 0,000 mm 0,0 UV-I 17 W/m 2,1 C -2,6 C 22,5 km/h (4 Bft) 95,65 %
21.12.2017 15:22 3,4 C 3,9 C 91 % 1032,3 hPa 0,0 l/m 14,5 km/h (3 Bft) W-SW 247 0 min 0,000 mm 0,0 UV-I 16 W/m 2,1 C -2,6 C 20,9 km/h (4 Bft) 100,00 %
21.12.2017 15:23 3,4 C 3,9 C 91 % 1032,3 hPa 0,0 l/m 12,9 km/h (3 Bft) W-SW 247 0 min 0,000 mm 0,0 UV-I 14 W/m 2,1 C -1,7 C 16,1 km/h (3 Bft) 95,65 %
21.12.2017 15:24 3,4 C 3,9 C 91 % 1032,3 hPa 0,0 l/m 17,7 km/h (3 Bft) W-SW 247 0 min 0,000 mm 0,0 UV-I 14 W/m 2,1 C -4,2 C 25,7 km/h (4 Bft) 95,65 %
21.12.2017 15:25 3,4 C 3,9 C 91 % 1032,3 hPa 0,0 l/m 17,7 km/h (3 Bft) W-SW 247 0 min 0,000 mm 0,0 UV-I 12 W/m 2,1 C -4,2 C 20,9 km/h (4 Bft) 100,00 %
21.12.2017 15:26 3,4 C 3,9 C 91 % 1032,3 hPa 0,0 l/m 14,5 km/h (3 Bft) W-SW 247 0 min 0,000 mm 0,0 UV-I 12 W/m 2,1 C -2,6 C 20,9 km/h (4 Bft) 100,00 %
21.12.2017 15:27 3,4 C 3,9 C 91 % 1032,3 hPa 0,0 l/m 16,1 km/h (3 Bft) W-SW 247 0 min 0,000 mm 0,0 UV-I 12 W/m 2,1 C -3,4 C 25,7 km/h (4 Bft) 95,65 %
21.12.2017 15:28 3,4 C 3,9 C 91 % 1032,3 hPa 0,0 l/m 19,3 km/h (3 Bft) W-SW 247 0 min 0,000 mm 0,0 UV-I 12 W/m 2,1 C -4,9 C 29,0 km/h (5 Bft) 95,65 %
21.12.2017 15:29 3,4 C 3,9 C 91 % 1032,3 hPa 0,0 l/m 16,1 km/h (3 Bft) W-SW 247 0 min 0,000 mm 0,0 UV-I 12 W/m 2,1 C -3,4 C 22,5 km/h (4 Bft) 100,00 %
21.12.2017 15:30 3,5 C 3,9 C 91 % 1032,3 hPa 0,0 l/m 16,1 km/h (3 Bft) W-SW 247 0 min 0,000 mm 0,0 UV-I 12 W/m 2,2 C -3,3 C 22,5 km/h (4 Bft) 95,65 %
21.12.2017 15:31 3,5 C 3,9 C 91 % 1032,3 hPa 0,0 l/m 19,3 km/h (3 Bft) W-SW 247 0 min 0,000 mm 0,0 UV-I 12 W/m 2,2 C -4,8 C 29,0 km/h (5 Bft) 95,65 %
21.12.2017 15:32 3,5 C 3,9 C 91 % 1032,3 hPa 0,0 l/m 19,3 km/h (3 Bft) W-SW 247 0 min 0,000 mm 0,0 UV-I 12 W/m 2,2 C -4,8 C 24,1 km/h (4 Bft) 100,00 %
21.12.2017 15:33 3,5 C 3,9 C 91 % 1032,3 hPa 0,0 l/m 16,1 km/h (3 Bft) W-SW 247 0 min 0,000 mm 0,0 UV-I 11 W/m 2,2 C -3,3 C 22,5 km/h (4 Bft) 100,00 %
21.12.2017 15:34 3,5 C 3,9 C 91 % 1032,3 hPa 0,0 l/m 12,9 km/h (3 Bft) W-SW 247 0 min 0,000 mm 0,0 UV-I 11 W/m 2,2 C -1,5 C 20,9 km/h (4 Bft) 100,00 %
21.12.2017 15:35 3,5 C 3,9 C 91 % 1032,3 hPa 0,0 l/m 17,7 km/h (3 Bft) W-SW 247 0 min 0,000 mm 0,0 UV-I 11 W/m 2,2 C -4,1 C 24,1 km/h (4 Bft) 95,65 %
21.12.2017 15:36 3,5 C 3,9 C 91 % 1032,3 hPa 0,0 l/m 17,7 km/h (3 Bft) W-SW 247 0 min 0,000 mm 0,0 UV-I 11 W/m 2,2 C -4,1 C 25,7 km/h (4 Bft) 95,65 %
21.12.2017 15:37 3,6 C 3,9 C 91 % 1032,4 hPa 0,0 l/m 14,5 km/h (3 Bft) W 270 0 min 0,000 mm 0,0 UV-I 11 W/m 2,3 C -2,3 C 20,9 km/h (4 Bft) 100,00 %
21.12.2017 15:38 3,5 C 3,9 C 91 % 1032,3 hPa 0,0 l/m 16,1 km/h (3 Bft) W-SW 247 0 min 0,000 mm 0,0 UV-I 11 W/m 2,2 C -3,3 C 24,1 km/h (4 Bft) 100,00 %
21.12.2017 15:39 3,5 C 3,9 C 91 % 1032,3 hPa 0,0 l/m 20,9 km/h (4 Bft) W-SW 247 0 min 0,000 mm 0,0 UV-I 9 W/m 2,2 C -5,5 C 33,8 km/h (5 Bft) 95,65 %
21.12.2017 15:40 3,5 C 3,9 C 91 % 1032,3 hPa 0,0 l/m 17,7 km/h (3 Bft) W 270 0 min 0,000 mm 0,0 UV-I 9 W/m 2,2 C -4,1 C 20,9 km/h (4 Bft) 100,00 %
21.12.2017 15:41 3,5 C 3,9 C 91 % 1032,3 hPa 0,0 l/m 16,1 km/h (3 Bft) W-SW 247 0 min 0,000 mm 0,0 UV-I 9 W/m 2,2 C -3,3 C 20,9 km/h (4 Bft) 100,00 %
21.12.2017 15:42 3,5 C 3,9 C 91 % 1032,3 hPa 0,0 l/m 12,9 km/h (3 Bft) W-SW 247 0 min 0,000 mm 0,0 UV-I 9 W/m 2,2 C -1,5 C 20,9 km/h (4 Bft) 95,65 %
21.12.2017 15:43 3,4 C 3,9 C 91 % 1032,3 hPa 0,0 l/m 14,5 km/h (3 Bft) W 270 0 min 0,000 mm 0,0 UV-I 9 W/m 2,1 C -2,6 C 20,9 km/h (4 Bft) 100,00 %
21.12.2017 15:44 3,5 C 3,9 C 91 % 1032,3 hPa 0,0 l/m 16,1 km/h (3 Bft) W-SW 247 0 min 0,000 mm 0,0 UV-I 7 W/m 2,2 C -3,3 C 22,5 km/h (4 Bft) 100,00 %
21.12.2017 15:45 3,5 C 3,9 C 91 % 1032,3 hPa 0,0 l/m 16,1 km/h (3 Bft) W 270 0 min 0,000 mm 0,0 UV-I 7 W/m 2,2 C -3,3 C 20,9 km/h (4 Bft) 100,00 %
21.12.2017 15:46 3,4 C 3,9 C 91 % 1032,3 hPa 0,0 l/m 12,9 km/h (3 Bft) W-SW 247 0 min 0,000 mm 0,0 UV-I 7 W/m 2,1 C -1,7 C 19,3 km/h (3 Bft) 95,65 %
21.12.2017 15:47 3,4 C 3,9 C 91 % 1032,3 hPa 0,0 l/m 14,5 km/h (3 Bft) W-SW 247 0 min 0,000 mm 0,0 UV-I 7 W/m 2,1 C -2,6 C 22,5 km/h (4 Bft) 100,00 %
21.12.2017 15:48 3,4 C 3,9 C 91 % 1032,3 hPa 0,0 l/m 16,1 km/h (3 Bft) W-SW 247 0 min 0,000 mm 0,0 UV-I 7 W/m 2,1 C -3,4 C 25,7 km/h (4 Bft) 100,00 %
21.12.2017 15:49 3,4 C 3,9 C 91 % 1032,3 hPa 0,0 l/m 22,5 km/h (4 Bft) W-SW 247 0 min 0,000 mm 0,0 UV-I 7 W/m 2,1 C -6,2 C 29,0 km/h (5 Bft) 95,65 %
21.12.2017 15:50 3,4 C 3,9 C 91 % 1032,3 hPa 0,0 l/m 16,1 km/h (3 Bft) W 270 0 min 0,000 mm 0,0 UV-I 7 W/m 2,1 C -3,4 C 19,3 km/h (3 Bft) 100,00 %
21.12.2017 15:51 3,4 C 3,9 C 91 % 1032,3 hPa 0,0 l/m 14,5 km/h (3 Bft) W 270 0 min 0,000 mm 0,0 UV-I 7 W/m 2,1 C -2,6 C 20,9 km/h (4 Bft) 100,00 %
21.12.2017 15:52 3,4 C 3,9 C 91 % 1032,3 hPa 0,0 l/m 16,1 km/h (3 Bft) W-SW 247 0 min 0,000 mm 0,0 UV-I 5 W/m 2,1 C -3,4 C 22,5 km/h (4 Bft) 95,65 %
21.12.2017 15:53 3,4 C 3,9 C 92 % 1032,3 hPa 0,0 l/m 14,5 km/h (3 Bft) W-SW 247 0 min 0,000 mm 0,0 UV-I 5 W/m 2,2 C -2,6 C 17,7 km/h (3 Bft) 100,00 %
21.12.2017 15:54 3,4 C 3,9 C 92 % 1032,3 hPa 0,0 l/m 19,3 km/h (3 Bft) W-SW 247 0 min 0,000 mm 0,0 UV-I 5 W/m 2,2 C -4,9 C 24,1 km/h (4 Bft) 95,65 %
21.12.2017 15:55 3,4 C 3,9 C 92 % 1032,3 hPa 0,0 l/m 14,5 km/h (3 Bft) W-SW 247 0 min 0,000 mm 0,0 UV-I 5 W/m 2,2 C -2,6 C 19,3 km/h (3 Bft) 95,65 %
21.12.2017 15:56 3,4 C 3,9 C 92 % 1032,3 hPa 0,0 l/m 12,9 km/h (3 Bft) W-SW 247 0 min 0,000 mm 0,0 UV-I 5 W/m 2,2 C -1,7 C 22,5 km/h (4 Bft) 91,30 %
21.12.2017 15:57 3,4 C 3,9 C 92 % 1032,3 hPa 0,0 l/m 16,1 km/h (3 Bft) W-SW 247 0 min 0,000 mm 0,0 UV-I 5 W/m 2,2 C -3,4 C 20,9 km/h (4 Bft) 100,00 %
21.12.2017 15:58 3,4 C 3,9 C 92 % 1032,3 hPa 0,0 l/m 16,1 km/h (3 Bft) W-SW 247 0 min 0,000 mm 0,0 UV-I 5 W/m 2,2 C -3,4 C 19,3 km/h (3 Bft) 95,65 %
21.12.2017 15:59 3,4 C 3,9 C 92 % 1032,3 hPa 0,0 l/m 16,1 km/h (3 Bft) W-SW 247 0 min 0,000 mm 0,0 UV-I 5 W/m 2,2 C -3,4 C 20,9 km/h (4 Bft) 91,30 %
21.12.2017 16:00 3,4 C 3,9 C 92 % 1032,3 hPa 0,0 l/m 14,5 km/h (3 Bft) W-SW 247 0 min 0,025 mm 0,0 UV-I 5 W/m 2,2 C -2,6 C 20,9 km/h (4 Bft) 100,00 %
21.12.2017 16:01 3,4 C 3,9 C 92 % 1032,3 hPa 0,0 l/m 14,5 km/h (3 Bft) W-SW 247 0 min 0,000 mm 0,0 UV-I 5 W/m 2,2 C -2,6 C 19,3 km/h (3 Bft) 95,65 %
21.12.2017 16:02 3,4 C 3,9 C 92 % 1032,3 hPa 0,0 l/m 16,1 km/h (3 Bft) W 270 0 min 0,000 mm 0,0 UV-I 5 W/m 2,2 C -3,4 C 20,9 km/h (4 Bft) 100,00 %
21.12.2017 16:03 3,4 C 3,9 C 92 % 1032,3 hPa 0,0 l/m 19,3 km/h (3 Bft) W 270 0 min 0,000 mm 0,0 UV-I 0 W/m 2,2 C -4,9 C 24,1 km/h (4 Bft) 91,30 %
21.12.2017 16:04 3,4 C 3,9 C 92 % 1032,2 hPa 0,0 l/m 16,1 km/h (3 Bft) W-SW 247 0 min 0,000 mm 0,0 UV-I 0 W/m 2,2 C -3,4 C 22,5 km/h (4 Bft) 100,00 %
21.12.2017 16:05 3,4 C 3,9 C 92 % 1032,3 hPa 0,0 l/m 14,5 km/h (3 Bft) W-SW 247 0 min 0,000 mm 0,0 UV-I 0 W/m 2,2 C -2,6 C 20,9 km/h (4 Bft) 95,65 %
21.12.2017 16:06 3,4 C 3,9 C 92 % 1032,3 hPa 0,2 l/m 9,7 km/h (2 Bft) W-SW 247 0 min 0,000 mm 0,0 UV-I 0 W/m 2,2 C 0,5 C 14,5 km/h (3 Bft) 100,00 %
21.12.2017 16:07 3,4 C 3,9 C 92 % 1032,3 hPa 0,0 l/m 14,5 km/h (3 Bft) W-SW 247 0 min 0,000 mm 0,0 UV-I 0 W/m 2,2 C -2,6 C 19,3 km/h (3 Bft) 95,65 %
21.12.2017 16:08 3,4 C 3,9 C 92 % 1032,3 hPa 0,0 l/m 17,7 km/h (3 Bft) W-SW 247 0 min 0,000 mm 0,0 UV-I 0 W/m 2,2 C -4,2 C 25,7 km/h (4 Bft) 95,65 %
21.12.2017 16:09 3,4 C 3,9 C 92 % 1032,3 hPa 0,0 l/m 12,9 km/h (3 Bft) W-SW 247 0 min 0,000 mm 0,0 UV-I 0 W/m 2,2 C -1,7 C 17,7 km/h (3 Bft) 95,65 %
21.12.2017 16:10 3,3 C 3,9 C 92 % 1032,2 hPa 0,0 l/m 14,5 km/h (3 Bft) W-SW 247 0 min 0,000 mm 0,0 UV-I 0 W/m 2,1 C -2,7 C 19,3 km/h (3 Bft) 86,96 %
21.12.2017 16:11 3,3 C 3,9 C 92 % 1032,3 hPa 0,0 l/m 16,1 km/h (3 Bft) W-SW 247 0 min 0,000 mm 0,0 UV-I 0 W/m 2,1 C -3,6 C 24,1 km/h (4 Bft) 95,65 %
21.12.2017 16:12 3,3 C 3,9 C 92 % 1032,2 hPa 0,0 l/m 14,5 km/h (3 Bft) W-SW 247 0 min 0,000 mm 0,0 UV-I 0 W/m 2,1 C -2,7 C 16,1 km/h (3 Bft) 95,65 %
21.12.2017 16:13 3,3 C 3,9 C 93 % 1032,2 hPa 0,0 l/m 11,3 km/h (2 Bft) SW 225 0 min 0,000 mm 0,0 UV-I 0 W/m 2,3 C -0,7 C 14,5 km/h (3 Bft) 91,30 %
21.12.2017 16:14 3,3 C 3,9 C 93 % 1032,2 hPa 0,0 l/m 12,9 km/h (3 Bft) W-SW 247 0 min 0,000 mm 0,0 UV-I 0 W/m 2,3 C -1,8 C 20,9 km/h (4 Bft) 95,65 %
21.12.2017 16:15 3,3 C 3,9 C 93 % 1032,2 hPa 0,0 l/m 16,1 km/h (3 Bft) W-SW 247 0 min 0,000 mm 0,0 UV-I 0 W/m 2,3 C -3,6 C 17,7 km/h (3 Bft) 100,00 %
21.12.2017 16:16 3,3 C 3,9 C 93 % 1032,2 hPa 0,0 l/m 12,9 km/h (3 Bft) W-SW 247 0 min 0,000 mm 0,0 UV-I 0 W/m 2,3 C -1,8 C 16,1 km/h (3 Bft) 95,65 %
21.12.2017 16:17 3,3 C 3,9 C 93 % 1032,3 hPa 0,0 l/m 14,5 km/h (3 Bft) W-SW 247 0 min 0,000 mm 0,0 UV-I 0 W/m 2,3 C -2,7 C 19,3 km/h (3 Bft) 95,65 %
21.12.2017 16:18 3,3 C 3,9 C 93 % 1032,3 hPa 0,0 l/m 12,9 km/h (3 Bft) W-SW 247 0 min 0,000 mm 0,0 UV-I 0 W/m 2,3 C -1,8 C 16,1 km/h (3 Bft) 100,00 %
21.12.2017 16:19 3,3 C 3,9 C 93 % 1032,4 hPa 0,0 l/m 14,5 km/h (3 Bft) W-SW 247 0 min 0,000 mm 0,0 UV-I 0 W/m 2,3 C -2,7 C 19,3 km/h (3 Bft) 95,65 %
21.12.2017 16:20 3,3 C 3,9 C 93 % 1032,2 hPa 0,0 l/m 14,5 km/h (3 Bft) W-SW 247 0 min 0,000 mm 0,0 UV-I 0 W/m 2,3 C -2,7 C 22,5 km/h (4 Bft) 100,00 %
21.12.2017 16:21 3,3 C 3,9 C 93 % 1032,3 hPa 0,0 l/m 12,9 km/h (3 Bft) W-SW 247 0 min 0,000 mm 0,0 UV-I 0 W/m 2,3 C -1,8 C 19,3 km/h (3 Bft) 91,30 %
21.12.2017 16:22 3,3 C 3,9 C 93 % 1032,2 hPa 0,0 l/m 16,1 km/h (3 Bft) W-SW 247 0 min 0,000 mm 0,0 UV-I 0 W/m 2,3 C -3,6 C 19,3 km/h (3 Bft) 100,00 %
21.12.2017 16:23 3,3 C 3,9 C 93 % 1032,3 hPa 0,0 l/m 12,9 km/h (3 Bft) W-SW 247 0 min 0,000 mm 0,0 UV-I 0 W/m 2,3 C -1,8 C 19,3 km/h (3 Bft) 100,00 %
21.12.2017 16:24 3,3 C 3,9 C 93 % 1032,3 hPa 0,0 l/m 12,9 km/h (3 Bft) W-SW 247 0 min 0,000 mm 0,0 UV-I 0 W/m 2,3 C -1,8 C 16,1 km/h (3 Bft) 95,65 %
21.12.2017 16:25 3,2 C 3,9 C 93 % 1032,2 hPa 0,0 l/m 12,9 km/h (3 Bft) W-SW 247 0 min 0,000 mm 0,0 UV-I 0 W/m 2,2 C -1,9 C 17,7 km/h (3 Bft) 95,65 %
21.12.2017 16:26 3,3 C 3,9 C 93 % 1032,2 hPa 0,0 l/m 19,3 km/h (3 Bft) W-SW 247 0 min 0,000 mm 0,0 UV-I 0 W/m 2,3 C -5,1 C 24,1 km/h (4 Bft) 100,00 %
21.12.2017 16:27 3,3 C 3,9 C 94 % 1032,2 hPa 0,2 l/m 14,5 km/h (3 Bft) W-SW 247 0 min 0,000 mm 0,0 UV-I 0 W/m 2,4 C -2,7 C 20,9 km/h (4 Bft) 95,65 %
21.12.2017 16:28 3,2 C 3,9 C 94 % 1032,2 hPa 0,0 l/m 14,5 km/h (3 Bft) W-SW 247 0 min 0,000 mm 0,0 UV-I 0 W/m 2,3 C -2,8 C 16,1 km/h (3 Bft) 100,00 %
21.12.2017 16:29 3,3 C 3,9 C 94 % 1032,3 hPa 0,0 l/m 12,9 km/h (3 Bft) W-SW 247 0 min 0,000 mm 0,0 UV-I 0 W/m 2,4 C -1,8 C 17,7 km/h (3 Bft) 95,65 %
21.12.2017 16:30 3,2 C 3,9 C 94 % 1032,3 hPa 0,0 l/m 14,5 km/h (3 Bft) W-SW 247 0 min 0,000 mm 0,0 UV-I 0 W/m 2,3 C -2,8 C 17,7 km/h (3 Bft) 95,65 %
21.12.2017 16:31 3,2 C 3,9 C 94 % 1032,2 hPa 0,0 l/m 12,9 km/h (3 Bft) W-SW 247 0 min 0,000 mm 0,0 UV-I 0 W/m 2,3 C -1,9 C 17,7 km/h (3 Bft) 95,65 %
21.12.2017 16:32 3,2 C 3,9 C 94 % 1032,2 hPa 0,0 l/m 12,9 km/h (3 Bft) W-SW 247 0 min 0,000 mm 0,0 UV-I 0 W/m 2,3 C -1,9 C 19,3 km/h (3 Bft) 100,00 %
21.12.2017 16:33 3,2 C 3,9 C 94 % 1032,2 hPa 0,0 l/m 12,9 km/h (3 Bft) W-SW 247 0 min 0,000 mm 0,0 UV-I 0 W/m 2,3 C -1,9 C 16,1 km/h (3 Bft) 95,65 %
21.12.2017 16:34 3,2 C 3,9 C 94 % 1032,3 hPa 0,0 l/m 14,5 km/h (3 Bft) W-SW 247 0 min 0,000 mm 0,0 UV-I 0 W/m 2,3 C -2,8 C 19,3 km/h (3 Bft) 95,65 %
21.12.2017 16:35 3,2 C 3,9 C 94 % 1032,2 hPa 0,0 l/m 12,9 km/h (3 Bft) W-SW 247 0 min 0,000 mm 0,0 UV-I 0 W/m 2,3 C -1,9 C 16,1 km/h (3 Bft) 100,00 %
21.12.2017 16:36 3,2 C 3,9 C 94 % 1032,2 hPa 0,0 l/m 12,9 km/h (3 Bft) W-SW 247 0 min 0,000 mm 0,0 UV-I 0 W/m 2,3 C -1,9 C 19,3 km/h (3 Bft) 100,00 %
21.12.2017 16:37 3,2 C 3,9 C 94 % 1032,3 hPa 0,0 l/m 11,3 km/h (2 Bft) W-SW 247 0 min 0,000 mm 0,0 UV-I 0 W/m 2,3 C -0,8 C 17,7 km/h (3 Bft) 100,00 %
21.12.2017 16:38 3,2 C 3,9 C 94 % 1032,3 hPa 0,0 l/m 11,3 km/h (2 Bft) W-SW 247 0 min 0,000 mm 0,0 UV-I 0 W/m 2,3 C -0,8 C 16,1 km/h (3 Bft) 91,30 %
21.12.2017 16:39 3,2 C 3,9 C 94 % 1032,3 hPa 0,0 l/m 16,1 km/h (3 Bft) W-SW 247 0 min 0,000 mm 0,0 UV-I 0 W/m 2,3 C -3,7 C 20,9 km/h (4 Bft) 100,00 %
21.12.2017 16:40 3,2 C 3,9 C 94 % 1032,3 hPa 0,2 l/m 12,9 km/h (3 Bft) W-SW 247 0 min 0,000 mm 0,0 UV-I 0 W/m 2,3 C -1,9 C 16,1 km/h (3 Bft) 100,00 %
21.12.2017 16:41 3,2 C 3,9 C 94 % 1032,3 hPa 0,0 l/m 9,7 km/h (2 Bft) W-SW 247 0 min 0,000 mm 0,0 UV-I 0 W/m 2,3 C 0,3 C 16,1 km/h (3 Bft) 100,00 %
21.12.2017 16:42 3,2 C 3,9 C 94 % 1032,3 hPa 0,0 l/m 14,5 km/h (3 Bft) W-SW 247 0 min 0,000 mm 0,0 UV-I 0 W/m 2,3 C -2,8 C 17,7 km/h (3 Bft) 100,00 %
21.12.2017 16:43 3,2 C 3,9 C 94 % 1032,3 hPa 0,0 l/m 12,9 km/h (3 Bft) W-SW 247 0 min 0,000 mm 0,0 UV-I 0 W/m 2,3 C -1,9 C 17,7 km/h (3 Bft) 100,00 %
21.12.2017 16:44 3,1 C 3,9 C 94 % 1032,3 hPa 0,0 l/m 16,1 km/h (3 Bft) W-SW 247 0 min 0,000 mm 0,0 UV-I 0 W/m 2,2 C -3,8 C 19,3 km/h (3 Bft) 100,00 %
21.12.2017 16:45 3,1 C 3,9 C 94 % 1032,3 hPa 0,0 l/m 12,9 km/h (3 Bft) W 270 0 min 0,000 mm 0,0 UV-I 0 W/m 2,2 C -2,0 C 17,7 km/h (3 Bft) 95,65 %
21.12.2017 16:46 3,1 C 3,9 C 94 % 1032,3 hPa 0,0 l/m 12,9 km/h (3 Bft) SW 225 0 min 0,000 mm 0,0 UV-I 0 W/m 2,2 C -2,0 C 19,3 km/h (3 Bft) 100,00 %
21.12.2017 16:47 3,1 C 3,9 C 94 % 1032,3 hPa 0,0 l/m 12,9 km/h (3 Bft) W-SW 247 0 min 0,000 mm 0,0 UV-I 0 W/m 2,2 C -2,0 C 19,3 km/h (3 Bft) 95,65 %
21.12.2017 16:48 3,1 C 3,9 C 94 % 1032,3 hPa 0,0 l/m 11,3 km/h (2 Bft) SW 225 0 min 0,000 mm 0,0 UV-I 0 W/m 2,2 C -1,0 C 16,1 km/h (3 Bft) 100,00 %
21.12.2017 16:49 3,1 C 3,9 C 94 % 1032,3 hPa 0,2 l/m 12,9 km/h (3 Bft) W-SW 247 0 min 0,000 mm 0,0 UV-I 0 W/m 2,2 C -2,0 C 17,7 km/h (3 Bft) 100,00 %
21.12.2017 16:50 3,1 C 3,9 C 94 % 1032,3 hPa 0,0 l/m 14,5 km/h (3 Bft) SW 225 0 min 0,000 mm 0,0 UV-I 0 W/m 2,2 C -2,9 C 22,5 km/h (4 Bft) 100,00 %
21.12.2017 16:51 3,1 C 3,9 C 94 % 1032,3 hPa 0,0 l/m 12,9 km/h (3 Bft) W-SW 247 0 min 0,000 mm 0,0 UV-I 0 W/m 2,2 C -2,0 C 17,7 km/h (3 Bft) 95,65 %
21.12.2017 16:52 3,1 C 3,9 C 94 % 1032,3 hPa 0,0 l/m 9,7 km/h (2 Bft) SW 225 0 min 0,000 mm 0,0 UV-I 0 W/m 2,2 C 0,2 C 14,5 km/h (3 Bft) 91,30 %
21.12.2017 16:53 3,1 C 3,9 C 94 % 1032,3 hPa 0,0 l/m 11,3 km/h (2 Bft) W-SW 247 0 min 0,000 mm 0,0 UV-I 0 W/m 2,2 C -1,0 C 16,1 km/h (3 Bft) 95,65 %
21.12.2017 16:54 3,1 C 3,9 C 94 % 1032,4 hPa 0,0 l/m 12,9 km/h (3 Bft) W-SW 247 0 min 0,000 mm 0,0 UV-I 0 W/m 2,2 C -2,0 C 16,1 km/h (3 Bft) 95,65 %
21.12.2017 16:55 3,1 C 3,9 C 94 % 1032,3 hPa 0,0 l/m 14,5 km/h (3 Bft) W-SW 247 0 min 0,000 mm 0,0 UV-I 0 W/m 2,2 C -2,9 C 19,3 km/h (3 Bft) 100,00 %
21.12.2017 16:56 3,1 C 3,9 C 94 % 1032,3 hPa 0,0 l/m 12,9 km/h (3 Bft) W-SW 247 0 min 0,000 mm 0,0 UV-I 0 W/m 2,2 C -2,0 C 14,5 km/h (3 Bft) 91,30 %
21.12.2017 16:57 3,1 C 3,9 C 94 % 1032,4 hPa 0,0 l/m 9,7 km/h (2 Bft) W-SW 247 0 min 0,000 mm 0,0 UV-I 0 W/m 2,2 C 0,2 C 12,9 km/h (3 Bft) 100,00 %
21.12.2017 16:58 3,1 C 3,9 C 94 % 1032,4 hPa 0,0 l/m 11,3 km/h (2 Bft) SW 225 0 min 0,000 mm 0,0 UV-I 0 W/m 2,2 C -1,0 C 16,1 km/h (3 Bft) 95,65 %
21.12.2017 16:59 3,1 C 3,9 C 94 % 1032,4 hPa 0,2 l/m 11,3 km/h (2 Bft) SW 225 0 min 0,000 mm 0,0 UV-I 0 W/m 2,2 C -1,0 C 17,7 km/h (3 Bft) 95,65 %
21.12.2017 17:00 3,1 C 3,9 C 94 % 1032,3 hPa 0,0 l/m 12,9 km/h (3 Bft) SW 225 0 min 0,000 mm 0,0 UV-I 0 W/m 2,2 C -2,0 C 17,7 km/h (3 Bft) 86,96 %
21.12.2017 17:01 3,1 C 3,9 C 94 % 1032,3 hPa 0,0 l/m 11,3 km/h (2 Bft) W-SW 247 0 min 0,000 mm 0,0 UV-I 0 W/m 2,2 C -1,0 C 16,1 km/h (3 Bft) 91,30 %
21.12.2017 17:02 3,1 C 3,9 C 94 % 1032,3 hPa 0,0 l/m 14,5 km/h (3 Bft) SW 225 0 min 0,000 mm 0,0 UV-I 0 W/m 2,2 C -2,9 C 24,1 km/h (4 Bft) 95,65 %
21.12.2017 17:03 3,1 C 3,9 C 94 % 1032,4 hPa 0,0 l/m 14,5 km/h (3 Bft) SW 225 0 min 0,000 mm 0,0 UV-I 0 W/m 2,2 C -2,9 C 17,7 km/h (3 Bft) 95,65 %
21.12.2017 17:04 3,1 C 3,9 C 94 % 1032,3 hPa 0,0 l/m 12,9 km/h (3 Bft) W-SW 247 0 min 0,000 mm 0,0 UV-I 0 W/m 2,2 C -2,0 C 16,1 km/h (3 Bft) 100,00 %
21.12.2017 17:05 3,1 C 3,9 C 94 % 1032,3 hPa 0,0 l/m 9,7 km/h (2 Bft) W-SW 247 0 min 0,000 mm 0,0 UV-I 0 W/m 2,2 C 0,2 C 16,1 km/h (3 Bft) 95,65 %
21.12.2017 17:06 3,1 C 3,9 C 94 % 1032,3 hPa 0,2 l/m 12,9 km/h (3 Bft) W-SW 247 0 min 0,000 mm 0,0 UV-I 0 W/m 2,2 C -2,0 C 17,7 km/h (3 Bft) 95,65 %
21.12.2017 17:07 3,1 C 3,9 C 94 % 1032,4 hPa 0,0 l/m 14,5 km/h (3 Bft) W-SW 247 0 min 0,000 mm 0,0 UV-I 0 W/m 2,2 C -2,9 C 25,7 km/h (4 Bft) 91,30 %
21.12.2017 17:08 3,1 C 3,9 C 94 % 1032,3 hPa 0,0 l/m 12,9 km/h (3 Bft) W-SW 247 0 min 0,000 mm 0,0 UV-I 0 W/m 2,2 C -2,0 C 19,3 km/h (3 Bft) 100,00 %
21.12.2017 17:09 3,1 C 3,9 C 95 % 1032,3 hPa 0,0 l/m 19,3 km/h (3 Bft) SW 225 0 min 0,000 mm 0,0 UV-I 0 W/m 2,4 C -5,3 C 22,5 km/h (4 Bft) 95,65 %
21.12.2017 17:10 3,1 C 3,9 C 95 % 1032,3 hPa 0,0 l/m 14,5 km/h (3 Bft) SW 225 0 min 0,000 mm 0,0 UV-I 0 W/m 2,4 C -2,9 C 20,9 km/h (4 Bft) 91,30 %
21.12.2017 17:11 3,1 C 3,9 C 95 % 1032,3 hPa 0,0 l/m 16,1 km/h (3 Bft) SW 225 0 min 0,000 mm 0,0 UV-I 0 W/m 2,4 C -3,8 C 20,9 km/h (4 Bft) 100,00 %
21.12.2017 17:12 3,1 C 3,9 C 95 % 1032,3 hPa 0,0 l/m 14,5 km/h (3 Bft) W-SW 247 0 min 0,000 mm 0,0 UV-I 0 W/m 2,4 C -2,9 C 19,3 km/h (3 Bft) 95,65 %
21.12.2017 17:13 3,1 C 3,9 C 95 % 1032,3 hPa 0,0 l/m 12,9 km/h (3 Bft) W-SW 247 0 min 0,000 mm 0,0 UV-I 0 W/m 2,4 C -2,0 C 17,7 km/h (3 Bft) 95,65 %
21.12.2017 17:14 3,1 C 3,9 C 95 % 1032,3 hPa 0,0 l/m 14,5 km/h (3 Bft) SW 225 0 min 0,000 mm 0,0 UV-I 0 W/m 2,4 C -2,9 C 19,3 km/h (3 Bft) 91,30 %
21.12.2017 17:15 3,1 C 3,9 C 95 % 1032,3 hPa 0,0 l/m 19,3 km/h (3 Bft) SW 225 0 min 0,000 mm 0,0 UV-I 0 W/m 2,4 C -5,3 C 24,1 km/h (4 Bft) 95,65 %
21.12.2017 17:16 3,1 C 3,9 C 95 % 1032,3 hPa 0,0 l/m 14,5 km/h (3 Bft) SW 225 0 min 0,000 mm 0,0 UV-I 0 W/m 2,4 C -2,9 C 22,5 km/h (4 Bft) 95,65 %
21.12.2017 17:17 3,1 C 3,9 C 95 % 1032,3 hPa 0,0 l/m 20,9 km/h (4 Bft) SW 225 0 min 0,000 mm 0,0 UV-I 0 W/m 2,4 C -6,0 C 29,0 km/h (5 Bft) 91,30 %
21.12.2017 17:18 3,2 C 3,9 C 95 % 1032,3 hPa 0,2 l/m 14,5 km/h (3 Bft) W-SW 247 0 min 0,000 mm 0,0 UV-I 0 W/m 2,5 C -2,8 C 19,3 km/h (3 Bft) 95,65 %
21.12.2017 17:19 3,2 C 3,9 C 95 % 1032,4 hPa 0,0 l/m 14,5 km/h (3 Bft) W-SW 247 0 min 0,000 mm 0,0 UV-I 0 W/m 2,5 C -2,8 C 22,5 km/h (4 Bft) 91,30 %
21.12.2017 17:20 3,2 C 3,9 C 95 % 1032,3 hPa 0,0 l/m 16,1 km/h (3 Bft) SW 225 0 min 0,000 mm 0,0 UV-I 0 W/m 2,5 C -3,7 C 20,9 km/h (4 Bft) 91,30 %
21.12.2017 17:21 3,2 C 3,9 C 95 % 1032,4 hPa 0,0 l/m 12,9 km/h (3 Bft) SW 225 0 min 0,000 mm 0,0 UV-I 0 W/m 2,5 C -1,9 C 20,9 km/h (4 Bft) 95,65 %
21.12.2017 17:22 3,2 C 3,9 C 95 % 1032,4 hPa 0,0 l/m 16,1 km/h (3 Bft) SW 225 0 min 0,000 mm 0,0 UV-I 0 W/m 2,5 C -3,7 C 20,9 km/h (4 Bft) 95,65 %
21.12.2017 17:23 3,2 C 3,9 C 95 % 1032,3 hPa 0,0 l/m 16,1 km/h (3 Bft) SW 225 0 min 0,000 mm 0,0 UV-I 0 W/m 2,5 C -3,7 C 20,9 km/h (4 Bft) 95,65 %
21.12.2017 17:24 3,2 C 3,9 C 95 % 1032,3 hPa 0,0 l/m 17,7 km/h (3 Bft) SW 225 0 min 0,000 mm 0,0 UV-I 0 W/m 2,5 C -4,5 C 24,1 km/h (4 Bft) 95,65 %
21.12.2017 17:25 3,2 C 3,9 C 95 % 1032,3 hPa 0,0 l/m 17,7 km/h (3 Bft) W-SW 247 0 min 0,000 mm 0,0 UV-I 0 W/m 2,5 C -4,5 C 24,1 km/h (4 Bft) 95,65 %
21.12.2017 17:26 3,2 C 3,9 C 95 % 1032,4 hPa 0,0 l/m 17,7 km/h (3 Bft) SW 225 0 min 0,000 mm 0,0 UV-I 0 W/m 2,5 C -4,5 C 25,7 km/h (4 Bft) 91,30 %
21.12.2017 17:27 3,2 C 3,9 C 95 % 1032,3 hPa 0,0 l/m 20,9 km/h (4 Bft) SW 225 0 min 0,000 mm 0,0 UV-I 0 W/m 2,5 C -5,9 C 30,6 km/h (5 Bft) 95,65 %
21.12.2017 17:28 3,2 C 3,9 C 95 % 1032,3 hPa 0,2 l/m 17,7 km/h (3 Bft) SW 225 0 min 0,000 mm 0,0 UV-I 0 W/m 2,5 C -4,5 C 25,7 km/h (4 Bft) 91,30 %
21.12.2017 17:29 3,2 C 3,9 C 95 % 1032,3 hPa 0,0 l/m 14,5 km/h (3 Bft) SW 225 0 min 0,000 mm 0,0 UV-I 0 W/m 2,5 C -2,8 C 24,1 km/h (4 Bft) 100,00 %
21.12.2017 17:30 3,2 C 3,9 C 95 % 1032,3 hPa 0,0 l/m 12,9 km/h (3 Bft) W-SW 247 0 min 0,000 mm 0,0 UV-I 0 W/m 2,5 C -1,9 C 20,9 km/h (4 Bft) 95,65 %
21.12.2017 17:31 3,2 C 3,9 C 95 % 1032,3 hPa 0,0 l/m 12,9 km/h (3 Bft) SW 225 0 min 0,000 mm 0,0 UV-I 0 W/m 2,5 C -1,9 C 22,5 km/h (4 Bft) 100,00 %
21.12.2017 17:32 3,2 C 3,9 C 95 % 1032,4 hPa 0,0 l/m 16,1 km/h (3 Bft) SW 225 0 min 0,000 mm 0,0 UV-I 0 W/m 2,5 C -3,7 C 20,9 km/h (4 Bft) 95,65 %
21.12.2017 17:33 3,2 C 3,9 C 95 % 1032,4 hPa 0,0 l/m 14,5 km/h (3 Bft) W-SW 247 0 min 0,000 mm 0,0 UV-I 0 W/m 2,5 C -2,8 C 19,3 km/h (3 Bft) 95,65 %
21.12.2017 17:34 3,2 C 3,9 C 95 % 1032,3 hPa 0,0 l/m 14,5 km/h (3 Bft) SW 225 0 min 0,000 mm 0,0 UV-I 0 W/m 2,5 C -2,8 C 20,9 km/h (4 Bft) 95,65 %
21.12.2017 17:35 3,2 C 3,9 C 95 % 1032,4 hPa 0,0 l/m 14,5 km/h (3 Bft) SW 225 0 min 0,000 mm 0,0 UV-I 0 W/m 2,5 C -2,8 C 17,7 km/h (3 Bft) 95,65 %
21.12.2017 17:36 3,2 C 3,9 C 95 % 1032,4 hPa 0,0 l/m 17,7 km/h (3 Bft) SW 225 0 min 0,000 mm 0,0 UV-I 0 W/m 2,5 C -4,5 C 29,0 km/h (5 Bft) 100,00 %
21.12.2017 17:37 3,2 C 3,9 C 95 % 1032,4 hPa 0,2 l/m 14,5 km/h (3 Bft) W-SW 247 0 min 0,000 mm 0,0 UV-I 0 W/m 2,5 C -2,8 C 20,9 km/h (4 Bft) 95,65 %
21.12.2017 17:38 3,2 C 3,9 C 95 % 1032,4 hPa 0,0 l/m 12,9 km/h (3 Bft) W-SW 247 0 min 0,000 mm 0,0 UV-I 0 W/m 2,5 C -1,9 C 19,3 km/h (3 Bft) 100,00 %
21.12.2017 17:39 3,2 C 3,9 C 95 % 1032,4 hPa 0,0 l/m 14,5 km/h (3 Bft) W-SW 247 0 min 0,000 mm 0,0 UV-I 0 W/m 2,5 C -2,8 C 22,5 km/h (4 Bft) 95,65 %
21.12.2017 17:40 3,2 C 3,9 C 95 % 1032,4 hPa 0,0 l/m 14,5 km/h (3 Bft) SW 225 0 min 0,000 mm 0,0 UV-I 0 W/m 2,5 C -2,8 C 19,3 km/h (3 Bft) 100,00 %
21.12.2017 17:41 3,3 C 3,9 C 95 % 1032,4 hPa 0,0 l/m 14,5 km/h (3 Bft) W-SW 247 0 min 0,000 mm 0,0 UV-I 0 W/m 2,6 C -2,7 C 20,9 km/h (4 Bft) 86,96 %
21.12.2017 17:42 3,3 C 3,9 C 95 % 1032,4 hPa 0,0 l/m 14,5 km/h (3 Bft) W-SW 247 0 min 0,000 mm 0,0 UV-I 0 W/m 2,6 C -2,7 C 17,7 km/h (3 Bft) 100,00 %
21.12.2017 17:43 3,3 C 3,9 C 95 % 1032,4 hPa 0,2 l/m 14,5 km/h (3 Bft) SW 225 0 min 0,000 mm 0,0 UV-I 0 W/m 2,6 C -2,7 C 20,9 km/h (4 Bft) 95,65 %
21.12.2017 17:44 3,3 C 3,9 C 95 % 1032,4 hPa 0,0 l/m 16,1 km/h (3 Bft) W-SW 247 0 min 0,000 mm 0,0 UV-I 0 W/m 2,6 C -3,6 C 22,5 km/h (4 Bft) 100,00 %
21.12.2017 17:45 3,3 C 3,9 C 95 % 1032,5 hPa 0,0 l/m 17,7 km/h (3 Bft) W-SW 247 0 min 0,000 mm 0,0 UV-I 0 W/m 2,6 C -4,3 C 27,4 km/h (4 Bft) 100,00 %
21.12.2017 17:46 3,3 C 3,9 C 95 % 1032,5 hPa 0,0 l/m 20,9 km/h (4 Bft) SW 225 0 min 0,000 mm 0,0 UV-I 0 W/m 2,6 C -5,7 C 29,0 km/h (5 Bft) 95,65 %
21.12.2017 17:47 3,3 C 3,9 C 95 % 1032,4 hPa 0,0 l/m 16,1 km/h (3 Bft) SW 225 0 min 0,000 mm 0,0 UV-I 0 W/m 2,6 C -3,6 C 24,1 km/h (4 Bft) 100,00 %
21.12.2017 17:48 3,3 C 3,9 C 95 % 1032,5 hPa 0,0 l/m 12,9 km/h (3 Bft) W-SW 247 0 min 0,000 mm 0,0 UV-I 0 W/m 2,6 C -1,8 C 17,7 km/h (3 Bft) 95,65 %
21.12.2017 17:49 3,3 C 3,9 C 95 % 1032,4 hPa 0,0 l/m 17,7 km/h (3 Bft) SW 225 0 min 0,000 mm 0,0 UV-I 0 W/m 2,6 C -4,3 C 25,7 km/h (4 Bft) 100,00 %
21.12.2017 17:50 3,3 C 3,9 C 95 % 1032,5 hPa 0,0 l/m 16,1 km/h (3 Bft) SW 225 0 min 0,000 mm 0,0 UV-I 0 W/m 2,6 C -3,6 C 19,3 km/h (3 Bft) 100,00 %
21.12.2017 17:51 3,3 C 3,9 C 95 % 1032,5 hPa 0,0 l/m 14,5 km/h (3 Bft) SW 225 0 min 0,000 mm 0,0 UV-I 0 W/m 2,6 C -2,7 C 20,9 km/h (4 Bft) 100,00 %
21.12.2017 17:52 3,3 C 3,9 C 95 % 1032,4 hPa 0,2 l/m 16,1 km/h (3 Bft) W-SW 247 0 min 0,000 mm 0,0 UV-I 0 W/m 2,6 C -3,6 C 20,9 km/h (4 Bft) 100,00 %
21.12.2017 17:53 3,3 C 3,9 C 95 % 1032,4 hPa 0,0 l/m 11,3 km/h (2 Bft) SW 225 0 min 0,000 mm 0,0 UV-I 0 W/m 2,6 C -0,7 C 17,7 km/h (3 Bft) 95,65 %
21.12.2017 17:54 3,3 C 3,9 C 95 % 1032,5 hPa 0,0 l/m 11,3 km/h (2 Bft) W-SW 247 0 min 0,000 mm 0,0 UV-I 0 W/m 2,6 C -0,7 C 16,1 km/h (3 Bft) 100,00 %
21.12.2017 17:55 3,3 C 3,9 C 95 % 1032,5 hPa 0,0 l/m 12,9 km/h (3 Bft) W-SW 247 0 min 0,000 mm 0,0 UV-I 0 W/m 2,6 C -1,8 C 16,1 km/h (3 Bft) 95,65 %
21.12.2017 17:56 3,2 C 3,9 C 95 % 1032,4 hPa 0,0 l/m 16,1 km/h (3 Bft) SW 225 0 min 0,000 mm 0,0 UV-I 0 W/m 2,5 C -3,7 C 19,3 km/h (3 Bft) 100,00 %
21.12.2017 17:57 3,3 C 3,9 C 95 % 1032,5 hPa 0,2 l/m 14,5 km/h (3 Bft) W-SW 247 0 min 0,000 mm 0,0 UV-I 0 W/m 2,6 C -2,7 C 19,3 km/h (3 Bft) 100,00 %
21.12.2017 17:58 3,2 C 3,9 C 95 % 1032,5 hPa 0,0 l/m 12,9 km/h (3 Bft) W-SW 247 0 min 0,000 mm 0,0 UV-I 0 W/m 2,5 C -1,9 C 19,3 km/h (3 Bft) 95,65 %
21.12.2017 17:59 3,3 C 3,9 C 95 % 1032,5 hPa 0,0 l/m 14,5 km/h (3 Bft) W-SW 247 0 min 0,000 mm 0,0 UV-I 0 W/m 2,6 C -2,7 C 19,3 km/h (3 Bft) 95,65 %
21.12.2017 18:00 3,2 C 3,9 C 95 % 1032,4 hPa 0,0 l/m 16,1 km/h (3 Bft) W-SW 247 0 min 0,000 mm 0,0 UV-I 0 W/m 2,5 C -3,7 C 20,9 km/h (4 Bft) 100,00 %
21.12.2017 18:01 3,3 C 3,9 C 95 % 1032,4 hPa 0,0 l/m 14,5 km/h (3 Bft) SW 225 0 min 0,000 mm 0,0 UV-I 0 W/m 2,6 C -2,7 C 22,5 km/h (4 Bft) 100,00 %
21.12.2017 18:02 3,3 C 3,9 C 95 % 1032,5 hPa 0,0 l/m 11,3 km/h (2 Bft) SW 225 0 min 0,000 mm 0,0 UV-I 0 W/m 2,6 C -0,7 C 16,1 km/h (3 Bft) 95,65 %
21.12.2017 18:03 3,2 C 3,9 C 95 % 1032,5 hPa 0,2 l/m 14,5 km/h (3 Bft) SW 225 0 min 0,000 mm 0,0 UV-I 0 W/m 2,5 C -2,8 C 19,3 km/h (3 Bft) 100,00 %
21.12.2017 18:04 3,3 C 3,9 C 95 % 1032,5 hPa 0,0 l/m 14,5 km/h (3 Bft) W-SW 247 0 min 0,000 mm 0,0 UV-I 0 W/m 2,6 C -2,7 C 22,5 km/h (4 Bft) 100,00 %
21.12.2017 18:05 3,3 C 3,9 C 95 % 1032,5 hPa 0,0 l/m 14,5 km/h (3 Bft) SW 225 0 min 0,000 mm 0,0 UV-I 0 W/m 2,6 C -2,7 C 19,3 km/h (3 Bft) 100,00 %
21.12.2017 18:06 3,3 C 3,9 C 95 % 1032,5 hPa 0,0 l/m 12,9 km/h (3 Bft) SW 225 0 min 0,000 mm 0,0 UV-I 0 W/m 2,6 C -1,8 C 19,3 km/h (3 Bft) 100,00 %
21.12.2017 18:07 3,3 C 3,9 C 95 % 1032,4 hPa 0,0 l/m 12,9 km/h (3 Bft) SW 225 0 min 0,000 mm 0,0 UV-I 0 W/m 2,6 C -1,8 C 22,5 km/h (4 Bft) 100,00 %
21.12.2017 18:08 3,3 C 3,9 C 95 % 1032,5 hPa 0,2 l/m 16,1 km/h (3 Bft) W-SW 247 0 min 0,000 mm 0,0 UV-I 0 W/m 2,6 C -3,6 C 24,1 km/h (4 Bft) 100,00 %
21.12.2017 18:09 3,3 C 3,9 C 95 % 1032,4 hPa 0,0 l/m 12,9 km/h (3 Bft) SW 225 0 min 0,000 mm 0,0 UV-I 0 W/m 2,6 C -1,8 C 19,3 km/h (3 Bft) 95,65 %
21.12.2017 18:10 3,3 C 3,9 C 95 % 1032,5 hPa 0,0 l/m 14,5 km/h (3 Bft) W-SW 247 0 min 0,000 mm 0,0 UV-I 0 W/m 2,6 C -2,7 C 16,1 km/h (3 Bft) 100,00 %
21.12.2017 18:11 3,3 C 3,9 C 95 % 1032,5 hPa 0,0 l/m 11,3 km/h (2 Bft) W-SW 247 0 min 0,000 mm 0,0 UV-I 0 W/m 2,6 C -0,7 C 17,7 km/h (3 Bft) 100,00 %
21.12.2017 18:12 3,3 C 3,9 C 95 % 1032,5 hPa 0,0 l/m 16,1 km/h (3 Bft) SW 225 0 min 0,000 mm 0,0 UV-I 0 W/m 2,6 C -3,6 C 20,9 km/h (4 Bft) 100,00 %
21.12.2017 18:13 3,3 C 3,9 C 95 % 1032,5 hPa 0,0 l/m 17,7 km/h (3 Bft) W-SW 247 0 min 0,000 mm 0,0 UV-I 0 W/m 2,6 C -4,3 C 24,1 km/h (4 Bft) 100,00 %
21.12.2017 18:14 3,3 C 3,9 C 95 % 1032,5 hPa 0,0 l/m 16,1 km/h (3 Bft) SW 225 0 min 0,000 mm 0,0 UV-I 0 W/m 2,6 C -3,6 C 19,3 km/h (3 Bft) 100,00 %
21.12.2017 18:15 3,3 C 3,9 C 95 % 1032,5 hPa 0,2 l/m 12,9 km/h (3 Bft) SW 225 0 min 0,000 mm 0,0 UV-I 0 W/m 2,6 C -1,8 C 17,7 km/h (3 Bft) 100,00 %
21.12.2017 18:16 3,3 C 3,9 C 95 % 1032,5 hPa 0,0 l/m 14,5 km/h (3 Bft) W-SW 247 0 min 0,000 mm 0,0 UV-I 0 W/m 2,6 C -2,7 C 20,9 km/h (4 Bft) 95,65 %
21.12.2017 18:17 3,3 C 3,9 C 95 % 1032,5 hPa 0,0 l/m 12,9 km/h (3 Bft) W-SW 247 0 min 0,000 mm 0,0 UV-I 0 W/m 2,6 C -1,8 C 19,3 km/h (3 Bft) 100,00 %
21.12.2017 18:18 3,3 C 3,9 C 95 % 1032,4 hPa 0,0 l/m 16,1 km/h (3 Bft) W-SW 247 0 min 0,000 mm 0,0 UV-I 0 W/m 2,6 C -3,6 C 24,1 km/h (4 Bft) 100,00 %
21.12.2017 18:19 3,3 C 3,9 C 95 % 1032,5 hPa 0,2 l/m 12,9 km/h (3 Bft) W-SW 247 0 min 0,000 mm 0,0 UV-I 0 W/m 2,6 C -1,8 C 20,9 km/h (4 Bft) 100,00 %
21.12.2017 18:20 3,3 C 3,9 C 95 % 1032,5 hPa 0,0 l/m 17,7 km/h (3 Bft) W-SW 247 0 min 0,000 mm 0,0 UV-I 0 W/m 2,6 C -4,3 C 27,4 km/h (4 Bft) 100,00 %
21.12.2017 18:21 3,3 C 3,9 C 95 % 1032,5 hPa 0,0 l/m 14,5 km/h (3 Bft) W-SW 247 0 min 0,000 mm 0,0 UV-I 0 W/m 2,6 C -2,7 C 19,3 km/h (3 Bft) 100,00 %
21.12.2017 18:22 3,3 C 3,9 C 95 % 1032,5 hPa 0,0 l/m 11,3 km/h (2 Bft) SW 225 0 min 0,000 mm 0,0 UV-I 0 W/m 2,6 C -0,7 C 16,1 km/h (3 Bft) 100,00 %
21.12.2017 18:23 3,3 C 3,9 C 95 % 1032,5 hPa 0,0 l/m 17,7 km/h (3 Bft) W-SW 247 0 min 0,000 mm 0,0 UV-I 0 W/m 2,6 C -4,3 C 27,4 km/h (4 Bft) 91,30 %
21.12.2017 18:24 3,3 C 3,9 C 95 % 1032,5 hPa 0,0 l/m 16,1 km/h (3 Bft) SW 225 0 min 0,000 mm 0,0 UV-I 0 W/m 2,6 C -3,6 C 24,1 km/h (4 Bft) 100,00 %
21.12.2017 18:25 3,3 C 3,9 C 95 % 1032,5 hPa 0,2 l/m 12,9 km/h (3 Bft) W-SW 247 0 min 0,000 mm 0,0 UV-I 0 W/m 2,6 C -1,8 C 19,3 km/h (3 Bft) 100,00 %
21.12.2017 18:26 3,3 C 3,9 C 95 % 1032,5 hPa 0,0 l/m 9,7 km/h (2 Bft) W-SW 247 0 min 0,000 mm 0,0 UV-I 0 W/m 2,6 C 0,4 C 12,9 km/h (3 Bft) 95,65 %
21.12.2017 18:27 3,3 C 3,9 C 95 % 1032,5 hPa 0,0 l/m 12,9 km/h (3 Bft) SW 225 0 min 0,000 mm 0,0 UV-I 0 W/m 2,6 C -1,8 C 20,9 km/h (4 Bft) 100,00 %
21.12.2017 18:28 3,3 C 3,9 C 95 % 1032,5 hPa 0,0 l/m 14,5 km/h (3 Bft) W-SW 247 0 min 0,000 mm 0,0 UV-I 0 W/m 2,6 C -2,7 C 20,9 km/h (4 Bft) 95,65 %
21.12.2017 18:29 3,3 C 3,9 C 95 % 1032,5 hPa 0,0 l/m 11,3 km/h (2 Bft) SW 225 0 min 0,000 mm 0,0 UV-I 0 W/m 2,6 C -0,7 C 14,5 km/h (3 Bft) 100,00 %
21.12.2017 18:30 3,3 C 3,9 C 95 % 1032,5 hPa 0,2 l/m 12,9 km/h (3 Bft) SW 225 0 min 0,000 mm 0,0 UV-I 0 W/m 2,6 C -1,8 C 17,7 km/h (3 Bft) 95,65 %
21.12.2017 18:31 3,3 C 3,9 C 95 % 1032,5 hPa 0,0 l/m 12,9 km/h (3 Bft) W-SW 247 0 min 0,000 mm 0,0 UV-I 0 W/m 2,6 C -1,8 C 19,3 km/h (3 Bft) 100,00 %
21.12.2017 18:32 3,3 C 3,9 C 95 % 1032,5 hPa 0,0 l/m 11,3 km/h (2 Bft) W-SW 247 0 min 0,000 mm 0,0 UV-I 0 W/m 2,6 C -0,7 C 19,3 km/h (3 Bft) 95,65 %
21.12.2017 18:33 3,3 C 3,9 C 95 % 1032,5 hPa 0,0 l/m 14,5 km/h (3 Bft) W-SW 247 0 min 0,000 mm 0,0 UV-I 0 W/m 2,6 C -2,7 C 17,7 km/h (3 Bft) 100,00 %
21.12.2017 18:34 3,3 C 3,9 C 95 % 1032,5 hPa 0,0 l/m 14,5 km/h (3 Bft) SW 225 0 min 0,000 mm 0,0 UV-I 0 W/m 2,6 C -2,7 C 22,5 km/h (4 Bft) 100,00 %
21.12.2017 18:35 3,3 C 3,9 C 95 % 1032,5 hPa 0,2 l/m 12,9 km/h (3 Bft) SW 225 0 min 0,000 mm 0,0 UV-I 0 W/m 2,6 C -1,8 C 22,5 km/h (4 Bft) 100,00 %
21.12.2017 18:36 3,3 C 3,9 C 95 % 1032,5 hPa 0,0 l/m 12,9 km/h (3 Bft) W-SW 247 0 min 0,000 mm 0,0 UV-I 0 W/m 2,6 C -1,8 C 17,7 km/h (3 Bft) 100,00 %
21.12.2017 18:37 3,3 C 3,9 C 95 % 1032,5 hPa 0,0 l/m 8,0 km/h (2 Bft) W-SW 247 0 min 0,000 mm 0,0 UV-I 0 W/m 2,6 C 1,8 C 12,9 km/h (3 Bft) 95,65 %
21.12.2017 18:38 3,3 C 3,9 C 95 % 1032,5 hPa 0,0 l/m 14,5 km/h (3 Bft) W 270 0 min 0,000 mm 0,0 UV-I 0 W/m 2,6 C -2,7 C 19,3 km/h (3 Bft) 100,00 %
21.12.2017 18:39 3,3 C 3,9 C 95 % 1032,5 hPa 0,0 l/m 12,9 km/h (3 Bft) SW 225 0 min 0,000 mm 0,0 UV-I 0 W/m 2,6 C -1,8 C 17,7 km/h (3 Bft) 95,65 %
21.12.2017 18:40 3,3 C 3,9 C 95 % 1032,5 hPa 0,2 l/m 14,5 km/h (3 Bft) SW 225 0 min 0,000 mm 0,0 UV-I 0 W/m 2,6 C -2,7 C 20,9 km/h (4 Bft) 95,65 %
21.12.2017 18:41 3,3 C 3,9 C 95 % 1032,6 hPa 0,0 l/m 14,5 km/h (3 Bft) W-SW 247 0 min 0,000 mm 0,0 UV-I 0 W/m 2,6 C -2,7 C 22,5 km/h (4 Bft) 100,00 %
21.12.2017 18:42 3,3 C 3,9 C 95 % 1032,5 hPa 0,0 l/m 14,5 km/h (3 Bft) W-SW 247 0 min 0,000 mm 0,0 UV-I 0 W/m 2,6 C -2,7 C 22,5 km/h (4 Bft) 95,65 %
21.12.2017 18:43 3,4 C 3,9 C 95 % 1032,6 hPa 0,0 l/m 16,1 km/h (3 Bft) W-SW 247 0 min 0,000 mm 0,0 UV-I 0 W/m 2,7 C -3,4 C 20,9 km/h (4 Bft) 100,00 %
21.12.2017 18:44 3,4 C 3,9 C 95 % 1032,5 hPa 0,0 l/m 16,1 km/h (3 Bft) W-SW 247 0 min 0,000 mm 0,0 UV-I 0 W/m 2,7 C -3,4 C 22,5 km/h (4 Bft) 95,65 %
21.12.2017 18:45 3,4 C 3,9 C 95 % 1032,6 hPa 0,0 l/m 14,5 km/h (3 Bft) W-SW 247 0 min 0,000 mm 0,0 UV-I 0 W/m 2,7 C -2,6 C 22,5 km/h (4 Bft) 95,65 %
21.12.2017 18:46 3,3 C 3,9 C 95 % 1032,6 hPa 0,2 l/m 12,9 km/h (3 Bft) W-SW 247 0 min 0,000 mm 0,0 UV-I 0 W/m 2,6 C -1,8 C 20,9 km/h (4 Bft) 95,65 %
21.12.2017 18:47 3,3 C 3,9 C 95 % 1032,6 hPa 0,0 l/m 12,9 km/h (3 Bft) W-SW 247 0 min 0,000 mm 0,0 UV-I 0 W/m 2,6 C -1,8 C 19,3 km/h (3 Bft) 95,65 %
21.12.2017 18:48 3,3 C 3,9 C 95 % 1032,6 hPa 0,0 l/m 11,3 km/h (2 Bft) W-SW 247 0 min 0,000 mm 0,0 UV-I 0 W/m 2,6 C -0,7 C 16,1 km/h (3 Bft) 100,00 %
21.12.2017 18:49 3,3 C 3,9 C 95 % 1032,6 hPa 0,0 l/m 12,9 km/h (3 Bft) SW 225 0 min 0,000 mm 0,0 UV-I 0 W/m 2,6 C -1,8 C 19,3 km/h (3 Bft) 95,65 %
21.12.2017 18:50 3,3 C 3,9 C 95 % 1032,6 hPa 0,2 l/m 14,5 km/h (3 Bft) W-SW 247 0 min 0,000 mm 0,0 UV-I 0 W/m 2,6 C -2,7 C 22,5 km/h (4 Bft) 100,00 %
21.12.2017 18:51 3,4 C 3,9 C 95 % 1032,6 hPa 0,0 l/m 20,9 km/h (4 Bft) W-SW 247 0 min 0,000 mm 0,0 UV-I 0 W/m 2,7 C -5,6 C 27,4 km/h (4 Bft) 86,96 %
21.12.2017 18:52 3,3 C 3,9 C 95 % 1032,6 hPa 0,0 l/m 17,7 km/h (3 Bft) W-SW 247 0 min 0,000 mm 0,0 UV-I 0 W/m 2,6 C -4,3 C 25,7 km/h (4 Bft) 100,00 %
21.12.2017 18:53 3,4 C 3,9 C 95 % 1032,6 hPa 0,0 l/m 17,7 km/h (3 Bft) W-SW 247 0 min 0,000 mm 0,0 UV-I 0 W/m 2,7 C -4,2 C 20,9 km/h (4 Bft) 91,30 %
21.12.2017 18:54 3,4 C 3,9 C 95 % 1032,6 hPa 0,0 l/m 14,5 km/h (3 Bft) W-SW 247 0 min 0,000 mm 0,0 UV-I 0 W/m 2,7 C -2,6 C 19,3 km/h (3 Bft) 95,65 %
21.12.2017 18:55 3,4 C 3,9 C 95 % 1032,6 hPa 0,0 l/m 12,9 km/h (3 Bft) W 270 0 min 0,000 mm 0,0 UV-I 0 W/m 2,7 C -1,7 C 17,7 km/h (3 Bft) 100,00 %
21.12.2017 18:56 3,4 C 3,9 C 95 % 1032,6 hPa 0,2 l/m 14,5 km/h (3 Bft) W-SW 247 0 min 0,000 mm 0,0 UV-I 0 W/m 2,7 C -2,6 C 22,5 km/h (4 Bft) 95,65 %
21.12.2017 18:57 3,4 C 3,9 C 96 % 1032,6 hPa 0,0 l/m 11,3 km/h (2 Bft) SW 225 0 min 0,000 mm 0,0 UV-I 0 W/m 2,8 C -0,6 C 17,7 km/h (3 Bft) 100,00 %
21.12.2017 18:58 3,4 C 3,9 C 95 % 1032,6 hPa 0,0 l/m 16,1 km/h (3 Bft) W-SW 247 0 min 0,000 mm 0,0 UV-I 0 W/m 2,7 C -3,4 C 20,9 km/h (4 Bft) 91,30 %
21.12.2017 18:59 3,4 C 3,9 C 95 % 1032,6 hPa 0,0 l/m 14,5 km/h (3 Bft) SW 225 0 min 0,000 mm 0,0 UV-I 0 W/m 2,7 C -2,6 C 19,3 km/h (3 Bft) 100,00 %
21.12.2017 19:00 3,4 C 3,9 C 95 % 1032,7 hPa 0,0 l/m 16,1 km/h (3 Bft) W-SW 247 0 min 0,000 mm 0,0 UV-I 0 W/m 2,7 C -3,4 C 20,9 km/h (4 Bft) 91,30 %
21.12.2017 19:01 3,4 C 3,9 C 95 % 1032,6 hPa 0,0 l/m 12,9 km/h (3 Bft) W-SW 247 0 min 0,000 mm 0,0 UV-I 0 W/m 2,7 C -1,7 C 20,9 km/h (4 Bft) 91,30 %
21.12.2017 19:02 3,4 C 3,9 C 95 % 1032,6 hPa 0,2 l/m 16,1 km/h (3 Bft) W-SW 247 0 min 0,000 mm 0,0 UV-I 0 W/m 2,7 C -3,4 C 24,1 km/h (4 Bft) 95,65 %
21.12.2017 19:03 3,4 C 3,9 C 95 % 1032,6 hPa 0,0 l/m 14,5 km/h (3 Bft) SW 225 0 min 0,000 mm 0,0 UV-I 0 W/m 2,7 C -2,6 C 19,3 km/h (3 Bft) 91,30 %
21.12.2017 19:04 3,4 C 3,9 C 95 % 1032,6 hPa 0,0 l/m 9,7 km/h (2 Bft) W-SW 247 0 min 0,000 mm 0,0 UV-I 0 W/m 2,7 C 0,5 C 12,9 km/h (3 Bft) 95,65 %
21.12.2017 19:05 3,4 C 3,9 C 96 % 1032,6 hPa 0,0 l/m 12,9 km/h (3 Bft) W-SW 247 0 min 0,000 mm 0,0 UV-I 0 W/m 2,8 C -1,7 C 19,3 km/h (3 Bft) 91,30 %
21.12.2017 19:06 3,4 C 3,9 C 96 % 1032,6 hPa 0,0 l/m 11,3 km/h (2 Bft) W-SW 247 0 min 0,000 mm 0,0 UV-I 0 W/m 2,8 C -0,6 C 19,3 km/h (3 Bft) 91,30 %
21.12.2017 19:07 3,4 C 3,9 C 96 % 1032,6 hPa 0,2 l/m 19,3 km/h (3 Bft) SW 225 0 min 0,000 mm 0,0 UV-I 0 W/m 2,8 C -4,9 C 24,1 km/h (4 Bft) 95,65 %
21.12.2017 19:08 3,4 C 3,9 C 96 % 1032,6 hPa 0,0 l/m 14,5 km/h (3 Bft) W-SW 247 0 min 0,000 mm 0,0 UV-I 0 W/m 2,8 C -2,6 C 24,1 km/h (4 Bft) 100,00 %
21.12.2017 19:09 3,4 C 3,9 C 96 % 1032,6 hPa 0,0 l/m 22,5 km/h (4 Bft) SW 225 0 min 0,000 mm 0,0 UV-I 0 W/m 2,8 C -6,2 C 27,4 km/h (4 Bft) 91,30 %
21.12.2017 19:10 3,4 C 3,9 C 96 % 1032,6 hPa 0,0 l/m 17,7 km/h (3 Bft) SW 225 0 min 0,000 mm 0,0 UV-I 0 W/m 2,8 C -4,2 C 24,1 km/h (4 Bft) 95,65 %
21.12.2017 19:11 3,4 C 3,9 C 96 % 1032,6 hPa 0,0 l/m 14,5 km/h (3 Bft) W-SW 247 0 min 0,000 mm 0,0 UV-I 0 W/m 2,8 C -2,6 C 22,5 km/h (4 Bft) 95,65 %
21.12.2017 19:12 3,4 C 3,9 C 96 % 1032,6 hPa 0,2 l/m 16,1 km/h (3 Bft) W-SW 247 0 min 0,000 mm 0,0 UV-I 0 W/m 2,8 C -3,4 C 24,1 km/h (4 Bft) 91,30 %
21.12.2017 19:13 3,4 C 3,9 C 96 % 1032,6 hPa 0,0 l/m 16,1 km/h (3 Bft) SW 225 0 min 0,000 mm 0,0 UV-I 0 W/m 2,8 C -3,4 C 19,3 km/h (3 Bft) 100,00 %
21.12.2017 19:14 3,4 C 3,9 C 96 % 1032,6 hPa 0,0 l/m 14,5 km/h (3 Bft) W-SW 247 0 min 0,000 mm 0,0 UV-I 0 W/m 2,8 C -2,6 C 20,9 km/h (4 Bft) 91,30 %
21.12.2017 19:15 3,4 C 3,9 C 96 % 1032,6 hPa 0,0 l/m 14,5 km/h (3 Bft) W-SW 247 0 min 0,000 mm 0,0 UV-I 0 W/m 2,8 C -2,6 C 22,5 km/h (4 Bft) 100,00 %
21.12.2017 19:16 3,4 C 3,9 C 96 % 1032,6 hPa 0,0 l/m 17,7 km/h (3 Bft) SW 225 0 min 0,000 mm 0,0 UV-I 0 W/m 2,8 C -4,2 C 25,7 km/h (4 Bft) 91,30 %
21.12.2017 19:17 3,4 C 3,9 C 96 % 1032,6 hPa 0,0 l/m 14,5 km/h (3 Bft) SW 225 0 min 0,000 mm 0,0 UV-I 0 W/m 2,8 C -2,6 C 20,9 km/h (4 Bft) 100,00 %
21.12.2017 19:18 3,4 C 3,9 C 96 % 1032,6 hPa 0,0 l/m 19,3 km/h (3 Bft) W-SW 247 0 min 0,000 mm 0,0 UV-I 0 W/m 2,8 C -4,9 C 29,0 km/h (5 Bft) 95,65 %
21.12.2017 19:19 3,4 C 3,9 C 96 % 1032,6 hPa 0,2 l/m 22,5 km/h (4 Bft) W-SW 247 0 min 0,000 mm 0,0 UV-I 0 W/m 2,8 C -6,2 C 27,4 km/h (4 Bft) 91,30 %
21.12.2017 19:20 3,4 C 3,9 C 96 % 1032,6 hPa 0,0 l/m 14,5 km/h (3 Bft) SW 225 0 min 0,000 mm 0,0 UV-I 0 W/m 2,8 C -2,6 C 20,9 km/h (4 Bft) 100,00 %
21.12.2017 19:21 3,4 C 3,9 C 96 % 1032,6 hPa 0,0 l/m 16,1 km/h (3 Bft) W-SW 247 0 min 0,000 mm 0,0 UV-I 0 W/m 2,8 C -3,4 C 22,5 km/h (4 Bft) 95,65 %
21.12.2017 19:22 3,4 C 3,9 C 96 % 1032,7 hPa 0,0 l/m 20,9 km/h (4 Bft) SW 225 0 min 0,000 mm 0,0 UV-I 0 W/m 2,8 C -5,6 C 30,6 km/h (5 Bft) 100,00 %
21.12.2017 19:23 3,5 C 3,9 C 96 % 1032,7 hPa 0,2 l/m 20,9 km/h (4 Bft) SW 225 0 min 0,000 mm 0,0 UV-I 0 W/m 2,9 C -5,5 C 25,7 km/h (4 Bft) 95,65 %
21.12.2017 19:24 3,5 C 3,9 C 96 % 1032,7 hPa 0,0 l/m 17,7 km/h (3 Bft) SW 225 0 min 0,000 mm 0,0 UV-I 0 W/m 2,9 C -4,1 C 27,4 km/h (4 Bft) 100,00 %
21.12.2017 19:25 3,5 C 3,9 C 96 % 1032,7 hPa 0,0 l/m 19,3 km/h (3 Bft) SW 225 0 min 0,000 mm 0,0 UV-I 0 W/m 2,9 C -4,8 C 24,1 km/h (4 Bft) 95,65 %
21.12.2017 19:26 3,5 C 3,9 C 96 % 1032,7 hPa 0,0 l/m 16,1 km/h (3 Bft) W-SW 247 0 min 0,000 mm 0,0 UV-I 0 W/m 2,9 C -3,3 C 20,9 km/h (4 Bft) 95,65 %
21.12.2017 19:27 3,5 C 3,9 C 95 % 1032,8 hPa 0,0 l/m 14,5 km/h (3 Bft) SW 225 0 min 0,000 mm 0,0 UV-I 0 W/m 2,8 C -2,5 C 19,3 km/h (3 Bft) 95,65 %
21.12.2017 19:28 3,5 C 3,9 C 95 % 1032,7 hPa 0,0 l/m 12,9 km/h (3 Bft) SW 225 0 min 0,000 mm 0,0 UV-I 0 W/m 2,8 C -1,5 C 24,1 km/h (4 Bft) 95,65 %
21.12.2017 19:29 3,5 C 3,9 C 95 % 1032,7 hPa 0,2 l/m 20,9 km/h (4 Bft) W-SW 247 0 min 0,000 mm 0,0 UV-I 0 W/m 2,8 C -5,5 C 30,6 km/h (5 Bft) 100,00 %
21.12.2017 19:30 3,5 C 3,9 C 96 % 1032,7 hPa 0,0 l/m 16,1 km/h (3 Bft) SW 225 0 min 0,000 mm 0,0 UV-I 0 W/m 2,9 C -3,3 C 25,7 km/h (4 Bft) 95,65 %
21.12.2017 19:31 3,4 C 3,9 C 96 % 1032,7 hPa 0,0 l/m 17,7 km/h (3 Bft) SW 225 0 min 0,000 mm 0,0 UV-I 0 W/m 2,8 C -4,2 C 25,7 km/h (4 Bft) 100,00 %
21.12.2017 19:32 3,4 C 3,9 C 96 % 1032,7 hPa 0,2 l/m 19,3 km/h (3 Bft) SW 225 0 min 0,000 mm 0,0 UV-I 0 W/m 2,8 C -4,9 C 29,0 km/h (5 Bft) 91,30 %
21.12.2017 19:33 3,4 C 3,9 C 96 % 1032,7 hPa 0,0 l/m 19,3 km/h (3 Bft) SW 225 0 min 0,000 mm 0,0 UV-I 0 W/m 2,8 C -4,9 C 30,6 km/h (5 Bft) 95,65 %
21.12.2017 19:34 3,4 C 3,9 C 96 % 1032,7 hPa 0,0 l/m 14,5 km/h (3 Bft) SW 225 0 min 0,000 mm 0,0 UV-I 0 W/m 2,8 C -2,6 C 20,9 km/h (4 Bft) 91,30 %
21.12.2017 19:35 3,5 C 3,9 C 96 % 1032,7 hPa 0,0 l/m 19,3 km/h (3 Bft) SW 225 0 min 0,000 mm 0,0 UV-I 0 W/m 2,9 C -4,8 C 25,7 km/h (4 Bft) 100,00 %
21.12.2017 19:36 3,5 C 3,9 C 96 % 1032,7 hPa 0,0 l/m 17,7 km/h (3 Bft) SW 225 0 min 0,000 mm 0,0 UV-I 0 W/m 2,9 C -4,1 C 25,7 km/h (4 Bft) 95,65 %
21.12.2017 19:37 3,4 C 3,9 C 95 % 1032,8 hPa 0,2 l/m 22,5 km/h (4 Bft) W-SW 247 0 min 0,000 mm 0,0 UV-I 0 W/m 2,7 C -6,2 C 35,4 km/h (5 Bft) 95,65 %
21.12.2017 19:38 3,4 C 3,9 C 95 % 1032,8 hPa 0,0 l/m 16,1 km/h (3 Bft) SW 225 0 min 0,000 mm 0,0 UV-I 0 W/m 2,7 C -3,4 C 25,7 km/h (4 Bft) 100,00 %
21.12.2017 19:39 3,5 C 3,9 C 95 % 1032,7 hPa 0,0 l/m 22,5 km/h (4 Bft) SW 225 0 min 0,000 mm 0,0 UV-I 0 W/m 2,8 C -6,1 C 32,2 km/h (5 Bft) 100,00 %
21.12.2017 19:40 3,5 C 3,9 C 95 % 1032,8 hPa 0,0 l/m 12,9 km/h (3 Bft) SW 225 0 min 0,000 mm 0,0 UV-I 0 W/m 2,8 C -1,5 C 19,3 km/h (3 Bft) 91,30 %
21.12.2017 19:41 3,5 C 3,9 C 95 % 1032,8 hPa 0,2 l/m 16,1 km/h (3 Bft) W-SW 247 0 min 0,000 mm 0,0 UV-I 0 W/m 2,8 C -3,3 C 27,4 km/h (4 Bft) 100,00 %
21.12.2017 19:42 3,5 C 3,9 C 95 % 1032,8 hPa 0,0 l/m 16,1 km/h (3 Bft) SW 225 0 min 0,000 mm 0,0 UV-I 0 W/m 2,8 C -3,3 C 27,4 km/h (4 Bft) 100,00 %
21.12.2017 19:43 3,4 C 3,9 C 95 % 1032,8 hPa 0,0 l/m 19,3 km/h (3 Bft) SW 225 0 min 0,000 mm 0,0 UV-I 0 W/m 2,7 C -4,9 C 27,4 km/h (4 Bft) 100,00 %
21.12.2017 19:44 3,4 C 3,9 C 95 % 1032,9 hPa 0,0 l/m 14,5 km/h (3 Bft) SW 225 0 min 0,000 mm 0,0 UV-I 0 W/m 2,7 C -2,6 C 20,9 km/h (4 Bft) 95,65 %
21.12.2017 19:45 3,4 C 3,9 C 95 % 1032,9 hPa 0,0 l/m 16,1 km/h (3 Bft) SW 225 0 min 0,000 mm 0,0 UV-I 0 W/m 2,7 C -3,4 C 24,1 km/h (4 Bft) 95,65 %
21.12.2017 19:46 3,4 C 3,9 C 95 % 1032,9 hPa 0,0 l/m 17,7 km/h (3 Bft) SW 225 0 min 0,000 mm 0,0 UV-I 0 W/m 2,7 C -4,2 C 25,7 km/h (4 Bft) 95,65 %
21.12.2017 19:47 3,4 C 3,9 C 95 % 1032,9 hPa 0,2 l/m 25,7 km/h (4 Bft) SW 225 0 min 0,000 mm 0,0 UV-I 0 W/m 2,7 C -7,3 C 35,4 km/h (5 Bft) 95,65 %
21.12.2017 19:48 3,4 C 3,9 C 95 % 1033,1 hPa 0,0 l/m 24,1 km/h (4 Bft) SW 225 0 min 0,000 mm 0,0 UV-I 0 W/m 2,7 C -6,8 C 29,0 km/h (5 Bft) 95,65 %
21.12.2017 19:49 3,4 C 3,9 C 95 % 1033,0 hPa 0,0 l/m 20,9 km/h (4 Bft) SW 225 0 min 0,000 mm 0,0 UV-I 0 W/m 2,7 C -5,6 C 27,4 km/h (4 Bft) 100,00 %
21.12.2017 19:50 3,4 C 3,9 C 95 % 1033,0 hPa 0,0 l/m 16,1 km/h (3 Bft) SW 225 0 min 0,000 mm 0,0 UV-I 0 W/m 2,7 C -3,4 C 24,1 km/h (4 Bft) 100,00 %
21.12.2017 19:51 3,4 C 3,9 C 95 % 1032,9 hPa 0,0 l/m 19,3 km/h (3 Bft) SW 225 0 min 0,000 mm 0,0 UV-I 0 W/m 2,7 C -4,9 C 32,2 km/h (5 Bft) 100,00 %
21.12.2017 19:52 3,4 C 3,9 C 95 % 1032,9 hPa 0,0 l/m 14,5 km/h (3 Bft) W-SW 247 0 min 0,000 mm 0,0 UV-I 0 W/m 2,7 C -2,6 C 17,7 km/h (3 Bft) 100,00 %
21.12.2017 19:53 3,4 C 3,9 C 95 % 1032,9 hPa 0,2 l/m 16,1 km/h (3 Bft) SW 225 0 min 0,000 mm 0,0 UV-I 0 W/m 2,7 C -3,4 C 27,4 km/h (4 Bft) 100,00 %
21.12.2017 19:54 3,4 C 3,9 C 95 % 1033,0 hPa 0,0 l/m 16,1 km/h (3 Bft) W-SW 247 0 min 0,000 mm 0,0 UV-I 0 W/m 2,7 C -3,4 C 24,1 km/h (4 Bft) 95,65 %
21.12.2017 19:55 3,4 C 3,9 C 95 % 1033,0 hPa 0,0 l/m 14,5 km/h (3 Bft) SW 225 0 min 0,000 mm 0,0 UV-I 0 W/m 2,7 C -2,6 C 17,7 km/h (3 Bft) 100,00 %
21.12.2017 19:56 3,4 C 3,9 C 95 % 1033,1 hPa 0,0 l/m 14,5 km/h (3 Bft) W-SW 247 0 min 0,000 mm 0,0 UV-I 0 W/m 2,7 C -2,6 C 19,3 km/h (3 Bft) 100,00 %
21.12.2017 19:57 3,4 C 3,9 C 95 % 1033,1 hPa 0,0 l/m 19,3 km/h (3 Bft) W-SW 247 0 min 0,000 mm 0,0 UV-I 0 W/m 2,7 C -4,9 C 24,1 km/h (4 Bft) 100,00 %
21.12.2017 19:58 3,4 C 3,9 C 95 % 1033,1 hPa 0,0 l/m 14,5 km/h (3 Bft) W-SW 247 0 min 0,000 mm 0,0 UV-I 0 W/m 2,7 C -2,6 C 20,9 km/h (4 Bft) 95,65 %
21.12.2017 19:59 3,3 C 3,9 C 95 % 1033,1 hPa 0,0 l/m 14,5 km/h (3 Bft) SW 225 0 min 0,000 mm 0,0 UV-I 0 W/m 2,6 C -2,7 C 20,9 km/h (4 Bft) 100,00 %
21.12.2017 20:00 3,3 C 3,9 C 95 % 1033,1 hPa 0,0 l/m 14,5 km/h (3 Bft) W-SW 247 0 min 0,000 mm 0,0 UV-I 0 W/m 2,6 C -2,7 C 22,5 km/h (4 Bft) 100,00 %
21.12.2017 20:01 3,3 C 3,9 C 95 % 1033,2 hPa 0,0 l/m 17,7 km/h (3 Bft) W-SW 247 0 min 0,000 mm 0,0 UV-I 0 W/m 2,6 C -4,3 C 22,5 km/h (4 Bft) 95,65 %
21.12.2017 20:02 3,3 C 3,9 C 95 % 1033,2 hPa 0,0 l/m 14,5 km/h (3 Bft) W-SW 247 0 min 0,000 mm 0,0 UV-I 0 W/m 2,6 C -2,7 C 19,3 km/h (3 Bft) 100,00 %
21.12.2017 20:03 3,3 C 3,9 C 95 % 1033,1 hPa 0,2 l/m 22,5 km/h (4 Bft) W 270 0 min 0,000 mm 0,0 UV-I 0 W/m 2,6 C -6,4 C 29,0 km/h (5 Bft) 100,00 %
21.12.2017 20:04 3,3 C 3,9 C 95 % 1033,2 hPa 0,0 l/m 14,5 km/h (3 Bft) W-SW 247 0 min 0,000 mm 0,0 UV-I 0 W/m 2,6 C -2,7 C 20,9 km/h (4 Bft) 100,00 %
21.12.2017 20:05 3,3 C 3,9 C 95 % 1033,2 hPa 0,0 l/m 16,1 km/h (3 Bft) W-SW 247 0 min 0,000 mm 0,0 UV-I 0 W/m 2,6 C -3,6 C 20,9 km/h (4 Bft) 100,00 %
21.12.2017 20:06 3,3 C 3,9 C 95 % 1033,2 hPa 0,0 l/m 16,1 km/h (3 Bft) W-SW 247 0 min 0,000 mm 0,0 UV-I 0 W/m 2,6 C -3,6 C 20,9 km/h (4 Bft) 100,00 %
21.12.2017 20:07 3,3 C 3,9 C 95 % 1033,2 hPa 0,0 l/m 16,1 km/h (3 Bft) W-SW 247 0 min 0,000 mm 0,0 UV-I 0 W/m 2,6 C -3,6 C 22,5 km/h (4 Bft) 100,00 %
21.12.2017 20:08 3,3 C 3,9 C 95 % 1033,2 hPa 0,0 l/m 19,3 km/h (3 Bft) SW 225 0 min 0,000 mm 0,0 UV-I 0 W/m 2,6 C -5,1 C 24,1 km/h (4 Bft) 95,65 %
21.12.2017 20:09 3,3 C 3,9 C 95 % 1033,2 hPa 0,2 l/m 12,9 km/h (3 Bft) SW 225 0 min 0,000 mm 0,0 UV-I 0 W/m 2,6 C -1,8 C 22,5 km/h (4 Bft) 100,00 %
21.12.2017 20:10 3,3 C 3,9 C 95 % 1033,2 hPa 0,0 l/m 16,1 km/h (3 Bft) SW 225 0 min 0,000 mm 0,0 UV-I 0 W/m 2,6 C -3,6 C 22,5 km/h (4 Bft) 95,65 %
21.12.2017 20:11 3,3 C 3,9 C 95 % 1033,2 hPa 0,0 l/m 14,5 km/h (3 Bft) W-SW 247 0 min 0,000 mm 0,0 UV-I 0 W/m 2,6 C -2,7 C 20,9 km/h (4 Bft) 100,00 %
21.12.2017 20:12 3,3 C 3,9 C 95 % 1033,2 hPa 0,0 l/m 17,7 km/h (3 Bft) W-SW 247 0 min 0,000 mm 0,0 UV-I 0 W/m 2,6 C -4,3 C 22,5 km/h (4 Bft) 95,65 %
21.12.2017 20:13 3,2 C 3,9 C 95 % 1033,2 hPa 0,0 l/m 17,7 km/h (3 Bft) SW 225 0 min 0,000 mm 0,0 UV-I 0 W/m 2,5 C -4,5 C 22,5 km/h (4 Bft) 95,65 %
21.12.2017 20:14 3,2 C 3,9 C 95 % 1033,2 hPa 0,0 l/m 12,9 km/h (3 Bft) W-SW 247 0 min 0,000 mm 0,0 UV-I 0 W/m 2,5 C -1,9 C 16,1 km/h (3 Bft) 100,00 %
21.12.2017 20:15 3,2 C 3,9 C 96 % 1033,2 hPa 0,0 l/m 11,3 km/h (2 Bft) SW 225 0 min 0,000 mm 0,0 UV-I 0 W/m 2,6 C -0,8 C 14,5 km/h (3 Bft) 91,30 %
21.12.2017 20:16 3,2 C 3,9 C 96 % 1033,2 hPa 0,2 l/m 11,3 km/h (2 Bft) SW 225 0 min 0,000 mm 0,0 UV-I 0 W/m 2,6 C -0,8 C 16,1 km/h (3 Bft) 100,00 %
21.12.2017 20:17 3,2 C 3,9 C 96 % 1033,2 hPa 0,0 l/m 14,5 km/h (3 Bft) SW 225 0 min 0,000 mm 0,0 UV-I 0 W/m 2,6 C -2,8 C 22,5 km/h (4 Bft) 95,65 %
21.12.2017 20:18 3,2 C 3,9 C 96 % 1033,2 hPa 0,0 l/m 16,1 km/h (3 Bft) SW 225 0 min 0,000 mm 0,0 UV-I 0 W/m 2,6 C -3,7 C 20,9 km/h (4 Bft) 100,00 %
21.12.2017 20:19 3,2 C 3,9 C 96 % 1033,2 hPa 0,0 l/m 17,7 km/h (3 Bft) SW 225 0 min 0,000 mm 0,0 UV-I 0 W/m 2,6 C -4,5 C 24,1 km/h (4 Bft) 91,30 %
21.12.2017 20:20 3,2 C 3,9 C 96 % 1033,2 hPa 0,0 l/m 16,1 km/h (3 Bft) W-SW 247 0 min 0,000 mm 0,0 UV-I 0 W/m 2,6 C -3,7 C 22,5 km/h (4 Bft) 100,00 %
21.12.2017 20:21 3,2 C 3,9 C 96 % 1033,2 hPa 0,0 l/m 14,5 km/h (3 Bft) W-SW 247 0 min 0,000 mm 0,0 UV-I 0 W/m 2,6 C -2,8 C 22,5 km/h (4 Bft) 95,65 %
21.12.2017 20:22 3,2 C 3,9 C 96 % 1033,2 hPa 0,2 l/m 19,3 km/h (3 Bft) SW 225 0 min 0,000 mm 0,0 UV-I 0 W/m 2,6 C -5,2 C 29,0 km/h (5 Bft) 100,00 %
21.12.2017 20:23 3,2 C 3,9 C 96 % 1033,2 hPa 0,0 l/m 19,3 km/h (3 Bft) SW 225 0 min 0,000 mm 0,0 UV-I 0 W/m 2,6 C -5,2 C 29,0 km/h (5 Bft) 86,96 %
21.12.2017 20:24 3,2 C 3,9 C 96 % 1033,3 hPa 0,0 l/m 17,7 km/h (3 Bft) SW 225 0 min 0,000 mm 0,0 UV-I 0 W/m 2,6 C -4,5 C 24,1 km/h (4 Bft) 100,00 %
21.12.2017 20:25 3,2 C 3,9 C 96 % 1033,3 hPa 0,0 l/m 14,5 km/h (3 Bft) SW 225 0 min 0,000 mm 0,0 UV-I 0 W/m 2,6 C -2,8 C 19,3 km/h (3 Bft) 91,30 %
21.12.2017 20:26 3,2 C 3,9 C 96 % 1033,2 hPa 0,0 l/m 16,1 km/h (3 Bft) SW 225 0 min 0,000 mm 0,0 UV-I 0 W/m 2,6 C -3,7 C 20,9 km/h (4 Bft) 100,00 %
21.12.2017 20:27 3,2 C 3,9 C 96 % 1033,3 hPa 0,0 l/m 12,9 km/h (3 Bft) W-SW 247 0 min 0,000 mm 0,0 UV-I 0 W/m 2,6 C -1,9 C 16,1 km/h (3 Bft) 95,65 %
21.12.2017 20:28 3,2 C 3,9 C 96 % 1033,2 hPa 0,0 l/m 11,3 km/h (2 Bft) SW 225 0 min 0,000 mm 0,0 UV-I 0 W/m 2,6 C -0,8 C 17,7 km/h (3 Bft) 100,00 %
21.12.2017 20:29 3,1 C 3,9 C 95 % 1033,2 hPa 0,0 l/m 16,1 km/h (3 Bft) W-SW 247 0 min 0,000 mm 0,0 UV-I 0 W/m 2,4 C -3,8 C 22,5 km/h (4 Bft) 95,65 %
21.12.2017 20:30 3,1 C 3,9 C 95 % 1033,2 hPa 0,0 l/m 14,5 km/h (3 Bft) W-SW 247 0 min 0,000 mm 0,0 UV-I 0 W/m 2,4 C -2,9 C 17,7 km/h (3 Bft) 91,30 %
21.12.2017 20:31 3,1 C 3,9 C 95 % 1033,3 hPa 0,0 l/m 16,1 km/h (3 Bft) W-SW 247 0 min 0,000 mm 0,0 UV-I 0 W/m 2,4 C -3,8 C 20,9 km/h (4 Bft) 95,65 %
21.12.2017 20:32 3,1 C 3,9 C 95 % 1033,4 hPa 0,2 l/m 12,9 km/h (3 Bft) W-SW 247 0 min 0,000 mm 0,0 UV-I 0 W/m 2,4 C -2,0 C 20,9 km/h (4 Bft) 100,00 %
21.12.2017 20:33 3,1 C 3,9 C 95 % 1033,4 hPa 0,0 l/m 14,5 km/h (3 Bft) W-SW 247 0 min 0,000 mm 0,0 UV-I 0 W/m 2,4 C -2,9 C 20,9 km/h (4 Bft) 100,00 %
21.12.2017 20:34 3,1 C 3,9 C 95 % 1033,4 hPa 0,0 l/m 17,7 km/h (3 Bft) SW 225 0 min 0,000 mm 0,0 UV-I 0 W/m 2,4 C -4,6 C 24,1 km/h (4 Bft) 100,00 %
21.12.2017 20:35 3,1 C 3,9 C 95 % 1033,4 hPa 0,0 l/m 14,5 km/h (3 Bft) W-SW 247 0 min 0,000 mm 0,0 UV-I 0 W/m 2,4 C -2,9 C 19,3 km/h (3 Bft) 95,65 %
21.12.2017 20:36 3,1 C 3,9 C 95 % 1033,5 hPa 0,0 l/m 14,5 km/h (3 Bft) W-SW 247 0 min 0,000 mm 0,0 UV-I 0 W/m 2,4 C -2,9 C 20,9 km/h (4 Bft) 100,00 %
21.12.2017 20:37 3,1 C 3,9 C 95 % 1033,5 hPa 0,0 l/m 14,5 km/h (3 Bft) SW 225 0 min 0,000 mm 0,0 UV-I 0 W/m 2,4 C -2,9 C 20,9 km/h (4 Bft) 95,65 %
21.12.2017 20:38 3,1 C 3,9 C 95 % 1033,4 hPa 0,2 l/m 14,5 km/h (3 Bft) W-SW 247 0 min 0,000 mm 0,0 UV-I 0 W/m 2,4 C -2,9 C 24,1 km/h (4 Bft) 100,00 %
21.12.2017 20:39 3,1 C 3,9 C 95 % 1033,4 hPa 0,0 l/m 14,5 km/h (3 Bft) W-SW 247 0 min 0,000 mm 0,0 UV-I 0 W/m 2,4 C -2,9 C 22,5 km/h (4 Bft) 95,65 %
21.12.2017 20:40 3,1 C 3,9 C 95 % 1033,4 hPa 0,0 l/m 14,5 km/h (3 Bft) W-SW 247 0 min 0,000 mm 0,0 UV-I 0 W/m 2,4 C -2,9 C 20,9 km/h (4 Bft) 95,65 %
21.12.2017 20:41 3,1 C 3,9 C 95 % 1033,4 hPa 0,0 l/m 14,5 km/h (3 Bft) SW 225 0 min 0,000 mm 0,0 UV-I 0 W/m 2,4 C -2,9 C 20,9 km/h (4 Bft) 95,65 %
21.12.2017 20:42 3,0 C 3,9 C 95 % 1033,4 hPa 0,0 l/m 12,9 km/h (3 Bft) W-SW 247 0 min 0,000 mm 0,0 UV-I 0 W/m 2,3 C -2,1 C 19,3 km/h (3 Bft) 100,00 %
21.12.2017 20:43 3,0 C 3,9 C 95 % 1033,4 hPa 0,0 l/m 14,5 km/h (3 Bft) W-SW 247 0 min 0,000 mm 0,0 UV-I 0 W/m 2,3 C -3,1 C 24,1 km/h (4 Bft) 100,00 %
21.12.2017 20:44 3,0 C 3,9 C 95 % 1033,4 hPa 0,0 l/m 16,1 km/h (3 Bft) SW 225 0 min 0,000 mm 0,0 UV-I 0 W/m 2,3 C -3,9 C 22,5 km/h (4 Bft) 95,65 %
21.12.2017 20:45 3,0 C 3,9 C 95 % 1033,4 hPa 0,0 l/m 14,5 km/h (3 Bft) W-SW 247 0 min 0,000 mm 0,0 UV-I 0 W/m 2,3 C -3,1 C 19,3 km/h (3 Bft) 95,65 %
21.12.2017 20:46 3,0 C 3,9 C 95 % 1033,4 hPa 0,0 l/m 12,9 km/h (3 Bft) W-SW 247 0 min 0,000 mm 0,0 UV-I 0 W/m 2,3 C -2,1 C 16,1 km/h (3 Bft) 100,00 %
21.12.2017 20:47 3,0 C 3,9 C 95 % 1033,4 hPa 0,0 l/m 16,1 km/h (3 Bft) W-SW 247 0 min 0,000 mm 0,0 UV-I 0 W/m 2,3 C -3,9 C 22,5 km/h (4 Bft) 100,00 %
21.12.2017 20:48 2,9 C 3,9 C 95 % 1033,5 hPa 0,2 l/m 16,1 km/h (3 Bft) W-SW 247 0 min 0,000 mm 0,0 UV-I 0 W/m 2,2 C -4,1 C 24,1 km/h (4 Bft) 100,00 %
21.12.2017 20:49 3,0 C 3,9 C 95 % 1033,5 hPa 0,0 l/m 12,9 km/h (3 Bft) SW 225 0 min 0,000 mm 0,0 UV-I 0 W/m 2,3 C -2,1 C 17,7 km/h (3 Bft) 100,00 %
21.12.2017 20:50 3,0 C 3,9 C 95 % 1033,6 hPa 0,0 l/m 16,1 km/h (3 Bft) W 270 0 min 0,000 mm 0,0 UV-I 0 W/m 2,3 C -3,9 C 25,7 km/h (4 Bft) 100,00 %
21.12.2017 20:51 2,9 C 3,9 C 95 % 1033,7 hPa 0,0 l/m 19,3 km/h (3 Bft) W-SW 247 0 min 0,000 mm 0,0 UV-I 0 W/m 2,2 C -5,6 C 25,7 km/h (4 Bft) 91,30 %
21.12.2017 20:52 2,9 C 3,9 C 96 % 1033,7 hPa 0,0 l/m 11,3 km/h (2 Bft) W-SW 247 0 min 0,000 mm 0,0 UV-I 0 W/m 2,3 C -1,2 C 14,5 km/h (3 Bft) 100,00 %
21.12.2017 20:53 2,9 C 3,9 C 96 % 1033,8 hPa 0,0 l/m 14,5 km/h (3 Bft) W-SW 247 0 min 0,000 mm 0,0 UV-I 0 W/m 2,3 C -3,2 C 20,9 km/h (4 Bft) 100,00 %
21.12.2017 20:54 2,9 C 3,9 C 96 % 1033,7 hPa 0,0 l/m 12,9 km/h (3 Bft) W-SW 247 0 min 0,000 mm 0,0 UV-I 0 W/m 2,3 C -2,2 C 17,7 km/h (3 Bft) 100,00 %
21.12.2017 20:55 2,9 C 3,9 C 96 % 1033,7 hPa 0,0 l/m 9,7 km/h (2 Bft) W-SW 247 0 min 0,000 mm 0,0 UV-I 0 W/m 2,3 C -0,0 C 12,9 km/h (3 Bft) 95,65 %
21.12.2017 20:56 2,9 C 3,9 C 96 % 1033,8 hPa 0,0 l/m 11,3 km/h (2 Bft) W-SW 247 0 min 0,000 mm 0,0 UV-I 0 W/m 2,3 C -1,2 C 17,7 km/h (3 Bft) 100,00 %
21.12.2017 20:57 2,9 C 3,9 C 96 % 1033,8 hPa 0,0 l/m 14,5 km/h (3 Bft) W-SW 247 0 min 0,000 mm 0,0 UV-I 0 W/m 2,3 C -3,2 C 22,5 km/h (4 Bft) 100,00 %
21.12.2017 20:58 2,9 C 3,9 C 96 % 1033,8 hPa 0,2 l/m 14,5 km/h (3 Bft) W-SW 247 0 min 0,000 mm 0,0 UV-I 0 W/m 2,3 C -3,2 C 20,9 km/h (4 Bft) 91,30 %
21.12.2017 20:59 2,9 C 3,9 C 96 % 1033,8 hPa 0,0 l/m 14,5 km/h (3 Bft) W-SW 247 0 min 0,000 mm 0,0 UV-I 0 W/m 2,3 C -3,2 C 22,5 km/h (4 Bft) 100,00 %
21.12.2017 21:00 2,9 C 3,9 C 96 % 1033,8 hPa 0,0 l/m 14,5 km/h (3 Bft) W-SW 247 0 min 0,000 mm 0,0 UV-I 0 W/m 2,3 C -3,2 C 19,3 km/h (3 Bft) 100,00 %
21.12.2017 21:01 2,9 C 3,9 C 96 % 1033,8 hPa 0,0 l/m 12,9 km/h (3 Bft) SW 225 0 min 0,000 mm 0,0 UV-I 0 W/m 2,3 C -2,2 C 22,5 km/h (4 Bft) 100,00 %
21.12.2017 21:02 2,9 C 3,9 C 96 % 1033,8 hPa 0,0 l/m 16,1 km/h (3 Bft) W-SW 247 0 min 0,000 mm 0,0 UV-I 0 W/m 2,3 C -4,1 C 20,9 km/h (4 Bft) 100,00 %
21.12.2017 21:03 2,9 C 3,9 C 96 % 1033,8 hPa 0,0 l/m 12,9 km/h (3 Bft) W-SW 247 0 min 0,000 mm 0,0 UV-I 0 W/m 2,3 C -2,2 C 17,7 km/h (3 Bft) 100,00 %
21.12.2017 21:04 2,9 C 3,9 C 96 % 1033,8 hPa 0,0 l/m 14,5 km/h (3 Bft) W-SW 247 0 min 0,000 mm 0,0 UV-I 0 W/m 2,3 C -3,2 C 20,9 km/h (4 Bft) 100,00 %
21.12.2017 21:05 2,8 C 3,9 C 96 % 1033,8 hPa 0,0 l/m 14,5 km/h (3 Bft) W-SW 247 0 min 0,000 mm 0,0 UV-I 0 W/m 2,2 C -3,3 C 17,7 km/h (3 Bft) 95,65 %
21.12.2017 21:06 2,9 C 3,9 C 96 % 1033,8 hPa 0,2 l/m 14,5 km/h (3 Bft) W-SW 247 0 min 0,000 mm 0,0 UV-I 0 W/m 2,3 C -3,2 C 19,3 km/h (3 Bft) 100,00 %
21.12.2017 21:07 2,9 C 3,9 C 96 % 1033,8 hPa 0,0 l/m 12,9 km/h (3 Bft) W-SW 247 0 min 0,000 mm 0,0 UV-I 0 W/m 2,3 C -2,2 C 19,3 km/h (3 Bft) 95,65 %
21.12.2017 21:08 2,8 C 3,9 C 96 % 1033,8 hPa 0,0 l/m 12,9 km/h (3 Bft) W-SW 247 0 min 0,000 mm 0,0 UV-I 0 W/m 2,2 C -2,4 C 17,7 km/h (3 Bft) 100,00 %
21.12.2017 21:09 2,8 C 3,9 C 96 % 1033,7 hPa 0,0 l/m 11,3 km/h (2 Bft) W-SW 247 0 min 0,000 mm 0,0 UV-I 0 W/m 2,2 C -1,3 C 17,7 km/h (3 Bft) 95,65 %
21.12.2017 21:10 2,8 C 3,9 C 96 % 1033,8 hPa 0,0 l/m 12,9 km/h (3 Bft) W-SW 247 0 min 0,000 mm 0,0 UV-I 0 W/m 2,2 C -2,4 C 16,1 km/h (3 Bft) 100,00 %
21.12.2017 21:11 2,8 C 3,9 C 96 % 1033,8 hPa 0,0 l/m 11,3 km/h (2 Bft) W-SW 247 0 min 0,000 mm 0,0 UV-I 0 W/m 2,2 C -1,3 C 19,3 km/h (3 Bft) 95,65 %
21.12.2017 21:12 2,8 C 3,9 C 96 % 1033,8 hPa 0,2 l/m 11,3 km/h (2 Bft) SW 225 0 min 0,000 mm 0,0 UV-I 0 W/m 2,2 C -1,3 C 19,3 km/h (3 Bft) 91,30 %
21.12.2017 21:13 2,8 C 3,9 C 96 % 1033,8 hPa 0,0 l/m 12,9 km/h (3 Bft) SW 225 0 min 0,000 mm 0,0 UV-I 0 W/m 2,2 C -2,4 C 16,1 km/h (3 Bft) 95,65 %
21.12.2017 21:14 2,8 C 3,9 C 96 % 1033,9 hPa 0,0 l/m 14,5 km/h (3 Bft) SW 225 0 min 0,000 mm 0,0 UV-I 0 W/m 2,2 C -3,3 C 20,9 km/h (4 Bft) 91,30 %
21.12.2017 21:15 2,8 C 3,9 C 96 % 1033,9 hPa 0,0 l/m 16,1 km/h (3 Bft) W-SW 247 0 min 0,000 mm 0,0 UV-I 0 W/m 2,2 C -4,2 C 24,1 km/h (4 Bft) 100,00 %
21.12.2017 21:16 2,8 C 3,9 C 96 % 1033,9 hPa 0,0 l/m 12,9 km/h (3 Bft) SW 225 0 min 0,000 mm 0,0 UV-I 0 W/m 2,2 C -2,4 C 19,3 km/h (3 Bft) 95,65 %
21.12.2017 21:17 2,8 C 3,9 C 96 % 1033,9 hPa 0,0 l/m 16,1 km/h (3 Bft) W-SW 247 0 min 0,000 mm 0,0 UV-I 0 W/m 2,2 C -4,2 C 22,5 km/h (4 Bft) 100,00 %
21.12.2017 21:18 2,8 C 3,9 C 96 % 1033,9 hPa 0,2 l/m 14,5 km/h (3 Bft) W-SW 247 0 min 0,000 mm 0,0 UV-I 0 W/m 2,2 C -3,3 C 17,7 km/h (3 Bft) 91,30 %
21.12.2017 21:19 2,8 C 3,9 C 96 % 1033,9 hPa 0,0 l/m 12,9 km/h (3 Bft) SW 225 0 min 0,000 mm 0,0 UV-I 0 W/m 2,2 C -2,4 C 19,3 km/h (3 Bft) 95,65 %
21.12.2017 21:20 2,8 C 3,9 C 96 % 1033,9 hPa 0,0 l/m 11,3 km/h (2 Bft) W-SW 247 0 min 0,000 mm 0,0 UV-I 0 W/m 2,2 C -1,3 C 16,1 km/h (3 Bft) 95,65 %
21.12.2017 21:21 2,8 C 3,9 C 96 % 1033,9 hPa 0,0 l/m 12,9 km/h (3 Bft) W-SW 247 0 min 0,000 mm 0,0 UV-I 0 W/m 2,2 C -2,4 C 20,9 km/h (4 Bft) 95,65 %
21.12.2017 21:22 2,8 C 3,9 C 96 % 1033,9 hPa 0,0 l/m 17,7 km/h (3 Bft) W-SW 247 0 min 0,000 mm 0,0 UV-I 0 W/m 2,2 C -5,0 C 25,7 km/h (4 Bft) 100,00 %
21.12.2017 21:23 2,8 C 3,9 C 96 % 1034,0 hPa 0,0 l/m 14,5 km/h (3 Bft) W-SW 247 0 min 0,000 mm 0,0 UV-I 0 W/m 2,2 C -3,3 C 20,9 km/h (4 Bft) 95,65 %
21.12.2017 21:24 2,8 C 3,9 C 96 % 1034,0 hPa 0,0 l/m 12,9 km/h (3 Bft) W-SW 247 0 min 0,000 mm 0,0 UV-I 0 W/m 2,2 C -2,4 C 19,3 km/h (3 Bft) 95,65 %
21.12.2017 21:25 2,8 C 3,9 C 96 % 1034,0 hPa 0,2 l/m 14,5 km/h (3 Bft) W 270 0 min 0,000 mm 0,0 UV-I 0 W/m 2,2 C -3,3 C 19,3 km/h (3 Bft) 95,65 %
21.12.2017 21:26 2,8 C 3,9 C 96 % 1034,1 hPa 0,0 l/m 16,1 km/h (3 Bft) W-SW 247 0 min 0,000 mm 0,0 UV-I 0 W/m 2,2 C -4,2 C 20,9 km/h (4 Bft) 91,30 %
21.12.2017 21:27 2,8 C 3,9 C 96 % 1034,1 hPa 0,0 l/m 14,5 km/h (3 Bft) W-SW 247 0 min 0,000 mm 0,0 UV-I 0 W/m 2,2 C -3,3 C 19,3 km/h (3 Bft) 95,65 %
21.12.2017 21:28 2,8 C 3,9 C 96 % 1034,1 hPa 0,0 l/m 14,5 km/h (3 Bft) W-SW 247 0 min 0,000 mm 0,0 UV-I 0 W/m 2,2 C -3,3 C 20,9 km/h (4 Bft) 100,00 %
21.12.2017 21:29 2,8 C 3,9 C 96 % 1034,1 hPa 0,0 l/m 11,3 km/h (2 Bft) W-SW 247 0 min 0,000 mm 0,0 UV-I 0 W/m 2,2 C -1,3 C 16,1 km/h (3 Bft) 95,65 %
21.12.2017 21:30 2,8 C 3,9 C 96 % 1034,1 hPa 0,0 l/m 16,1 km/h (3 Bft) W-SW 247 0 min 0,000 mm 0,0 UV-I 0 W/m 2,2 C -4,2 C 24,1 km/h (4 Bft) 91,30 %
21.12.2017 21:31 2,8 C 3,9 C 96 % 1034,1 hPa 0,0 l/m 12,9 km/h (3 Bft) SW 225 0 min 0,000 mm 0,0 UV-I 0 W/m 2,2 C -2,4 C 20,9 km/h (4 Bft) 95,65 %
21.12.2017 21:32 2,8 C 3,9 C 96 % 1034,1 hPa 0,0 l/m 14,5 km/h (3 Bft) SW 225 0 min 0,000 mm 0,0 UV-I 0 W/m 2,2 C -3,3 C 19,3 km/h (3 Bft) 95,65 %
21.12.2017 21:33 2,8 C 3,9 C 96 % 1034,1 hPa 0,0 l/m 16,1 km/h (3 Bft) SW 225 0 min 0,000 mm 0,0 UV-I 0 W/m 2,2 C -4,2 C 20,9 km/h (4 Bft) 95,65 %
21.12.2017 21:34 2,8 C 3,9 C 96 % 1034,1 hPa 0,0 l/m 16,1 km/h (3 Bft) SW 225 0 min 0,000 mm 0,0 UV-I 0 W/m 2,2 C -4,2 C 20,9 km/h (4 Bft) 86,96 %
21.12.2017 21:35 2,8 C 3,9 C 96 % 1034,1 hPa 0,2 l/m 14,5 km/h (3 Bft) SW 225 0 min 0,000 mm 0,0 UV-I 0 W/m 2,2 C -3,3 C 20,9 km/h (4 Bft) 100,00 %
21.12.2017 21:36 2,8 C 3,9 C 95 % 1034,1 hPa 0,0 l/m 16,1 km/h (3 Bft) W-SW 247 0 min 0,000 mm 0,0 UV-I 0 W/m 2,1 C -4,2 C 22,5 km/h (4 Bft) 91,30 %
21.12.2017 21:37 2,8 C 3,9 C 95 % 1034,1 hPa 0,0 l/m 16,1 km/h (3 Bft) SW 225 0 min 0,000 mm 0,0 UV-I 0 W/m 2,1 C -4,2 C 24,1 km/h (4 Bft) 95,65 %
21.12.2017 21:38 2,8 C 3,9 C 95 % 1034,0 hPa 0,0 l/m 17,7 km/h (3 Bft) SW 225 0 min 0,000 mm 0,0 UV-I 0 W/m 2,1 C -5,0 C 22,5 km/h (4 Bft) 95,65 %
21.12.2017 21:39 2,8 C 3,9 C 95 % 1034,0 hPa 0,0 l/m 16,1 km/h (3 Bft) W-SW 247 0 min 0,000 mm 0,0 UV-I 0 W/m 2,1 C -4,2 C 20,9 km/h (4 Bft) 95,65 %
21.12.2017 21:40 2,8 C 3,9 C 95 % 1034,0 hPa 0,0 l/m 14,5 km/h (3 Bft) SW 225 0 min 0,000 mm 0,0 UV-I 0 W/m 2,1 C -3,3 C 17,7 km/h (3 Bft) 91,30 %
21.12.2017 21:41 2,8 C 3,9 C 95 % 1034,0 hPa 0,0 l/m 14,5 km/h (3 Bft) SW 225 0 min 0,000 mm 0,0 UV-I 0 W/m 2,1 C -3,3 C 22,5 km/h (4 Bft) 91,30 %
21.12.2017 21:42 2,8 C 3,9 C 95 % 1033,9 hPa 0,0 l/m 14,5 km/h (3 Bft) SW 225 0 min 0,000 mm 0,0 UV-I 0 W/m 2,1 C -3,3 C 19,3 km/h (3 Bft) 95,65 %
21.12.2017 21:43 2,8 C 3,9 C 95 % 1033,9 hPa 0,0 l/m 17,7 km/h (3 Bft) W-SW 247 0 min 0,000 mm 0,0 UV-I 0 W/m 2,1 C -5,0 C 22,5 km/h (4 Bft) 95,65 %
21.12.2017 21:44 2,8 C 3,9 C 96 % 1033,9 hPa 0,0 l/m 16,1 km/h (3 Bft) SW 225 0 min 0,000 mm 0,0 UV-I 0 W/m 2,2 C -4,2 C 22,5 km/h (4 Bft) 95,65 %
21.12.2017 21:45 2,8 C 3,9 C 96 % 1033,9 hPa 0,2 l/m 16,1 km/h (3 Bft) SW 225 0 min 0,000 mm 0,0 UV-I 0 W/m 2,2 C -4,2 C 20,9 km/h (4 Bft) 100,00 %
21.12.2017 21:46 2,8 C 3,9 C 96 % 1033,9 hPa 0,0 l/m 17,7 km/h (3 Bft) SW 225 0 min 0,000 mm 0,0 UV-I 0 W/m 2,2 C -5,0 C 27,4 km/h (4 Bft) 95,65 %
21.12.2017 21:47 2,8 C 3,9 C 96 % 1034,0 hPa 0,0 l/m 16,1 km/h (3 Bft) SW 225 0 min 0,000 mm 0,0 UV-I 0 W/m 2,2 C -4,2 C 24,1 km/h (4 Bft) 91,30 %
21.12.2017 21:48 2,8 C 3,9 C 96 % 1034,0 hPa 0,0 l/m 17,7 km/h (3 Bft) W-SW 247 0 min 0,000 mm 0,0 UV-I 0 W/m 2,2 C -5,0 C 24,1 km/h (4 Bft) 95,65 %
21.12.2017 21:49 2,8 C 3,9 C 96 % 1034,1 hPa 0,0 l/m 16,1 km/h (3 Bft) SW 225 0 min 0,000 mm 0,0 UV-I 0 W/m 2,2 C -4,2 C 25,7 km/h (4 Bft) 95,65 %
21.12.2017 21:50 2,8 C 3,9 C 95 % 1034,0 hPa 0,0 l/m 12,9 km/h (3 Bft) W-SW 247 0 min 0,000 mm 0,0 UV-I 0 W/m 2,1 C -2,4 C 19,3 km/h (3 Bft) 95,65 %
21.12.2017 21:51 2,8 C 3,9 C 95 % 1034,1 hPa 0,0 l/m 17,7 km/h (3 Bft) SW 225 0 min 0,000 mm 0,0 UV-I 0 W/m 2,1 C -5,0 C 29,0 km/h (5 Bft) 95,65 %
21.12.2017 21:52 2,8 C 3,9 C 95 % 1034,1 hPa 0,0 l/m 14,5 km/h (3 Bft) W-SW 247 0 min 0,000 mm 0,0 UV-I 0 W/m 2,1 C -3,3 C 17,7 km/h (3 Bft) 100,00 %
21.12.2017 21:53 2,8 C 3,9 C 95 % 1034,1 hPa 0,0 l/m 14,5 km/h (3 Bft) SW 225 0 min 0,000 mm 0,0 UV-I 0 W/m 2,1 C -3,3 C 22,5 km/h (4 Bft) 95,65 %
21.12.2017 21:54 2,8 C 3,9 C 95 % 1034,0 hPa 0,0 l/m 17,7 km/h (3 Bft) W-SW 247 0 min 0,000 mm 0,0 UV-I 0 W/m 2,1 C -5,0 C 24,1 km/h (4 Bft) 95,65 %
21.12.2017 21:55 2,8 C 3,9 C 95 % 1034,1 hPa 0,0 l/m 12,9 km/h (3 Bft) SW 225 0 min 0,000 mm 0,0 UV-I 0 W/m 2,1 C -2,4 C 19,3 km/h (3 Bft) 95,65 %
21.12.2017 21:56 2,8 C 3,9 C 96 % 1034,0 hPa 0,2 l/m 14,5 km/h (3 Bft) SW 225 0 min 0,000 mm 0,0 UV-I 0 W/m 2,2 C -3,3 C 20,9 km/h (4 Bft) 100,00 %
21.12.2017 21:57 2,8 C 3,9 C 95 % 1034,0 hPa 0,0 l/m 14,5 km/h (3 Bft) SW 225 0 min 0,000 mm 0,0 UV-I 0 W/m 2,1 C -3,3 C 17,7 km/h (3 Bft) 100,00 %
21.12.2017 21:58 2,8 C 3,9 C 96 % 1034,0 hPa 0,0 l/m 17,7 km/h (3 Bft) SW 225 0 min 0,000 mm 0,0 UV-I 0 W/m 2,2 C -5,0 C 24,1 km/h (4 Bft) 95,65 %
21.12.2017 21:59 2,8 C 3,9 C 96 % 1034,0 hPa 0,0 l/m 16,1 km/h (3 Bft) SW 225 0 min 0,000 mm 0,0 UV-I 0 W/m 2,2 C -4,2 C 22,5 km/h (4 Bft) 95,65 %
21.12.2017 22:00 2,8 C 3,9 C 96 % 1034,0 hPa 0,0 l/m 16,1 km/h (3 Bft) W-SW 247 0 min 0,000 mm 0,0 UV-I 0 W/m 2,2 C -4,2 C 22,5 km/h (4 Bft) 100,00 %
21.12.2017 22:01 2,8 C 3,9 C 96 % 1034,1 hPa 0,0 l/m 16,1 km/h (3 Bft) SW 225 0 min 0,000 mm 0,0 UV-I 0 W/m 2,2 C -4,2 C 27,4 km/h (4 Bft) 91,30 %
21.12.2017 22:02 2,8 C 3,9 C 96 % 1034,1 hPa 0,0 l/m 16,1 km/h (3 Bft) SW 225 0 min 0,000 mm 0,0 UV-I 0 W/m 2,2 C -4,2 C 20,9 km/h (4 Bft) 100,00 %
21.12.2017 22:03 2,8 C 3,9 C 96 % 1034,1 hPa 0,0 l/m 14,5 km/h (3 Bft) SW 225 0 min 0,000 mm 0,0 UV-I 0 W/m 2,2 C -3,3 C 19,3 km/h (3 Bft) 100,00 %
21.12.2017 22:04 2,8 C 3,9 C 96 % 1034,1 hPa 0,0 l/m 14,5 km/h (3 Bft) SW 225 0 min 0,000 mm 0,0 UV-I 0 W/m 2,2 C -3,3 C 22,5 km/h (4 Bft) 100,00 %
21.12.2017 22:05 2,8 C 3,9 C 96 % 1034,1 hPa 0,0 l/m 12,9 km/h (3 Bft) SW 225 0 min 0,000 mm 0,0 UV-I 0 W/m 2,2 C -2,4 C 24,1 km/h (4 Bft) 100,00 %
21.12.2017 22:06 2,8 C 3,9 C 96 % 1034,1 hPa 0,2 l/m 16,1 km/h (3 Bft) SW 225 0 min 0,000 mm 0,0 UV-I 0 W/m 2,2 C -4,2 C 25,7 km/h (4 Bft) 100,00 %
21.12.2017 22:07 2,8 C 3,9 C 96 % 1034,1 hPa 0,0 l/m 20,9 km/h (4 Bft) SW 225 0 min 0,000 mm 0,0 UV-I 0 W/m 2,2 C -6,4 C 30,6 km/h (5 Bft) 95,65 %
21.12.2017 22:08 2,8 C 3,9 C 96 % 1034,1 hPa 0,0 l/m 17,7 km/h (3 Bft) SW 225 0 min 0,000 mm 0,0 UV-I 0 W/m 2,2 C -5,0 C 24,1 km/h (4 Bft) 95,65 %
21.12.2017 22:09 2,8 C 3,9 C 96 % 1034,1 hPa 0,0 l/m 20,9 km/h (4 Bft) SW 225 0 min 0,000 mm 0,0 UV-I 0 W/m 2,2 C -6,4 C 29,0 km/h (5 Bft) 95,65 %
21.12.2017 22:10 2,9 C 3,9 C 96 % 1034,2 hPa 0,0 l/m 20,9 km/h (4 Bft) SW 225 0 min 0,000 mm 0,0 UV-I 0 W/m 2,3 C -6,3 C 29,0 km/h (5 Bft) 100,00 %
21.12.2017 22:11 2,9 C 3,9 C 96 % 1034,2 hPa 0,0 l/m 19,3 km/h (3 Bft) SW 225 0 min 0,000 mm 0,0 UV-I 0 W/m 2,3 C -5,6 C 27,4 km/h (4 Bft) 95,65 %
21.12.2017 22:12 2,9 C 3,9 C 96 % 1034,2 hPa 0,0 l/m 19,3 km/h (3 Bft) SW 225 0 min 0,000 mm 0,0 UV-I 0 W/m 2,3 C -5,6 C 24,1 km/h (4 Bft) 100,00 %
21.12.2017 22:13 2,9 C 3,9 C 95 % 1034,2 hPa 0,0 l/m 17,7 km/h (3 Bft) SW 225 0 min 0,000 mm 0,0 UV-I 0 W/m 2,2 C -4,8 C 24,1 km/h (4 Bft) 95,65 %
21.12.2017 22:14 2,9 C 3,9 C 95 % 1034,1 hPa 0,0 l/m 19,3 km/h (3 Bft) SW 225 0 min 0,000 mm 0,0 UV-I 0 W/m 2,2 C -5,6 C 27,4 km/h (4 Bft) 100,00 %
21.12.2017 22:15 2,9 C 3,9 C 95 % 1034,1 hPa 0,2 l/m 14,5 km/h (3 Bft) SW 225 0 min 0,000 mm 0,0 UV-I 0 W/m 2,2 C -3,2 C 19,3 km/h (3 Bft) 95,65 %
21.12.2017 22:16 2,9 C 3,9 C 95 % 1034,0 hPa 0,0 l/m 17,7 km/h (3 Bft) SW 225 0 min 0,000 mm 0,0 UV-I 0 W/m 2,2 C -4,8 C 24,1 km/h (4 Bft) 100,00 %
21.12.2017 22:17 2,9 C 3,9 C 95 % 1034,0 hPa 0,0 l/m 19,3 km/h (3 Bft) SW 225 0 min 0,000 mm 0,0 UV-I 0 W/m 2,2 C -5,6 C 25,7 km/h (4 Bft) 100,00 %
21.12.2017 22:18 2,9 C 3,9 C 95 % 1033,9 hPa 0,2 l/m 17,7 km/h (3 Bft) W-SW 247 0 min 0,000 mm 0,0 UV-I 0 W/m 2,2 C -4,8 C 27,4 km/h (4 Bft) 95,65 %
21.12.2017 22:19 2,9 C 3,9 C 95 % 1033,9 hPa 0,0 l/m 14,5 km/h (3 Bft) SW 225 0 min 0,000 mm 0,0 UV-I 0 W/m 2,2 C -3,2 C 24,1 km/h (4 Bft) 100,00 %
21.12.2017 22:20 2,9 C 3,9 C 95 % 1033,9 hPa 0,0 l/m 19,3 km/h (3 Bft) SW 225 0 min 0,000 mm 0,0 UV-I 0 W/m 2,2 C -5,6 C 27,4 km/h (4 Bft) 100,00 %
21.12.2017 22:21 2,9 C 3,9 C 95 % 1033,9 hPa 0,0 l/m 16,1 km/h (3 Bft) W-SW 247 0 min 0,000 mm 0,0 UV-I 0 W/m 2,2 C -4,1 C 27,4 km/h (4 Bft) 100,00 %
21.12.2017 22:22 2,8 C 3,9 C 95 % 1033,9 hPa 0,0 l/m 20,9 km/h (4 Bft) SW 225 0 min 0,000 mm 0,0 UV-I 0 W/m 2,1 C -6,4 C 27,4 km/h (4 Bft) 91,30 %
21.12.2017 22:23 2,8 C 3,9 C 95 % 1033,9 hPa 0,0 l/m 17,7 km/h (3 Bft) SW 225 0 min 0,000 mm 0,0 UV-I 0 W/m 2,1 C -5,0 C 24,1 km/h (4 Bft) 100,00 %
21.12.2017 22:24 2,8 C 3,9 C 95 % 1034,0 hPa 0,0 l/m 16,1 km/h (3 Bft) SW 225 0 min 0,000 mm 0,0 UV-I 0 W/m 2,1 C -4,2 C 20,9 km/h (4 Bft) 95,65 %
21.12.2017 22:25 2,8 C 3,9 C 95 % 1034,0 hPa 0,0 l/m 20,9 km/h (4 Bft) SW 225 0 min 0,000 mm 0,0 UV-I 0 W/m 2,1 C -6,4 C 27,4 km/h (4 Bft) 100,00 %
21.12.2017 22:26 2,8 C 3,9 C 95 % 1034,0 hPa 0,0 l/m 16,1 km/h (3 Bft) W-SW 247 0 min 0,000 mm 0,0 UV-I 0 W/m 2,1 C -4,2 C 20,9 km/h (4 Bft) 100,00 %
21.12.2017 22:27 2,8 C 3,9 C 95 % 1034,1 hPa 0,2 l/m 17,7 km/h (3 Bft) SW 225 0 min 0,000 mm 0,0 UV-I 0 W/m 2,1 C -5,0 C 25,7 km/h (4 Bft) 100,00 %
21.12.2017 22:28 2,8 C 3,9 C 95 % 1034,1 hPa 0,0 l/m 14,5 km/h (3 Bft) W-SW 247 0 min 0,000 mm 0,0 UV-I 0 W/m 2,1 C -3,3 C 20,9 km/h (4 Bft) 95,65 %
21.12.2017 22:29 2,8 C 3,9 C 95 % 1034,1 hPa 0,0 l/m 14,5 km/h (3 Bft) W-SW 247 0 min 0,000 mm 0,0 UV-I 0 W/m 2,1 C -3,3 C 17,7 km/h (3 Bft) 95,65 %
21.12.2017 22:30 2,8 C 3,9 C 95 % 1034,0 hPa 0,0 l/m 16,1 km/h (3 Bft) SW 225 0 min 0,000 mm 0,0 UV-I 0 W/m 2,1 C -4,2 C 24,1 km/h (4 Bft) 100,00 %
21.12.2017 22:31 2,8 C 3,9 C 95 % 1034,0 hPa 0,0 l/m 14,5 km/h (3 Bft) W-SW 247 0 min 0,000 mm 0,0 UV-I 0 W/m 2,1 C -3,3 C 16,1 km/h (3 Bft) 95,65 %
21.12.2017 22:32 2,8 C 3,9 C 95 % 1034,0 hPa 0,0 l/m 17,7 km/h (3 Bft) SW 225 0 min 0,000 mm 0,0 UV-I 0 W/m 2,1 C -5,0 C 20,9 km/h (4 Bft) 100,00 %
21.12.2017 22:33 2,8 C 3,9 C 95 % 1034,0 hPa 0,0 l/m 17,7 km/h (3 Bft) SW 225 0 min 0,000 mm 0,0 UV-I 0 W/m 2,1 C -5,0 C 24,1 km/h (4 Bft) 100,00 %
21.12.2017 22:34 2,8 C 3,9 C 95 % 1034,0 hPa 0,0 l/m 14,5 km/h (3 Bft) W-SW 247 0 min 0,000 mm 0,0 UV-I 0 W/m 2,1 C -3,3 C 19,3 km/h (3 Bft) 100,00 %
21.12.2017 22:35 2,8 C 3,9 C 95 % 1034,1 hPa 0,0 l/m 14,5 km/h (3 Bft) W-SW 247 0 min 0,000 mm 0,0 UV-I 0 W/m 2,1 C -3,3 C 25,7 km/h (4 Bft) 100,00 %
21.12.2017 22:36 2,8 C 3,9 C 95 % 1034,1 hPa 0,0 l/m 12,9 km/h (3 Bft) SW 225 0 min 0,000 mm 0,0 UV-I 0 W/m 2,1 C -2,4 C 19,3 km/h (3 Bft) 95,65 %
21.12.2017 22:37 2,8 C 3,9 C 95 % 1034,1 hPa 0,0 l/m 16,1 km/h (3 Bft) W-SW 247 0 min 0,000 mm 0,0 UV-I 0 W/m 2,1 C -4,2 C 19,3 km/h (3 Bft) 100,00 %
21.12.2017 22:38 2,8 C 3,9 C 95 % 1034,1 hPa 0,0 l/m 16,1 km/h (3 Bft) SW 225 0 min 0,000 mm 0,0 UV-I 0 W/m 2,1 C -4,2 C 19,3 km/h (3 Bft) 100,00 %
21.12.2017 22:39 2,8 C 3,9 C 95 % 1034,1 hPa 0,0 l/m 16,1 km/h (3 Bft) W-SW 247 0 min 0,000 mm 0,0 UV-I 0 W/m 2,1 C -4,2 C 20,9 km/h (4 Bft) 100,00 %
21.12.2017 22:40 2,8 C 3,9 C 95 % 1034,1 hPa 0,0 l/m 14,5 km/h (3 Bft) W-SW 247 0 min 0,000 mm 0,0 UV-I 0 W/m 2,1 C -3,3 C 17,7 km/h (3 Bft) 100,00 %
21.12.2017 22:41 2,8 C 3,9 C 95 % 1034,1 hPa 0,0 l/m 16,1 km/h (3 Bft) W-SW 247 0 min 0,000 mm 0,0 UV-I 0 W/m 2,1 C -4,2 C 20,9 km/h (4 Bft) 100,00 %
21.12.2017 22:42 2,8 C 3,9 C 95 % 1034,1 hPa 0,0 l/m 17,7 km/h (3 Bft) SW 225 0 min 0,000 mm 0,0 UV-I 0 W/m 2,1 C -5,0 C 29,0 km/h (5 Bft) 100,00 %
21.12.2017 22:43 2,8 C 3,9 C 95 % 1034,0 hPa 0,2 l/m 16,1 km/h (3 Bft) SW 225 0 min 0,000 mm 0,0 UV-I 0 W/m 2,1 C -4,2 C 25,7 km/h (4 Bft) 95,65 %
21.12.2017 22:44 2,8 C 3,9 C 95 % 1034,0 hPa 0,0 l/m 12,9 km/h (3 Bft) SW 225 0 min 0,000 mm 0,0 UV-I 0 W/m 2,1 C -2,4 C 19,3 km/h (3 Bft) 100,00 %
21.12.2017 22:45 2,8 C 3,9 C 95 % 1034,1 hPa 0,0 l/m 17,7 km/h (3 Bft) SW 225 0 min 0,000 mm 0,0 UV-I 0 W/m 2,1 C -5,0 C 24,1 km/h (4 Bft) 95,65 %
21.12.2017 22:46 2,8 C 3,9 C 95 % 1034,1 hPa 0,0 l/m 20,9 km/h (4 Bft) SW 225 0 min 0,000 mm 0,0 UV-I 0 W/m 2,1 C -6,4 C 25,7 km/h (4 Bft) 100,00 %
21.12.2017 22:47 2,8 C 3,9 C 95 % 1034,1 hPa 0,0 l/m 17,7 km/h (3 Bft) SW 225 0 min 0,000 mm 0,0 UV-I 0 W/m 2,1 C -5,0 C 24,1 km/h (4 Bft) 91,30 %
21.12.2017 22:48 2,8 C 3,9 C 95 % 1034,1 hPa 0,0 l/m 19,3 km/h (3 Bft) SW 225 0 min 0,000 mm 0,0 UV-I 0 W/m 2,1 C -5,7 C 25,7 km/h (4 Bft) 100,00 %
21.12.2017 22:49 2,8 C 3,9 C 95 % 1034,1 hPa 0,0 l/m 20,9 km/h (4 Bft) SW 225 0 min 0,000 mm 0,0 UV-I 0 W/m 2,1 C -6,4 C 25,7 km/h (4 Bft) 100,00 %
21.12.2017 22:50 2,8 C 3,9 C 95 % 1034,1 hPa 0,0 l/m 16,1 km/h (3 Bft) W-SW 247 0 min 0,000 mm 0,0 UV-I 0 W/m 2,1 C -4,2 C 19,3 km/h (3 Bft) 95,65 %
21.12.2017 22:51 2,8 C 3,9 C 95 % 1034,1 hPa 0,0 l/m 19,3 km/h (3 Bft) W-SW 247 0 min 0,000 mm 0,0 UV-I 0 W/m 2,1 C -5,7 C 27,4 km/h (4 Bft) 95,65 %
21.12.2017 22:52 2,9 C 3,9 C 95 % 1034,1 hPa 0,0 l/m 16,1 km/h (3 Bft) W-SW 247 0 min 0,000 mm 0,0 UV-I 0 W/m 2,2 C -4,1 C 20,9 km/h (4 Bft) 100,00 %
21.12.2017 22:53 2,9 C 3,9 C 95 % 1034,1 hPa 0,0 l/m 17,7 km/h (3 Bft) SW 225 0 min 0,000 mm 0,0 UV-I 0 W/m 2,2 C -4,8 C 25,7 km/h (4 Bft) 100,00 %
21.12.2017 22:54 2,9 C 3,9 C 95 % 1034,1 hPa 0,0 l/m 16,1 km/h (3 Bft) W-SW 247 0 min 0,000 mm 0,0 UV-I 0 W/m 2,2 C -4,1 C 22,5 km/h (4 Bft) 100,00 %
21.12.2017 22:55 2,9 C 3,9 C 95 % 1034,1 hPa 0,0 l/m 14,5 km/h (3 Bft) W-SW 247 0 min 0,000 mm 0,0 UV-I 0 W/m 2,2 C -3,2 C 19,3 km/h (3 Bft) 100,00 %
21.12.2017 22:56 2,9 C 3,9 C 95 % 1034,1 hPa 0,0 l/m 12,9 km/h (3 Bft) SW 225 0 min 0,000 mm 0,0 UV-I 0 W/m 2,2 C -2,2 C 17,7 km/h (3 Bft) 100,00 %
21.12.2017 22:57 2,9 C 3,9 C 95 % 1034,1 hPa 0,0 l/m 19,3 km/h (3 Bft) SW 225 0 min 0,000 mm 0,0 UV-I 0 W/m 2,2 C -5,6 C 25,7 km/h (4 Bft) 95,65 %
21.12.2017 22:58 2,9 C 3,9 C 95 % 1034,1 hPa 0,0 l/m 19,3 km/h (3 Bft) SW 225 0 min 0,000 mm 0,0 UV-I 0 W/m 2,2 C -5,6 C 25,7 km/h (4 Bft) 95,65 %
21.12.2017 22:59 2,9 C 3,9 C 95 % 1034,2 hPa 0,0 l/m 19,3 km/h (3 Bft) SW 225 0 min 0,000 mm 0,0 UV-I 0 W/m 2,2 C -5,6 C 25,7 km/h (4 Bft) 95,65 %
21.12.2017 23:00 2,9 C 3,9 C 95 % 1034,1 hPa 0,0 l/m 17,7 km/h (3 Bft) SW 225 0 min 0,000 mm 0,0 UV-I 0 W/m 2,2 C -4,8 C 22,5 km/h (4 Bft) 100,00 %
21.12.2017 23:01 2,9 C 3,9 C 95 % 1034,1 hPa 0,0 l/m 16,1 km/h (3 Bft) SW 225 0 min 0,000 mm 0,0 UV-I 0 W/m 2,2 C -4,1 C 24,1 km/h (4 Bft) 95,65 %
21.12.2017 23:02 2,9 C 3,9 C 95 % 1034,1 hPa 0,0 l/m 19,3 km/h (3 Bft) W-SW 247 0 min 0,000 mm 0,0 UV-I 0 W/m 2,2 C -5,6 C 24,1 km/h (4 Bft) 95,65 %
21.12.2017 23:03 2,9 C 3,9 C 95 % 1034,1 hPa 0,0 l/m 17,7 km/h (3 Bft) W-SW 247 0 min 0,000 mm 0,0 UV-I 0 W/m 2,2 C -4,8 C 24,1 km/h (4 Bft) 95,65 %
21.12.2017 23:04 2,9 C 3,9 C 95 % 1034,1 hPa 0,0 l/m 16,1 km/h (3 Bft) SW 225 0 min 0,000 mm 0,0 UV-I 0 W/m 2,2 C -4,1 C 25,7 km/h (4 Bft) 91,30 %
21.12.2017 23:05 2,9 C 3,9 C 95 % 1034,2 hPa 0,0 l/m 17,7 km/h (3 Bft) SW 225 0 min 0,000 mm 0,0 UV-I 0 W/m 2,2 C -4,8 C 22,5 km/h (4 Bft) 91,30 %
21.12.2017 23:06 2,9 C 3,9 C 95 % 1034,1 hPa 0,0 l/m 19,3 km/h (3 Bft) SW 225 0 min 0,000 mm 0,0 UV-I 0 W/m 2,2 C -5,6 C 29,0 km/h (5 Bft) 100,00 %
21.12.2017 23:07 2,9 C 3,9 C 95 % 1034,2 hPa 0,0 l/m 17,7 km/h (3 Bft) SW 225 0 min 0,000 mm 0,0 UV-I 0 W/m 2,2 C -4,8 C 25,7 km/h (4 Bft) 95,65 %
21.12.2017 23:08 2,9 C 3,9 C 95 % 1034,2 hPa 0,0 l/m 17,7 km/h (3 Bft) SW 225 0 min 0,000 mm 0,0 UV-I 0 W/m 2,2 C -4,8 C 22,5 km/h (4 Bft) 95,65 %
21.12.2017 23:09 2,9 C 3,9 C 95 % 1034,2 hPa 0,0 l/m 14,5 km/h (3 Bft) SW 225 0 min 0,000 mm 0,0 UV-I 0 W/m 2,2 C -3,2 C 20,9 km/h (4 Bft) 95,65 %
21.12.2017 23:10 2,9 C 3,9 C 95 % 1034,3 hPa 0,0 l/m 12,9 km/h (3 Bft) SW 225 0 min 0,000 mm 0,0 UV-I 0 W/m 2,2 C -2,2 C 20,9 km/h (4 Bft) 95,65 %
21.12.2017 23:11 2,9 C 3,9 C 95 % 1034,3 hPa 0,0 l/m 20,9 km/h (4 Bft) SW 225 0 min 0,000 mm 0,0 UV-I 0 W/m 2,2 C -6,3 C 24,1 km/h (4 Bft) 95,65 %
21.12.2017 23:12 2,9 C 3,9 C 95 % 1034,3 hPa 0,0 l/m 20,9 km/h (4 Bft) W-SW 247 0 min 0,000 mm 0,0 UV-I 0 W/m 2,2 C -6,3 C 27,4 km/h (4 Bft) 91,30 %
21.12.2017 23:13 2,9 C 3,9 C 95 % 1034,2 hPa 0,0 l/m 14,5 km/h (3 Bft) W-SW 247 0 min 0,000 mm 0,0 UV-I 0 W/m 2,2 C -3,2 C 20,9 km/h (4 Bft) 95,65 %
21.12.2017 23:14 2,9 C 3,9 C 95 % 1034,3 hPa 0,0 l/m 14,5 km/h (3 Bft) SW 225 0 min 0,000 mm 0,0 UV-I 0 W/m 2,2 C -3,2 C 20,9 km/h (4 Bft) 91,30 %
21.12.2017 23:15 2,9 C 3,9 C 95 % 1034,2 hPa 0,0 l/m 16,1 km/h (3 Bft) W-SW 247 0 min 0,000 mm 0,0 UV-I 0 W/m 2,2 C -4,1 C 22,5 km/h (4 Bft) 100,00 %
21.12.2017 23:16 2,9 C 3,9 C 95 % 1034,3 hPa 0,0 l/m 19,3 km/h (3 Bft) SW 225 0 min 0,000 mm 0,0 UV-I 0 W/m 2,2 C -5,6 C 24,1 km/h (4 Bft) 91,30 %
21.12.2017 23:17 2,9 C 3,9 C 95 % 1034,3 hPa 0,0 l/m 16,1 km/h (3 Bft) SW 225 0 min 0,000 mm 0,0 UV-I 0 W/m 2,2 C -4,1 C 20,9 km/h (4 Bft) 100,00 %
21.12.2017 23:18 2,9 C 3,9 C 95 % 1034,2 hPa 0,0 l/m 16,1 km/h (3 Bft) SW 225 0 min 0,000 mm 0,0 UV-I 0 W/m 2,2 C -4,1 C 22,5 km/h (4 Bft) 86,96 %
21.12.2017 23:19 2,9 C 3,9 C 95 % 1034,2 hPa 0,0 l/m 16,1 km/h (3 Bft) SW 225 0 min 0,000 mm 0,0 UV-I 0 W/m 2,2 C -4,1 C 24,1 km/h (4 Bft) 95,65 %
21.12.2017 23:20 2,9 C 3,9 C 95 % 1034,3 hPa 0,0 l/m 12,9 km/h (3 Bft) SW 225 0 min 0,000 mm 0,0 UV-I 0 W/m 2,2 C -2,2 C 16,1 km/h (3 Bft) 91,30 %
21.12.2017 23:21 2,9 C 3,9 C 95 % 1034,2 hPa 0,0 l/m 17,7 km/h (3 Bft) SW 225 0 min 0,000 mm 0,0 UV-I 0 W/m 2,2 C -4,8 C 24,1 km/h (4 Bft) 95,65 %
21.12.2017 23:22 2,9 C 3,9 C 95 % 1034,1 hPa 0,0 l/m 17,7 km/h (3 Bft) W-SW 247 0 min 0,000 mm 0,0 UV-I 0 W/m 2,2 C -4,8 C 24,1 km/h (4 Bft) 95,65 %
21.12.2017 23:23 2,9 C 3,9 C 95 % 1034,1 hPa 0,0 l/m 19,3 km/h (3 Bft) SW 225 0 min 0,000 mm 0,0 UV-I 0 W/m 2,2 C -5,6 C 27,4 km/h (4 Bft) 95,65 %
21.12.2017 23:24 2,9 C 3,9 C 95 % 1034,0 hPa 0,0 l/m 22,5 km/h (4 Bft) W-SW 247 0 min 0,000 mm 0,0 UV-I 0 W/m 2,2 C -6,9 C 32,2 km/h (5 Bft) 95,65 %
21.12.2017 23:25 2,9 C 3,9 C 95 % 1034,0 hPa 0,0 l/m 19,3 km/h (3 Bft) SW 225 0 min 0,000 mm 0,0 UV-I 0 W/m 2,2 C -5,6 C 24,1 km/h (4 Bft) 91,30 %
21.12.2017 23:26 2,9 C 3,9 C 95 % 1034,0 hPa 0,0 l/m 19,3 km/h (3 Bft) SW 225 0 min 0,000 mm 0,0 UV-I 0 W/m 2,2 C -5,6 C 29,0 km/h (5 Bft) 100,00 %
21.12.2017 23:27 2,9 C 3,9 C 95 % 1034,0 hPa 0,0 l/m 20,9 km/h (4 Bft) SW 225 0 min 0,000 mm 0,0 UV-I 0 W/m 2,2 C -6,3 C 29,0 km/h (5 Bft) 95,65 %
21.12.2017 23:28 2,9 C 3,9 C 95 % 1034,0 hPa 0,0 l/m 17,7 km/h (3 Bft) SW 225 0 min 0,000 mm 0,0 UV-I 0 W/m 2,2 C -4,8 C 27,4 km/h (4 Bft) 100,00 %
21.12.2017 23:29 2,9 C 3,9 C 95 % 1034,0 hPa 0,0 l/m 19,3 km/h (3 Bft) SW 225 0 min 0,000 mm 0,0 UV-I 0 W/m 2,2 C -5,6 C 27,4 km/h (4 Bft) 95,65 %
21.12.2017 23:30 2,9 C 3,9 C 95 % 1034,0 hPa 0,0 l/m 19,3 km/h (3 Bft) W-SW 247 0 min 0,000 mm 0,0 UV-I 0 W/m 2,2 C -5,6 C 27,4 km/h (4 Bft) 95,65 %
21.12.2017 23:31 2,9 C 3,9 C 95 % 1034,0 hPa 0,2 l/m 20,9 km/h (4 Bft) SW 225 0 min 0,000 mm 0,0 UV-I 0 W/m 2,2 C -6,3 C 24,1 km/h (4 Bft) 100,00 %
21.12.2017 23:32 2,9 C 3,9 C 95 % 1034,0 hPa 0,0 l/m 22,5 km/h (4 Bft) SW 225 0 min 0,000 mm 0,0 UV-I 0 W/m 2,2 C -6,9 C 32,2 km/h (5 Bft) 91,30 %
21.12.2017 23:33 2,9 C 3,9 C 95 % 1034,1 hPa 0,0 l/m 19,3 km/h (3 Bft) SW 225 0 min 0,000 mm 0,0 UV-I 0 W/m 2,2 C -5,6 C 29,0 km/h (5 Bft) 100,00 %
21.12.2017 23:34 2,9 C 3,9 C 95 % 1034,0 hPa 0,0 l/m 19,3 km/h (3 Bft) W-SW 247 0 min 0,000 mm 0,0 UV-I 0 W/m 2,2 C -5,6 C 24,1 km/h (4 Bft) 91,30 %
21.12.2017 23:35 2,9 C 3,9 C 95 % 1034,0 hPa 0,0 l/m 14,5 km/h (3 Bft) W-SW 247 0 min 0,000 mm 0,0 UV-I 0 W/m 2,2 C -3,2 C 24,1 km/h (4 Bft) 100,00 %
21.12.2017 23:36 2,9 C 3,9 C 95 % 1034,0 hPa 0,0 l/m 19,3 km/h (3 Bft) SW 225 0 min 0,000 mm 0,0 UV-I 0 W/m 2,2 C -5,6 C 25,7 km/h (4 Bft) 95,65 %
21.12.2017 23:37 2,9 C 3,9 C 95 % 1034,0 hPa 0,0 l/m 20,9 km/h (4 Bft) SW 225 0 min 0,000 mm 0,0 UV-I 0 W/m 2,2 C -6,3 C 29,0 km/h (5 Bft) 100,00 %
21.12.2017 23:38 2,9 C 3,9 C 95 % 1034,1 hPa 0,0 l/m 22,5 km/h (4 Bft) SW 225 0 min 0,000 mm 0,0 UV-I 0 W/m 2,2 C -6,9 C 32,2 km/h (5 Bft) 95,65 %
21.12.2017 23:39 2,9 C 3,9 C 95 % 1034,1 hPa 0,0 l/m 22,5 km/h (4 Bft) SW 225 0 min 0,000 mm 0,0 UV-I 0 W/m 2,2 C -6,9 C 30,6 km/h (5 Bft) 91,30 %
21.12.2017 23:40 2,9 C 3,9 C 95 % 1034,1 hPa 0,0 l/m 22,5 km/h (4 Bft) W-SW 247 0 min 0,000 mm 0,0 UV-I 0 W/m 2,2 C -6,9 C 27,4 km/h (4 Bft) 100,00 %
21.12.2017 23:41 2,9 C 3,9 C 94 % 1034,1 hPa 0,0 l/m 19,3 km/h (3 Bft) W-SW 247 0 min 0,000 mm 0,0 UV-I 0 W/m 2,0 C -5,6 C 24,1 km/h (4 Bft) 86,96 %
21.12.2017 23:42 3,0 C 3,9 C 94 % 1034,0 hPa 0,0 l/m 17,7 km/h (3 Bft) SW 225 0 min 0,000 mm 0,0 UV-I 0 W/m 2,1 C -4,7 C 27,4 km/h (4 Bft) 100,00 %
21.12.2017 23:43 3,0 C 3,9 C 94 % 1034,0 hPa 0,0 l/m 20,9 km/h (4 Bft) SW 225 0 min 0,000 mm 0,0 UV-I 0 W/m 2,1 C -6,1 C 27,4 km/h (4 Bft) 95,65 %
21.12.2017 23:44 3,0 C 3,9 C 94 % 1034,1 hPa 0,0 l/m 22,5 km/h (4 Bft) SW 225 0 min 0,000 mm 0,0 UV-I 0 W/m 2,1 C -6,8 C 32,2 km/h (5 Bft) 100,00 %
21.12.2017 23:45 3,0 C 3,9 C 94 % 1034,0 hPa 0,0 l/m 22,5 km/h (4 Bft) W-SW 247 0 min 0,000 mm 0,0 UV-I 0 W/m 2,1 C -6,8 C 32,2 km/h (5 Bft) 95,65 %
21.12.2017 23:46 3,0 C 3,9 C 94 % 1034,1 hPa 0,0 l/m 19,3 km/h (3 Bft) W-SW 247 0 min 0,000 mm 0,0 UV-I 0 W/m 2,1 C -5,5 C 24,1 km/h (4 Bft) 91,30 %
21.12.2017 23:47 3,0 C 3,9 C 94 % 1034,1 hPa 0,2 l/m 20,9 km/h (4 Bft) SW 225 0 min 0,000 mm 0,0 UV-I 0 W/m 2,1 C -6,1 C 33,8 km/h (5 Bft) 91,30 %
21.12.2017 23:48 3,0 C 3,9 C 94 % 1034,1 hPa 0,0 l/m 20,9 km/h (4 Bft) SW 225 0 min 0,000 mm 0,0 UV-I 0 W/m 2,1 C -6,1 C 24,1 km/h (4 Bft) 95,65 %
21.12.2017 23:49 3,0 C 3,9 C 94 % 1034,1 hPa 0,0 l/m 17,7 km/h (3 Bft) W-SW 247 0 min 0,000 mm 0,0 UV-I 0 W/m 2,1 C -4,7 C 25,7 km/h (4 Bft) 95,65 %
21.12.2017 23:50 3,0 C 3,9 C 94 % 1034,1 hPa 0,0 l/m 14,5 km/h (3 Bft) W-SW 247 0 min 0,000 mm 0,0 UV-I 0 W/m 2,1 C -3,1 C 20,9 km/h (4 Bft) 95,65 %
21.12.2017 23:51 3,0 C 3,9 C 94 % 1034,1 hPa 0,0 l/m 20,9 km/h (4 Bft) SW 225 0 min 0,000 mm 0,0 UV-I 0 W/m 2,1 C -6,1 C 29,0 km/h (5 Bft) 100,00 %
21.12.2017 23:52 3,0 C 3,9 C 94 % 1034,1 hPa 0,0 l/m 24,1 km/h (4 Bft) SW 225 0 min 0,000 mm 0,0 UV-I 0 W/m 2,1 C -7,3 C 30,6 km/h (5 Bft) 95,65 %
21.12.2017 23:53 3,0 C 3,9 C 94 % 1034,1 hPa 0,0 l/m 20,9 km/h (4 Bft) SW 225 0 min 0,000 mm 0,0 UV-I 0 W/m 2,1 C -6,1 C 33,8 km/h (5 Bft) 95,65 %
21.12.2017 23:54 3,0 C 3,9 C 94 % 1034,1 hPa 0,0 l/m 16,1 km/h (3 Bft) SW 225 0 min 0,000 mm 0,0 UV-I 0 W/m 2,1 C -3,9 C 22,5 km/h (4 Bft) 100,00 %
21.12.2017 23:55 3,0 C 3,9 C 94 % 1034,0 hPa 0,0 l/m 20,9 km/h (4 Bft) SW 225 0 min 0,000 mm 0,0 UV-I 0 W/m 2,1 C -6,1 C 30,6 km/h (5 Bft) 95,65 %
21.12.2017 23:56 3,0 C 3,9 C 94 % 1034,1 hPa 0,0 l/m 19,3 km/h (3 Bft) SW 225 0 min 0,000 mm 0,0 UV-I 0 W/m 2,1 C -5,5 C 29,0 km/h (5 Bft) 100,00 %
21.12.2017 23:57 3,0 C 3,9 C 94 % 1034,1 hPa 0,0 l/m 17,7 km/h (3 Bft) SW 225 0 min 0,000 mm 0,0 UV-I 0 W/m 2,1 C -4,7 C 25,7 km/h (4 Bft) 100,00 %
21.12.2017 23:58 3,0 C 3,9 C 95 % 1034,1 hPa 0,0 l/m 22,5 km/h (4 Bft) SW 225 0 min 0,000 mm 0,0 UV-I 0 W/m 2,3 C -6,8 C 27,4 km/h (4 Bft) 100,00 %
21.12.2017 23:59 3,0 C 3,9 C 95 % 1034,0 hPa 0,0 l/m 20,9 km/h (4 Bft) SW 225 0 min 0,000 mm 0,0 UV-I 0 W/m 2,3 C -6,1 C 25,7 km/h (4 Bft) 95,65 %
_ Min-Zeit 00:01 00:00 13:44 16:04 - 00:41 - - - - - - 07:34 09:42 00:41 12:32
Minimum _ 0,9 C 3,9 C 84 % 1032,2 hPa - 1,6 km/h (1 Bft) - - - - - - -0,4 C -9,8 C 3,2 km/h (1 Bft) 78,26 %
_ Max-Zeit 13:54 00:00 00:00 00:02 09:04 11:05 - - 08:14 11:00 00:00 10:44 19:23 13:36 10:44 00:00
Maximum _ 3,8 C 3,9 C 97 % 1035,3 hPa 0,2 l/m 25,7 km/h
W-SW (4 Bft)
- - 1 min 0,051 mm 0,0 UV-I 118 W/m 2,9 C 3,7 C 38,6 km/h
W (5 Bft)
100,00 %
Durchschnitt _ 2,3 C 3,9 C 92 % 1033,9 hPa #11,6 l/m 14,1 km/h (3 Bft) W-SW - #9 min. #0,276 mm 0,0 UV-I 39 W/m 1,2 C -3,4 C 20,0 km/h (4 Bft) 97,14 %